<
# Wetter Temperatur Luftdruck Luftfeuchtigkeit Sichtweite Windgeschwindigkeit Windrichtung Zeit
1 Clear 12 1019 79 10000 5.81 309 06:38 02.10.2022
2 Clouds 14 1016 81 10000 11.62 284 02:54 02.10.2022
3 Clouds 14 1015 78 10000 12.52 294 00:45 02.10.2022
4 Drizzle 14 1015 77 10000 12.07 298 23:42 01.10.2022
5 Clouds 14 1014 78 10000 11.62 302 22:31 01.10.2022
6 Clear 14 1013 73 10000 11.18 302 19:58 01.10.2022
7 Clouds 16 1012 69 10000 8.05 300 17:49 01.10.2022
8 Clouds 17 1013 65 10000 3.09 200 16:29 01.10.2022
9 Clouds 17 1012 73 10000 3.09 190 14:19 01.10.2022
10 Clouds 16 1014 77 10000 1.34 184 12:57 01.10.2022
11 Clouds 15 1013 79 10000 1.03 0 12:29 01.10.2022
12 Clouds 15 1015 78 10000 2.57 360 11:19 01.10.2022
13 Clouds 15 1015 81 10000 1.54 300 10:31 01.10.2022
14 Clouds 13 1015 85 10000 1.54 330 09:27 01.10.2022
15 Drizzle 13 1015 87 9000 3.09 290 08:41 01.10.2022
16 Clouds 12 1015 85 8000 1.03 0 03:59 01.10.2022
17 Clouds 12 1014 89 9000 2.57 100 03:28 01.10.2022
18 Clouds 13 1014 86 10000 3.13 112 23:33 30.09.2022
19 Rain 13 1013 85 10000 3.09 140 22:32 30.09.2022
20 Rain 14 1015 83 10000 2.68 338 21:22 30.09.2022
21 Clouds 14 1014 81 10000 2.06 120 20:43 30.09.2022
22 Clouds 14 1014 80 10000 2.06 120 19:32 30.09.2022
23 Clouds 15 1012 76 10000 2.06 350 17:27 30.09.2022
24 Clouds 15 1014 75 10000 4.63 330 15:32 30.09.2022
25 Clouds 13 1013 83 10000 6.26 329 13:29 30.09.2022
26 Clouds 12 1012 86 10000 6.71 328 11:57 30.09.2022
27 Clouds 11 1011 90 10000 7.15 310 10:23 30.09.2022
28 Clouds 11 1009 90 3600 3.09 340 08:23 30.09.2022
29 Drizzle 11 1006 86 10000 1.03 60 04:55 30.09.2022
30 Clouds 11 1007 80 10000 2.57 140 02:27 30.09.2022
31 Clouds 11 1006 78 10000 1.54 180 22:26 29.09.2022
32 Clouds 11 1006 77 10000 2.06 180 21:26 29.09.2022
33 Clouds 12 1004 77 10000 1.54 160 20:35 29.09.2022
34 Clouds 14 1005 68 10000 1.54 60 18:32 29.09.2022
35 Clouds 15 1005 64 10000 1.54 60 17:22 29.09.2022
36 Clouds 15 1003 62 10000 2.06 40 16:28 29.09.2022
37 Clouds 15 1003 63 10000 1.54 210 15:35 29.09.2022
38 Clouds 15 1004 63 10000 1.54 30 14:25 29.09.2022
39 Rain 11 1003 84 10000 3.09 320 09:45 29.09.2022
40 Clear 10 1003 84 10000 6.26 300 06:45 29.09.2022
41 Rain 11 1002 85 10000 3.6 320 02:47 29.09.2022
42 Clear 12 1002 76 10000 5.81 288 23:54 28.09.2022
43 Clear 13 1001 72 10000 7.6 307 22:32 28.09.2022
44 Clear 14 1000 70 10000 6.26 313 21:29 28.09.2022
45 Clouds 14 1001 68 10000 5.36 339 20:22 28.09.2022
46 Clouds 16 1000 63 10000 4.47 307 18:20 28.09.2022
47 Clouds 18 999 60 10000 10.29 180 14:51 28.09.2022
48 Clouds 17 999 63 10000 11.32 170 12:49 28.09.2022
49 Clouds 14 1001 69 10000 3.13 90 10:51 28.09.2022
50 Clear 11 1001 79 10000 3.09 170 08:33 28.09.2022
51 Clear 9 1003 80 10000 3.13 155 06:50 28.09.2022
52 Clear 10 1003 76 10000 6.17 290 01:56 28.09.2022
53 Clear 10 1004 74 10000 5.66 290 01:31 28.09.2022
54 Clear 10 1004 74 10000 5.66 290 01:31 28.09.2022
55 Clear 10 1003 75 10000 2.24 296 23:20 27.09.2022
56 Clear 11 1003 74 10000 5.36 288 21:42 27.09.2022
57 Clear 12 1003 70 10000 7.6 303 20:37 27.09.2022
58 Clouds 12 1003 72 10000 8.94 302 19:47 27.09.2022
59 Rain 13 1002 72 10000 10.73 284 18:37 27.09.2022
60 Rain 13 1002 73 10000 9.39 300 17:44 27.09.2022
61 Rain 14 1001 77 10000 5.14 300 15:31 27.09.2022
62 Rain 14 1001 78 10000 4.92 293 14:55 27.09.2022
63 Rain 13 1001 88 10000 3.6 320 12:42 27.09.2022
64 Rain 12 1001 90 8000 4.63 270 11:32 27.09.2022
65 Rain 12 1000 89 10000 1.54 110 08:49 27.09.2022
66 Clouds 11 1001 87 10000 1.34 173 06:39 27.09.2022
67 Clear 12 1004 85 10000 2.57 160 01:57 27.09.2022
68 Clear 13 1004 85 10000 2.57 160 01:29 27.09.2022
69 Clouds 13 1005 83 10000 3.09 210 23:26 26.09.2022
70 Clouds 14 1006 81 10000 3.09 200 22:38 26.09.2022
71 Clear 15 1006 74 10000 2.06 150 20:46 26.09.2022
72 Clear 16 1006 69 10000 1.54 10 19:31 26.09.2022
73 Clouds 17 1005 64 10000 3.6 320 18:32 26.09.2022
74 Clouds 19 1007 60 10000 4.63 300 16:34 26.09.2022
75 Clouds 18 1008 63 10000 8.05 327 14:28 26.09.2022
76 Clouds 16 1009 79 10000 5.81 290 11:30 26.09.2022
77 Clouds 15 1008 84 10000 8.49 325 10:39 26.09.2022
78 Clouds 15 1008 84 10000 8.49 325 10:20 26.09.2022
79 Clear 15 1008 86 10000 6.71 324 09:55 26.09.2022
80 Clouds 14 1009 88 10000 6.71 324 09:24 26.09.2022
81 Rain 13 1009 90 10000 4.12 310 07:56 26.09.2022
82 Clouds 13 1009 90 6000 3.13 342 02:54 26.09.2022
83 Rain 13 1010 90 10000 1.54 110 23:50 25.09.2022
84 Rain 14 1010 88 10000 2.06 130 22:29 25.09.2022
85 Clouds 14 1011 88 10000 2.57 140 21:35 25.09.2022
86 Clouds 13 1011 87 10000 2.06 120 20:48 25.09.2022
87 Clouds 14 1010 85 10000 1.54 120 19:43 25.09.2022
88 Clouds 14 1010 84 10000 2.57 140 18:43 25.09.2022
89 Clouds 14 1011 82 10000 3.6 130 18:20 25.09.2022
90 Clouds 15 1012 78 10000 4.02 146 16:36 25.09.2022
91 Clouds 16 1012 77 10000 3.13 166 15:44 25.09.2022
92 Rain 15 1013 79 10000 3.09 120 14:22 25.09.2022
93 Clouds 15 1013 80 10000 2.24 82 12:55 25.09.2022
94 Clouds 14 1014 82 10000 1.79 82 10:32 25.09.2022
95 Clear 12 1014 88 10000 1.03 0 08:24 25.09.2022
96 Clear 11 1014 89 10000 1.03 0 05:47 25.09.2022
97 Clear 12 1013 86 10000 1.79 116 02:57 25.09.2022
98 Clear 13 1014 81 10000 1.03 0 22:35 24.09.2022
99 Clear 14 1013 77 10000 1.54 90 21:19 24.09.2022
100 Clear 15 1014 71 10000 2.06 50 19:23 24.09.2022
101 Clear 17 1014 63 10000 2.57 110 17:50 24.09.2022
102 Clear 18 1014 63 10000 2.57 130 16:27 24.09.2022
103 Clear 18 1015 59 10000 3.6 130 15:22 24.09.2022
104 Clear 16 1015 62 10000 2.06 40 13:35 24.09.2022
105 Clear 16 1016 62 10000 2.06 0 12:51 24.09.2022
106 Clear 15 1015 66 10000 2.57 90 11:41 24.09.2022
107 Clear 12 1016 74 10000 2.06 130 09:54 24.09.2022
108 Clear 10 1017 79 10000 1.54 150 08:47 24.09.2022
109 Clear 8 1017 85 10000 1.54 120 07:39 24.09.2022
110 Clear 8 1015 84 10000 3.6 150 04:48 24.09.2022
111 Clear 8 1017 82 10000 3.09 150 03:42 24.09.2022
112 Clear 10 1017 73 10000 2.57 120 22:39 23.09.2022
113 Clear 11 1018 71 10000 2.06 120 21:31 23.09.2022
114 Clear 11 1018 68 10000 2.57 110 20:57 23.09.2022
115 Clear 12 1018 66 10000 2.06 100 20:20 23.09.2022
116 Clear 15 1018 58 10000 2.06 80 18:51 23.09.2022
117 Clouds 17 1020 51 10000 2.06 30 14:55 23.09.2022
118 Clear 14 1022 70 10000 2.68 13 10:55 23.09.2022
119 Clear 11 1023 80 10000 1.34 76 09:33 23.09.2022
120 Clouds 7 1022 87 10000 3.09 160 05:58 23.09.2022
121 Clouds 10 1025 81 10000 0.89 326 00:32 23.09.2022
122 Clouds 10 1023 77 10000 2.68 249 23:21 22.09.2022
123 Clouds 10 1023 82 10000 2.24 243 22:26 22.09.2022
124 Clouds 11 1022 78 10000 2.68 243 21:18 22.09.2022
125 Clouds 11 1023 74 10000 3.6 340 19:56 22.09.2022
126 Clouds 15 1023 68 10000 4.12 10 17:26 22.09.2022
127 Clouds 15 1024 66 10000 3.6 350 12:46 22.09.2022
128 Clouds 13 1024 75 10000 4.12 350 10:32 22.09.2022
129 Clouds 10 1024 83 10000 6.71 343 08:56 22.09.2022
130 Clouds 8 1023 86 10000 4.02 317 06:57 22.09.2022
131 Clear 8 1024 84 10000 3.6 290 04:36 22.09.2022
132 Clear 10 1025 78 10000 4.12 310 23:31 21.09.2022
133 Clouds 11 1025 75 10000 4.92 317 21:50 21.09.2022
134 Clouds 12 1025 74 10000 5.36 313 20:34 21.09.2022
135 Clouds 14 1024 68 10000 5.81 304 17:50 21.09.2022
136 Clouds 15 1023 65 10000 7.6 317 16:53 21.09.2022
137 Clouds 15 1024 63 10000 6.71 357 14:46 21.09.2022
138 Clouds 15 1025 67 10000 7.6 327 12:58 21.09.2022
139 Clouds 13 1025 73 10000 7.15 353 11:30 21.09.2022
140 Clouds 11 1026 77 10000 6.69 310 10:33 21.09.2022
141 Clouds 10 1025 80 10000 9.83 319 09:24 21.09.2022
142 Clouds 9 1024 85 10000 5.66 310 07:57 21.09.2022
143 Clouds 9 1022 86 10000 6.26 329 02:49 21.09.2022
144 Clouds 9 1022 86 10000 5.36 323 02:29 21.09.2022
145 Clouds 9 1023 86 10000 5.66 300 00:57 21.09.2022
146 Clear 9 1023 86 10000 7.15 319 23:18 20.09.2022
147 Clouds 9 1022 86 10000 7.15 317 21:21 20.09.2022
148 Clouds 10 1021 86 10000 4.92 316 19:43 20.09.2022
149 Rain 12 1019 81 10000 7.15 279 16:41 20.09.2022
150 Rain 13 1019 83 10000 5.14 270 14:51 20.09.2022
151 Rain 13 1019 78 10000 6.17 310 13:48 20.09.2022
152 Clouds 12 1020 82 10000 7.15 320 10:41 20.09.2022
153 Rain 10 1019 85 10000 4.63 300 08:29 20.09.2022
154 Rain 10 1018 85 10000 5.36 313 06:22 20.09.2022
155 Clear 10 1018 83 10000 5.14 290 04:28 20.09.2022
156 Clouds 11 1017 81 10000 9.39 291 23:32 19.09.2022
157 Clouds 11 1018 84 10000 7.2 290 22:28 19.09.2022
158 Clouds 11 1017 82 10000 12.07 308 20:58 19.09.2022
159 Rain 11 1017 81 10000 12.07 300 20:39 19.09.2022
160 Clouds 13 1016 77 10000 11.62 282 17:55 19.09.2022
161 Rain 12 1015 80 10000 11.32 290 15:56 19.09.2022
162 Clouds 13 1015 75 10000 12.96 309 13:39 19.09.2022
163 Clouds 10 1014 84 10000 12.07 308 11:30 19.09.2022
164 Rain 10 1013 76 10000 10.28 295 09:33 19.09.2022
165 Clouds 10 1013 81 10000 8.94 211 08:20 19.09.2022
166 Rain 11 1011 73 10000 7.72 280 02:31 19.09.2022
167 Rain 12 1012 70 10000 7.6 287 23:24 18.09.2022
168 Rain 12 1013 76 10000 8.94 284 21:53 18.09.2022
169 Clouds 12 1013 77 10000 8.75 280 20:34 18.09.2022
170 Clouds 12 1013 76 10000 10.73 275 18:42 18.09.2022
171 Clouds 13 1013 74 10000 9.83 300 17:45 18.09.2022
172 Rain 13 1013 77 10000 12.52 313 16:43 18.09.2022
173 Rain 14 1013 73 10000 7.15 333 14:39 18.09.2022
174 Clouds 14 1013 63 10000 11.32 300 12:56 18.09.2022
175 Clouds 14 1013 64 10000 12.07 285 11:51 18.09.2022
176 Clouds 10 1010 81 10000 8.49 321 06:45 18.09.2022
177 Clear 10 1010 81 10000 11.62 306 01:37 18.09.2022
178 Clear 10 1010 81 10000 8.49 325 01:18 18.09.2022
179 Clear 11 1010 82 10000 13.41 313 22:55 17.09.2022
180 Rain 11 1010 85 10000 11.62 313 20:50 17.09.2022
181 Rain 11 1009 82 10000 9.39 307 19:30 17.09.2022
182 Clouds 12 1009 72 10000 8.94 330 17:36 17.09.2022
183 Clouds 13 1009 72 10000 12.96 315 14:22 17.09.2022
184 Clouds 13 1010 74 10000 9.83 331 12:44 17.09.2022
185 Clouds 13 1009 77 10000 5.36 312 10:48 17.09.2022
186 Clear 12 1008 83 10000 3.09 340 06:31 17.09.2022
187 Clear 12 1009 82 10000 4.63 290 04:35 17.09.2022
188 Clear 13 1010 80 10000 8.49 305 23:36 16.09.2022
189 Clouds 14 1010 83 10000 11.62 328 21:47 16.09.2022
190 Rain 15 1008 82 10000 6.17 300 20:42 16.09.2022
191 Clear 17 1008 75 10000 4.12 190 18:29 16.09.2022
192 Rain 18 1008 71 10000 5.14 210 16:21 16.09.2022
193 Clouds 18 1008 71 10000 4.47 234 14:50 16.09.2022
194 Rain 18 1010 75 10000 7.6 292 12:51 16.09.2022
195 Clear 16 1010 80 10000 5.36 280 09:39 16.09.2022
196 Clouds 14 1010 87 10000 5.36 338 07:22 16.09.2022
197 Clouds 14 1010 87 10000 5.36 307 06:48 16.09.2022
198 Clouds 14 1010 88 10000 6.71 323 05:55 16.09.2022
199 Clouds 15 1009 88 10000 7.6 307 01:31 16.09.2022
200 Clouds 18 1006 85 10000 3.6 330 21:31 15.09.2022
201 Clouds 18 1006 84 10000 3.6 310 20:33 15.09.2022
202 Rain 19 1005 79 10000 7.2 280 18:57 15.09.2022
203 Clouds 21 1005 77 10000 8.49 306 17:38 15.09.2022
204 Clouds 22 1004 75 10000 8.49 306 17:20 15.09.2022
205 Rain 21 1003 82 10000 3.58 240 15:37 15.09.2022
206 Clouds 21 1006 77 10000 8.05 299 12:50 15.09.2022
207 Rain 21 1006 74 10000 4.63 270 11:47 15.09.2022
208 Clear 21 1006 77 10000 5.81 298 09:43 15.09.2022
209 Clear 19 1005 86 10000 2.06 140 05:37 15.09.2022
210 Rain 19 1006 88 10000 3.6 260 02:58 15.09.2022
211 Rain 19 1006 90 7000 8.23 300 22:51 14.09.2022
212 Clouds 21 1005 80 10000 1.54 50 20:30 14.09.2022
213 Clouds 22 1004 76 10000 1.79 225 19:32 14.09.2022
214 Clouds 25 1006 63 10000 4.12 150 17:35 14.09.2022
215 Clouds 25 1006 65 10000 7.2 160 16:36 14.09.2022
216 Rain 23 1007 67 10000 4.12 140 14:50 14.09.2022
217 Rain 20 1008 74 10000 1.54 0 12:34 14.09.2022
218 Rain 18 1008 85 10000 1.54 170 09:51 14.09.2022
219 Rain 17 1008 85 10000 1.03 160 08:21 14.09.2022
220 Clear 17 1009 82 10000 0.89 317 06:49 14.09.2022
221 Rain 17 1009 82 10000 0.89 331 06:25 14.09.2022
222 Clear 17 1010 79 10000 2.06 150 02:19 14.09.2022
223 Clear 18 1010 77 10000 1.54 160 01:32 14.09.2022
224 Clear 18 1010 76 10000 2.57 170 00:52 14.09.2022
225 Clear 18 1010 76 10000 2.57 170 00:52 14.09.2022
226 Clear 18 1011 75 10000 2.57 150 23:54 13.09.2022
227 Clear 19 1010 73 10000 2.06 170 23:36 13.09.2022
228 Clear 19 1011 73 10000 2.06 170 23:18 13.09.2022
229 Clear 19 1011 72 10000 1.03 0 22:22 13.09.2022
230 Clear 20 1011 65 10000 3.6 160 20:45 13.09.2022
231 Clear 22 1012 58 10000 5.14 170 18:43 13.09.2022
232 Clear 24 1012 48 10000 2.57 50 16:34 13.09.2022
233 Clouds 24 1013 48 10000 1.03 0 15:18 13.09.2022
234 Clouds 22 1013 58 10000 3.09 170 13:31 13.09.2022
235 Clear 17 1015 72 10000 3.09 150 09:58 13.09.2022
236 Fog 14 1014 83 10000 1.03 0 07:47 13.09.2022
237 Clear 14 1016 84 10000 1.03 0 02:20 13.09.2022
238 Clear 15 1017 81 10000 1.03 230 23:21 12.09.2022
239 Clear 15 1016 79 10000 2.06 60 22:37 12.09.2022
240 Clear 17 1016 75 10000 2.06 70 20:54 12.09.2022
241 Clear 19 1017 67 10000 2.68 12 19:31 12.09.2022
242 Clear 21 1016 58 10000 6.26 30 17:47 12.09.2022
243 Clouds 22 1017 56 10000 6.71 18 15:48 12.09.2022
244 Clouds 20 1018 67 10000 6.71 302 12:26 12.09.2022
245 Clear 18 1018 77 10000 6.26 325 10:27 12.09.2022
246 Clear 14 1017 88 10000 4.12 280 07:21 12.09.2022
247 Clear 14 1018 88 10000 5.81 312 04:32 12.09.2022
248 Clouds 15 1018 87 10000 5.14 310 01:53 12.09.2022
249 Clouds 15 1017 87 10000 6.26 333 22:46 11.09.2022
250 Clouds 16 1017 88 10000 5.81 309 21:25 11.09.2022
251 Clouds 16 1017 88 10000 3.6 320 20:44 11.09.2022
252 Rain 16 1016 88 10000 3.6 310 19:27 11.09.2022
253 Thunderstorm 17 1016 88 10000 7.2 330 18:58 11.09.2022
254 Clouds 20 1016 69 10000 9.39 318 17:26 11.09.2022
255 Clouds 19 1015 73 10000 7.2 280 15:51 11.09.2022
256 Rain 18 1016 83 10000 7.6 334 13:22 11.09.2022
257 Clouds 18 1015 74 10000 8.49 300 11:25 11.09.2022
258 Rain 16 1015 79 10000 9.83 311 08:19 11.09.2022
259 Clouds 16 1015 79 10000 6.26 269 05:30 11.09.2022
260 Clear 16 1016 77 10000 5.66 290 23:51 10.09.2022
261 Clear 16 1016 75 10000 5.14 280 22:22 10.09.2022
262 Clear 16 1015 73 10000 8.75 280 20:34 10.09.2022
263 Clear 17 1015 70 10000 8.23 290 19:44 10.09.2022
264 Rain 18 1015 70 10000 6.71 294 19:25 10.09.2022
265 Clouds 20 1014 70 10000 8.05 300 17:49 10.09.2022
266 Clouds 21 1015 58 10000 8.94 316 15:35 10.09.2022
267 Clouds 22 1015 58 10000 10.28 319 13:41 10.09.2022
268 Clouds 21 1016 60 10000 8.49 340 12:30 10.09.2022
269 Clouds 19 1015 70 10000 7.72 310 10:34 10.09.2022
270 Clouds 16 1015 81 10000 11.18 313 08:42 10.09.2022
271 Clouds 16 1015 82 10000 11.18 313 08:20 10.09.2022
272 Clouds 16 1015 83 10000 9.39 305 08:20 10.09.2022
273 Clear 15 1014 88 10000 4.47 299 04:30 10.09.2022
274 Rain 15 1016 90 10000 7.15 312 23:37 09.09.2022
275 Rain 16 1016 88 10000 6.26 315 22:36 09.09.2022
276 Clouds 16 1016 88 10000 5.66 280 20:59 09.09.2022
277 Rain 16 1016 86 10000 5.81 297 20:20 09.09.2022
278 Rain 17 1015 82 10000 5.81 311 19:23 09.09.2022
279 Clouds 19 1015 77 10000 5.36 325 17:50 09.09.2022
280 Clouds 24 1014 54 10000 3.58 36 15:23 09.09.2022
281 Clouds 24 1016 56 10000 2.24 116 13:33 09.09.2022
282 Clouds 23 1016 60 10000 1.79 69 11:38 09.09.2022
283 Clear 15 1015 82 10000 0.51 0 07:58 09.09.2022
284 Clear 15 1016 82 10000 2.68 218 03:40 09.09.2022
285 Clear 16 1016 81 10000 2.24 273 00:39 09.09.2022
286 Clouds 17 1015 80 10000 6.17 290 21:52 08.09.2022
287 Clear 18 1014 75 10000 5.14 280 20:49 08.09.2022
288 Clouds 18 1014 75 10000 5.14 280 20:29 08.09.2022
289 Clouds 18 1014 78 10000 7.72 290 19:28 08.09.2022
290 Rain 19 1012 84 10000 9.83 312 17:35 08.09.2022
291 Thunderstorm 19 1011 85 10000 7.72 300 16:18 08.09.2022
292 Clouds 26 1011 62 10000 8.49 302 13:30 08.09.2022
293 Clouds 26 1010 58 10000 5.14 150 12:50 08.09.2022
294 Clear 25 1011 60 10000 6.17 140 11:32 08.09.2022
295 Clouds 22 1011 75 10000 8.23 150 09:57 08.09.2022
296 Clear 18 1011 85 10000 4.63 120 07:38 08.09.2022
297 Clear 17 1011 86 10000 3.09 130 05:30 08.09.2022
298 Clear 18 1012 83 10000 1.54 110 02:36 08.09.2022
299 Clear 18 1012 84 10000 1.54 130 02:18 08.09.2022
300 Clear 19 1014 81 10000 1.34 119 00:21 08.09.2022
301 Clear 22 1015 73 10000 2.57 150 21:58 07.09.2022
302 Clear 22 1015 71 10000 1.54 130 21:38 07.09.2022
303 Clear 23 1015 65 10000 3.09 150 20:30 07.09.2022
304 Clear 25 1015 59 10000 3.6 150 19:23 07.09.2022
305 Clouds 28 1016 51 10000 2.06 90 16:30 07.09.2022
306 Clouds 23 1018 67 10000 4.12 120 11:28 07.09.2022
307 Clear 21 1018 74 10000 2.57 140 10:36 07.09.2022
308 Clear 18 1018 84 10000 1.79 141 08:33 07.09.2022
309 Fog 15 1016 88 10000 1.54 350 06:31 07.09.2022
310 Clear 17 1017 80 10000 2.06 190 00:49 07.09.2022
311 Clear 20 1019 69 10000 2.06 140 21:58 06.09.2022
312 Clear 20 1019 69 10000 2.06 140 21:36 06.09.2022
313 Clouds 23 1018 63 10000 4.02 121 19:39 06.09.2022
314 Clouds 25 1018 61 10000 6.71 140 18:40 06.09.2022
315 Clouds 26 1018 59 10000 2.57 30 17:50 06.09.2022
316 Clouds 27 1019 57 10000 3.6 30 16:53 06.09.2022
317 Clouds 27 1019 58 10000 2.57 50 16:25 06.09.2022
318 Clouds 26 1018 59 10000 1.54 40 14:49 06.09.2022
319 Clouds 26 1020 57 10000 2.06 0 13:44 06.09.2022
320 Clouds 25 1020 58 10000 3.09 160 13:19 06.09.2022
321 Clouds 22 1021 66 10000 2.06 100 10:57 06.09.2022
322 Clouds 20 1021 71 10000 1.54 350 09:56 06.09.2022
323 Clouds 18 1021 81 10000 3.13 73 08:27 06.09.2022
324 Clouds 15 1020 84 10000 2.06 320 06:22 06.09.2022
325 Clouds 18 1021 77 10000 1.03 50 01:22 06.09.2022
326 Clouds 19 1021 72 10000 2.57 40 23:19 05.09.2022
327 Clouds 21 1022 66 10000 2.06 60 21:39 05.09.2022
328 Clouds 22 1022 62 10000 1.79 102 20:32 05.09.2022
329 Clouds 25 1022 55 10000 4.92 92 18:53 05.09.2022
330 Clouds 25 1022 55 10000 4.92 92 18:26 05.09.2022
331 Clouds 25 1023 54 10000 5.36 127 17:57 05.09.2022
332 Clouds 26 1023 54 10000 3.13 64 16:25 05.09.2022
333 Clouds 26 1022 59 10000 2.68 104 15:23 05.09.2022
334 Clouds 24 1024 61 10000 4.92 151 12:56 05.09.2022
335 Clouds 22 1025 68 10000 2.68 113 11:37 05.09.2022
336 Clouds 18 1025 85 10000 1.03 80 08:58 05.09.2022
337 Fog 14 1024 90 9000 1.03 200 06:38 05.09.2022
338 Clear 16 1024 85 10000 1.03 0 01:35 05.09.2022
339 Clear 18 1024 80 10000 2.06 160 22:29 04.09.2022
340 Clouds 18 1024 79 10000 2.57 160 21:59 04.09.2022
341 Clouds 20 1023 75 10000 1.54 110 20:37 04.09.2022
342 Clouds 22 1022 69 10000 2.57 70 18:55 04.09.2022
343 Clouds 23 1021 64 10000 2.57 80 17:43 04.09.2022
344 Clouds 24 1021 66 10000 2.24 140 16:28 04.09.2022
345 Rain 23 1022 67 10000 3.13 63 14:26 04.09.2022
346 Clouds 22 1020 71 10000 1.54 0 12:57 04.09.2022
347 Clouds 21 1021 76 10000 2.24 94 11:37 04.09.2022
348 Clouds 19 1021 84 10000 2.24 338 09:39 04.09.2022
349 Rain 17 1019 86 10000 1.03 140 06:51 04.09.2022
350 Rain 18 1018 78 10000 3.09 280 03:30 04.09.2022
351 Clear 19 1017 69 10000 5.14 160 23:33 03.09.2022
352 Clear 20 1017 65 10000 5.14 150 22:20 03.09.2022
353 Clear 21 1015 62 10000 4.12 140 21:22 03.09.2022
354 Clouds 24 1015 54 10000 5.14 140 18:57 03.09.2022
355 Clouds 25 1015 50 10000 6.17 140 17:25 03.09.2022
356 Clouds 26 1015 50 10000 6.26 115 16:20 03.09.2022
357 Clouds 25 1016 49 10000 8.05 146 14:43 03.09.2022
358 Clouds 24 1015 52 10000 5.66 140 13:50 03.09.2022
359 Clear 21 1017 59 10000 6.69 140 11:34 03.09.2022
360 Clear 17 1017 67 10000 4.63 140 09:51 03.09.2022
361 Clear 14 1017 78 10000 2.57 100 07:57 03.09.2022
362 Clear 12 1016 82 10000 2.57 90 04:56 03.09.2022
363 Clear 13 1017 75 10000 3.6 80 03:29 03.09.2022
364 Clear 15 1017 71 10000 1.54 350 23:49 02.09.2022
365 Clear 16 1017 65 10000 1.54 170 22:34 02.09.2022
366 Clear 18 1016 59 10000 1.54 80 20:57 02.09.2022
367 Clear 19 1016 55 10000 1.54 120 20:23 02.09.2022
368 Clouds 21 1017 45 10000 1.54 100 18:59 02.09.2022
369 Clouds 22 1017 42 10000 2.06 90 18:26 02.09.2022
370 Clouds 23 1017 42 10000 1.54 0 17:30 02.09.2022
371 Clouds 23 1017 42 10000 1.54 0 17:30 02.09.2022
372 Clouds 23 1017 41 10000 3.58 20 16:44 02.09.2022
373 Clouds 22 1018 44 10000 2.68 55 13:51 02.09.2022
374 Clouds 19 1019 55 10000 1.79 356 11:36 02.09.2022
375 Clouds 17 1020 63 10000 2.68 320 09:46 02.09.2022
376 Clear 14 1019 69 10000 4.92 330 08:49 02.09.2022
377 Clear 12 1019 79 10000 3.09 320 07:24 02.09.2022
378 Clear 11 1019 79 10000 3.6 330 06:34 02.09.2022
379 Clear 13 1019 74 10000 3.13 313 02:34 02.09.2022
380 Clear 17 1020 62 10000 4.02 12 22:24 01.09.2022
381 Clear 17 1020 59 10000 4.92 28 21:39 01.09.2022
382 Clear 17 1020 57 10000 5.36 28 21:20 01.09.2022
383 Clear 18 1020 52 10000 7.15 28 20:37 01.09.2022
384 Clear 21 1018 42 10000 6.71 25 18:38 01.09.2022
385 Clear 23 1018 40 10000 7.6 27 16:58 01.09.2022
386 Clear 23 1018 43 10000 8.49 34 15:29 01.09.2022
387 Clouds 22 1018 46 10000 7.6 61 13:44 01.09.2022
388 Clouds 22 1018 47 10000 8.94 24 12:57 01.09.2022
389 Clouds 22 1019 48 10000 8.49 44 11:52 01.09.2022
390 Clouds 21 1019 49 10000 7.6 37 11:29 01.09.2022
391 Clouds 19 1019 62 10000 6.26 354 09:49 01.09.2022
392 Clear 17 1019 74 10000 5.81 20 07:50 01.09.2022
393 Clear 16 1019 80 10000 4.02 319 05:58 01.09.2022
394 Rain 17 1019 80 10000 4.47 331 01:31 01.09.2022
395 Rain 17 1020 82 10000 4.12 330 23:19 31.08.2022
396 Rain 17 1019 82 10000 4.12 330 20:48 31.08.2022
397 Rain 19 1019 71 10000 5.14 300 19:23 31.08.2022
398 Rain 21 1018 66 10000 6.17 350 17:25 31.08.2022
399 Clear 23 1018 57 10000 5.66 340 15:39 31.08.2022
400 Clouds 24 1018 55 10000 3.6 360 13:38 31.08.2022
401 Clouds 24 1018 55 10000 3.6 30 13:38 31.08.2022
402 Clear 23 1018 58 10000 5.36 46 12:19 31.08.2022
403 Clear 20 1019 70 10000 3.09 20 09:39 31.08.2022
404 Clear 19 1018 75 10000 2.68 30 08:32 31.08.2022
405 Clear 17 1019 78 10000 2.06 330 03:41 31.08.2022
406 Clear 20 1019 69 10000 1.03 70 22:42 30.08.2022
407 Clear 21 1019 66 10000 1.03 50 21:31 30.08.2022
408 Clear 22 1018 63 10000 2.06 40 20:38 30.08.2022
409 Clear 27 1019 48 10000 5.14 20 17:25 30.08.2022
410 Clouds 27 1020 47 10000 5.14 340 14:19 30.08.2022
411 Clouds 25 1020 52 10000 6.71 34 12:25 30.08.2022
412 Clouds 24 1020 57 10000 4.12 360 11:20 30.08.2022
413 Clear 22 1020 66 10000 3.13 21 10:20 30.08.2022
414 Clear 17 1019 86 10000 2.06 360 06:49 30.08.2022
415 Clear 18 1019 81 10000 4.02 333 01:44 30.08.2022
416 Clear 20 1019 74 10000 2.06 320 22:44 29.08.2022
417 Clear 21 1019 72 10000 2.24 333 21:55 29.08.2022
418 Clear 21 1019 70 10000 2.57 340 21:23 29.08.2022
419 Clear 21 1019 71 10000 3.58 333 21:23 29.08.2022
420 Clouds 24 1019 58 10000 3.6 350 19:42 29.08.2022
421 Clouds 27 1018 51 10000 5.14 10 17:42 29.08.2022
422 Clouds 27 1017 51 10000 5.14 360 17:24 29.08.2022
423 Clouds 26 1019 47 10000 7.6 325 15:41 29.08.2022
424 Clouds 26 1019 50 10000 5.81 349 14:18 29.08.2022
425 Clouds 24 1020 62 10000 4.12 310 12:34 29.08.2022
426 Clouds 22 1020 69 10000 5.81 318 10:49 29.08.2022
427 Clouds 20 1020 75 10000 6.69 320 09:30 29.08.2022
428 Clouds 19 1019 81 10000 4.63 320 07:35 29.08.2022
429 Clouds 19 1018 83 10000 4.92 328 02:42 29.08.2022
430 Clouds 19 1018 86 10000 5.36 322 23:50 28.08.2022
431 Clouds 19 1017 88 10000 4.47 340 21:57 28.08.2022
432 Clouds 20 1017 88 10000 3.09 330 21:32 28.08.2022
433 Clouds 20 1016 87 10000 3.6 340 20:39 28.08.2022
434 Clouds 22 1015 76 10000 4.63 350 18:38 28.08.2022
435 Clouds 23 1016 74 10000 3.6 330 18:19 28.08.2022
436 Clouds 24 1014 71 10000 3.6 350 16:55 28.08.2022
437 Clouds 25 1015 70 10000 4.63 340 15:42 28.08.2022
438 Clouds 24 1014 75 10000 3.6 320 13:47 28.08.2022
439 Clouds 23 1015 79 10000 6.17 310 12:31 28.08.2022
440 Rain 21 1015 85 10000 4.63 310 10:27 28.08.2022
441 Clouds 21 1014 84 10000 2.57 250 09:40 28.08.2022
442 Clouds 20 1013 87 10000 2.24 253 08:32 28.08.2022
443 Clear 19 1013 88 10000 2.57 340 07:34 28.08.2022
444 Rain 19 1014 85 10000 9.77 170 01:31 28.08.2022
445 Rain 20 1014 84 10000 2.68 282 00:22 28.08.2022
446 Rain 23 1014 77 10000 4.47 274 22:31 27.08.2022
447 Clouds 24 1013 70 10000 2.57 160 20:53 27.08.2022
448 Clear 26 1012 64 10000 4.02 298 19:38 27.08.2022
449 Clouds 29 1012 54 10000 1.79 360 16:42 27.08.2022
450 Clouds 29 1012 53 10000 2.06 330 15:39 27.08.2022
451 Clouds 29 1011 53 10000 5.36 316 14:35 27.08.2022
452 Clouds 27 1012 61 10000 5.81 337 12:22 27.08.2022
453 Clouds 24 1012 67 10000 6.26 321 10:33 27.08.2022
454 Clouds 23 1012 71 10000 5.81 4 09:40 27.08.2022
455 Clear 24 1012 71 10000 5.81 4 09:40 27.08.2022
456 Clouds 20 1012 80 10000 2.57 340 06:55 27.08.2022
457 Clouds 22 1011 75 10000 2.68 286 02:31 27.08.2022
458 Clouds 23 1011 73 10000 4.02 221 23:53 26.08.2022
459 Clear 24 1011 72 10000 3.13 242 22:31 26.08.2022
460 Clear 26 1010 64 10000 1.54 150 20:39 26.08.2022
461 Clear 29 1010 55 10000 1.54 110 19:20 26.08.2022
462 Clear 32 1010 44 10000 2.68 190 16:46 26.08.2022
463 Clouds 31 1012 45 10000 3.09 190 15:27 26.08.2022
464 Clouds 31 1012 47 10000 2.68 210 14:29 26.08.2022
465 Clouds 29 1013 54 10000 1.54 0 12:47 26.08.2022
466 Clear 27 1014 61 10000 2.24 101 11:27 26.08.2022
467 Clear 25 1014 71 10000 1.54 30 10:25 26.08.2022
468 Clear 19 1014 86 10000 0.51 0 07:28 26.08.2022
469 Clear 21 1015 83 10000 2.06 250 01:28 26.08.2022
470 Clear 21 1015 79 10000 1.54 210 23:32 25.08.2022
471 Clear 23 1014 76 10000 1.54 150 21:27 25.08.2022
472 Clear 24 1014 72 10000 1.54 90 20:29 25.08.2022
473 Clouds 28 1015 62 10000 2.57 50 18:53 25.08.2022
474 Clouds 29 1016 59 10000 2.24 117 17:44 25.08.2022
475 Clouds 29 1015 58 10000 2.06 80 17:24 25.08.2022
476 Clouds 28 1016 58 10000 2.68 107 15:40 25.08.2022
477 Clouds 28 1016 61 10000 2.57 80 14:34 25.08.2022
478 Clouds 24 1017 75 10000 1.79 15 11:54 25.08.2022
479 Clouds 23 1018 83 10000 2.06 130 10:46 25.08.2022
480 Clouds 21 1018 87 10000 1.03 0 08:54 25.08.2022
481 Clouds 20 1016 87 10000 1.54 340 05:24 25.08.2022
482 Clouds 21 1018 82 10000 2.57 330 01:37 25.08.2022
483 Clear 22 1019 80 10000 3.09 350 23:26 24.08.2022
484 Clouds 22 1019 78 10000 4.12 360 22:22 24.08.2022
485 Clouds 22 1019 76 10000 2.68 354 21:35 24.08.2022
486 Clouds 23 1018 74 10000 3.6 320 20:32 24.08.2022
487 Clouds 25 1018 64 10000 7.15 323 18:57 24.08.2022
488 Clouds 26 1017 60 10000 6.69 350 16:36 24.08.2022
489 Clouds 26 1019 61 10000 6.26 1 15:52 24.08.2022
490 Clouds 25 1019 65 10000 6.71 17 13:40 24.08.2022
491 Clouds 23 1020 74 10000 7.15 306 11:29 24.08.2022
492 Clouds 20 1020 81 10000 5.14 340 09:35 24.08.2022
493 Clouds 19 1019 86 10000 7.6 353 07:50 24.08.2022
494 Clouds 18 1018 88 10000 5.14 310 02:36 24.08.2022
495 Clouds 18 1019 88 10000 5.66 300 23:32 23.08.2022
496 Clouds 18 1019 88 10000 7.6 321 22:32 23.08.2022
497 Clear 18 1019 88 10000 8.05 323 21:29 23.08.2022
498 Clouds 18 1018 87 10000 8.05 310 20:21 23.08.2022
499 Clouds 18 1018 84 10000 10.28 303 18:46 23.08.2022
500 Clouds 19 1018 82 10000 8.49 308 17:49 23.08.2022
501 Clouds 19 1018 81 10000 6.69 320 16:54 23.08.2022
502 Clouds 19 1016 82 10000 12.52 313 15:39 23.08.2022
503 Clouds 17 1017 85 10000 12.52 288 13:29 23.08.2022
504 Clouds 17 1017 89 10000 10.73 315 11:33 23.08.2022
505 Clouds 17 1016 88 10000 11.62 271 10:48 23.08.2022
506 Drizzle 17 1016 89 10000 9.39 307 10:24 23.08.2022
507 Rain 16 1015 92 10000 6.71 312 08:52 23.08.2022
508 Rain 16 1015 92 10000 5.81 294 08:21 23.08.2022
509 Rain 16 1014 92 10000 5.14 300 07:38 23.08.2022
510 Rain 15 1015 92 10000 6.26 305 06:29 23.08.2022
511 Rain 15 1014 92 10000 8.05 302 04:45 23.08.2022
512 Clouds 16 1014 89 10000 9.83 293 00:28 23.08.2022
513 Clouds 16 1014 89 10000 7.72 310 23:37 22.08.2022
514 Rain 16 1015 89 10000 8.94 330 22:45 22.08.2022
515 Rain 16 1015 90 10000 7.6 308 21:45 22.08.2022
516 Clouds 16 1014 90 10000 8.05 321 19:48 22.08.2022
517 Clouds 16 1014 90 10000 9.83 292 19:18 22.08.2022
518 Clouds 17 1014 88 10000 8.05 315 17:37 22.08.2022
519 Clouds 16 1014 87 10000 8.94 328 15:39 22.08.2022
520 Clouds 16 1014 87 10000 8.05 324 14:32 22.08.2022
521 Rain 16 1012 91 5000 8.94 325 10:49 22.08.2022
522 Clouds 15 1013 91 10000 7.72 330 08:21 22.08.2022
523 Rain 16 1013 91 10000 7.2 320 04:30 22.08.2022
524 Rain 17 1014 89 10000 6.17 340 00:49 22.08.2022
525 Rain 17 1014 89 10000 6.71 1 00:29 22.08.2022
526 Drizzle 19 1014 82 10000 4.63 20 22:54 21.08.2022
527 Clouds 19 1014 77 10000 6.71 3 21:36 21.08.2022
528 Clouds 20 1014 73 10000 7.15 357 20:57 21.08.2022
529 Clouds 20 1014 77 10000 5.66 330 19:28 21.08.2022
530 Clouds 20 1014 77 10000 6.69 330 17:59 21.08.2022
531 Clouds 20 1014 80 10000 9.83 327 16:21 21.08.2022
532 Clouds 20 1013 84 10000 9.77 320 15:43 21.08.2022
533 Drizzle 19 1014 83 10000 8.23 310 13:58 21.08.2022
534 Drizzle 19 1014 84 10000 8.23 310 13:40 21.08.2022
535 Clouds 19 1013 86 10000 8.75 320 12:37 21.08.2022
536 Clouds 19 1014 81 10000 10.28 320 09:32 21.08.2022
537 Clouds 19 1013 83 10000 10.73 336 08:56 21.08.2022
538 Clouds 19 1014 82 10000 8.05 312 08:38 21.08.2022
539 Clouds 18 1013 85 10000 7.72 310 07:28 21.08.2022
540 Clouds 18 1012 86 10000 10.73 284 04:18 21.08.2022
541 Clouds 18 1014 85 10000 9.39 306 00:53 21.08.2022
542 Clouds 19 1014 77 10000 8.49 312 22:59 20.08.2022
543 Clouds 20 1014 74 10000 8.23 310 21:43 20.08.2022
544 Clouds 20 1013 74 10000 8.23 320 20:44 20.08.2022
545 Clouds 21 1014 73 10000 9.39 321 19:41 20.08.2022
546 Clouds 21 1012 73 10000 8.49 326 18:35 20.08.2022
547 Clouds 21 1012 72 10000 9.83 331 17:58 20.08.2022
548 Clouds 22 1013 70 10000 8.94 296 17:19 20.08.2022
549 Clouds 22 1013 66 10000 13.41 275 15:51 20.08.2022
550 Clouds 24 1013 62 10000 7.6 304 13:39 20.08.2022
551 Clouds 24 1014 62 10000 13.41 319 11:53 20.08.2022
552 Clouds 23 1013 66 10000 12.07 292 10:36 20.08.2022
553 Clouds 21 1012 71 10000 8.23 310 09:18 20.08.2022
554 Clear 20 1012 75 10000 11.62 297 06:40 20.08.2022
555 Clouds 20 1012 78 10000 3.6 310 03:57 20.08.2022
556 Clear 20 1013 80 10000 6.26 311 00:53 20.08.2022
557 Rain 22 1013 82 10000 4.02 242 23:21 19.08.2022
558 Rain 23 1012 74 10000 3.6 190 22:35 19.08.2022
559 Clear 25 1011 58 10000 3.09 90 20:30 19.08.2022
560 Clear 27 1010 55 10000 4.12 110 18:53 19.08.2022
561 Rain 29 1009 62 10000 5.66 150 15:54 19.08.2022
562 Rain 29 1011 46 10000 0.51 0 13:41 19.08.2022
563 Clear 28 1012 54 10000 2.06 0 11:40 19.08.2022
564 Clear 26 1011 62 10000 3.09 330 10:30 19.08.2022
565 Clouds 22 1011 74 10000 5.36 240 07:39 19.08.2022
566 Clear 22 1009 66 10000 1.03 0 03:19 19.08.2022
567 Clear 24 1009 62 10000 2.06 140 00:36 19.08.2022
568 Clear 25 1010 60 10000 1.54 0 23:48 18.08.2022
569 Clear 25 1010 52 10000 2.57 230 22:53 18.08.2022
570 Clear 23 1008 44 10000 2.57 200 22:22 18.08.2022
571 Clear 25 1008 50 10000 3.09 210 21:45 18.08.2022
572 Clear 27 1008 44 10000 3.09 250 20:42 18.08.2022
573 Clouds 30 1009 29 10000 7.2 220 19:32 18.08.2022
574 Rain 33 1011 35 10000 6.69 150 18:29 18.08.2022
575 Clouds 34 1009 36 10000 5.14 150 17:29 18.08.2022
576 Clear 35 1009 35 10000 5.14 150 15:27 18.08.2022
577 Clear 34 1010 38 10000 3.6 120 14:20 18.08.2022
578 Clear 33 1010 41 10000 4.63 110 13:40 18.08.2022
579 Clear 31 1011 43 10000 3.6 40 12:27 18.08.2022
580 Clear 29 1011 47 10000 1.34 319 10:51 18.08.2022
581 Clear 27 1011 52 10000 3.09 130 09:42 18.08.2022
582 Clear 22 1011 66 10000 2.57 210 07:26 18.08.2022
583 Clear 21 1009 69 10000 1.54 80 05:30 18.08.2022
584 Clear 23 1011 60 10000 0.89 341 00:45 18.08.2022
585 Clear 25 1010 53 10000 2.06 120 22:28 17.08.2022
586 Clear 29 1010 41 10000 2.06 60 20:21 17.08.2022
587 Clear 29 1010 41 10000 2.06 60 20:21 17.08.2022
588 Clear 31 1010 36 10000 2.57 50 19:33 17.08.2022
589 Clear 33 1010 33 10000 4.02 59 18:32 17.08.2022
590 Clear 35 1010 31 10000 3.13 58 16:50 17.08.2022
591 Clear 35 1010 32 10000 3.58 198 15:31 17.08.2022
592 Clear 33 1010 35 10000 3.09 50 14:18 17.08.2022
593 Clear 31 1012 40 10000 3.13 139 12:21 17.08.2022
594 Clear 27 1012 50 10000 1.79 87 10:25 17.08.2022
595 Clear 27 1012 50 10000 1.79 87 10:25 17.08.2022
596 Clear 27 1012 50 10000 1.79 87 10:25 17.08.2022
597 Clear 23 1012 66 10000 1.03 0 08:25 17.08.2022
598 Clear 20 1011 72 10000 1.03 0 05:22 17.08.2022
599 Clear 22 1010 63 10000 1.54 200 00:46 17.08.2022
600 Clear 24 1011 56 10000 3.13 236 22:53 16.08.2022
601 Clear 26 1011 49 10000 3.13 223 20:59 16.08.2022
602 Clear 28 1011 45 10000 4.63 300 19:55 16.08.2022
603 Clear 29 1010 40 10000 5.36 325 19:22 16.08.2022
604 Clear 31 1010 37 10000 5.36 328 17:54 16.08.2022
605 Clear 31 1010 37 10000 4.92 317 16:46 16.08.2022
606 Clear 31 1010 39 10000 5.36 306 15:44 16.08.2022
607 Clear 31 1010 40 10000 5.66 330 14:54 16.08.2022
608 Clear 30 1011 41 10000 5.81 323 14:36 16.08.2022
609 Clear 27 1010 48 10000 6.71 327 11:40 16.08.2022
610 Clear 25 1010 51 10000 7.6 317 10:20 16.08.2022
611 Clear 23 1010 56 10000 11.62 328 08:49 16.08.2022
612 Clear 23 1010 58 10000 10.73 302 08:20 16.08.2022
613 Clear 21 1009 65 10000 8.49 309 05:52 16.08.2022
614 Clear 23 1008 60 10000 2.06 20 23:37 15.08.2022
615 Clear 24 1007 56 10000 2.68 239 22:21 15.08.2022
616 Clouds 25 1007 54 10000 2.68 242 21:48 15.08.2022
617 Clouds 27 1006 56 10000 2.57 320 20:32 15.08.2022
618 Clouds 28 1006 49 10000 3.6 230 19:22 15.08.2022
619 Clouds 30 1005 44 10000 5.14 200 17:59 15.08.2022
620 Clouds 31 1006 41 10000 4.47 235 16:25 15.08.2022
621 Clouds 31 1005 42 10000 5.81 313 15:52 15.08.2022
622 Clouds 30 1006 46 10000 4.02 314 13:50 15.08.2022
623 Clear 25 1008 63 10000 3.58 313 10:38 15.08.2022
624 Clear 24 1007 67 10000 1.03 0 09:40 15.08.2022
625 Clear 20 1007 81 10000 0.89 7 07:32 15.08.2022
626 Clear 18 1006 83 10000 1.03 350 04:34 15.08.2022
627 Clear 21 1008 75 10000 1.54 240 00:33 15.08.2022
628 Clear 22 1008 72 10000 1.54 140 22:30 14.08.2022
629 Clear 23 1009 69 10000 1.54 80 21:37 14.08.2022
630 Clouds 25 1008 59 10000 2.06 360 19:47 14.08.2022
631 Clouds 27 1007 57 10000 2.68 312 18:53 14.08.2022
632 Clouds 28 1008 57 10000 2.68 331 18:18 14.08.2022
633 Clouds 28 1009 56 10000 3.09 320 16:50 14.08.2022
634 Clouds 27 1009 55 10000 4.12 300 15:48 14.08.2022
635 Clouds 25 1011 61 10000 4.92 309 14:24 14.08.2022
636 Clouds 25 1011 63 10000 4.47 294 13:49 14.08.2022
637 Clouds 24 1011 64 10000 6.71 309 13:19 14.08.2022
638 Clouds 23 1011 70 10000 4.12 310 11:56 14.08.2022
639 Clouds 22 1011 73 10000 4.63 340 10:40 14.08.2022
640 Clouds 21 1011 77 10000 4.92 321 08:50 14.08.2022
641 Clouds 20 1012 79 10000 3.6 320 06:21 14.08.2022
642 Clear 19 1011 78 10000 4.12 320 02:48 14.08.2022
643 Clear 20 1013 74 10000 3.6 330 23:53 13.08.2022
644 Clear 21 1014 72 10000 4.92 3 22:52 13.08.2022
645 Clear 23 1013 63 10000 4.63 360 20:58 13.08.2022
646 Clear 24 1012 60 10000 6.26 48 20:31 13.08.2022
647 Clear 25 1013 54 10000 5.14 10 19:37 13.08.2022
648 Clouds 27 1012 49 10000 5.81 34 17:42 13.08.2022
649 Clouds 28 1014 45 10000 6.26 12 15:26 13.08.2022
650 Clouds 28 1014 47 10000 7.6 27 14:27 13.08.2022
651 Clouds 27 1014 51 10000 5.14 350 13:39 13.08.2022
652 Clear 25 1015 55 10000 5.36 6 11:52 13.08.2022
653 Clear 22 1015 62 10000 6.26 350 10:31 13.08.2022
654 Clear 20 1016 63 10000 4.47 320 08:45 13.08.2022
655 Clear 18 1016 70 10000 2.68 242 05:22 13.08.2022
656 Clear 20 1016 58 10000 3.6 330 23:58 12.08.2022
657 Clear 22 1017 48 10000 2.57 320 21:46 12.08.2022
658 Clear 23 1017 44 10000 1.54 330 20:53 12.08.2022
659 Clear 24 1016 43 10000 1.03 0 19:40 12.08.2022
660 Clear 26 1016 38 10000 1.79 342 18:46 12.08.2022
661 Clear 27 1018 35 10000 2.24 19 17:25 12.08.2022
662 Clouds 27 1018 34 10000 2.06 0 15:52 12.08.2022
663 Clear 27 1018 35 10000 2.68 119 14:41 12.08.2022
664 Clear 25 1019 43 10000 3.09 50 12:55 12.08.2022
665 Clouds 23 1020 51 10000 2.57 350 10:45 12.08.2022
666 Clear 17 1020 69 10000 2.57 340 07:50 12.08.2022
667 Clear 15 1020 73 10000 2.24 322 06:56 12.08.2022
668 Clear 16 1019 68 10000 1.54 350 03:20 12.08.2022
669 Clear 19 1020 57 10000 2.06 360 00:27 12.08.2022
670 Clear 20 1020 53 10000 1.54 30 23:35 11.08.2022
671 Clear 21 1020 50 10000 3.6 360 22:27 11.08.2022
672 Clear 21 1019 48 10000 3.09 10 21:43 11.08.2022
673 Clear 22 1018 43 10000 3.58 9 20:59 11.08.2022
674 Clear 23 1019 39 10000 3.13 14 20:20 11.08.2022
675 Clear 24 1018 38 10000 5.36 46 19:32 11.08.2022
676 Clear 26 1020 37 10000 6.71 25 17:48 11.08.2022
677 Clear 28 1020 35 10000 4.92 38 16:37 11.08.2022
678 Clear 27 1020 33 10000 3.6 330 15:24 11.08.2022
679 Clear 26 1021 36 10000 5.14 330 13:37 11.08.2022
680 Clouds 24 1022 46 10000 2.57 360 10:58 11.08.2022
681 Clear 18 1023 62 10000 1.34 296 07:47 11.08.2022
682 Clear 16 1023 66 10000 3.13 353 03:57 11.08.2022
683 Clear 19 1023 61 10000 2.57 360 01:33 11.08.2022
684 Clear 21 1024 53 10000 3.09 350 22:36 10.08.2022
685 Clear 22 1022 47 10000 3.6 10 21:34 10.08.2022
686 Clear 24 1023 44 10000 6.26 29 20:55 10.08.2022
687 Clear 26 1022 36 10000 7.15 49 19:32 10.08.2022
688 Clear 28 1022 36 10000 5.81 30 18:42 10.08.2022
689 Clear 29 1023 34 10000 4.47 57 16:55 10.08.2022
690 Clear 27 1024 37 10000 4.63 360 13:36 10.08.2022
691 Clear 27 1024 36 10000 5.36 61 13:36 10.08.2022
692 Clear 26 1024 39 10000 3.13 63 12:46 10.08.2022
693 Clear 22 1025 55 10000 3.09 350 09:55 10.08.2022
694 Clouds 20 1025 61 10000 3.09 340 08:35 10.08.2022
695 Clear 17 1024 70 10000 4.02 318 07:20 10.08.2022
696 Clear 17 1024 65 10000 3.58 352 03:35 10.08.2022
697 Clear 20 1024 59 10000 4.12 340 23:58 09.08.2022
698 Clear 21 1025 52 10000 5.36 23 23:25 09.08.2022
699 Clear 22 1024 48 10000 4.02 7 21:37 09.08.2022
700 Clear 23 1024 45 10000 4.12 360 20:40 09.08.2022
701 Clear 27 1023 36 10000 8.49 18 18:48 09.08.2022
702 Clear 28 1023 33 10000 8.94 3 17:31 09.08.2022
703 Clear 28 1023 35 10000 8.94 3 17:31 09.08.2022
704 Clear 28 1023 34 10000 7.2 340 16:42 09.08.2022
705 Clear 28 1023 34 10000 10.28 36 15:59 09.08.2022
706 Clear 28 1023 37 10000 7.15 59 14:30 09.08.2022
707 Clear 22 1024 56 10000 6.26 340 10:45 09.08.2022
708 Clear 19 1024 67 10000 6.71 358 08:51 09.08.2022
709 Clear 17 1024 70 10000 7.6 330 07:54 09.08.2022
710 Clear 15 1024 78 10000 3.58 325 04:43 09.08.2022
711 Clear 17 1024 76 10000 3.13 284 23:58 08.08.2022
712 Clear 17 1024 74 10000 5.81 325 22:58 08.08.2022
713 Clear 18 1023 73 10000 4.47 298 22:35 08.08.2022
714 Clear 18 1023 70 10000 2.68 244 21:40 08.08.2022
715 Clear 20 1023 71 10000 3.09 230 19:58 08.08.2022
716 Clear 20 1023 73 10000 4.12 250 19:31 08.08.2022
717 Rain 21 1026 74 10000 3.13 245 17:47 08.08.2022
718 Rain 21 1022 78 10000 3.75 329 15:47 08.08.2022
719 Rain 19 1023 81 10000 6.17 290 14:45 08.08.2022
720 Rain 18 1024 78 10000 5.14 300 12:30 08.08.2022
721 Rain 19 1023 66 10000 6.71 300 10:25 08.08.2022
722 Clouds 18 1022 69 10000 4.92 325 07:49 08.08.2022
723 Clear 18 1021 75 10000 3.6 320 03:42 08.08.2022
724 Clouds 19 1021 76 10000 2.57 330 23:28 07.08.2022
725 Rain 20 1021 77 10000 3.09 20 21:41 07.08.2022
726 Rain 21 1021 71 10000 3.09 350 20:55 07.08.2022
727 Rain 22 1021 63 10000 3.6 330 20:18 07.08.2022
728 Rain 22 1020 61 10000 4.63 340 19:51 07.08.2022
729 Clouds 24 1020 50 10000 5.36 9 18:41 07.08.2022
730 Clouds 25 1020 50 10000 4.92 17 17:22 07.08.2022
731 Clouds 25 1020 47 10000 6.71 30 16:51 07.08.2022
732 Clouds 25 1021 47 10000 7.15 46 15:26 07.08.2022
733 Clouds 24 1022 54 10000 5.14 350 13:55 07.08.2022
734 Clouds 23 1022 54 10000 6.26 330 12:38 07.08.2022
735 Clear 21 1022 63 10000 5.66 350 10:42 07.08.2022
736 Clouds 20 1023 64 10000 6.17 340 09:56 07.08.2022
737 Clear 17 1023 69 10000 6.69 330 04:33 07.08.2022
738 Clear 18 1023 69 10000 6.17 330 01:59 07.08.2022
739 Clear 20 1023 66 10000 8.49 360 22:33 06.08.2022
740 Clouds 20 1023 68 10000 7.15 357 21:48 06.08.2022
741 Clouds 21 1022 70 10000 8.05 357 19:43 06.08.2022
742 Clouds 22 1022 68 10000 7.72 340 18:35 06.08.2022
743 Clouds 22 1022 68 10000 7.72 330 17:45 06.08.2022
744 Clouds 22 1022 68 10000 9.83 17 16:19 06.08.2022
745 Clouds 22 1022 70 10000 7.6 21 13:51 06.08.2022
746 Rain 21 1022 76 10000 8.94 323 12:27 06.08.2022
747 Clouds 21 1021 77 10000 8.94 340 10:53 06.08.2022
748 Clouds 22 1020 79 10000 8.49 3 09:31 06.08.2022
749 Clouds 24 1016 65 10000 9.77 300 04:38 06.08.2022
750 Clear 27 1014 55 10000 4.12 270 00:49 06.08.2022
751 Clouds 28 1013 57 10000 2.24 292 22:35 05.08.2022
752 Clear 30 1012 50 10000 2.06 330 20:50 05.08.2022
753 Clear 33 1013 40 10000 2.57 330 19:18 05.08.2022
754 Clear 35 1012 38 10000 3.6 330 18:41 05.08.2022
755 Clear 36 1012 33 10000 6.26 313 16:53 05.08.2022
756 Clear 36 1013 33 10000 2.57 0 15:25 05.08.2022
757 Clear 35 1013 33 10000 2.24 236 14:38 05.08.2022
758 Clear 35 1013 36 10000 3.58 339 13:38 05.08.2022
759 Clear 34 1013 38 10000 3.6 0 13:18 05.08.2022
760 Clear 32 1014 41 10000 4.63 150 11:55 05.08.2022
761 Clear 26 1014 53 10000 3.09 120 09:18 05.08.2022
762 Clear 24 1014 60 10000 3.6 120 07:57 05.08.2022
763 Clear 22 1014 64 10000 2.57 150 04:48 05.08.2022
764 Clear 24 1015 54 10000 3.6 180 23:49 04.08.2022
765 Clear 27 1015 43 10000 2.06 100 21:37 04.08.2022
766 Clear 28 1015 41 10000 2.06 100 21:18 04.08.2022
767 Clear 29 1015 37 10000 1.54 130 20:38 04.08.2022
768 Clear 32 1015 33 10000 3.6 160 19:00 04.08.2022
769 Clear 33 1015 32 10000 3.58 83 18:34 04.08.2022
770 Clear 34 1016 32 10000 2.57 150 15:59 04.08.2022
771 Clear 32 1017 34 10000 3.6 150 13:34 04.08.2022
772 Clear 30 1018 39 10000 3.6 110 11:42 04.08.2022
773 Clear 26 1018 48 10000 3.58 175 10:24 04.08.2022
774 Clear 22 1019 59 10000 1.34 113 07:49 04.08.2022
775 Clear 20 1018 60 10000 1.54 170 03:33 04.08.2022
776 Clear 20 1018 64 10000 1.54 180 01:42 04.08.2022
777 Clear 22 1018 53 10000 2.06 230 23:41 03.08.2022
778 Clear 26 1017 47 10000 1.54 140 21:34 03.08.2022
779 Clear 29 1017 41 10000 1.03 0 20:22 03.08.2022
780 Clear 30 1017 36 10000 2.68 92 19:28 03.08.2022
781 Clear 32 1017 32 10000 2.57 40 17:20 03.08.2022
782 Clear 32 1017 32 10000 5.81 37 16:23 03.08.2022
783 Clear 32 1018 34 10000 3.6 40 14:25 03.08.2022
784 Clear 29 1019 43 10000 4.02 108 11:47 03.08.2022
785 Clouds 21 1020 71 10000 2.06 260 07:55 03.08.2022
786 Clear 18 1018 80 10000 1.03 0 04:46 03.08.2022
787 Clear 20 1019 74 10000 1.54 190 03:26 03.08.2022
788 Clear 20 1019 72 10000 2.57 180 01:18 03.08.2022
789 Clear 22 1019 65 10000 1.03 10 22:53 02.08.2022
790 Clear 24 1019 62 10000 2.68 257 21:53 02.08.2022
791 Clear 25 1018 56 10000 2.24 269 20:37 02.08.2022
792 Clear 29 1018 47 10000 2.57 350 18:48 02.08.2022
793 Clouds 29 1018 42 10000 4.47 360 16:21 02.08.2022
794 Clear 26 1020 60 10000 4.63 310 11:45 02.08.2022
795 Clear 22 1019 71 10000 5.81 299 09:18 02.08.2022
796 Clear 21 1018 74 10000 4.47 349 07:54 02.08.2022
797 Clear 19 1018 77 10000 3.13 326 06:43 02.08.2022
798 Clear 19 1017 76 10000 4.02 320 04:55 02.08.2022
799 Clouds 22 1017 74 10000 2.24 243 23:51 01.08.2022
800 Clouds 23 1017 69 10000 2.57 330 22:36 01.08.2022
801 Clouds 24 1016 60 10000 5.36 315 20:53 01.08.2022
802 Clouds 26 1015 57 10000 6.26 314 19:32 01.08.2022
803 Clouds 27 1015 53 10000 8.94 309 18:42 01.08.2022
804 Clouds 28 1015 48 10000 8.05 291 16:54 01.08.2022
805 Clouds 28 1015 49 10000 8.05 276 16:28 01.08.2022
806 Clouds 27 1015 57 10000 7.15 331 15:30 01.08.2022
807 Rain 27 1015 49 10000 10.28 344 14:43 01.08.2022
808 Clouds 28 1015 50 10000 6.71 326 12:51 01.08.2022
809 Clear 24 1015 62 10000 3.09 340 10:22 01.08.2022
810 Clouds 23 1015 69 10000 2.57 160 08:39 01.08.2022
811 Clear 20 1015 72 10000 2.24 298 06:21 01.08.2022
812 Clouds 21 1015 73 10000 2.24 320 04:20 01.08.2022
813 Clear 21 1015 66 10000 4.02 320 00:55 01.08.2022
814 Clear 22 1016 62 10000 5.66 310 22:42 31.07.2022
815 Clear 23 1016 58 10000 5.66 310 21:35 31.07.2022
816 Clear 24 1015 52 10000 7.72 280 19:58 31.07.2022
817 Clear 26 1015 49 10000 6.71 292 18:36 31.07.2022
818 Clear 27 1015 43 10000 10.28 312 16:18 31.07.2022
819 Clear 26 1016 44 10000 9.83 5 13:53 31.07.2022
820 Clouds 25 1016 48 10000 9.83 327 12:29 31.07.2022
821 Clouds 23 1016 60 10000 12.96 321 10:22 31.07.2022
822 Clouds 19 1017 70 10000 11.18 342 08:19 31.07.2022
823 Clear 18 1016 74 10000 11.62 280 04:30 31.07.2022
824 Clear 19 1016 78 10000 10.73 330 00:23 31.07.2022
825 Clouds 19 1015 79 10000 6.69 280 22:20 30.07.2022
826 Clouds 20 1015 79 10000 7.6 305 21:50 30.07.2022
827 Clouds 20 1015 79 10000 8.49 296 21:20 30.07.2022
828 Rain 20 1015 78 10000 7.15 304 19:59 30.07.2022
829 Rain 21 1015 76 10000 8.75 300 19:27 30.07.2022
830 Rain 23 1014 66 10000 10.73 321 17:48 30.07.2022
831 Rain 23 1014 71 10000 10.73 306 16:21 30.07.2022
832 Clouds 23 1014 72 10000 8.94 295 15:27 30.07.2022
833 Clouds 21 1014 79 10000 6.26 298 13:21 30.07.2022
834 Rain 20 1015 86 10000 5.66 280 12:21 30.07.2022
835 Rain 19 1015 88 10000 4.47 314 10:44 30.07.2022
836 Rain 18 1015 90 10000 5.36 311 09:59 30.07.2022
837 Rain 18 1015 89 10000 5.14 290 08:49 30.07.2022
838 Clouds 19 1015 84 10000 6.26 317 06:50 30.07.2022
839 Clouds 20 1015 85 10000 9.39 300 02:33 30.07.2022
840 Clear 20 1015 87 10000 3.09 260 23:30 29.07.2022
841 Clear 21 1015 86 10000 2.06 310 21:36 29.07.2022
842 Clear 22 1015 84 10000 2.06 320 20:50 29.07.2022
843 Clear 23 1014 81 10000 2.24 357 19:45 29.07.2022
844 Rain 24 1015 80 10000 1.52 327 16:59 29.07.2022
845 Clouds 28 1015 50 10000 5.14 340 14:38 29.07.2022
846 Clouds 28 1016 50 10000 3.6 340 12:41 29.07.2022
847 Clear 23 1016 65 10000 2.06 200 08:52 29.07.2022
848 Clear 22 1015 65 10000 2.57 200 08:23 29.07.2022
849 Clear 18 1015 78 10000 1.03 0 05:19 29.07.2022
850 Clear 22 1016 64 10000 1.03 0 23:59 28.07.2022
851 Clear 24 1015 58 10000 1.54 110 21:39 28.07.2022
852 Clear 26 1015 51 10000 2.24 109 20:52 28.07.2022
853 Clear 26 1015 49 10000 2.68 101 20:18 28.07.2022
854 Clear 27 1015 46 10000 3.6 150 19:40 28.07.2022
855 Clear 29 1015 43 10000 2.57 120 18:19 28.07.2022
856 Clear 29 1015 43 10000 2.57 150 17:36 28.07.2022
857 Clouds 29 1016 43 10000 2.68 59 16:41 28.07.2022
858 Clouds 27 1017 49 10000 2.06 0 13:57 28.07.2022
859 Clouds 26 1017 54 10000 2.57 0 12:41 28.07.2022
860 Clear 20 1019 70 10000 3.6 340 09:21 28.07.2022
861 Clear 16 1018 85 10000 3.09 330 05:41 28.07.2022
862 Clear 16 1018 86 10000 5.36 323 05:21 28.07.2022
863 Clear 18 1018 82 10000 4.47 323 00:28 28.07.2022
864 Clear 20 1016 75 10000 1.34 341 21:58 27.07.2022
865 Clear 22 1015 71 10000 2.57 290 20:20 27.07.2022
866 Clouds 23 1015 71 10000 3.6 220 19:30 27.07.2022
867 Rain 23 1015 71 10000 5.66 310 16:33 27.07.2022
868 Rain 24 1015 69 10000 3.6 270 15:51 27.07.2022
869 Rain 24 1016 66 10000 3.6 330 14:42 27.07.2022
870 Rain 25 1014 72 10000 3.09 330 13:57 27.07.2022
871 Clouds 25 1015 64 10000 2.24 313 11:49 27.07.2022
872 Clear 20 1015 81 10000 2.57 160 07:53 27.07.2022
873 Clouds 18 1014 87 10000 2.57 180 05:23 27.07.2022
874 Clear 19 1015 88 10000 2.24 216 23:41 26.07.2022
875 Clear 19 1015 87 10000 1.79 207 22:20 26.07.2022
876 Clear 20 1015 85 10000 3.09 310 21:19 26.07.2022
877 Clear 21 1014 83 10000 3.13 248 19:39 26.07.2022
878 Rain 21 1015 86 10000 4.63 270 18:41 26.07.2022
879 Rain 21 1014 87 10000 4.12 300 17:55 26.07.2022
880 Rain 22 1013 87 10000 5.66 350 15:47 26.07.2022
881 Clouds 26 1014 63 10000 6.26 14 14:44 26.07.2022
882 Rain 23 1014 79 10000 4.47 290 12:41 26.07.2022
883 Rain 21 1014 83 10000 6.69 300 10:35 26.07.2022
884 Rain 20 1013 86 10000 9.39 308 08:31 26.07.2022
885 Rain 23 1012 73 10000 7.6 258 03:58 26.07.2022
886 Clear 26 1009 58 10000 2.57 150 00:24 26.07.2022
887 Clear 27 1009 54 10000 4.12 150 22:43 25.07.2022
888 Clear 28 1010 53 10000 4.12 150 22:21 25.07.2022
889 Clear 29 1009 52 10000 3.6 140 21:31 25.07.2022
890 Clear 31 1010 47 10000 6.17 160 20:39 25.07.2022
891 Clear 34 1010 39 10000 6.17 150 19:26 25.07.2022
892 Clear 34 1010 37 10000 6.17 140 18:18 25.07.2022
893 Clear 34 1010 37 10000 6.17 140 18:18 25.07.2022
894 Clear 35 1010 36 10000 7.2 150 17:24 25.07.2022
895 Clear 33 1013 37 10000 6.26 138 14:19 25.07.2022
896 Clear 30 1015 37 10000 7.6 175 11:39 25.07.2022
897 Clear 23 1017 53 10000 2.24 159 08:22 25.07.2022
898 Clear 20 1018 64 10000 1.54 200 01:49 25.07.2022
899 Clear 23 1019 54 10000 0.89 309 23:49 24.07.2022
900 Clear 24 1018 50 10000 1.03 100 22:51 24.07.2022
901 Clear 24 1018 48 10000 1.54 50 22:24 24.07.2022
902 Clear 26 1018 43 10000 1.54 30 21:18 24.07.2022
903 Clear 27 1018 39 10000 2.57 20 20:46 24.07.2022
904 Clear 30 1018 37 10000 3.6 360 19:38 24.07.2022
905 Clear 31 1017 35 10000 3.6 350 18:30 24.07.2022
906 Clear 31 1019 35 10000 5.81 10 15:57 24.07.2022
907 Clear 31 1019 35 10000 5.66 310 15:33 24.07.2022
908 Clear 30 1020 35 10000 6.17 320 13:54 24.07.2022
909 Clear 29 1020 37 10000 4.63 320 12:52 24.07.2022
910 Clouds 28 1021 40 10000 6.71 317 11:37 24.07.2022
911 Clouds 27 1021 46 10000 5.81 7 10:48 24.07.2022
912 Clouds 23 1021 62 10000 8.94 337 08:30 24.07.2022
913 Clouds 23 1020 67 10000 5.81 331 07:46 24.07.2022
914 Clouds 22 1019 68 10000 4.92 329 03:57 24.07.2022
915 Clouds 25 1019 53 10000 6.17 320 23:48 23.07.2022
916 Clear 28 1016 50 10000 6.69 310 20:59 23.07.2022
917 Clear 30 1014 35 10000 4.12 320 19:44 23.07.2022
918 Clear 32 1015 33 10000 6.17 300 18:50 23.07.2022
919 Clear 32 1015 39 10000 7.2 290 17:28 23.07.2022
920 Clouds 32 1016 38 10000 7.6 313 16:31 23.07.2022
921 Clouds 32 1014 45 10000 6.17 310 15:22 23.07.2022
922 Clouds 33 1019 43 10000 6.69 320 14:56 23.07.2022
923 Clouds 33 1015 43 10000 8.49 309 14:26 23.07.2022
924 Clear 33 1016 41 10000 7.15 304 12:44 23.07.2022
925 Clear 30 1016 48 10000 10.28 317 10:45 23.07.2022
926 Clear 29 1016 49 10000 9.83 291 09:56 23.07.2022
927 Clear 27 1016 59 10000 8.05 311 08:31 23.07.2022
928 Clouds 24 1016 66 10000 4.02 236 03:39 23.07.2022
929 Clear 25 1016 63 10000 1.03 110 00:49 23.07.2022
930 Clear 27 1015 54 10000 1.54 110 22:32 22.07.2022
931 Clear 30 1015 47 10000 2.06 60 20:52 22.07.2022
932 Clear 33 1016 41 10000 2.57 60 19:35 22.07.2022
933 Clear 34 1015 39 10000 1.79 72 18:28 22.07.2022
934 Clear 35 1016 37 10000 3.09 30 16:49 22.07.2022
935 Clear 34 1017 40 10000 2.57 0 14:51 22.07.2022
936 Clear 29 1019 49 10000 4.63 360 11:22 22.07.2022
937 Clear 26 1019 58 10000 5.81 4 09:25 22.07.2022
938 Clear 25 1020 63 10000 6.69 310 08:32 22.07.2022
939 Clear 22 1019 74 10000 1.79 257 05:19 22.07.2022
940 Clouds 25 1019 60 10000 7.72 300 00:48 22.07.2022
941 Clear 27 1018 58 10000 9.83 313 22:43 21.07.2022
942 Clouds 28 1018 53 10000 6.71 288 21:33 21.07.2022
943 Clear 32 1017 46 10000 7.15 297 19:27 21.07.2022
944 Clear 34 1017 39 10000 4.92 314 17:41 21.07.2022
945 Clear 35 1017 39 10000 4.02 307 17:19 21.07.2022
946 Clear 34 1017 36 10000 3.13 49 15:22 21.07.2022
947 Clear 34 1018 37 10000 3.6 30 14:37 21.07.2022
948 Clear 32 1018 41 10000 3.6 40 12:28 21.07.2022
949 Clear 30 1019 44 10000 2.68 240 11:19 21.07.2022
950 Clear 28 1019 51 10000 4.02 206 09:38 21.07.2022
951 Clear 27 1019 53 10000 2.68 218 08:52 21.07.2022
952 Clear 24 1019 55 10000 1.79 259 07:50 21.07.2022
953 Clear 21 1018 58 10000 0.51 0 05:47 21.07.2022
954 Clear 24 1018 48 10000 3.09 190 00:48 21.07.2022
955 Clear 27 1018 39 10000 2.24 176 22:22 20.07.2022
956 Clear 30 1018 33 10000 3.6 160 20:59 20.07.2022
957 Clear 31 1018 30 10000 5.66 160 19:53 20.07.2022
958 Clear 32 1018 28 10000 5.14 150 19:25 20.07.2022
959 Clear 33 1018 27 10000 6.71 151 18:51 20.07.2022
960 Clear 34 1018 27 10000 7.6 159 18:22 20.07.2022
961 Clear 35 1018 26 10000 6.26 136 16:46 20.07.2022
962 Clear 35 1019 27 10000 6.17 130 15:32 20.07.2022
963 Clear 34 1019 27 10000 7.6 208 14:20 20.07.2022
964 Clear 32 1020 32 10000 6.17 130 11:55 20.07.2022
965 Clear 29 1022 48 10000 3.09 80 09:43 20.07.2022
966 Clear 20 1021 65 10000 2.06 180 04:36 20.07.2022
967 Clear 22 1021 55 10000 2.57 220 00:52 20.07.2022
968 Clear 22 1020 55 10000 3.09 180 23:41 19.07.2022
969 Clear 24 1020 46 10000 2.06 170 22:33 19.07.2022
970 Clear 25 1020 45 10000 2.06 130 21:46 19.07.2022
971 Clear 28 1020 39 10000 2.06 110 20:48 19.07.2022
972 Clear 31 1020 31 10000 2.06 80 19:21 19.07.2022
973 Clear 32 1020 29 10000 2.57 50 18:34 19.07.2022
974 Clear 33 1020 29 10000 2.57 50 17:49 19.07.2022
975 Clear 32 1022 30 10000 3.09 50 14:58 19.07.2022
976 Clear 30 1023 33 10000 4.02 150 12:27 19.07.2022
977 Clear 29 1023 37 10000 2.57 30 11:31 19.07.2022
978 Clear 26 1023 45 10000 1.54 0 09:44 19.07.2022
979 Clear 23 1023 52 10000 1.54 140 08:42 19.07.2022
980 Clear 19 1024 63 10000 1.03 150 07:19 19.07.2022
981 Clear 17 1023 63 10000 0.89 238 05:48 19.07.2022
982 Clear 17 1023 66 10000 1.54 180 04:59 19.07.2022
983 Clear 18 1023 58 10000 3.09 170 02:33 19.07.2022
984 Clear 20 1023 49 10000 2.57 250 23:50 18.07.2022
985 Clear 21 1023 47 10000 2.06 190 23:19 18.07.2022
986 Clear 22 1023 46 10000 3.09 190 22:23 18.07.2022
987 Clear 24 1023 39 10000 1.54 120 20:57 18.07.2022
988 Clear 27 1023 32 10000 1.54 90 19:54 18.07.2022
989 Clear 29 1023 28 10000 2.57 70 18:24 18.07.2022
990 Clear 30 1024 25 10000 4.02 80 16:28 18.07.2022
991 Clear 30 1024 26 10000 2.57 10 15:19 18.07.2022
992 Clear 28 1025 29 10000 3.58 60 13:31 18.07.2022
993 Clouds 26 1026 35 10000 3.58 90 11:34 18.07.2022
994 Clear 23 1026 43 10000 2.57 30 09:54 18.07.2022
995 Clear 18 1027 57 10000 1.03 0 07:49 18.07.2022
996 Clear 16 1026 59 10000 1.03 0 03:32 18.07.2022
997 Clear 20 1026 53 10000 0.89 351 22:56 17.07.2022
998 Clear 21 1026 51 10000 1.54 110 22:29 17.07.2022
999 Clear 22 1025 45 10000 1.03 20 21:39 17.07.2022
1000 Clear 23 1023 46 10000 1.03 20 20:46 17.07.2022
1001 Clear 25 1025 38 10000 1.54 340 19:50 17.07.2022
1002 Clear 26 1025 34 10000 2.06 320 19:21 17.07.2022
1003 Clear 27 1025 34 10000 4.92 313 17:43 17.07.2022
1004 Clear 27 1025 33 10000 3.6 360 17:25 17.07.2022
1005 Clear 27 1025 29 10000 4.92 327 16:32 17.07.2022
1006 Clear 27 1026 30 10000 4.63 340 15:50 17.07.2022
1007 Clear 26 1026 34 10000 4.47 23 13:51 17.07.2022
1008 Clear 25 1027 36 10000 2.57 0 12:43 17.07.2022
1009 Clouds 22 1027 41 10000 2.68 21 10:20 17.07.2022
1010 Clear 18 1027 67 10000 1.54 150 07:31 17.07.2022
1011 Clear 17 1026 65 10000 3.09 320 02:35 17.07.2022
1012 Clear 20 1023 53 10000 4.47 11 23:28 16.07.2022
1013 Clear 21 1022 45 10000 4.92 357 22:33 16.07.2022
1014 Clear 23 1021 42 10000 5.36 352 20:40 16.07.2022
1015 Clear 25 1020 40 10000 4.63 330 18:58 16.07.2022
1016 Clear 26 1019 40 10000 10.73 281 17:47 16.07.2022
1017 Clear 27 1019 38 10000 8.49 299 16:22 16.07.2022
1018 Clear 26 1019 42 10000 7.2 310 13:26 16.07.2022
1019 Clear 23 1020 46 10000 2.68 171 10:29 16.07.2022
1020 Clear 21 1020 49 10000 2.24 103 09:26 16.07.2022
1021 Clear 20 1020 54 10000 2.24 115 08:41 16.07.2022
1022 Clear 18 1020 66 10000 1.54 150 07:40 16.07.2022
1023 Clear 15 1020 73 10000 1.54 200 03:38 16.07.2022
1024 Clear 17 1020 65 10000 1.03 340 00:48 16.07.2022
1025 Clear 19 1020 58 10000 1.54 20 22:57 15.07.2022
1026 Clear 20 1020 55 10000 2.06 60 22:26 15.07.2022
1027 Clear 22 1019 47 10000 4.02 38 20:44 15.07.2022
1028 Clear 24 1019 42 10000 4.92 22 19:35 15.07.2022
1029 Clear 25 1018 39 10000 4.92 350 18:30 15.07.2022
1030 Clear 25 1018 38 10000 3.6 360 17:19 15.07.2022
1031 Clear 25 1019 43 10000 4.63 330 14:24 15.07.2022
1032 Clear 24 1019 45 10000 9.39 291 12:38 15.07.2022
1033 Clouds 22 1019 52 10000 8.49 354 10:53 15.07.2022
1034 Clear 19 1018 79 10000 8.05 320 07:55 15.07.2022
1035 Clouds 17 1017 88 10000 6.26 301 05:54 15.07.2022
1036 Rain 21 1015 74 10000 7.2 20 00:51 15.07.2022
1037 Rain 24 1011 53 10000 4.63 190 23:25 14.07.2022
1038 Clear 25 1011 51 10000 4.12 200 22:42 14.07.2022
1039 Clear 26 1012 47 10000 2.06 170 21:43 14.07.2022
1040 Clear 27 1012 43 10000 2.06 170 21:24 14.07.2022
1041 Clear 27 1011 43 10000 2.06 200 20:43 14.07.2022
1042 Clouds 30 1013 37 10000 0.89 292 20:19 14.07.2022
1043 Clear 33 1014 28 10000 3.6 330 18:41 14.07.2022
1044 Clear 34 1016 28 10000 5.14 290 16:21 14.07.2022
1045 Clear 34 1016 28 10000 4.63 340 15:26 14.07.2022
1046 Clear 33 1017 28 10000 9.83 315 13:53 14.07.2022
1047 Clear 32 1017 28 10000 6.17 290 12:48 14.07.2022
1048 Clear 31 1017 30 10000 4.02 261 11:42 14.07.2022
1049 Clear 31 1018 30 10000 7.15 298 11:22 14.07.2022
1050 Clear 28 1018 39 10000 1.54 130 09:49 14.07.2022
1051 Clear 21 1019 60 10000 2.57 160 06:54 14.07.2022
1052 Clear 21 1019 57 10000 2.24 360 01:24 14.07.2022
1053 Clear 21 1019 56 10000 3.09 260 00:53 14.07.2022
1054 Clear 24 1020 47 10000 5.66 290 22:33 13.07.2022
1055 Clouds 25 1020 44 10000 4.02 309 21:56 13.07.2022
1056 Clear 26 1018 41 10000 5.66 280 20:53 13.07.2022
1057 Clear 28 1019 39 10000 7.2 280 19:30 13.07.2022
1058 Clear 30 1019 36 10000 8.05 269 17:51 13.07.2022
1059 Clear 30 1020 34 10000 9.83 307 16:40 13.07.2022
1060 Clear 30 1020 33 10000 7.6 295 15:24 13.07.2022
1061 Clear 28 1021 38 10000 10.28 296 12:56 13.07.2022
1062 Clear 28 1021 38 10000 10.28 296 12:56 13.07.2022
1063 Clear 25 1022 46 10000 7.72 310 10:46 13.07.2022
1064 Clear 24 1022 48 10000 7.72 320 10:24 13.07.2022
1065 Clear 22 1023 53 10000 10.28 317 09:25 13.07.2022
1066 Clear 19 1023 62 10000 6.71 302 07:52 13.07.2022
1067 Clear 15 1022 69 10000 4.63 280 03:19 13.07.2022
1068 Clear 17 1022 60 10000 3.6 270 23:52 12.07.2022
1069 Clear 19 1023 52 10000 3.6 320 22:18 12.07.2022
1070 Clear 19 1021 52 10000 3.6 320 21:35 12.07.2022
1071 Clear 21 1021 51 10000 2.57 320 20:42 12.07.2022
1072 Clear 23 1023 43 10000 4.12 340 19:37 12.07.2022
1073 Clear 24 1022 37 10000 8.94 265 17:55 12.07.2022
1074 Clear 24 1022 40 10000 7.6 308 16:20 12.07.2022
1075 Clear 23 1023 43 10000 5.36 353 14:31 12.07.2022
1076 Clear 22 1023 43 10000 5.14 330 13:21 12.07.2022
1077 Clouds 23 1023 44 10000 5.14 300 11:42 12.07.2022
1078 Clear 21 1023 50 10000 6.26 23 10:25 12.07.2022
1079 Clear 19 1023 57 10000 4.02 352 08:38 12.07.2022
1080 Clear 17 1023 69 10000 3.6 270 07:38 12.07.2022
1081 Clouds 14 1023 78 10000 1.79 250 05:44 12.07.2022
1082 Clouds 15 1022 76 10000 2.68 238 04:18 12.07.2022
1083 Clouds 16 1023 69 10000 3.13 305 23:50 11.07.2022
1084 Clear 17 1022 64 10000 4.63 290 22:37 11.07.2022
1085 Clear 19 1022 63 10000 5.36 322 20:54 11.07.2022
1086 Clouds 20 1021 55 10000 8.49 302 20:29 11.07.2022
1087 Clouds 22 1021 50 10000 9.83 309 18:48 11.07.2022
1088 Clear 22 1021 48 10000 8.49 302 18:23 11.07.2022
1089 Clear 22 1021 48 10000 8.49 302 18:23 11.07.2022
1090 Clear 22 1021 42 10000 5.81 338 16:26 11.07.2022
1091 Clouds 21 1021 47 10000 4.12 340 14:58 11.07.2022
1092 Clear 21 1021 46 10000 7.6 6 12:38 11.07.2022
1093 Clouds 18 1022 58 10000 5.36 340 10:56 11.07.2022
1094 Clouds 18 1022 62 10000 6.17 320 09:54 11.07.2022
1095 Clear 17 1022 63 10000 8.49 281 09:25 11.07.2022
1096 Clouds 16 1022 66 10000 8.05 297 08:30 11.07.2022
1097 Clear 16 1022 60 10000 5.66 330 00:56 11.07.2022
1098 Clear 16 1021 60 10000 5.36 292 23:53 10.07.2022
1099 Clear 16 1021 57 10000 5.14 340 22:45 10.07.2022
1100 Clear 17 1021 54 10000 8.75 340 20:55 10.07.2022
1101 Clear 17 1021 53 10000 8.75 340 20:34 10.07.2022
1102 Clear 19 1020 51 10000 7.72 330 19:29 10.07.2022
1103 Clear 20 1019 47 10000 8.75 340 18:23 10.07.2022
1104 Clouds 21 1019 45 10000 11.62 356 17:20 10.07.2022
1105 Clouds 21 1019 47 10000 10.28 26 16:21 10.07.2022
1106 Clouds 20 1019 50 10000 12.07 288 14:47 10.07.2022
1107 Clouds 19 1019 63 10000 8.05 332 13:30 10.07.2022
1108 Clouds 18 1021 72 10000 3.6 340 11:44 10.07.2022
1109 Rain 17 1019 74 10000 5.81 1 09:45 10.07.2022
1110 Clouds 17 1019 79 10000 5.66 330 08:44 10.07.2022
1111 Clouds 16 1019 81 10000 4.02 327 07:20 10.07.2022
1112 Clouds 16 1021 85 10000 3.09 310 23:53 09.07.2022
1113 Rain 16 1021 88 10000 5.81 321 22:26 09.07.2022
1114 Rain 16 1022 87 10000 8.05 318 21:47 09.07.2022
1115 Clouds 20 1021 67 10000 6.26 309 19:50 09.07.2022
1116 Rain 23 1020 58 10000 8.75 290 18:32 09.07.2022
1117 Clouds 24 1021 53 10000 10.73 331 17:32 09.07.2022
1118 Clear 24 1021 49 10000 13.41 296 16:36 09.07.2022
1119 Clear 25 1021 40 10000 8.23 310 15:39 09.07.2022
1120 Clouds 24 1023 43 10000 8.49 305 14:24 09.07.2022
1121 Clear 24 1023 46 10000 8.94 5 13:48 09.07.2022
1122 Clouds 23 1024 47 10000 10.28 302 12:29 09.07.2022
1123 Clouds 21 1025 55 10000 8.94 348 10:42 09.07.2022
1124 Clouds 20 1025 58 10000 7.15 13 10:21 09.07.2022
1125 Clouds 17 1025 68 10000 7.15 325 07:44 09.07.2022
1126 Clouds 15 1026 73 10000 5.14 310 04:53 09.07.2022
1127 Clouds 16 1026 71 10000 6.17 310 00:43 09.07.2022
1128 Clouds 17 1026 66 10000 8.05 349 22:42 08.07.2022
1129 Clouds 17 1026 68 10000 10.73 350 21:31 08.07.2022
1130 Clouds 17 1026 68 10000 10.28 303 20:40 08.07.2022
1131 Clouds 18 1026 66 10000 9.39 316 19:48 08.07.2022
1132 Clouds 19 1026 68 10000 15.2 288 18:20 08.07.2022
1133 Clouds 18 1026 70 10000 15.2 305 16:39 08.07.2022
1134 Clouds 18 1026 72 10000 13.41 312 14:51 08.07.2022
1135 Clouds 17 1026 74 10000 13.86 264 13:24 08.07.2022
1136 Clouds 17 1026 74 10000 13.86 264 13:24 08.07.2022
1137 Clouds 17 1025 77 10000 14.75 311 11:28 08.07.2022
1138 Clouds 17 1025 75 10000 12.07 308 10:27 08.07.2022
1139 Clouds 16 1023 77 10000 9.83 327 08:26 08.07.2022
1140 Clouds 17 1022 82 10000 7.15 311 06:49 08.07.2022
1141 Clouds 16 1021 79 10000 5.14 310 01:23 08.07.2022
1142 Clear 17 1021 74 10000 8.49 307 22:57 07.07.2022
1143 Clear 17 1021 73 10000 6.69 290 22:29 07.07.2022
1144 Clear 17 1020 69 10000 9.39 317 20:22 07.07.2022
1145 Clear 19 1020 65 10000 12.07 312 18:20 07.07.2022
1146 Clear 20 1020 60 10000 12.96 305 16:51 07.07.2022
1147 Rain 20 1020 52 10000 11.62 319 14:34 07.07.2022
1148 Clouds 21 1019 49 10000 9.39 293 13:18 07.07.2022
1149 Clouds 22 1019 49 10000 8.75 280 12:24 07.07.2022
1150 Clouds 22 1019 49 10000 8.75 280 12:24 07.07.2022
1151 Clear 23 1019 51 10000 8.75 280 11:44 07.07.2022
1152 Clear 23 1019 50 10000 12.07 305 11:24 07.07.2022
1153 Clear 23 1019 52 10000 5.36 275 10:40 07.07.2022
1154 Clear 23 1020 52 10000 6.71 310 10:22 07.07.2022
1155 Clear 17 1019 81 10000 1.54 200 06:40 07.07.2022
1156 Clouds 18 1020 76 10000 1.34 315 00:32 07.07.2022
1157 Clouds 19 1020 75 10000 0.89 331 23:36 06.07.2022
1158 Clear 19 1020 74 10000 3.6 280 23:18 06.07.2022
1159 Clear 19 1020 74 10000 3.6 280 22:52 06.07.2022
1160 Clear 19 1020 74 10000 3.6 280 22:52 06.07.2022
1161 Clear 19 1020 73 10000 3.09 270 22:34 06.07.2022
1162 Clouds 22 1020 64 10000 4.02 279 20:33 06.07.2022
1163 Clouds 23 1019 61 10000 4.47 292 19:33 06.07.2022
1164 Clouds 23 1021 62 10000 6.17 270 17:22 06.07.2022
1165 Clouds 25 1020 51 10000 10.73 311 15:58 06.07.2022
1166 Rain 26 1021 49 10000 5.14 330 13:21 06.07.2022
1167 Clouds 25 1020 54 10000 4.92 288 12:28 06.07.2022
1168 Clouds 25 1020 57 10000 9.39 295 11:44 06.07.2022
1169 Clouds 23 1020 64 10000 5.81 354 10:18 06.07.2022
1170 Clear 20 1020 74 10000 2.68 280 07:44 06.07.2022
1171 Clear 19 1019 79 10000 3.58 329 07:19 06.07.2022
1172 Clear 17 1018 79 10000 4.63 330 01:20 06.07.2022
1173 Clouds 18 1019 76 10000 4.63 330 22:44 05.07.2022
1174 Clouds 19 1019 76 10000 4.12 340 21:29 05.07.2022
1175 Clouds 20 1018 75 10000 5.66 340 20:35 05.07.2022
1176 Clouds 22 1018 74 10000 6.26 331 19:40 05.07.2022
1177 Clouds 22 1017 73 10000 7.2 340 18:23 05.07.2022
1178 Clouds 22 1017 75 10000 8.05 332 17:39 05.07.2022
1179 Clouds 21 1018 78 10000 8.05 338 16:39 05.07.2022
1180 Clouds 20 1018 81 10000 8.49 337 15:23 05.07.2022
1181 Clouds 20 1018 84 10000 6.69 310 13:36 05.07.2022
1182 Rain 19 1018 85 10000 10.73 298 12:41 05.07.2022
1183 Clouds 20 1017 80 10000 8.49 309 10:46 05.07.2022
1184 Clouds 20 1017 80 10000 8.94 307 10:25 05.07.2022
1185 Rain 20 1017 81 10000 3.13 227 08:24 05.07.2022
1186 Rain 20 1017 82 10000 3.13 237 07:21 05.07.2022
1187 Clouds 19 1017 87 10000 1.79 253 04:40 05.07.2022
1188 Clouds 20 1017 85 10000 2.57 200 01:54 05.07.2022
1189 Rain 21 1018 81 10000 4.12 260 23:40 04.07.2022
1190 Rain 21 1018 81 10000 3.58 249 22:59 04.07.2022
1191 Rain 22 1018 76 10000 4.47 236 22:20 04.07.2022
1192 Rain 24 1016 67 10000 3.58 233 20:58 04.07.2022
1193 Rain 24 1016 63 10000 3.58 289 20:38 04.07.2022
1194 Rain 24 1017 62 10000 5.81 296 20:18 04.07.2022
1195 Rain 25 1016 60 10000 5.36 305 19:43 04.07.2022
1196 Rain 26 1016 62 10000 6.71 294 19:24 04.07.2022
1197 Clouds 27 1017 52 10000 2.57 210 17:23 04.07.2022
1198 Clouds 30 1017 39 10000 2.06 0 15:41 04.07.2022
1199 Clouds 30 1018 51 10000 5.14 340 14:21 04.07.2022
1200 Rain 27 1016 70 10000 3.09 340 12:56 04.07.2022
1201 Rain 28 1018 63 10000 6.69 280 11:43 04.07.2022
1202 Clouds 27 1020 59 10000 7.72 290 10:33 04.07.2022
1203 Clear 25 1018 71 10000 3.6 300 09:33 04.07.2022
1204 Clear 20 1017 75 10000 2.06 260 06:42 04.07.2022
1205 Clear 20 1017 75 10000 1.03 0 02:59 04.07.2022
1206 Clear 22 1018 69 10000 2.06 170 23:53 03.07.2022
1207 Clear 22 1018 69 10000 2.06 170 23:53 03.07.2022
1208 Clear 23 1018 66 10000 1.34 313 22:48 03.07.2022
1209 Clear 25 1017 62 10000 2.06 20 20:46 03.07.2022
1210 Clear 28 1018 48 10000 3.6 10 19:59 03.07.2022
1211 Clear 30 1018 42 10000 4.02 346 19:25 03.07.2022
1212 Clear 31 1018 39 10000 3.09 360 18:31 03.07.2022
1213 Clear 31 1018 43 10000 4.47 327 17:42 03.07.2022
1214 Clear 30 1019 46 10000 5.14 330 15:28 03.07.2022
1215 Clear 30 1019 47 10000 5.81 330 14:54 03.07.2022
1216 Clear 28 1018 51 10000 7.15 325 13:50 03.07.2022
1217 Clear 27 1020 51 10000 4.47 307 12:51 03.07.2022
1218 Clear 26 1020 53 10000 3.09 320 12:21 03.07.2022
1219 Clear 24 1021 57 10000 2.06 0 10:55 03.07.2022
1220 Clear 24 1021 58 10000 2.06 0 10:36 03.07.2022
1221 Clear 20 1021 68 10000 2.06 20 08:48 03.07.2022
1222 Clear 19 1021 75 10000 2.06 360 07:34 03.07.2022
1223 Clear 17 1021 74 10000 2.06 300 01:32 03.07.2022
1224 Clear 19 1022 70 10000 1.54 60 23:38 02.07.2022
1225 Clear 20 1022 65 10000 3.09 50 22:31 02.07.2022
1226 Clear 23 1023 55 10000 4.12 50 20:37 02.07.2022
1227 Clear 25 1022 45 10000 4.63 10 19:50 02.07.2022
1228 Clear 26 1022 43 10000 4.12 350 19:19 02.07.2022
1229 Clouds 26 1022 41 10000 5.36 7 17:40 02.07.2022
1230 Clouds 26 1023 41 10000 5.66 350 16:35 02.07.2022
1231 Clouds 24 1024 49 10000 5.66 320 13:51 02.07.2022
1232 Clouds 22 1025 56 10000 10.28 326 11:52 02.07.2022
1233 Clouds 21 1025 61 10000 9.83 342 10:53 02.07.2022
1234 Clouds 20 1025 63 10000 11.62 314 10:32 02.07.2022
1235 Clouds 17 1025 72 10000 8.23 310 08:39 02.07.2022
1236 Clouds 17 1025 73 10000 9.83 328 08:19 02.07.2022
1237 Clouds 14 1024 82 10000 6.69 320 05:59 02.07.2022
1238 Rain 15 1022 87 10000 6.71 327 00:55 02.07.2022
1239 Rain 16 1022 85 10000 10.28 308 23:31 01.07.2022
1240 Rain 17 1021 77 10000 10.28 317 22:40 01.07.2022
1241 Clouds 16 1019 81 8093 13.41 327 21:40 01.07.2022
1242 Clouds 17 1019 78 10000 19.22 323 20:59 01.07.2022
1243 Clouds 17 1018 78 10000 16.09 329 20:37 01.07.2022
1244 Rain 18 1017 71 10000 16.46 280 19:41 01.07.2022
1245 Clear 31 1012 42 10000 5.14 320 17:52 01.07.2022
1246 Clouds 30 1013 48 10000 3.6 340 15:26 01.07.2022
1247 Clear 29 1014 51 10000 5.14 350 13:54 01.07.2022
1248 Clear 29 1014 51 10000 5.14 350 13:54 01.07.2022
1249 Clouds 28 1014 56 10000 8.94 321 11:50 01.07.2022
1250 Clouds 26 1014 61 10000 8.94 273 10:20 01.07.2022
1251 Clear 24 1014 64 10000 8.49 278 08:50 01.07.2022
1252 Clear 24 1011 75 10000 4.47 250 03:18 01.07.2022
1253 Clear 24 1011 74 10000 2.06 240 00:25 01.07.2022
1254 Clear 26 1011 69 10000 1.34 321 22:56 30.06.2022
1255 Clear 26 1011 68 10000 1.54 330 22:33 30.06.2022
1256 Clear 27 1011 67 10000 1.54 340 21:59 30.06.2022
1257 Clear 27 1011 66 10000 1.54 340 21:35 30.06.2022
1258 Clear 30 1011 58 10000 1.34 353 20:29 30.06.2022
1259 Clear 31 1010 54 10000 2.68 340 19:54 30.06.2022
1260 Clear 32 1010 51 10000 2.57 360 19:19 30.06.2022
1261 Clear 33 1010 48 10000 2.06 350 18:42 30.06.2022
1262 Clouds 34 1011 46 10000 2.57 350 17:38 30.06.2022
1263 Clouds 33 1011 48 10000 2.57 330 16:48 30.06.2022
1264 Clouds 33 1012 51 10000 5.14 310 15:38 30.06.2022
1265 Clouds 30 1013 57 10000 4.63 310 13:34 30.06.2022
1266 Clouds 29 1013 58 10000 4.12 330 12:35 30.06.2022
1267 Clouds 28 1015 56 10000 5.36 331 11:37 30.06.2022
1268 Clouds 25 1013 69 10000 5.14 320 09:55 30.06.2022
1269 Clouds 24 1015 69 10000 6.26 353 09:34 30.06.2022
1270 Clouds 23 1014 77 10000 3.6 340 08:18 30.06.2022
1271 Clouds 21 1014 81 10000 3.6 30 07:18 30.06.2022
1272 Clouds 20 1014 80 10000 5.81 323 01:42 30.06.2022
1273 Clouds 21 1013 74 10000 8.05 323 23:34 29.06.2022
1274 Clouds 23 1013 64 10000 7.2 300 22:40 29.06.2022
1275 Clear 24 1012 66 10000 10.28 299 21:39 29.06.2022
1276 Clear 28 1009 62 10000 4.12 150 20:34 29.06.2022
1277 Clear 31 1009 55 10000 5.14 140 19:39 29.06.2022
1278 Clouds 33 1011 36 10000 6.71 146 17:54 29.06.2022
1279 Clouds 33 1010 45 10000 7.72 150 16:43 29.06.2022
1280 Clouds 34 1011 43 10000 8.05 158 15:32 29.06.2022
1281 Clouds 31 1012 55 10000 3.6 60 12:49 29.06.2022
1282 Clear 30 1015 55 10000 2.68 37 11:47 29.06.2022
1283 Clouds 26 1015 68 10000 3.09 60 09:34 29.06.2022
1284 Clouds 25 1015 72 10000 2.06 360 08:42 29.06.2022
1285 Rain 21 1015 80 10000 1.54 10 05:42 29.06.2022
1286 Clear 23 1016 75 10000 1.03 0 02:21 29.06.2022
1287 Clear 23 1018 70 10000 2.57 20 00:38 29.06.2022
1288 Clouds 25 1017 67 10000 1.03 0 23:26 28.06.2022
1289 Clouds 25 1017 66 10000 1.54 140 22:48 28.06.2022
1290 Clouds 26 1016 62 10000 2.06 50 21:55 28.06.2022
1291 Clouds 26 1016 64 10000 3.09 60 21:33 28.06.2022
1292 Clouds 27 1017 60 10000 0.89 321 20:51 28.06.2022
1293 Clouds 28 1018 56 10000 2.24 138 19:43 28.06.2022
1294 Clouds 29 1017 54 10000 2.06 80 19:23 28.06.2022
1295 Clouds 30 1016 52 10000 3.09 50 17:49 28.06.2022
1296 Clouds 31 1018 50 10000 2.57 0 16:29 28.06.2022
1297 Clouds 30 1018 52 10000 3.6 350 15:53 28.06.2022
1298 Clouds 29 1019 54 10000 4.63 10 14:22 28.06.2022
1299 Clouds 29 1019 55 10000 3.6 10 13:55 28.06.2022
1300 Clouds 28 1019 57 10000 4.63 320 13:26 28.06.2022
1301 Clouds 27 1020 60 10000 5.36 360 11:57 28.06.2022
1302 Clouds 24 1020 67 10000 10.28 315 09:46 28.06.2022
1303 Clouds 23 1020 73 10000 8.49 300 08:46 28.06.2022
1304 Clouds 22 1019 78 10000 6.17 310 07:58 28.06.2022
1305 Clouds 21 1019 81 10000 6.17 310 07:19 28.06.2022
1306 Rain 25 1016 57 10000 5.14 250 02:25 28.06.2022
1307 Rain 27 1015 57 10000 4.63 160 23:47 27.06.2022
1308 Clear 27 1014 61 10000 4.92 156 22:55 27.06.2022
1309 Clear 29 1014 56 10000 3.6 140 21:39 27.06.2022
1310 Clear 30 1014 52 10000 4.12 150 20:55 27.06.2022
1311 Clear 31 1013 47 10000 6.71 157 19:48 27.06.2022
1312 Clear 33 1014 46 10000 7.72 160 18:40 27.06.2022
1313 Clear 33 1014 45 10000 8.23 150 17:24 27.06.2022
1314 Clear 34 1014 43 10000 9.39 180 15:43 27.06.2022
1315 Clear 32 1015 46 10000 9.26 160 13:51 27.06.2022
1316 Clear 32 1015 48 10000 9.26 150 12:57 27.06.2022
1317 Clear 29 1016 57 10000 8.94 176 10:51 27.06.2022
1318 Clear 27 1016 62 10000 8.94 157 09:43 27.06.2022
1319 Clear 25 1016 69 10000 5.81 143 08:38 27.06.2022
1320 Clear 23 1015 76 10000 5.14 120 07:39 27.06.2022
1321 Clear 20 1016 79 10000 2.57 120 05:19 27.06.2022
1322 Clear 21 1016 73 10000 2.06 180 01:21 27.06.2022
1323 Clear 23 1016 65 10000 2.06 140 22:48 26.06.2022
1324 Clear 25 1016 60 10000 2.57 110 21:37 26.06.2022
1325 Clouds 27 1016 51 10000 1.54 70 20:28 26.06.2022
1326 Clouds 30 1015 46 10000 2.57 70 18:33 26.06.2022
1327 Clouds 31 1016 46 10000 2.06 60 17:38 26.06.2022
1328 Clouds 30 1016 49 10000 3.58 42 15:36 26.06.2022
1329 Clear 29 1016 53 10000 1.34 82 14:22 26.06.2022
1330 Clouds 29 1016 52 10000 2.68 0 13:23 26.06.2022
1331 Clouds 27 1017 59 10000 1.54 50 11:39 26.06.2022
1332 Clouds 26 1017 61 10000 2.06 30 10:42 26.06.2022
1333 Clear 25 1017 65 10000 1.54 60 09:55 26.06.2022
1334 Clear 21 1016 77 10000 1.03 0 07:47 26.06.2022
1335 Clear 21 1016 77 10000 1.03 0 07:47 26.06.2022
1336 Clear 17 1016 86 10000 3.09 190 05:26 26.06.2022
1337 Clear 19 1015 79 10000 1.34 255 00:37 26.06.2022
1338 Clear 19 1015 79 10000 0.89 248 00:18 26.06.2022
1339 Clear 20 1015 77 10000 1.79 236 23:29 25.06.2022
1340 Clear 20 1014 79 10000 1.54 310 22:46 25.06.2022
1341 Clear 20 1014 78 10000 1.54 320 22:24 25.06.2022
1342 Clear 21 1014 76 10000 2.57 20 21:21 25.06.2022
1343 Clouds 22 1014 74 10000 2.06 340 20:39 25.06.2022
1344 Clouds 22 1013 69 10000 2.57 340 19:59 25.06.2022
1345 Clouds 23 1014 64 10000 4.92 318 18:23 25.06.2022
1346 Clouds 23 1014 64 10000 6.71 350 17:26 25.06.2022
1347 Clouds 23 1015 68 10000 6.69 310 16:27 25.06.2022
1348 Clouds 22 1015 70 10000 8.05 302 14:31 25.06.2022
1349 Clouds 20 1015 77 10000 9.83 309 12:46 25.06.2022
1350 Clouds 19 1015 78 10000 8.05 313 12:27 25.06.2022
1351 Rain 17 1014 85 10000 7.15 317 09:24 25.06.2022
1352 Rain 17 1014 85 10000 7.15 317 09:24 25.06.2022
1353 Rain 17 1014 87 10000 7.2 290 08:49 25.06.2022
1354 Rain 16 1014 86 10000 8.49 317 08:20 25.06.2022
1355 Rain 17 1013 83 10000 10.28 292 06:35 25.06.2022
1356 Clouds 22 1008 60 10000 5.14 140 00:45 25.06.2022
1357 Clouds 23 1009 58 10000 4.63 150 23:54 24.06.2022
1358 Clouds 24 1009 58 10000 5.81 153 22:28 24.06.2022
1359 Clouds 25 1009 56 10000 4.63 150 21:26 24.06.2022
1360 Clear 26 1009 54 10000 6.69 150 20:23 24.06.2022
1361 Clear 27 1009 55 10000 8.49 134 19:24 24.06.2022
1362 Clouds 28 1009 54 10000 8.75 160 18:51 24.06.2022
1363 Clouds 28 1009 54 10000 9.26 160 18:31 24.06.2022
1364 Clouds 28 1010 56 10000 8.75 160 17:49 24.06.2022
1365 Clouds 28 1010 54 10000 10.29 160 16:45 24.06.2022
1366 Clouds 28 1010 54 10000 10.29 160 16:45 24.06.2022
1367 Clear 28 1011 51 10000 9.77 160 14:30 24.06.2022
1368 Clear 28 1012 50 10000 10.29 160 13:59 24.06.2022
1369 Clear 28 1012 49 10000 10.29 160 13:35 24.06.2022
1370 Clouds 26 1013 56 10000 7.72 160 11:41 24.06.2022
1371 Clear 25 1013 57 10000 8.05 194 10:36 24.06.2022
1372 Clear 24 1014 60 10000 6.71 176 09:41 24.06.2022
1373 Clouds 23 1013 69 10000 7.15 145 08:53 24.06.2022
1374 Clouds 21 1013 76 10000 5.36 152 07:56 24.06.2022
1375 Clouds 19 1013 81 10000 5.14 130 06:43 24.06.2022
1376 Clouds 18 1013 81 10000 2.57 130 06:20 24.06.2022
1377 Clear 17 1013 79 10000 3.6 130 04:41 24.06.2022
1378 Clear 20 1014 61 10000 2.06 200 23:24 23.06.2022
1379 Clear 21 1013 59 10000 1.03 0 22:42 23.06.2022
1380 Clear 24 1013 43 10000 1.54 80 20:59 23.06.2022
1381 Clear 26 1014 38 10000 2.06 90 20:36 23.06.2022
1382 Clear 27 1017 34 10000 2.06 90 19:40 23.06.2022
1383 Clear 29 1014 36 10000 3.13 98 17:54 23.06.2022
1384 Clear 30 1014 36 10000 2.57 360 17:33 23.06.2022
1385 Clear 29 1015 39 10000 3.6 70 16:23 23.06.2022
1386 Clouds 29 1015 41 10000 4.47 73 15:25 23.06.2022
1387 Clear 28 1015 46 10000 3.09 70 13:46 23.06.2022
1388 Clouds 26 1016 58 10000 2.57 40 11:27 23.06.2022
1389 Clouds 25 1016 64 10000 2.57 350 10:40 23.06.2022
1390 Clouds 23 1016 71 10000 2.57 340 09:19 23.06.2022
1391 Clear 18 1012 87 10000 1.03 60 03:51 23.06.2022
1392 Rain 19 1012 86 10000 2.68 260 00:27 23.06.2022
1393 Rain 19 1012 86 10000 1.54 340 23:43 22.06.2022
1394 Rain 20 1011 83 10000 1.54 140 22:50 22.06.2022
1395 Rain 22 1012 74 10000 1.03 0 21:27 22.06.2022
1396 Rain 23 1012 68 10000 2.06 130 20:48 22.06.2022
1397 Clear 24 1011 58 10000 2.06 140 19:58 22.06.2022
1398 Clouds 25 1011 54 10000 4.12 160 18:51 22.06.2022
1399 Clear 26 1012 51 10000 4.12 160 17:29 22.06.2022
1400 Clear 26 1012 46 10000 5.36 160 16:37 22.06.2022
1401 Clear 27 1013 45 10000 4.02 171 15:27 22.06.2022
1402 Clear 28 1013 41 10000 3.13 154 14:40 22.06.2022
1403 Clear 27 1013 42 10000 4.92 163 13:45 22.06.2022
1404 Clear 26 1013 43 10000 3.58 138 13:23 22.06.2022
1405 Clear 24 1014 45 10000 5.36 153 11:50 22.06.2022
1406 Clear 23 1014 47 10000 3.58 188 10:58 22.06.2022
1407 Clear 23 1014 47 10000 3.58 188 10:58 22.06.2022
1408 Clear 23 1014 49 10000 3.58 92 10:26 22.06.2022
1409 Clouds 21 1015 53 10000 2.68 129 08:48 22.06.2022
1410 Clouds 16 1015 74 10000 0.51 0 06:21 22.06.2022
1411 Clear 16 1013 70 10000 1.03 130 01:50 22.06.2022
1412 Clear 17 1014 66 10000 2.06 50 00:56 22.06.2022
1413 Clear 18 1013 61 10000 2.06 70 22:40 21.06.2022
1414 Clear 21 1013 56 10000 2.06 90 20:40 21.06.2022
1415 Clouds 25 1014 38 10000 2.68 38 19:18 21.06.2022
1416 Clouds 25 1014 37 10000 3.6 360 17:44 21.06.2022
1417 Clouds 25 1014 38 10000 5.36 344 16:34 21.06.2022
1418 Clouds 22 1015 46 10000 5.66 330 11:56 21.06.2022
1419 Clouds 20 1016 54 10000 8.49 340 10:33 21.06.2022
1420 Clouds 18 1016 59 10000 5.66 340 08:54 21.06.2022
1421 Clouds 16 1015 63 10000 4.63 340 07:35 21.06.2022
1422 Clouds 16 1014 78 10000 4.92 13 04:42 21.06.2022
1423 Rain 20 1013 78 10000 4.12 340 23:45 20.06.2022
1424 Clouds 22 1012 66 10000 7.2 350 22:21 20.06.2022
1425 Clouds 23 1011 64 10000 4.47 323 21:32 20.06.2022
1426 Clouds 27 1009 57 10000 3.13 300 20:27 20.06.2022
1427 Clouds 28 1008 59 10000 5.36 291 19:23 20.06.2022
1428 Clouds 29 1009 55 10000 4.47 306 18:25 20.06.2022
1429 Clouds 29 1009 53 10000 2.57 20 17:45 20.06.2022
1430 Clouds 29 1010 55 10000 4.63 340 16:24 20.06.2022
1431 Clouds 27 1011 63 10000 7.72 330 14:41 20.06.2022
1432 Clouds 28 1008 55 10000 5.14 140 11:47 20.06.2022
1433 Clear 25 1010 61 10000 4.63 130 09:55 20.06.2022
1434 Clear 23 1010 65 10000 3.6 140 08:46 20.06.2022
1435 Clear 21 1010 73 10000 4.12 150 07:36 20.06.2022
1436 Clear 18 1009 75 10000 2.57 110 05:18 20.06.2022
1437 Clear 21 1010 64 10000 4.63 140 01:32 20.06.2022
1438 Clear 22 1011 58 10000 2.06 140 23:49 19.06.2022
1439 Clear 24 1011 53 10000 5.66 160 22:25 19.06.2022
1440 Clear 25 1011 52 10000 6.69 160 21:43 19.06.2022
1441 Clear 26 1011 49 10000 7.72 160 20:55 19.06.2022
1442 Clear 27 1011 48 10000 8.23 160 20:25 19.06.2022
1443 Clear 28 1011 47 10000 9.26 160 19:45 19.06.2022
1444 Clear 30 1011 43 10000 11.32 160 18:33 19.06.2022
1445 Clear 30 1011 43 10000 11.32 160 17:48 19.06.2022
1446 Clear 31 1011 42 10000 10.8 160 17:21 19.06.2022
1447 Clear 31 1012 42 10000 10.8 160 16:34 19.06.2022
1448 Clear 31 1013 42 10000 11.32 160 15:37 19.06.2022
1449 Clear 31 1013 42 10000 11.83 160 14:51 19.06.2022
1450 Clear 30 1014 43 10000 14.31 187 13:54 19.06.2022
1451 Clear 29 1014 45 10000 12.52 181 12:39 19.06.2022
1452 Clear 27 1015 46 10000 8.94 197 10:53 19.06.2022
1453 Clear 25 1016 55 10000 8.23 150 09:34 19.06.2022
1454 Clear 22 1017 64 10000 7.72 150 08:43 19.06.2022
1455 Clear 20 1016 72 10000 5.14 140 07:36 19.06.2022
1456 Clear 17 1017 79 10000 1.54 180 04:41 19.06.2022
1457 Clear 19 1018 69 10000 3.09 180 01:28 19.06.2022
1458 Clear 20 1018 68 10000 2.57 170 00:24 19.06.2022
1459 Clear 21 1018 66 10000 3.09 170 23:35 18.06.2022
1460 Clear 22 1018 62 10000 3.6 160 22:36 18.06.2022
1461 Clear 24 1018 58 10000 4.63 160 20:56 18.06.2022
1462 Clear 26 1018 50 10000 4.12 160 20:28 18.06.2022
1463 Clear 27 1020 49 10000 4.63 160 19:37 18.06.2022
1464 Clear 29 1020 41 10000 4.47 204 18:45 18.06.2022
1465 Clear 30 1019 38 10000 3.6 170 17:31 18.06.2022
1466 Clear 30 1020 37 10000 2.57 100 16:47 18.06.2022
1467 Clouds 30 1021 37 10000 1.54 0 15:30 18.06.2022
1468 Clouds 29 1021 38 10000 2.06 0 14:42 18.06.2022
1469 Clear 28 1021 44 10000 2.06 0 13:22 18.06.2022
1470 Clear 26 1023 45 10000 5.36 215 11:38 18.06.2022
1471 Clear 25 1023 48 10000 4.12 170 10:46 18.06.2022
1472 Clear 22 1025 59 10000 3.13 225 09:22 18.06.2022
1473 Clear 20 1024 67 10000 2.06 200 08:24 18.06.2022
1474 Clear 17 1024 74 10000 1.03 0 06:46 18.06.2022
1475 Clear 15 1024 78 10000 2.06 230 03:30 18.06.2022
1476 Clear 16 1025 74 10000 0.51 0 01:25 18.06.2022
1477 Clear 16 1025 73 10000 1.03 310 00:46 18.06.2022
1478 Clear 17 1025 70 10000 2.06 350 23:52 17.06.2022
1479 Clear 18 1025 67 10000 2.06 10 23:20 17.06.2022
1480 Clear 20 1023 60 10000 2.57 30 21:18 17.06.2022
1481 Clear 23 1022 46 10000 5.81 47 19:59 17.06.2022
1482 Clear 24 1023 44 10000 6.69 350 18:44 17.06.2022
1483 Clear 25 1023 41 10000 8.05 30 17:44 17.06.2022
1484 Clear 25 1023 42 10000 6.71 9 16:43 17.06.2022
1485 Clear 26 1023 44 10000 7.72 10 15:49 17.06.2022
1486 Clouds 26 1023 46 10000 7.2 330 15:22 17.06.2022
1487 Clouds 25 1023 48 10000 7.2 350 14:20 17.06.2022
1488 Clouds 25 1023 49 10000 6.69 340 13:46 17.06.2022
1489 Clouds 24 1024 50 10000 4.63 340 13:24 17.06.2022
1490 Clouds 23 1024 58 10000 4.12 330 11:58 17.06.2022
1491 Clouds 23 1023 60 10000 4.12 330 11:36 17.06.2022
1492 Clouds 23 1023 64 10000 4.63 340 10:52 17.06.2022
1493 Clear 19 1023 73 10000 4.63 340 08:30 17.06.2022
1494 Clear 19 1022 75 10000 4.63 330 07:48 17.06.2022
1495 Clear 16 1021 82 10000 3.09 320 06:22 17.06.2022
1496 Clear 17 1020 83 10000 2.24 221 03:19 17.06.2022
1497 Clouds 17 1020 84 10000 4.02 232 00:42 17.06.2022
1498 Rain 18 1019 77 10000 3.58 294 22:45 16.06.2022
1499 Clouds 18 1019 79 10000 1.54 310 22:26 16.06.2022
1500 Clouds 19 1017 77 10000 1.03 0 21:19 16.06.2022
1501 Clouds 19 1018 79 10000 0.89 321 20:50 16.06.2022
1502 Clouds 19 1018 76 10000 1.34 244 19:58 16.06.2022
1503 Clouds 20 1016 76 10000 2.24 244 18:44 16.06.2022
1504 Rain 21 1016 71 10000 5.66 200 17:44 16.06.2022
1505 Rain 24 1016 66 10000 8.23 200 17:20 16.06.2022
1506 Clouds 28 1016 42 10000 5.66 140 15:58 16.06.2022
1507 Clouds 28 1016 48 10000 4.63 150 15:21 16.06.2022
1508 Clouds 29 1017 49 10000 5.66 130 13:55 16.06.2022
1509 Clouds 27 1017 54 10000 6.17 150 12:47 16.06.2022
1510 Clouds 27 1017 56 10000 5.66 160 12:20 16.06.2022
1511 Clouds 26 1018 59 10000 5.14 150 11:21 16.06.2022
1512 Clouds 25 1018 62 10000 3.6 150 10:35 16.06.2022
1513 Clear 23 1018 65 10000 3.6 130 09:39 16.06.2022
1514 Clear 21 1018 70 10000 3.09 140 08:50 16.06.2022
1515 Clear 19 1018 77 10000 2.57 130 07:38 16.06.2022
1516 Clear 15 1018 84 10000 2.57 150 05:48 16.06.2022
1517 Clear 16 1018 82 10000 2.06 110 03:44 16.06.2022
1518 Clear 17 1019 78 10000 1.54 120 01:52 16.06.2022
1519 Clear 18 1019 77 10000 2.57 120 01:22 16.06.2022
1520 Clear 19 1018 72 10000 2.06 130 23:58 15.06.2022
1521 Clear 20 1018 69 10000 3.09 140 22:53 15.06.2022
1522 Clear 22 1018 60 10000 3.09 140 21:37 15.06.2022
1523 Clear 22 1018 60 10000 2.57 140 20:59 15.06.2022
1524 Clear 23 1018 59 10000 2.68 360 20:36 15.06.2022
1525 Clear 24 1018 53 10000 3.6 140 19:57 15.06.2022
1526 Clear 26 1019 50 10000 4.02 150 18:41 15.06.2022
1527 Clear 27 1019 47 10000 3.13 117 17:53 15.06.2022
1528 Clouds 27 1019 46 10000 4.12 140 16:27 15.06.2022
1529 Clouds 26 1020 47 10000 4.12 130 15:19 15.06.2022
1530 Clouds 25 1020 49 10000 4.63 130 13:29 15.06.2022
1531 Clouds 25 1021 50 10000 4.92 150 12:47 15.06.2022
1532 Clear 23 1021 56 10000 5.81 150 11:28 15.06.2022
1533 Clear 22 1021 59 10000 4.02 173 10:22 15.06.2022
1534 Clear 20 1022 63 10000 3.09 120 09:34 15.06.2022
1535 Clear 17 1022 73 10000 1.54 130 07:43 15.06.2022
1536 Clear 13 1022 82 10000 1.54 190 05:57 15.06.2022
1537 Clear 14 1022 77 10000 0.51 0 02:56 15.06.2022
1538 Clear 14 1022 77 10000 0.89 315 01:37 15.06.2022
1539 Clear 15 1022 74 10000 2.06 170 00:37 15.06.2022
1540 Clear 17 1021 65 10000 2.06 190 23:38 14.06.2022
1541 Clear 17 1021 64 10000 2.57 170 22:48 14.06.2022
1542 Clear 17 1021 65 10000 1.54 140 21:47 14.06.2022
1543 Clear 18 1020 61 10000 1.54 110 21:26 14.06.2022
1544 Clear 20 1022 55 10000 1.54 90 20:41 14.06.2022
1545 Clear 21 1021 49 10000 2.24 55 19:58 14.06.2022
1546 Clouds 23 1021 45 10000 3.58 346 18:45 14.06.2022
1547 Clouds 24 1020 45 10000 4.12 10 17:29 14.06.2022
1548 Clouds 23 1021 46 10000 6.26 345 16:43 14.06.2022
1549 Clouds 23 1021 45 10000 4.63 360 15:49 14.06.2022
1550 Clouds 23 1022 46 10000 5.81 9 14:56 14.06.2022
1551 Clouds 23 1022 47 10000 4.63 10 14:19 14.06.2022
1552 Clouds 22 1022 48 10000 4.02 351 13:32 14.06.2022
1553 Clouds 22 1023 50 10000 4.92 317 12:25 14.06.2022
1554 Clouds 21 1023 53 10000 4.47 314 11:27 14.06.2022
1555 Clouds 19 1023 56 10000 5.36 345 10:33 14.06.2022
1556 Clear 18 1023 58 10000 4.92 312 09:28 14.06.2022
1557 Clear 17 1023 60 10000 3.6 330 08:41 14.06.2022
1558 Clear 15 1023 67 10000 4.12 320 07:26 14.06.2022
1559 Clear 14 1022 71 10000 4.47 323 04:35 14.06.2022
1560 Clear 15 1021 72 10000 4.92 336 02:43 14.06.2022
1561 Clear 16 1021 73 10000 2.57 310 00:27 14.06.2022
1562 Clear 16 1021 72 10000 2.24 360 23:18 13.06.2022
1563 Clear 16 1021 71 10000 3.58 344 22:24 13.06.2022
1564 Clear 17 1021 70 10000 4.02 344 21:43 13.06.2022
1565 Clouds 18 1019 68 10000 6.17 360 20:19 13.06.2022
1566 Clouds 18 1018 69 10000 7.15 17 19:26 13.06.2022
1567 Clouds 23 1016 60 10000 9.39 306 17:57 13.06.2022
1568 Clouds 25 1015 54 10000 12.07 296 17:35 13.06.2022
1569 Clouds 25 1015 57 10000 12.07 294 16:39 13.06.2022
1570 Rain 24 1014 62 10000 10.73 319 15:20 13.06.2022
1571 Clouds 26 1015 56 10000 8.49 295 14:41 13.06.2022
1572 Clouds 26 1015 55 10000 11.18 321 13:41 13.06.2022
1573 Clouds 24 1016 59 10000 8.94 302 12:30 13.06.2022
1574 Clouds 22 1016 66 10000 5.66 320 11:25 13.06.2022
1575 Clouds 20 1017 70 10000 6.71 311 10:26 13.06.2022
1576 Rain 19 1017 71 10000 5.36 325 09:23 13.06.2022
1577 Rain 18 1017 76 10000 2.68 326 07:34 13.06.2022
1578 Clear 16 1016 82 10000 1.54 180 05:42 13.06.2022
1579 Clear 18 1017 75 10000 3.09 170 02:50 13.06.2022
1580 Clear 17 1016 79 10000 2.57 170 01:37 13.06.2022
1581 Clear 19 1018 72 10000 2.06 240 00:18 13.06.2022
1582 Clear 20 1018 70 10000 3.09 170 23:24 12.06.2022
1583 Clear 21 1018 67 10000 1.03 150 22:22 12.06.2022
1584 Clear 22 1019 66 10000 0.45 323 21:22 12.06.2022
1585 Clear 24 1017 61 10000 1.54 340 20:29 12.06.2022
1586 Clear 27 1019 46 10000 2.57 350 19:30 12.06.2022
1587 Clear 28 1019 45 10000 3.09 360 17:53 12.06.2022
1588 Clear 28 1019 42 10000 5.14 350 16:24 12.06.2022
1589 Clear 28 1019 43 10000 5.14 10 15:18 12.06.2022
1590 Clear 28 1020 42 10000 6.26 25 14:29 12.06.2022
1591 Clouds 28 1021 43 10000 6.71 33 13:55 12.06.2022
1592 Clear 26 1021 47 10000 4.92 11 12:43 12.06.2022
1593 Clouds 25 1021 50 10000 4.63 10 11:40 12.06.2022
1594 Clouds 24 1022 53 10000 6.26 325 10:45 12.06.2022
1595 Clouds 23 1021 59 10000 5.36 339 09:25 12.06.2022
1596 Clear 22 1022 63 10000 4.02 3 08:46 12.06.2022
1597 Clear 19 1021 71 10000 3.13 291 07:38 12.06.2022
1598 Clear 16 1022 76 10000 3.58 238 05:29 12.06.2022
1599 Clear 16 1022 75 10000 2.57 290 03:29 12.06.2022
1600 Clear 17 1022 73 10000 3.09 310 01:43 12.06.2022
1601 Clear 17 1021 72 10000 3.13 333 00:58 12.06.2022
1602 Clear 18 1022 68 10000 3.09 340 00:25 12.06.2022
1603 Clear 18 1021 68 10000 2.57 360 23:47 11.06.2022
1604 Clear 18 1021 68 10000 2.57 360 23:47 11.06.2022
1605 Clear 20 1022 63 10000 2.57 10 22:39 11.06.2022
1606 Clear 20 1021 61 10000 3.13 329 22:18 11.06.2022
1607 Clear 21 1020 62 10000 3.6 340 20:38 11.06.2022
1608 Clear 23 1020 55 10000 5.14 350 19:59 11.06.2022
1609 Clear 25 1021 43 10000 6.71 14 19:26 11.06.2022
1610 Clear 25 1021 44 10000 8.94 28 18:34 11.06.2022
1611 Clear 25 1021 44 10000 7.2 340 17:51 11.06.2022
1612 Clear 26 1020 43 10000 11.18 25 17:29 11.06.2022
1613 Clear 26 1021 44 10000 6.17 350 16:57 11.06.2022
1614 Clear 26 1021 44 10000 6.69 350 16:30 11.06.2022
1615 Clear 26 1021 44 10000 8.49 20 15:43 11.06.2022
1616 Clear 26 1021 45 10000 8.49 20 15:43 11.06.2022
1617 Clear 25 1022 48 10000 8.94 345 13:53 11.06.2022
1618 Clear 25 1022 49 10000 7.15 352 13:24 11.06.2022
1619 Clear 23 1023 59 10000 6.17 350 10:55 11.06.2022
1620 Clear 22 1023 63 10000 5.14 340 10:19 11.06.2022
1621 Clear 20 1023 67 10000 6.26 314 09:19 11.06.2022
1622 Clear 18 1023 75 10000 6.26 344 07:46 11.06.2022
1623 Clear 16 1022 81 10000 5.66 310 06:30 11.06.2022
1624 Clear 15 1022 82 10000 4.12 310 05:19 11.06.2022
1625 Clear 16 1022 82 10000 6.69 310 01:53 11.06.2022
1626 Clear 16 1022 82 10000 6.69 300 01:33 11.06.2022
1627 Clear 17 1022 82 10000 5.14 300 00:21 11.06.2022
1628 Clouds 17 1022 82 10000 6.17 310 22:32 10.06.2022
1629 Clouds 18 1022 81 10000 5.66 310 21:53 10.06.2022
1630 Clear 18 1022 80 10000 8.49 309 20:42 10.06.2022
1631 Clear 19 1021 79 10000 6.69 310 20:22 10.06.2022
1632 Clouds 19 1021 79 10000 6.69 310 19:48 10.06.2022
1633 Clouds 19 1021 80 10000 6.69 300 19:18 10.06.2022
1634 Clouds 19 1021 79 10000 10.28 325 18:19 10.06.2022
1635 Clouds 20 1021 77 10000 11.62 321 17:36 10.06.2022
1636 Clouds 20 1021 79 10000 11.62 331 16:56 10.06.2022
1637 Clouds 17 1021 86 10000 8.94 315 15:48 10.06.2022
1638 Clouds 17 1022 86 10000 9.39 312 15:19 10.06.2022
1639 Clouds 16 1022 89 10000 8.23 310 13:44 10.06.2022
1640 Clouds 16 1022 90 10000 12.07 316 12:35 10.06.2022
1641 Clouds 15 1021 91 10000 10.73 336 11:40 10.06.2022
1642 Clouds 15 1021 93 5000 8.94 328 10:40 10.06.2022
1643 Clouds 15 1021 93 4000 9.83 321 09:43 10.06.2022
1644 Clouds 15 1020 92 6000 10.28 328 08:28 10.06.2022
1645 Rain 15 1019 91 10000 8.49 314 06:53 10.06.2022
1646 Rain 14 1019 90 10000 8.75 310 06:32 10.06.2022
1647 Rain 14 1018 90 9000 8.49 344 05:48 10.06.2022
1648 Rain 15 1017 90 10000 11.18 313 03:41 10.06.2022
1649 Clouds 15 1016 88 10000 12.96 302 01:38 10.06.2022
1650 Clouds 15 1016 87 10000 9.26 310 00:25 10.06.2022
1651 Clouds 15 1015 86 10000 9.83 301 23:25 09.06.2022
1652 Rain 16 1014 87 10000 9.26 300 21:47 09.06.2022
1653 Rain 16 1014 87 10000 9.39 316 21:29 09.06.2022
1654 Rain 16 1014 87 10000 9.77 300 20:54 09.06.2022
1655 Clouds 16 1013 87 10000 12.07 304 19:55 09.06.2022
1656 Rain 17 1012 85 10000 7.72 300 18:49 09.06.2022
1657 Rain 17 1012 84 10000 8.49 329 18:21 09.06.2022
1658 Clouds 17 1011 82 10000 13.41 304 16:46 09.06.2022
1659 Rain 17 1011 83 10000 9.83 276 15:47 09.06.2022
1660 Rain 17 1011 82 10000 10.28 332 14:35 09.06.2022
1661 Rain 17 1010 80 10000 8.05 279 13:48 09.06.2022
1662 Rain 17 1011 79 10000 8.49 306 13:48 09.06.2022
1663 Rain 17 1010 79 10000 9.83 322 13:26 09.06.2022
1664 Rain 17 1010 79 10000 10.28 318 11:54 09.06.2022
1665 Clouds 17 1010 78 10000 11.62 312 10:53 09.06.2022
1666 Clouds 17 1009 79 10000 10.73 292 09:43 09.06.2022
1667 Clouds 16 1009 80 10000 8.94 304 09:23 09.06.2022
1668 Rain 15 1009 82 10000 11.62 305 07:44 09.06.2022
1669 Rain 16 1008 82 10000 5.81 299 05:48 09.06.2022
1670 Rain 17 1006 83 10000 1.03 40 02:20 09.06.2022
1671 Clear 18 1007 80 10000 2.57 340 23:34 08.06.2022
1672 Clear 18 1007 79 10000 2.57 330 22:56 08.06.2022
1673 Clear 19 1007 79 10000 2.06 330 22:26 08.06.2022
1674 Clouds 19 1008 77 10000 2.57 350 21:52 08.06.2022
1675 Clouds 20 1008 73 10000 1.54 10 20:59 08.06.2022
1676 Clouds 21 1009 68 10000 2.57 10 19:55 08.06.2022
1677 Clouds 22 1009 66 10000 2.68 61 19:27 08.06.2022
1678 Clouds 22 1009 66 10000 3.6 30 18:42 08.06.2022
1679 Clouds 23 1009 58 10000 4.12 60 16:39 08.06.2022
1680 Clouds 23 1010 53 10000 4.12 10 15:27 08.06.2022
1681 Clouds 22 1011 61 10000 4.12 360 13:37 08.06.2022
1682 Clouds 21 1012 67 10000 3.6 340 11:51 08.06.2022
1683 Clouds 20 1011 70 10000 4.12 340 11:25 08.06.2022
1684 Clouds 19 1012 80 10000 6.26 329 09:48 08.06.2022
1685 Clouds 18 1013 81 10000 7.6 333 09:20 08.06.2022
1686 Clouds 17 1013 86 10000 4.63 310 08:18 08.06.2022
1687 Clouds 15 1012 91 10000 4.12 310 05:47 08.06.2022
1688 Rain 15 1013 91 10000 6.69 300 03:20 08.06.2022
1689 Rain 16 1014 90 10000 4.92 306 00:29 08.06.2022
1690 Clouds 16 1014 90 10000 6.26 332 23:27 07.06.2022
1691 Rain 16 1014 90 10000 4.92 315 22:44 07.06.2022
1692 Rain 16 1014 90 10000 6.71 308 22:22 07.06.2022
1693 Rain 16 1014 90 10000 6.71 318 21:28 07.06.2022
1694 Rain 17 1014 90 10000 4.47 320 20:53 07.06.2022
1695 Rain 17 1014 90 10000 4.63 310 20:31 07.06.2022
1696 Rain 17 1013 90 10000 6.71 317 19:38 07.06.2022
1697 Rain 18 1013 90 10000 5.36 331 18:22 07.06.2022
1698 Rain 18 1013 88 10000 8.94 311 17:25 07.06.2022
1699 Rain 18 1014 88 10000 7.2 310 16:42 07.06.2022
1700 Rain 19 1013 86 10000 5.14 290 15:44 07.06.2022
1701 Rain 19 1013 84 10000 6.17 290 15:24 07.06.2022
1702 Thunderstorm 20 1014 77 8000 6.26 299 14:46 07.06.2022
1703 Rain 21 1014 74 10000 2.68 244 14:27 07.06.2022
1704 Clouds 24 1014 60 10000 3.13 358 13:30 07.06.2022
1705 Thunderstorm 25 1013 61 10000 7.6 309 12:45 07.06.2022
1706 Clouds 24 1014 60 10000 7.6 315 11:37 07.06.2022
1707 Clouds 24 1014 63 10000 2.24 250 10:26 07.06.2022
1708 Clouds 22 1014 72 10000 2.57 140 08:49 07.06.2022
1709 Clouds 22 1014 72 10000 2.57 140 08:49 07.06.2022
1710 Clouds 22 1014 71 10000 2.57 140 08:49 07.06.2022
1711 Clear 19 1014 83 10000 2.06 170 07:33 07.06.2022
1712 Clear 16 1014 89 10000 1.54 120 05:58 07.06.2022
1713 Clear 17 1015 84 10000 1.54 210 03:22 07.06.2022
1714 Clear 18 1016 82 10000 3.09 190 00:44 07.06.2022
1715 Clear 19 1016 79 10000 4.12 190 23:35 06.06.2022
1716 Clear 20 1016 78 10000 3.09 180 22:47 06.06.2022
1717 Clear 21 1017 72 10000 1.54 140 21:56 06.06.2022
1718 Clear 24 1017 65 10000 2.57 60 20:35 06.06.2022
1719 Clear 26 1017 55 10000 2.68 319 19:24 06.06.2022
1720 Clear 26 1016 53 10000 2.57 40 18:47 06.06.2022
1721 Clear 27 1016 53 10000 3.09 350 17:55 06.06.2022
1722 Clouds 26 1017 53 10000 4.12 340 16:51 06.06.2022
1723 Clouds 26 1017 54 10000 4.12 340 15:44 06.06.2022
1724 Clouds 26 1017 56 10000 5.36 313 14:57 06.06.2022
1725 Clouds 25 1018 57 10000 3.6 360 13:43 06.06.2022
1726 Clouds 24 1018 59 10000 7.6 346 13:19 06.06.2022
1727 Clouds 24 1018 63 10000 2.57 0 12:33 06.06.2022
1728 Clouds 23 1018 64 10000 4.63 320 11:45 06.06.2022
1729 Clouds 20 1018 76 10000 8.49 321 09:51 06.06.2022
1730 Clouds 18 1018 83 10000 3.6 270 08:44 06.06.2022
1731 Clouds 18 1018 87 10000 4.92 274 07:44 06.06.2022
1732 Clear 17 1018 87 10000 6.26 311 07:19 06.06.2022
1733 Rain 17 1018 90 10000 2.68 238 04:38 06.06.2022
1734 Rain 17 1018 88 10000 8.94 308 01:53 06.06.2022
1735 Rain 17 1017 87 10000 8.94 302 00:57 06.06.2022
1736 Thunderstorm 17 1016 88 10000 8.49 319 00:34 06.06.2022
1737 Rain 19 1015 82 10000 6.71 289 22:59 05.06.2022
1738 Clouds 24 1015 67 10000 5.66 130 22:21 05.06.2022
1739 Clouds 25 1013 65 10000 6.26 157 20:24 05.06.2022
1740 Clouds 26 1014 58 10000 4.63 150 19:23 05.06.2022
1741 Clouds 27 1014 53 10000 4.92 186 18:19 05.06.2022
1742 Clouds 27 1015 53 10000 5.14 100 17:39 05.06.2022
1743 Clouds 27 1015 54 10000 6.26 182 17:21 05.06.2022
1744 Clouds 28 1015 53 10000 5.81 181 16:47 05.06.2022
1745 Clouds 28 1016 49 10000 4.63 130 15:28 05.06.2022
1746 Clouds 27 1017 52 10000 4.92 109 14:21 05.06.2022
1747 Clouds 26 1018 57 10000 3.58 71 12:23 05.06.2022
1748 Clouds 24 1019 64 10000 2.24 104 10:51 05.06.2022
1749 Clouds 23 1019 67 10000 2.06 50 10:24 05.06.2022
1750 Clouds 22 1019 70 10000 2.68 34 09:44 05.06.2022
1751 Clouds 20 1019 78 10000 3.09 10 08:25 05.06.2022
1752 Clear 18 1019 85 10000 4.02 7 06:47 05.06.2022
1753 Clear 17 1019 89 10000 3.6 350 05:20 05.06.2022
1754 Clear 18 1020 88 10000 2.57 320 02:57 05.06.2022
1755 Clouds 19 1020 87 10000 4.02 338 01:24 05.06.2022
1756 Clouds 19 1019 87 10000 4.92 355 01:24 05.06.2022
1757 Clear 19 1019 86 10000 2.24 265 23:43 04.06.2022
1758 Clouds 21 1019 82 10000 6.69 330 21:39 04.06.2022
1759 Clouds 24 1017 64 10000 1.54 20 19:49 04.06.2022
1760 Clouds 29 1016 52 10000 6.26 36 17:50 04.06.2022
1761 Clouds 28 1016 57 10000 6.71 44 16:22 04.06.2022
1762 Clouds 29 1016 55 10000 7.15 302 15:54 04.06.2022
1763 Clouds 30 1016 47 10000 4.47 280 14:36 04.06.2022
1764 Clouds 27 1016 55 10000 6.71 325 11:48 04.06.2022
1765 Clouds 25 1017 61 10000 4.92 290 10:57 04.06.2022
1766 Clouds 25 1018 61 10000 8.94 303 10:20 04.06.2022
1767 Clouds 24 1017 64 10000 5.81 4 09:41 04.06.2022
1768 Clear 24 1017 65 10000 5.81 4 09:41 04.06.2022
1769 Clear 22 1017 68 10000 6.26 288 08:40 04.06.2022
1770 Clear 21 1016 73 10000 8.49 300 07:38 04.06.2022
1771 Clouds 19 1016 78 10000 5.36 303 04:33 04.06.2022
1772 Clouds 19 1016 78 10000 3.58 288 04:33 04.06.2022
1773 Clouds 19 1016 78 10000 5.36 303 04:33 04.06.2022
1774 Clouds 21 1016 75 10000 0.45 197 00:56 04.06.2022
1775 Rain 23 1014 70 10000 6.17 150 23:35 03.06.2022
1776 Clear 23 1015 67 10000 7.72 160 22:30 03.06.2022
1777 Clear 25 1016 61 10000 7.2 160 20:52 03.06.2022
1778 Clear 25 1016 59 10000 5.66 160 20:27 03.06.2022
1779 Clear 27 1017 53 10000 7.72 150 17:58 03.06.2022
1780 Clear 28 1017 49 10000 8.23 150 16:47 03.06.2022
1781 Clear 28 1018 50 10000 10.73 186 15:18 03.06.2022
1782 Clear 26 1020 50 10000 7.15 200 12:56 03.06.2022
1783 Clear 24 1021 46 10000 5.36 142 11:19 03.06.2022
1784 Clear 22 1020 56 10000 4.12 130 09:38 03.06.2022
1785 Clear 20 1021 57 10000 4.63 120 08:45 03.06.2022
1786 Clear 17 1022 70 10000 1.79 61 07:26 03.06.2022
1787 Clear 15 1021 78 10000 1.54 10 06:34 03.06.2022
1788 Clear 14 1020 79 10000 1.03 120 05:35 03.06.2022
1789 Clear 17 1021 75 10000 2.06 140 00:28 03.06.2022
1790 Clear 18 1020 73 10000 1.03 110 22:41 02.06.2022
1791 Clear 19 1019 69 10000 1.03 50 21:40 02.06.2022
1792 Clear 22 1020 56 10000 1.54 90 20:22 02.06.2022
1793 Clear 23 1020 53 10000 2.06 30 19:46 02.06.2022
1794 Clear 23 1019 51 10000 2.57 50 19:28 02.06.2022
1795 Clouds 24 1019 49 10000 2.57 350 17:32 02.06.2022
1796 Clear 25 1019 47 10000 3.6 20 16:27 02.06.2022
1797 Clouds 24 1019 50 10000 4.92 348 14:20 02.06.2022
1798 Clouds 24 1020 51 10000 4.47 30 13:29 02.06.2022
1799 Clouds 22 1020 56 10000 6.71 328 11:36 02.06.2022
1800 Clouds 20 1020 65 10000 6.71 346 10:20 02.06.2022
1801 Clouds 18 1019 73 10000 4.47 308 09:28 02.06.2022
1802 Clouds 18 1019 79 10000 5.36 321 08:27 02.06.2022
1803 Clear 16 1019 85 10000 3.58 293 07:25 02.06.2022
1804 Clear 14 1018 90 10000 1.79 223 04:52 02.06.2022
1805 Clouds 15 1018 90 10000 2.57 20 02:48 02.06.2022
1806 Rain 15 1018 88 10000 8.23 330 23:50 01.06.2022
1807 Rain 19 1015 70 10000 4.02 282 22:32 01.06.2022
1808 Clear 20 1013 66 10000 2.24 134 21:37 01.06.2022
1809 Clear 20 1013 63 10000 2.06 130 20:58 01.06.2022
1810 Clear 22 1014 57 10000 2.57 140 20:37 01.06.2022
1811 Clear 23 1015 52 10000 4.63 180 19:28 01.06.2022
1812 Clouds 24 1015 44 10000 2.57 300 17:46 01.06.2022
1813 Clear 25 1015 39 10000 6.26 326 16:38 01.06.2022
1814 Clear 26 1016 35 10000 8.49 333 14:59 01.06.2022
1815 Clear 25 1016 42 10000 5.14 310 13:53 01.06.2022
1816 Clouds 23 1017 52 10000 5.14 310 12:26 01.06.2022
1817 Clouds 20 1017 67 10000 6.71 312 09:48 01.06.2022
1818 Clear 19 1016 70 10000 6.71 294 08:53 01.06.2022
1819 Clear 16 1016 83 10000 4.12 310 07:24 01.06.2022
1820 Clear 14 1016 87 10000 4.12 320 06:30 01.06.2022
1821 Rain 16 1015 75 10000 8.94 325 00:48 01.06.2022
1822 Clouds 19 1013 76 10000 7.2 160 23:30 31.05.2022
1823 Clouds 19 1013 76 10000 7.2 160 23:30 31.05.2022
1824 Clear 19 1012 70 10000 7.2 150 22:37 31.05.2022
1825 Clear 20 1013 65 10000 7.6 154 21:46 31.05.2022
1826 Clear 21 1013 60 10000 5.14 150 20:46 31.05.2022
1827 Clear 22 1013 56 10000 8.94 130 20:20 31.05.2022
1828 Clear 23 1013 50 10000 8.49 173 18:53 31.05.2022
1829 Clear 25 1013 46 10000 6.69 150 17:50 31.05.2022
1830 Clear 25 1013 45 10000 7.15 169 17:18 31.05.2022
1831 Clear 25 1014 42 10000 7.15 180 15:41 31.05.2022
1832 Clear 23 1015 47 10000 6.71 190 14:18 31.05.2022
1833 Clear 21 1016 50 10000 7.15 164 12:21 31.05.2022
1834 Clear 19 1016 55 10000 6.26 162 10:55 31.05.2022
1835 Clear 19 1016 55 10000 6.26 162 10:55 31.05.2022
1836 Clouds 17 1016 55 10000 3.13 154 09:31 31.05.2022
1837 Clear 12 1016 76 10000 2.06 190 07:28 31.05.2022
1838 Clear 9 1016 79 10000 2.57 190 05:22 31.05.2022
1839 Clear 12 1016 70 10000 3.58 259 01:35 31.05.2022
1840 Clear 15 1015 66 10000 3.6 150 23:27 30.05.2022
1841 Clear 15 1015 64 10000 5.14 160 22:56 30.05.2022
1842 Clear 16 1014 59 10000 3.09 160 21:59 30.05.2022
1843 Clouds 16 1015 57 10000 4.12 170 21:33 30.05.2022
1844 Clouds 17 1013 52 10000 3.13 167 20:20 30.05.2022
1845 Clear 19 1013 48 10000 4.92 155 18:41 30.05.2022
1846 Clear 19 1012 45 10000 3.13 202 17:38 30.05.2022
1847 Clouds 20 1012 46 10000 5.14 170 16:44 30.05.2022
1848 Clouds 20 1012 46 10000 3.58 195 14:51 30.05.2022
1849 Clouds 18 1012 51 10000 1.54 0 12:29 30.05.2022
1850 Clouds 16 1013 59 10000 2.06 0 10:46 30.05.2022
1851 Clouds 14 1013 68 10000 4.92 288 09:38 30.05.2022
1852 Clouds 10 1011 84 10000 1.54 340 07:22 30.05.2022
1853 Clouds 9 1012 87 10000 1.03 0 05:49 30.05.2022
1854 Clouds 10 1012 85 10000 2.57 320 02:24 30.05.2022
1855 Clear 10 1012 83 10000 2.06 210 23:21 29.05.2022
1856 Rain 11 1012 82 10000 2.57 180 22:38 29.05.2022
1857 Rain 11 1012 81 10000 3.6 250 20:57 29.05.2022
1858 Rain 12 1012 77 10000 5.14 240 19:34 29.05.2022
1859 Rain 13 1012 76 10000 4.63 230 18:59 29.05.2022
1860 Rain 14 1012 72 10000 5.14 240 17:32 29.05.2022
1861 Rain 16 1012 59 10000 6.71 222 15:49 29.05.2022
1862 Rain 16 1012 57 10000 3.09 160 15:23 29.05.2022
1863 Drizzle 16 1012 49 10000 3.58 200 14:18 29.05.2022
1864 Clouds 16 1013 50 10000 5.36 177 11:48 29.05.2022
1865 Clouds 16 1013 52 10000 5.14 130 10:42 29.05.2022
1866 Clear 16 1013 55 10000 4.92 125 09:51 29.05.2022
1867 Clear 11 1014 78 10000 1.79 84 06:51 29.05.2022
1868 Clear 9 1014 77 10000 1.54 130 04:47 29.05.2022
1869 Clear 10 1014 76 10000 0.89 211 04:24 29.05.2022
1870 Clear 12 1016 68 10000 2.06 160 23:59 28.05.2022
1871 Clear 13 1016 69 10000 1.54 70 23:39 28.05.2022
1872 Clear 13 1016 63 10000 1.54 20 22:40 28.05.2022
1873 Clear 14 1015 61 10000 3.13 248 21:40 28.05.2022
1874 Clear 16 1016 55 10000 4.12 360 19:52 28.05.2022
1875 Clear 17 1016 52 10000 3.6 330 19:18 28.05.2022
1876 Clear 18 1015 55 10000 4.63 290 17:44 28.05.2022
1877 Clouds 18 1015 56 10000 5.36 321 16:50 28.05.2022
1878 Clouds 18 1017 59 10000 5.66 270 15:44 28.05.2022
1879 Clouds 18 1018 55 10000 8.23 280 14:37 28.05.2022
1880 Rain 18 1016 53 10000 7.15 309 13:21 28.05.2022
1881 Clouds 18 1016 57 10000 8.23 320 12:40 28.05.2022
1882 Clouds 16 1017 61 10000 6.69 330 11:26 28.05.2022
1883 Clouds 15 1017 70 10000 6.17 350 10:25 28.05.2022
1884 Clouds 15 1016 71 10000 5.14 330 09:22 28.05.2022
1885 Clouds 14 1017 81 10000 6.26 296 07:47 28.05.2022
1886 Clouds 13 1016 83 10000 5.66 320 06:32 28.05.2022
1887 Clouds 14 1017 84 10000 6.69 300 03:53 28.05.2022
1888 Rain 14 1018 82 10000 4.12 290 00:33 28.05.2022
1889 Rain 14 1018 82 10000 4.12 310 23:42 27.05.2022
1890 Rain 16 1018 78 10000 7.72 10 22:24 27.05.2022
1891 Rain 19 1015 60 10000 7.72 340 20:58 27.05.2022
1892 Rain 20 1018 56 10000 4.02 40 20:31 27.05.2022
1893 Clear 23 1014 46 10000 8.75 290 19:55 27.05.2022
1894 Clear 23 1015 45 10000 9.26 300 19:33 27.05.2022
1895 Clear 24 1015 45 10000 12.52 306 18:37 27.05.2022
1896 Clear 25 1015 45 10000 18.33 307 16:42 27.05.2022
1897 Clear 26 1016 46 10000 13.86 335 15:44 27.05.2022
1898 Clear 25 1016 47 10000 10.73 302 14:45 27.05.2022
1899 Clear 24 1017 48 10000 12.07 319 13:35 27.05.2022
1900 Clear 23 1019 50 10000 15.2 318 11:43 27.05.2022
1901 Clear 23 1019 51 10000 7.6 291 11:25 27.05.2022
1902 Clouds 22 1019 53 10000 10.28 300 10:35 27.05.2022
1903 Clouds 21 1020 56 10000 7.72 290 09:42 27.05.2022
1904 Clear 20 1020 59 10000 6.26 290 08:48 27.05.2022
1905 Clear 16 1021 74 10000 3.6 270 06:50 27.05.2022
1906 Clouds 16 1021 73 10000 3.09 290 02:57 27.05.2022
1907 Clouds 17 1021 66 10000 3.6 280 00:54 27.05.2022
1908 Clear 18 1022 68 10000 3.6 290 22:53 26.05.2022
1909 Clear 19 1021 63 10000 4.12 290 21:45 26.05.2022
1910 Clear 20 1021 59 10000 5.66 280 20:59 26.05.2022
1911 Clear 22 1021 50 10000 7.72 290 19:29 26.05.2022
1912 Clear 23 1021 46 10000 7.6 292 18:24 26.05.2022
1913 Clear 24 1021 45 10000 10.28 296 16:59 26.05.2022
1914 Clear 24 1021 45 10000 9.39 309 15:52 26.05.2022
1915 Clear 24 1022 45 10000 10.73 329 15:18 26.05.2022
1916 Clear 24 1022 45 10000 12.52 306 13:46 26.05.2022
1917 Clear 22 1023 52 10000 6.69 300 11:47 26.05.2022
1918 Clear 21 1023 55 10000 8.49 323 10:39 26.05.2022
1919 Clear 20 1023 60 10000 7.6 313 09:37 26.05.2022
1920 Clear 19 1022 65 10000 3.6 230 08:38 26.05.2022
1921 Clear 13 1020 87 10000 2.68 209 05:25 26.05.2022
1922 Clear 13 1021 85 10000 4.47 321 02:19 26.05.2022
1923 Clouds 13 1020 86 10000 3.6 290 23:41 25.05.2022
1924 Clouds 14 1020 86 10000 3.09 300 22:51 25.05.2022
1925 Clouds 15 1019 86 10000 4.12 320 21:39 25.05.2022
1926 Clouds 15 1019 86 10000 3.09 320 20:47 25.05.2022
1927 Clouds 16 1018 85 10000 2.57 360 19:32 25.05.2022
1928 Clouds 16 1017 87 10000 6.26 296 18:36 25.05.2022
1929 Rain 16 1017 85 10000 5.36 298 16:53 25.05.2022
1930 Clouds 17 1017 85 10000 4.63 330 16:25 25.05.2022
1931 Rain 16 1017 84 10000 9.39 305 15:36 25.05.2022
1932 Rain 17 1016 81 10000 3.13 309 14:50 25.05.2022
1933 Rain 17 1015 78 10000 8.05 330 14:31 25.05.2022
1934 Clouds 20 1014 60 10000 7.2 330 13:21 25.05.2022
1935 Clouds 16 1016 85 10000 5.44 301 11:49 25.05.2022
1936 Clouds 17 1015 83 10000 5.36 327 10:24 25.05.2022
1937 Clouds 16 1014 85 10000 4.47 284 09:29 25.05.2022
1938 Rain 15 1013 88 10000 3.13 286 07:26 25.05.2022
1939 Clouds 15 1013 86 10000 5.14 300 05:41 25.05.2022
1940 Clouds 15 1013 87 10000 5.81 302 01:51 25.05.2022
1941 Rain 16 1012 86 10000 5.36 310 23:48 24.05.2022
1942 Rain 16 1012 85 10000 4.92 304 22:59 24.05.2022
1943 Rain 17 1012 87 10000 5.36 311 21:57 24.05.2022
1944 Rain 17 1012 87 10000 4.02 302 21:37 24.05.2022
1945 Rain 17 1011 86 10000 5.81 315 21:18 24.05.2022
1946 Rain 20 1010 70 10000 2.57 50 19:23 24.05.2022
1947 Rain 21 1009 64 10000 4.12 110 18:29 24.05.2022
1948 Clouds 22 1009 63 10000 4.12 100 16:39 24.05.2022
1949 Clouds 22 1009 63 10000 4.12 100 16:39 24.05.2022
1950 Clouds 22 1009 64 10000 5.36 111 15:45 24.05.2022
1951 Clouds 22 1009 66 10000 5.36 136 14:38 24.05.2022
1952 Clouds 22 1009 62 10000 6.71 100 13:47 24.05.2022
1953 Clouds 22 1009 66 10000 5.14 110 12:24 24.05.2022
1954 Clouds 20 1009 74 10000 5.66 140 09:52 24.05.2022
1955 Clear 18 1009 78 10000 5.66 130 08:57 24.05.2022
1956 Clear 17 1009 78 10000 5.66 130 08:38 24.05.2022
1957 Clear 16 1008 82 10000 3.09 120 06:41 24.05.2022
1958 Clear 16 1007 80 10000 3.6 170 03:41 24.05.2022
1959 Clouds 17 1008 77 10000 3.09 250 01:47 24.05.2022
1960 Rain 17 1007 67 10000 6.17 150 00:34 24.05.2022
1961 Clear 19 1008 56 10000 4.92 152 22:25 23.05.2022
1962 Clear 19 1008 56 10000 4.92 143 21:53 23.05.2022
1963 Clear 20 1007 54 10000 4.92 151 20:53 23.05.2022
1964 Clear 21 1008 50 10000 5.66 160 19:56 23.05.2022
1965 Clear 21 1008 51 10000 5.81 165 19:27 23.05.2022
1966 Clear 22 1008 49 10000 7.72 150 18:41 23.05.2022
1967 Clear 22 1008 49 10000 6.17 140 17:56 23.05.2022
1968 Clear 23 1009 48 10000 7.72 150 16:40 23.05.2022
1969 Clear 22 1010 48 10000 7.15 134 14:44 23.05.2022
1970 Clear 21 1012 47 10000 5.36 190 11:58 23.05.2022
1971 Clear 20 1012 48 10000 6.71 163 11:20 23.05.2022
1972 Clear 18 1013 51 10000 5.66 130 09:48 23.05.2022
1973 Clear 18 1013 54 10000 4.02 148 08:50 23.05.2022
1974 Clear 16 1013 65 10000 2.68 105 07:41 23.05.2022
1975 Clear 13 1013 79 10000 1.03 0 06:41 23.05.2022
1976 Clear 12 1013 77 10000 1.03 190 04:43 23.05.2022
1977 Clear 14 1014 71 10000 1.54 100 02:19 23.05.2022
1978 Clear 14 1014 71 10000 1.03 0 01:34 23.05.2022
1979 Clear 16 1014 64 10000 0.89 344 23:42 22.05.2022
1980 Clear 18 1014 57 10000 2.24 300 22:34 22.05.2022
1981 Clear 18 1014 56 10000 1.54 100 21:54 22.05.2022
1982 Clear 19 1012 53 10000 3.6 20 20:51 22.05.2022
1983 Clear 20 1012 47 10000 3.09 20 20:23 22.05.2022
1984 Clear 20 1013 48 10000 3.6 10 19:54 22.05.2022
1985 Clear 20 1013 48 10000 3.6 10 19:54 22.05.2022
1986 Clear 22 1014 40 10000 5.14 340 18:53 22.05.2022
1987 Clear 22 1014 38 10000 5.66 350 18:24 22.05.2022
1988 Clear 23 1014 40 10000 5.14 350 17:28 22.05.2022
1989 Clear 23 1014 41 10000 5.66 360 15:59 22.05.2022
1990 Clear 23 1015 42 10000 5.66 360 14:48 22.05.2022
1991 Clouds 22 1015 44 10000 5.66 330 13:38 22.05.2022
1992 Clouds 22 1016 45 10000 7.6 11 12:50 22.05.2022
1993 Clouds 20 1016 49 10000 5.14 330 11:37 22.05.2022
1994 Clouds 18 1018 57 10000 4.63 350 09:42 22.05.2022
1995 Clear 16 1018 60 10000 4.02 10 08:34 22.05.2022
1996 Clear 15 1018 63 10000 3.09 320 07:21 22.05.2022
1997 Clear 13 1018 70 10000 4.63 320 05:31 22.05.2022
1998 Clear 15 1018 64 10000 3.6 310 01:42 22.05.2022
1999 Clear 16 1018 61 10000 3.09 310 00:43 22.05.2022
2000 Clear 16 1017 60 10000 3.09 320 23:54 21.05.2022
2001 Clear 18 1017 55 10000 4.12 330 22:57 21.05.2022
2002 Clear 19 1018 52 10000 4.12 340 21:42 21.05.2022
2003 Clear 20 1017 47 10000 5.14 320 20:59 21.05.2022
2004 Clear 22 1017 42 10000 4.63 320 20:24 21.05.2022
2005 Clear 23 1017 38 10000 9.77 290 19:30 21.05.2022
2006 Clear 25 1016 39 10000 12.07 295 17:51 21.05.2022
2007 Clear 26 1017 40 10000 10.73 292 16:43 21.05.2022
2008 Clear 26 1018 42 10000 12.07 315 14:37 21.05.2022
2009 Clear 25 1018 45 10000 11.62 294 13:52 21.05.2022
2010 Clouds 24 1019 48 10000 11.18 300 12:50 21.05.2022
2011 Clouds 24 1018 50 10000 12.96 330 12:26 21.05.2022
2012 Clouds 22 1019 66 10000 12.07 230 10:34 21.05.2022
2013 Clouds 21 1019 76 10000 9.83 299 09:44 21.05.2022
2014 Clouds 20 1018 82 10000 6.69 290 08:57 21.05.2022
2015 Clouds 19 1018 85 10000 10.73 302 07:54 21.05.2022
2016 Clouds 18 1016 88 10000 0.45 197 04:33 21.05.2022
2017 Clear 21 1013 67 10000 1.03 0 00:38 21.05.2022
2018 Clear 23 1014 63 10000 4.63 170 22:59 20.05.2022
2019 Clear 24 1015 57 10000 6.17 170 22:24 20.05.2022
2020 Clear 24 1015 56 10000 5.14 160 21:47 20.05.2022
2021 Clear 25 1016 53 10000 5.66 160 20:57 20.05.2022
2022 Clear 26 1015 52 10000 5.14 160 20:25 20.05.2022
2023 Clear 29 1017 47 10000 6.69 160 19:26 20.05.2022
2024 Clear 29 1019 46 10000 6.69 160 18:46 20.05.2022
2025 Clear 30 1019 42 10000 5.66 160 17:37 20.05.2022
2026 Clear 30 1020 43 10000 2.68 145 16:20 20.05.2022
2027 Clear 31 1020 42 10000 3.13 155 15:53 20.05.2022
2028 Clear 30 1021 42 10000 2.57 0 14:31 20.05.2022
2029 Clouds 30 1022 43 10000 1.79 157 13:55 20.05.2022
2030 Clouds 27 1023 49 10000 2.06 50 11:45 20.05.2022
2031 Clear 24 1023 56 10000 3.13 21 10:23 20.05.2022
2032 Clear 20 1024 58 10000 1.54 80 08:45 20.05.2022
2033 Clear 17 1023 66 10000 1.03 0 07:18 20.05.2022
2034 Clear 15 1023 69 10000 2.06 160 06:34 20.05.2022
2035 Clear 15 1023 65 10000 0.51 0 05:22 20.05.2022
2036 Clear 16 1022 58 10000 3.09 140 00:54 20.05.2022
2037 Clear 18 1021 46 10000 6.69 170 22:57 19.05.2022
2038 Clear 19 1022 43 10000 6.69 160 22:26 19.05.2022
2039 Clear 19 1022 41 10000 6.69 160 21:49 19.05.2022
2040 Clear 20 1022 39 10000 7.2 150 21:23 19.05.2022
2041 Clear 21 1022 35 10000 5.66 150 20:40 19.05.2022
2042 Clear 22 1022 36 10000 6.17 150 19:53 19.05.2022
2043 Clear 26 1023 32 10000 7.2 150 18:34 19.05.2022
2044 Clear 26 1023 31 10000 7.2 150 17:31 19.05.2022
2045 Clear 26 1024 33 10000 7.72 150 15:33 19.05.2022
2046 Clear 26 1024 34 10000 8.23 150 14:29 19.05.2022
2047 Clear 25 1025 37 10000 8.23 160 13:50 19.05.2022
2048 Clear 23 1026 40 10000 9.77 160 11:46 19.05.2022
2049 Clear 19 1026 49 10000 9.39 144 09:46 19.05.2022
2050 Clear 15 1027 59 10000 5.14 140 08:27 19.05.2022
2051 Clear 9 1026 77 10000 2.57 140 06:31 19.05.2022
2052 Clear 9 1026 74 10000 2.06 120 02:57 19.05.2022
2053 Clear 11 1028 64 10000 1.03 240 00:47 19.05.2022
2054 Clear 12 1028 55 10000 1.03 120 22:53 18.05.2022
2055 Clear 13 1028 51 10000 1.54 80 22:35 18.05.2022
2056 Clear 14 1028 46 10000 2.06 110 21:31 18.05.2022
2057 Clear 15 1027 41 10000 1.03 340 20:55 18.05.2022
2058 Clear 15 1027 40 10000 1.03 340 20:55 18.05.2022
2059 Clear 16 1027 38 10000 1.54 340 20:19 18.05.2022
2060 Clear 20 1028 26 10000 1.54 0 18:46 18.05.2022
2061 Clear 21 1028 26 10000 2.57 0 17:41 18.05.2022
2062 Clouds 21 1026 27 10000 2.24 32 17:23 18.05.2022
2063 Clouds 21 1028 25 10000 3.09 30 16:35 18.05.2022
2064 Clouds 21 1028 31 10000 4.63 40 15:42 18.05.2022
2065 Clouds 21 1028 33 10000 5.36 14 15:19 18.05.2022
2066 Clouds 21 1028 40 10000 5.66 20 13:48 18.05.2022
2067 Clouds 20 1028 43 10000 4.92 340 12:53 18.05.2022
2068 Clouds 20 1028 48 10000 4.47 48 11:47 18.05.2022
2069 Clouds 19 1028 50 10000 4.12 30 11:29 18.05.2022
2070 Clouds 17 1028 65 10000 4.12 10 09:59 18.05.2022
2071 Clear 14 1027 77 10000 3.6 350 07:56 18.05.2022
2072 Clear 12 1026 84 10000 2.68 323 06:52 18.05.2022
2073 Clear 12 1023 82 10000 3.6 330 02:47 18.05.2022
2074 Clear 14 1022 81 10000 4.47 326 00:41 18.05.2022
2075 Clear 14 1022 80 10000 3.09 320 22:59 17.05.2022
2076 Clouds 15 1021 77 10000 4.12 330 21:21 17.05.2022
2077 Clouds 16 1021 76 10000 4.12 330 21:21 17.05.2022
2078 Clouds 16 1020 74 10000 5.66 360 20:38 17.05.2022
2079 Clouds 17 1019 74 10000 8.23 10 19:29 17.05.2022
2080 Clouds 19 1018 73 10000 8.75 330 18:43 17.05.2022
2081 Clouds 21 1017 73 10000 10.73 303 17:31 17.05.2022
2082 Clouds 21 1017 73 10000 11.62 311 16:53 17.05.2022
2083 Clouds 20 1017 78 10000 9.39 326 15:45 17.05.2022
2084 Rain 19 1018 83 10000 8.94 299 14:52 17.05.2022
2085 Rain 18 1019 85 10000 8.23 290 14:28 17.05.2022
2086 Clouds 19 1019 78 10000 11.62 304 12:36 17.05.2022
2087 Clouds 18 1018 82 10000 9.39 285 10:23 17.05.2022
2088 Clouds 17 1018 86 10000 6.17 290 08:51 17.05.2022
2089 Rain 16 1018 86 10000 7.15 325 07:41 17.05.2022
2090 Rain 17 1018 81 10000 8.49 324 05:58 17.05.2022
2091 Rain 18 1018 76 10000 2.68 280 00:47 17.05.2022
2092 Rain 18 1017 79 10000 2.68 259 23:35 16.05.2022
2093 Rain 19 1017 78 10000 2.29 322 22:33 16.05.2022
2094 Clouds 22 1016 61 10000 2.06 170 20:56 16.05.2022
2095 Clear 23 1017 60 10000 1.03 130 20:33 16.05.2022
2096 Clouds 25 1017 45 10000 1.54 90 18:46 16.05.2022
2097 Clear 27 1016 42 10000 3.6 40 16:42 16.05.2022
2098 Clear 26 1017 41 10000 2.06 0 14:58 16.05.2022
2099 Clear 26 1018 41 10000 3.09 160 13:34 16.05.2022
2100 Clear 25 1020 42 10000 3.6 140 12:37 16.05.2022
2101 Clear 22 1020 48 10000 2.68 160 10:36 16.05.2022
2102 Clear 17 1020 64 10000 2.06 30 07:48 16.05.2022
2103 Clear 14 1019 76 10000 0.51 0 05:44 16.05.2022
2104 Clear 16 1019 69 10000 2.06 170 00:48 16.05.2022
2105 Clear 18 1019 64 10000 2.06 150 22:44 15.05.2022
2106 Clear 18 1018 62 10000 2.06 120 21:59 15.05.2022
2107 Clear 19 1018 60 10000 2.57 80 21:36 15.05.2022
2108 Clear 20 1017 60 10000 2.06 90 20:43 15.05.2022
2109 Clear 24 1021 43 10000 2.06 70 18:39 15.05.2022
2110 Clear 25 1018 38 10000 2.06 0 16:54 15.05.2022
2111 Clear 25 1019 41 10000 2.57 40 14:29 15.05.2022
2112 Clear 25 1020 41 10000 2.06 100 13:46 15.05.2022
2113 Clouds 23 1021 42 10000 3.09 360 11:59 15.05.2022
2114 Clouds 22 1022 50 10000 3.09 40 10:49 15.05.2022
2115 Clouds 20 1021 55 10000 3.6 10 09:51 15.05.2022
2116 Clear 14 1020 77 10000 0.89 321 07:23 15.05.2022
2117 Clear 13 1021 76 10000 0.51 0 06:55 15.05.2022
2118 Clear 13 1020 73 10000 2.06 200 02:55 15.05.2022
2119 Clear 15 1018 65 10000 3.09 250 00:26 15.05.2022
2120 Clear 16 1018 64 10000 1.54 180 23:37 14.05.2022
2121 Clear 17 1020 58 10000 1.54 320 21:51 14.05.2022
2122 Clear 18 1020 55 10000 1.79 250 21:26 14.05.2022
2123 Clear 21 1018 50 10000 3.09 330 20:27 14.05.2022
2124 Clear 23 1019 43 10000 4.12 330 19:21 14.05.2022
2125 Clear 23 1019 39 10000 5.14 340 18:58 14.05.2022
2126 Clear 24 1019 41 10000 3.6 350 17:47 14.05.2022
2127 Clear 24 1019 42 10000 5.66 340 15:58 14.05.2022
2128 Clear 23 1020 43 10000 8.05 308 14:40 14.05.2022
2129 Clear 23 1020 43 10000 8.05 308 14:22 14.05.2022
2130 Clouds 21 1022 46 10000 5.81 300 11:48 14.05.2022
2131 Clouds 20 1022 47 10000 5.36 18 10:45 14.05.2022
2132 Clouds 19 1022 49 10000 4.63 340 10:19 14.05.2022
2133 Clouds 18 1022 54 10000 5.81 342 09:25 14.05.2022
2134 Clear 15 1022 60 10000 4.47 330 07:43 14.05.2022
2135 Clear 13 1021 67 10000 5.36 327 04:49 14.05.2022
2136 Clouds 15 1020 70 10000 5.14 320 01:42 14.05.2022
2137 Clear 18 1019 73 10000 7.72 290 23:28 13.05.2022
2138 Clear 18 1019 72 10000 8.49 319 22:56 13.05.2022
2139 Clear 19 1019 71 10000 8.49 304 22:22 13.05.2022
2140 Clear 19 1018 69 10000 8.75 280 21:19 13.05.2022
2141 Clouds 19 1018 67 10000 7.15 304 20:40 13.05.2022
2142 Clouds 20 1017 67 10000 7.2 280 20:21 13.05.2022
2143 Clouds 21 1017 64 10000 10.28 298 19:18 13.05.2022
2144 Clouds 23 1017 63 10000 8.75 280 17:47 13.05.2022
2145 Clouds 23 1017 62 10000 11.18 280 17:23 13.05.2022
2146 Clouds 24 1016 58 10000 7.72 280 15:48 13.05.2022
2147 Clouds 24 1018 58 10000 8.94 319 14:45 13.05.2022
2148 Clouds 21 1019 72 10000 8.94 305 12:54 13.05.2022
2149 Clouds 21 1019 76 10000 3.6 270 12:20 13.05.2022
2150 Rain 18 1020 85 10000 4.63 280 10:23 13.05.2022
2151 Rain 18 1020 83 10000 5.81 270 09:29 13.05.2022
2152 Rain 17 1019 86 10000 2.24 266 07:59 13.05.2022
2153 Rain 17 1019 86 10000 2.68 288 07:59 13.05.2022
2154 Rain 16 1019 87 10000 3.13 302 07:26 13.05.2022
2155 Rain 16 1019 86 10000 1.03 0 05:46 13.05.2022
2156 Clouds 20 1016 71 10000 2.24 211 01:37 13.05.2022
2157 Clouds 20 1017 70 10000 6.69 210 23:34 12.05.2022
2158 Clouds 21 1017 67 10000 3.6 190 22:35 12.05.2022
2159 Clouds 22 1016 63 10000 6.17 220 21:35 12.05.2022
2160 Clouds 23 1015 59 10000 3.09 320 19:55 12.05.2022
2161 Clouds 28 1017 41 10000 5.14 320 18:29 12.05.2022
2162 Clouds 29 1016 41 10000 9.39 304 16:48 12.05.2022
2163 Clouds 29 1017 39 10000 12.96 302 15:22 12.05.2022
2164 Clear 28 1017 41 10000 9.77 290 13:52 12.05.2022
2165 Clear 27 1018 39 10000 10.28 297 12:46 12.05.2022
2166 Clouds 27 1017 42 10000 11.62 279 10:34 12.05.2022
2167 Clear 23 1017 59 10000 1.34 286 08:58 12.05.2022
2168 Clear 22 1017 62 10000 1.03 0 08:37 12.05.2022
2169 Clear 18 1015 76 10000 1.54 180 07:36 12.05.2022
2170 Clear 15 1015 76 10000 3.09 210 04:50 12.05.2022
2171 Clear 16 1015 71 10000 2.57 230 01:55 12.05.2022
2172 Clear 19 1015 63 10000 2.57 170 23:55 11.05.2022
2173 Clear 20 1014 56 10000 3.6 160 22:29 11.05.2022
2174 Clear 22 1015 52 10000 4.12 160 21:29 11.05.2022
2175 Clear 22 1015 48 10000 4.63 160 20:48 11.05.2022
2176 Clear 27 1015 36 10000 4.47 159 17:54 11.05.2022
2177 Clear 28 1016 34 10000 3.6 210 16:49 11.05.2022
2178 Clear 28 1017 34 10000 4.12 190 14:50 11.05.2022
2179 Clear 28 1017 34 10000 4.47 187 14:26 11.05.2022
2180 Clear 28 1018 34 10000 3.6 160 13:44 11.05.2022
2181 Clouds 26 1018 43 10000 2.24 89 11:51 11.05.2022
2182 Clear 22 1019 55 10000 1.54 180 09:54 11.05.2022
2183 Clear 17 1020 69 10000 2.06 150 07:53 11.05.2022
2184 Clear 13 1018 81 10000 2.57 200 04:44 11.05.2022
2185 Clear 14 1019 72 10000 3.09 170 00:41 11.05.2022
2186 Clear 17 1019 61 10000 2.57 180 22:30 10.05.2022
2187 Clear 17 1019 60 10000 2.06 150 21:47 10.05.2022
2188 Clear 18 1018 55 10000 1.03 90 20:52 10.05.2022
2189 Clear 22 1020 42 10000 2.57 10 19:25 10.05.2022
2190 Clear 24 1020 36 10000 2.24 348 17:47 10.05.2022
2191 Clouds 24 1020 36 10000 2.57 20 16:41 10.05.2022
2192 Clear 24 1021 44 10000 2.06 0 14:33 10.05.2022
2193 Clouds 22 1022 47 10000 2.06 60 12:37 10.05.2022
2194 Clouds 22 1023 50 10000 1.34 84 11:49 10.05.2022
2195 Clouds 21 1023 53 10000 1.79 43 11:18 10.05.2022
2196 Clear 19 1023 58 10000 1.34 98 09:59 10.05.2022
2197 Clear 18 1023 62 10000 1.03 0 09:25 10.05.2022
2198 Clear 11 1024 83 10000 1.03 0 06:44 10.05.2022
2199 Clear 13 1023 78 10000 1.03 250 02:59 10.05.2022
2200 Clear 15 1024 74 10000 2.57 290 00:24 10.05.2022
2201 Clear 16 1023 70 10000 1.54 200 22:44 09.05.2022
2202 Clouds 17 1023 63 10000 3.09 220 21:48 09.05.2022
2203 Clouds 19 1022 56 10000 1.54 50 20:25 09.05.2022
2204 Clouds 21 1022 52 10000 2.57 20 18:43 09.05.2022
2205 Clouds 22 1022 46 10000 5.66 40 17:40 09.05.2022
2206 Clouds 23 1023 46 10000 4.63 0 16:30 09.05.2022
2207 Clouds 23 1023 47 10000 4.12 10 15:50 09.05.2022
2208 Clouds 23 1024 47 10000 3.6 30 14:54 09.05.2022
2209 Clouds 23 1025 51 10000 3.6 20 14:22 09.05.2022
2210 Clouds 23 1024 51 10000 3.09 30 13:36 09.05.2022
2211 Clouds 21 1025 57 10000 3.09 360 12:18 09.05.2022
2212 Clear 19 1026 63 10000 4.02 344 10:55 09.05.2022
2213 Clear 19 1025 65 10000 2.57 330 10:36 09.05.2022
2214 Clear 15 1026 76 10000 3.09 320 08:31 09.05.2022
2215 Clear 15 1025 78 10000 2.57 320 07:49 09.05.2022
2216 Clear 14 1022 83 10000 1.54 320 03:19 09.05.2022
2217 Rain 16 1023 77 10000 2.06 320 23:34 08.05.2022
2218 Clear 16 1023 77 10000 2.06 320 22:52 08.05.2022
2219 Clear 16 1023 76 10000 1.79 249 21:48 08.05.2022
2220 Clouds 17 1022 72 10000 2.24 251 20:35 08.05.2022
2221 Clouds 18 1022 67 10000 3.09 340 19:44 08.05.2022
2222 Clouds 19 1022 62 10000 3.09 10 18:54 08.05.2022
2223 Clouds 20 1022 60 10000 3.13 44 17:57 08.05.2022
2224 Clouds 20 1022 59 10000 5.36 48 16:43 08.05.2022
2225 Clouds 21 1022 62 10000 2.57 20 15:31 08.05.2022
2226 Clouds 20 1023 61 10000 2.57 10 14:44 08.05.2022
2227 Clear 18 1024 68 10000 3.09 350 12:25 08.05.2022
2228 Clouds 16 1023 77 10000 2.06 340 10:31 08.05.2022
2229 Clouds 16 1023 79 10000 2.57 330 09:57 08.05.2022
2230 Clouds 16 1023 80 10000 2.57 330 09:57 08.05.2022
2231 Rain 15 1023 83 8000 2.24 360 08:56 08.05.2022
2232 Clouds 14 1022 87 8000 1.79 317 06:58 08.05.2022
2233 Clouds 14 1022 85 8000 1.03 0 03:35 08.05.2022
2234 Clouds 14 1022 83 10000 1.54 250 02:45 08.05.2022
2235 Rain 14 1021 82 10000 1.54 350 00:24 08.05.2022
2236 Clear 15 1021 81 10000 2.57 330 23:49 07.05.2022
2237 Clear 15 1021 80 10000 2.57 340 22:46 07.05.2022
2238 Clouds 15 1021 78 10000 1.54 10 21:59 07.05.2022
2239 Clouds 15 1021 77 10000 1.54 10 21:34 07.05.2022
2240 Clouds 16 1021 77 10000 2.57 20 20:28 07.05.2022
2241 Rain 16 1021 78 10000 2.24 6 19:44 07.05.2022
2242 Clouds 17 1021 75 10000 5.14 330 17:35 07.05.2022
2243 Clouds 18 1020 74 10000 4.12 330 15:46 07.05.2022
2244 Clouds 17 1021 76 10000 3.6 310 13:58 07.05.2022
2245 Clouds 15 1022 84 10000 4.12 360 10:46 07.05.2022
2246 Rain 14 1022 88 8000 4.12 350 09:19 07.05.2022
2247 Rain 13 1022 90 6000 2.57 350 07:51 07.05.2022
2248 Clouds 13 1021 90 7000 3.09 360 06:43 07.05.2022
2249 Rain 13 1021 89 10000 4.63 340 04:56 07.05.2022
2250 Rain 14 1022 88 9000 5.14 340 01:24 07.05.2022
2251 Rain 14 1022 85 10000 3.6 330 23:37 06.05.2022
2252 Rain 15 1022 80 10000 4.12 350 22:28 06.05.2022
2253 Clouds 15 1021 80 10000 4.12 350 21:43 06.05.2022
2254 Clouds 16 1021 80 10000 4.12 350 20:34 06.05.2022
2255 Clear 17 1021 77 10000 4.12 350 19:30 06.05.2022
2256 Clouds 17 1021 75 10000 4.12 350 18:59 06.05.2022
2257 Clouds 18 1021 72 10000 4.12 360 18:18 06.05.2022
2258 Rain 18 1021 74 10000 4.63 350 16:39 06.05.2022
2259 Rain 18 1021 74 10000 4.02 9 15:39 06.05.2022
2260 Rain 18 1022 72 10000 3.6 30 14:46 06.05.2022
2261 Clear 19 1021 67 10000 2.57 20 12:54 06.05.2022
2262 Clear 18 1021 68 10000 2.68 87 12:36 06.05.2022
2263 Clear 18 1021 70 10000 3.09 40 11:42 06.05.2022
2264 Clear 17 1021 75 10000 2.57 350 10:27 06.05.2022
2265 Clear 16 1021 77 10000 2.06 10 09:45 06.05.2022
2266 Clear 14 1021 81 10000 1.03 360 08:27 06.05.2022
2267 Clear 12 1021 85 10000 1.03 0 06:45 06.05.2022
2268 Clear 12 1020 83 10000 2.06 200 04:53 06.05.2022
2269 Clear 14 1020 78 10000 1.54 180 02:45 06.05.2022
2270 Clouds 15 1020 73 10000 1.03 0 00:19 06.05.2022
2271 Clouds 17 1019 66 10000 2.24 187 21:56 05.05.2022
2272 Clouds 18 1019 63 10000 1.54 230 21:19 05.05.2022
2273 Clouds 19 1019 55 10000 2.57 260 19:54 05.05.2022
2274 Clouds 21 1018 51 10000 5.66 230 18:31 05.05.2022
2275 Clouds 22 1019 49 10000 2.06 230 16:20 05.05.2022
2276 Rain 22 1019 51 10000 2.57 250 14:49 05.05.2022
2277 Clouds 22 1019 49 10000 2.06 0 13:22 05.05.2022
2278 Clouds 21 1020 51 10000 2.24 67 12:49 05.05.2022
2279 Clouds 19 1020 60 10000 1.34 247 10:48 05.05.2022
2280 Clouds 18 1020 67 10000 1.34 296 09:39 05.05.2022
2281 Clear 12 1018 86 10000 0.51 0 07:35 05.05.2022
2282 Clear 11 1018 85 10000 2.06 280 04:42 05.05.2022
2283 Clouds 12 1018 82 10000 1.03 0 01:53 05.05.2022
2284 Clouds 13 1018 83 10000 1.54 170 01:24 05.05.2022
2285 Clear 13 1018 82 10000 2.57 140 23:50 04.05.2022
2286 Clear 13 1017 80 10000 1.03 130 22:42 04.05.2022
2287 Clouds 14 1017 77 10000 2.57 60 21:50 04.05.2022
2288 Clouds 15 1017 74 10000 2.06 40 21:26 04.05.2022
2289 Clouds 17 1016 67 10000 1.54 140 20:24 04.05.2022
2290 Clouds 17 1016 66 10000 3.09 240 19:53 04.05.2022
2291 Clouds 19 1016 68 10000 3.6 210 18:56 04.05.2022
2292 Clouds 19 1016 63 10000 5.14 240 18:22 04.05.2022
2293 Rain 19 1016 66 10000 5.36 240 17:42 04.05.2022
2294 Rain 20 1015 50 10000 2.68 292 15:41 04.05.2022
2295 Rain 21 1017 47 10000 4.02 276 15:23 04.05.2022
2296 Clouds 22 1016 50 10000 2.57 0 14:21 04.05.2022
2297 Clouds 22 1016 50 10000 2.24 97 13:33 04.05.2022
2298 Clouds 21 1016 53 10000 3.13 94 12:33 04.05.2022
2299 Clouds 19 1017 58 10000 1.79 108 10:41 04.05.2022
2300 Clear 18 1017 62 10000 1.54 0 09:43 04.05.2022
2301 Clear 16 1017 68 10000 4.02 336 08:46 04.05.2022
2302 Clear 12 1017 78 10000 2.57 270 06:47 04.05.2022
2303 Clear 12 1015 75 10000 0.51 0 02:59 04.05.2022
2304 Clear 13 1016 72 10000 2.06 350 00:38 04.05.2022
2305 Clear 15 1015 62 10000 2.06 130 22:37 03.05.2022
2306 Clear 16 1015 58 10000 4.47 48 21:46 03.05.2022
2307 Clear 17 1015 53 10000 4.12 30 20:54 03.05.2022
2308 Clouds 18 1012 49 10000 0.51 0 19:59 03.05.2022
2309 Clouds 21 1013 40 10000 2.06 190 18:54 03.05.2022
2310 Clouds 21 1012 39 10000 3.09 200 18:21 03.05.2022
2311 Clouds 22 1013 38 10000 3.6 270 16:44 03.05.2022
2312 Clouds 21 1014 45 10000 3.6 150 15:38 03.05.2022
2313 Clouds 23 1014 38 10000 4.02 202 13:28 03.05.2022
2314 Clouds 22 1015 41 10000 4.92 171 12:27 03.05.2022
2315 Clouds 20 1015 53 10000 2.24 128 10:57 03.05.2022
2316 Clear 17 1015 64 10000 2.24 128 09:46 03.05.2022
2317 Clear 13 1015 77 10000 2.06 250 07:58 03.05.2022
2318 Clear 11 1016 83 10000 1.03 0 06:45 03.05.2022
2319 Clear 11 1015 82 10000 1.54 190 01:52 03.05.2022
2320 Clear 15 1016 73 10000 1.54 210 22:44 02.05.2022
2321 Rain 15 1016 69 10000 2.57 310 21:55 02.05.2022
2322 Rain 15 1016 68 10000 2.06 300 21:23 02.05.2022
2323 Clouds 19 1013 48 10000 3.58 235 18:57 02.05.2022
2324 Clouds 19 1014 42 10000 4.63 170 18:25 02.05.2022
2325 Clouds 20 1014 39 10000 5.14 160 17:37 02.05.2022
2326 Clouds 21 1014 39 10000 3.13 105 16:24 02.05.2022
2327 Clouds 21 1015 40 10000 3.58 137 15:37 02.05.2022
2328 Clouds 21 1016 42 10000 2.68 96 13:58 02.05.2022
2329 Clouds 20 1016 47 10000 2.68 77 12:45 02.05.2022
2330 Clear 19 1017 54 10000 1.54 0 11:20 02.05.2022
2331 Clouds 15 1017 68 10000 1.34 38 09:31 02.05.2022
2332 Clouds 12 1018 81 8000 2.57 180 07:57 02.05.2022
2333 Mist 10 1017 83 8000 3.13 258 05:37 02.05.2022
2334 Clear 12 1019 78 10000 2.68 328 00:26 02.05.2022
2335 Clear 12 1019 78 10000 2.68 270 23:52 01.05.2022
2336 Clear 13 1019 77 10000 3.6 280 22:45 01.05.2022
2337 Clear 14 1019 75 10000 2.57 340 21:30 01.05.2022
2338 Clear 14 1018 74 10000 3.09 360 20:23 01.05.2022
2339 Clear 15 1018 71 10000 2.57 360 19:18 01.05.2022
2340 Clear 16 1018 69 10000 2.06 270 18:50 01.05.2022
2341 Clear 16 1019 69 10000 2.06 0 17:47 01.05.2022
2342 Clouds 16 1019 71 10000 1.54 330 16:24 01.05.2022
2343 Clouds 15 1018 76 10000 2.57 300 15:43 01.05.2022
2344 Rain 16 1018 72 10000 3.09 310 14:41 01.05.2022
2345 Rain 16 1021 64 10000 2.24 206 11:53 01.05.2022
2346 Clouds 15 1019 67 10000 4.92 313 09:33 01.05.2022
2347 Clear 13 1020 70 10000 2.68 298 08:49 01.05.2022
2348 Clear 10 1019 77 10000 4.92 246 05:31 01.05.2022
2349 Clear 11 1019 67 10000 1.03 210 01:32 01.05.2022
2350 Clear 14 1018 53 10000 1.03 130 21:59 30.04.2022
2351 Clear 15 1018 51 10000 1.54 120 21:30 30.04.2022
2352 Clear 15 1018 51 10000 1.54 120 21:30 30.04.2022
2353 Clear 15 1018 50 10000 1.54 120 21:30 30.04.2022
2354 Clear 18 1018 41 10000 3.09 140 19:48 30.04.2022
2355 Clear 19 1018 37 10000 4.12 140 18:50 30.04.2022
2356 Clear 20 1019 33 10000 5.14 130 17:26 30.04.2022
2357 Clear 20 1019 33 10000 6.17 130 15:51 30.04.2022
2358 Clear 20 1020 36 10000 5.66 140 14:54 30.04.2022
2359 Clear 20 1021 39 10000 4.63 140 13:41 30.04.2022
2360 Clear 17 1022 45 10000 3.58 132 11:39 30.04.2022
2361 Clear 16 1022 50 10000 2.24 62 10:55 30.04.2022
2362 Clear 14 1023 54 10000 2.24 38 09:54 30.04.2022
2363 Clear 8 1023 77 10000 0.51 0 07:36 30.04.2022
2364 Clear 7 1023 74 10000 2.57 180 03:53 30.04.2022
2365 Clear 10 1025 67 10000 0.89 320 23:54 29.04.2022
2366 Clear 11 1025 61 10000 1.03 70 22:36 29.04.2022
2367 Clear 12 1025 57 10000 0.51 0 21:55 29.04.2022
2368 Clear 13 1024 53 10000 1.54 60 21:21 29.04.2022
2369 Clear 16 1024 44 10000 2.57 30 19:52 29.04.2022
2370 Clear 17 1024 40 10000 4.12 20 18:58 29.04.2022
2371 Clear 18 1024 36 10000 4.47 75 17:33 29.04.2022
2372 Clear 19 1025 36 10000 3.6 360 16:30 29.04.2022
2373 Clear 19 1026 38 10000 4.47 359 14:34 29.04.2022
2374 Clear 18 1027 39 10000 4.63 330 13:27 29.04.2022
2375 Clear 18 1027 42 10000 3.6 350 12:33 29.04.2022
2376 Clear 15 1028 49 10000 3.6 360 09:52 29.04.2022
2377 Clear 11 1027 65 10000 3.13 321 07:52 29.04.2022
2378 Clear 8 1027 70 10000 3.58 325 07:24 29.04.2022
2379 Clear 7 1028 75 10000 4.02 328 06:29 29.04.2022
2380 Clear 10 1027 59 10000 3.09 350 00:52 29.04.2022
2381 Clear 11 1027 57 10000 3.09 350 23:52 28.04.2022
2382 Clear 11 1027 55 10000 3.09 330 22:47 28.04.2022
2383 Clear 11 1027 52 10000 3.6 330 22:19 28.04.2022
2384 Clear 12 1027 51 10000 3.09 340 21:41 28.04.2022
2385 Clear 13 1026 50 10000 2.57 340 20:43 28.04.2022
2386 Clear 15 1025 42 10000 3.09 10 19:49 28.04.2022
2387 Clear 16 1026 39 10000 4.12 10 19:24 28.04.2022
2388 Clear 17 1025 37 10000 5.81 356 18:45 28.04.2022
2389 Clear 17 1025 37 10000 6.17 340 17:32 28.04.2022
2390 Clear 18 1025 39 10000 7.15 37 16:50 28.04.2022
2391 Clear 18 1025 39 10000 6.69 340 16:20 28.04.2022
2392 Clear 18 1025 38 10000 7.2 350 15:43 28.04.2022
2393 Clear 17 1026 39 10000 6.26 357 14:56 28.04.2022
2394 Clear 17 1026 44 10000 9.39 342 13:23 28.04.2022
2395 Clouds 16 1026 47 10000 7.6 9 12:28 28.04.2022
2396 Clouds 16 1026 54 10000 6.71 334 10:59 28.04.2022
2397 Clear 15 1026 55 10000 7.6 359 10:26 28.04.2022
2398 Clear 14 1026 59 10000 6.17 350 09:43 28.04.2022
2399 Clear 10 1025 72 10000 3.6 330 07:40 28.04.2022
2400 Clear 8 1024 78 10000 3.6 330 06:42 28.04.2022
2401 Clear 7 1024 80 10000 4.92 325 05:52 28.04.2022
2402 Clear 7 1023 78 10000 4.63 330 04:42 28.04.2022
2403 Clear 10 1024 72 10000 5.14 320 00:52 28.04.2022
2404 Clouds 11 1023 75 10000 4.92 327 23:18 27.04.2022
2405 Clouds 11 1023 75 10000 5.14 300 22:18 27.04.2022
2406 Clear 11 1022 75 10000 6.26 318 21:34 27.04.2022
2407 Clouds 11 1023 74 10000 6.26 329 20:45 27.04.2022
2408 Clear 12 1022 72 10000 6.26 315 19:54 27.04.2022
2409 Clouds 12 1022 71 10000 6.26 334 19:31 27.04.2022
2410 Clouds 12 1022 69 10000 4.47 319 18:38 27.04.2022
2411 Clouds 13 1021 70 10000 7.15 306 17:41 27.04.2022
2412 Clouds 13 1020 70 10000 9.39 339 15:56 27.04.2022
2413 Rain 12 1021 75 10000 5.66 300 12:59 27.04.2022
2414 Rain 10 1021 78 10000 6.26 320 11:24 27.04.2022
2415 Rain 10 1021 80 10000 5.66 320 10:27 27.04.2022
2416 Rain 8 1020 81 10000 5.36 312 07:53 27.04.2022
2417 Rain 8 1019 83 10000 6.17 310 06:41 27.04.2022
2418 Clouds 8 1018 82 10000 8.94 308 02:26 27.04.2022
2419 Clouds 8 1018 84 10000 8.05 323 01:21 27.04.2022
2420 Clouds 8 1018 83 10000 11.62 324 00:27 27.04.2022
2421 Rain 9 1017 84 8000 5.36 306 23:24 26.04.2022
2422 Rain 10 1017 81 10000 7.15 277 22:45 26.04.2022
2423 Rain 12 1016 77 10000 0.89 350 21:59 26.04.2022
2424 Rain 13 1015 67 10000 1.54 100 21:18 26.04.2022
2425 Clouds 13 1014 66 10000 2.06 50 20:36 26.04.2022
2426 Clouds 13 1015 63 10000 2.68 91 19:44 26.04.2022
2427 Clouds 14 1015 63 10000 3.09 40 19:24 26.04.2022
2428 Clouds 14 1015 61 10000 2.57 60 18:31 26.04.2022
2429 Clouds 15 1014 60 10000 2.06 70 17:38 26.04.2022
2430 Clouds 14 1015 57 10000 2.24 84 14:59 26.04.2022
2431 Clouds 13 1016 67 10000 1.34 119 13:38 26.04.2022
2432 Rain 12 1016 71 10000 1.54 360 12:47 26.04.2022
2433 Clouds 12 1015 71 10000 1.54 0 11:20 26.04.2022
2434 Clouds 11 1016 73 10000 1.03 0 10:30 26.04.2022
2435 Clear 9 1016 75 10000 2.57 350 08:32 26.04.2022
2436 Clear 6 1015 84 10000 2.06 300 04:39 26.04.2022
2437 Clear 6 1015 83 10000 2.68 354 03:59 26.04.2022
2438 Clear 8 1015 77 10000 3.09 350 00:46 26.04.2022
2439 Clear 9 1014 75 10000 3.09 10 23:48 25.04.2022
2440 Clear 11 1013 71 10000 3.6 360 21:51 25.04.2022
2441 Clouds 11 1012 69 10000 3.09 360 21:23 25.04.2022
2442 Clear 13 1011 65 10000 5.66 340 19:39 25.04.2022
2443 Clear 15 1010 59 10000 7.6 323 18:25 25.04.2022
2444 Clear 15 1010 57 10000 10.29 290 17:39 25.04.2022
2445 Clear 16 1008 56 10000 10.28 271 16:30 25.04.2022
2446 Clouds 15 1009 61 10000 13.41 306 15:19 25.04.2022
2447 Clouds 16 1008 56 10000 15.2 317 14:22 25.04.2022
2448 Clouds 15 1008 63 10000 12.52 290 12:40 25.04.2022
2449 Clouds 13 1007 72 10000 7.2 280 10:29 25.04.2022
2450 Clouds 12 1006 75 10000 7.2 280 09:39 25.04.2022
2451 Rain 10 1005 79 10000 4.63 290 07:34 25.04.2022
2452 Rain 10 1004 77 10000 5.14 290 05:53 25.04.2022
2453 Clouds 10 1004 83 10000 3.13 261 01:27 25.04.2022
2454 Clear 11 1003 83 10000 3.58 245 23:54 24.04.2022
2455 Clear 11 1003 83 10000 2.24 248 23:22 24.04.2022
2456 Clear 11 1004 83 10000 2.24 259 22:38 24.04.2022
2457 Clear 11 1003 83 10000 2.06 350 21:54 24.04.2022
2458 Clouds 11 1003 81 10000 2.57 350 21:21 24.04.2022
2459 Rain 11 1003 81 10000 3.09 360 20:41 24.04.2022
2460 Rain 12 1002 80 10000 6.17 320 19:57 24.04.2022
2461 Rain 16 1001 60 10000 4.12 20 18:33 24.04.2022
2462 Clouds 16 1000 59 10000 5.81 23 17:41 24.04.2022
2463 Clouds 17 1000 58 10000 5.66 10 17:20 24.04.2022
2464 Clouds 18 1000 59 10000 6.71 34 16:51 24.04.2022
2465 Clouds 18 1000 57 10000 5.14 330 16:22 24.04.2022
2466 Clouds 18 999 58 10000 7.72 300 15:39 24.04.2022
2467 Clouds 16 999 65 10000 4.47 263 14:31 24.04.2022
2468 Clouds 16 999 58 10000 6.31 264 13:26 24.04.2022
2469 Clear 16 999 62 10000 11.62 225 12:46 24.04.2022
2470 Clouds 16 999 65 10000 10.29 160 11:46 24.04.2022
2471 Clouds 15 999 69 10000 9.83 187 10:37 24.04.2022
2472 Clouds 14 999 72 10000 10.29 180 09:42 24.04.2022
2473 Clouds 11 1000 87 10000 8.23 170 07:41 24.04.2022
2474 Clouds 10 1001 88 10000 4.63 140 05:32 24.04.2022
2475 Clouds 11 1003 85 10000 4.12 130 01:51 24.04.2022
2476 Clouds 12 1004 83 10000 4.12 110 00:38 24.04.2022
2477 Clouds 12 1005 81 10000 4.12 120 23:46 23.04.2022
2478 Clouds 12 1005 80 10000 4.12 110 23:25 23.04.2022
2479 Clouds 12 1006 79 10000 3.6 120 21:56 23.04.2022
2480 Clouds 12 1006 77 10000 3.09 130 21:36 23.04.2022
2481 Clouds 13 1006 75 10000 3.09 130 20:58 23.04.2022
2482 Clouds 13 1006 74 10000 3.6 130 19:55 23.04.2022
2483 Clouds 13 1006 75 10000 4.12 130 19:20 23.04.2022
2484 Clouds 13 1006 73 10000 4.12 140 18:53 23.04.2022
2485 Clouds 13 1006 73 10000 3.6 150 18:31 23.04.2022
2486 Clouds 13 1007 71 10000 4.92 158 17:44 23.04.2022
2487 Clouds 14 1007 69 10000 3.09 140 16:44 23.04.2022
2488 Clouds 14 1007 68 10000 3.13 130 15:35 23.04.2022
2489 Clouds 11 1008 76 10000 1.54 360 12:54 23.04.2022
2490 Clouds 10 1009 81 10000 3.09 10 10:53 23.04.2022
2491 Clouds 8 1008 84 10000 3.6 360 09:38 23.04.2022
2492 Clouds 8 1007 87 7000 3.09 360 07:52 23.04.2022
2493 Clouds 9 1006 89 6000 2.06 350 03:56 23.04.2022
2494 Clouds 8 1006 88 10000 1.79 17 01:55 23.04.2022
2495 Clouds 9 1007 88 10000 2.57 300 23:33 22.04.2022
2496 Clouds 9 1006 87 10000 2.06 330 22:32 22.04.2022
2497 Clouds 9 1007 87 10000 2.06 330 21:44 22.04.2022
2498 Clouds 9 1007 87 10000 2.06 330 21:44 22.04.2022
2499 Clouds 9 1007 88 10000 2.57 340 21:20 22.04.2022
2500 Clouds 9 1006 87 10000 3.6 340 20:28 22.04.2022
2501 Drizzle 9 1006 88 8000 3.09 340 19:23 22.04.2022
2502 Drizzle 8 1006 89 7000 3.09 340 18:52 22.04.2022
2503 Rain 9 1006 87 5000 2.06 350 17:54 22.04.2022
2504 Rain 9 1006 87 8000 1.54 10 16:53 22.04.2022
2505 Rain 9 1006 86 10000 2.68 49 15:56 22.04.2022
2506 Rain 9 1006 85 10000 2.24 57 15:22 22.04.2022
2507 Rain 9 1006 83 10000 3.09 70 14:21 22.04.2022
2508 Rain 9 1006 81 10000 3.09 80 13:27 22.04.2022
2509 Rain 9 1006 82 10000 2.06 90 12:30 22.04.2022
2510 Rain 9 1006 78 10000 2.68 71 11:23 22.04.2022
2511 Rain 9 1006 78 10000 3.09 70 10:53 22.04.2022
2512 Rain 9 1007 78 10000 3.13 109 10:32 22.04.2022
2513 Rain 9 1007 74 10000 3.09 120 09:54 22.04.2022
2514 Rain 9 1006 66 10000 3.6 130 08:56 22.04.2022
2515 Rain 9 1006 66 10000 3.6 110 08:25 22.04.2022
2516 Clouds 8 1006 70 10000 3.13 118 05:20 22.04.2022
2517 Clear 9 1009 68 10000 1.03 0 00:53 22.04.2022
2518 Clear 10 1009 62 10000 2.06 140 23:28 21.04.2022
2519 Clear 11 1009 59 10000 2.06 120 22:29 21.04.2022
2520 Clear 11 1009 59 10000 2.06 120 22:29 21.04.2022
2521 Clear 12 1010 53 10000 3.09 140 20:55 21.04.2022
2522 Clear 13 1010 52 10000 3.09 140 20:26 21.04.2022
2523 Clear 16 1010 45 10000 4.92 140 18:48 21.04.2022
2524 Clear 16 1009 45 10000 4.12 140 18:19 21.04.2022
2525 Clear 17 1009 43 10000 5.81 133 16:53 21.04.2022
2526 Clear 17 1010 41 10000 5.81 186 15:23 21.04.2022
2527 Clear 16 1010 43 10000 5.14 150 14:51 21.04.2022
2528 Clear 15 1011 46 10000 5.81 162 13:52 21.04.2022
2529 Clear 15 1011 48 10000 4.12 140 13:19 21.04.2022
2530 Clear 13 1012 55 10000 2.24 161 11:37 21.04.2022
2531 Clouds 9 1013 66 10000 2.24 350 09:23 21.04.2022
2532 Clear 7 1013 71 10000 2.24 358 08:29 21.04.2022
2533 Clear 3 1012 81 10000 0.51 0 06:25 21.04.2022
2534 Clear 4 1012 79 10000 2.06 200 03:37 21.04.2022
2535 Clear 4 1012 78 10000 2.06 160 02:56 21.04.2022
2536 Clear 4 1013 79 10000 2.06 160 02:38 21.04.2022
2537 Clear 6 1012 73 10000 2.06 160 00:25 21.04.2022
2538 Clear 7 1012 70 10000 1.54 150 23:24 20.04.2022
2539 Clear 7 1013 67 10000 1.54 160 22:52 20.04.2022
2540 Clear 7 1013 66 10000 2.06 160 22:32 20.04.2022
2541 Clear 7 1013 65 10000 2.06 160 22:32 20.04.2022
2542 Clear 7 1013 65 10000 2.06 160 22:32 20.04.2022
2543 Clear 8 1013 61 10000 1.54 160 21:35 20.04.2022
2544 Clear 9 1013 55 10000 1.54 150 20:43 20.04.2022
2545 Clear 10 1013 55 10000 1.54 120 20:20 20.04.2022
2546 Clear 12 1013 48 10000 1.54 40 19:38 20.04.2022
2547 Clear 13 1013 44 10000 2.57 10 18:42 20.04.2022
2548 Clouds 13 1013 43 10000 2.68 141 16:59 20.04.2022
2549 Clouds 13 1013 42 10000 3.58 150 16:39 20.04.2022
2550 Clouds 13 1014 47 10000 3.58 262 14:55 20.04.2022
2551 Clouds 11 1015 57 10000 3.58 311 12:18 20.04.2022
2552 Clouds 10 1015 60 10000 3.6 310 11:36 20.04.2022
2553 Clouds 9 1016 71 10000 6.71 298 10:30 20.04.2022
2554 Clouds 7 1017 79 10000 3.6 320 09:28 20.04.2022
2555 Clouds 5 1017 86 10000 4.63 320 08:25 20.04.2022
2556 Clouds 4 1017 87 10000 4.02 338 07:44 20.04.2022
2557 Clouds 3 1016 88 10000 4.02 246 05:19 20.04.2022
2558 Clouds 4 1015 88 10000 3.13 317 01:20 20.04.2022
2559 Clouds 4 1015 87 10000 3.13 276 00:21 20.04.2022
2560 Clouds 5 1015 86 10000 3.09 330 22:44 19.04.2022
2561 Clouds 5 1015 85 10000 3.09 340 22:23 19.04.2022
2562 Rain 5 1015 85 10000 2.57 340 21:46 19.04.2022
2563 Clouds 5 1014 85 10000 2.57 330 20:57 19.04.2022
2564 Clouds 5 1014 84 10000 2.57 330 20:37 19.04.2022
2565 Clouds 6 1013 82 10000 2.24 219 19:32 19.04.2022
2566 Clouds 6 1012 82 10000 3.09 310 18:26 19.04.2022
2567 Rain 6 1011 84 10000 2.57 220 16:48 19.04.2022
2568 Rain 6 1011 84 10000 2.24 208 16:25 19.04.2022
2569 Rain 5 1011 84 10000 2.57 270 15:57 19.04.2022
2570 Rain 6 1011 83 10000 1.79 129 14:40 19.04.2022
2571 Rain 6 1012 82 10000 2.06 340 12:52 19.04.2022
2572 Rain 6 1011 79 10000 2.57 360 12:29 19.04.2022
2573 Rain 6 1012 80 10000 2.06 320 11:27 19.04.2022
2574 Rain 6 1012 70 10000 3.09 350 09:31 19.04.2022
2575 Clouds 7 1013 64 10000 4.63 360 07:43 19.04.2022
2576 Rain 7 1012 61 10000 3.58 319 04:24 19.04.2022
2577 Clear 7 1014 61 10000 2.06 330 01:24 19.04.2022
2578 Clear 7 1015 61 10000 1.54 30 23:44 18.04.2022
2579 Clear 8 1015 63 10000 2.24 10 22:46 18.04.2022
2580 Clear 8 1015 64 10000 4.12 290 21:25 18.04.2022
2581 Clear 9 1014 63 10000 4.92 302 20:39 18.04.2022
2582 Clouds 10 1015 60 10000 4.63 320 19:59 18.04.2022
2583 Clear 10 1014 57 10000 4.63 320 19:32 18.04.2022
2584 Clear 11 1015 55 10000 6.71 320 18:45 18.04.2022
2585 Clear 12 1015 53 10000 4.02 297 17:40 18.04.2022
2586 Clear 12 1015 51 10000 7.6 303 17:19 18.04.2022
2587 Clear 12 1015 48 10000 5.66 340 16:38 18.04.2022
2588 Clear 12 1016 49 10000 5.81 323 15:32 18.04.2022
2589 Clear 10 1017 53 10000 8.94 307 14:27 18.04.2022
2590 Clouds 9 1018 60 10000 8.94 327 12:56 18.04.2022
2591 Clouds 9 1018 61 10000 8.49 279 12:24 18.04.2022
2592 Clear 7 1018 56 10000 4.02 335 10:58 18.04.2022
2593 Clear 7 1019 54 10000 2.24 279 09:53 18.04.2022
2594 Clear 7 1019 55 10000 2.24 246 09:27 18.04.2022
2595 Clear 3 1019 68 10000 2.06 150 07:25 18.04.2022
2596 Clear 4 1021 61 10000 2.68 330 02:45 18.04.2022
2597 Clear 6 1023 53 10000 2.57 350 23:30 17.04.2022
2598 Clear 6 1023 50 10000 3.09 350 22:37 17.04.2022
2599 Clear 7 1023 47 10000 3.13 48 21:34 17.04.2022
2600 Clear 8 1023 44 10000 5.14 40 20:53 17.04.2022
2601 Clear 9 1023 41 10000 4.63 40 20:19 17.04.2022
2602 Clear 12 1022 37 10000 6.17 30 18:59 17.04.2022
2603 Clear 13 1023 33 10000 7.6 25 17:34 17.04.2022
2604 Clear 13 1024 34 10000 9.83 347 15:37 17.04.2022
2605 Clear 13 1025 34 10000 8.94 34 14:46 17.04.2022
2606 Clear 12 1026 36 10000 7.2 360 13:41 17.04.2022
2607 Clear 12 1026 38 10000 6.69 350 12:52 17.04.2022
2608 Clouds 10 1027 44 10000 6.17 10 10:59 17.04.2022
2609 Clouds 9 1028 48 10000 8.49 13 10:30 17.04.2022
2610 Clouds 8 1028 50 10000 8.05 7 09:57 17.04.2022
2611 Clouds 8 1029 54 10000 8.49 46 09:21 17.04.2022
2612 Clouds 7 1029 57 10000 4.12 360 08:41 17.04.2022
2613 Clear 3 1028 66 10000 4.63 330 06:52 17.04.2022
2614 Clear 5 1029 60 10000 5.66 330 02:56 17.04.2022
2615 Clouds 7 1031 53 10000 6.17 330 00:43 17.04.2022
2616 Clear 7 1030 51 10000 6.26 346 23:41 16.04.2022
2617 Clear 8 1030 50 10000 7.6 3 21:55 16.04.2022
2618 Clear 8 1029 49 10000 5.81 17 21:23 16.04.2022
2619 Clouds 9 1027 50 10000 7.2 340 19:33 16.04.2022
2620 Clouds 9 1027 50 10000 6.26 346 18:45 16.04.2022
2621 Clouds 9 1027 53 10000 9.83 10 17:21 16.04.2022
2622 Clouds 9 1027 53 10000 9.77 340 16:31 16.04.2022
2623 Clouds 9 1027 54 10000 6.71 350 15:23 16.04.2022
2624 Clouds 9 1027 57 10000 7.72 360 14:43 16.04.2022
2625 Clouds 9 1027 61 10000 9.83 355 13:55 16.04.2022
2626 Clouds 10 1027 60 10000 11.18 356 13:25 16.04.2022
2627 Clouds 10 1026 66 10000 9.39 351 11:58 16.04.2022
2628 Clouds 9 1025 69 10000 8.05 336 10:37 16.04.2022
2629 Clouds 9 1025 68 10000 11.18 10 09:39 16.04.2022
2630 Clouds 9 1024 69 10000 8.49 338 08:54 16.04.2022
2631 Clouds 9 1024 73 10000 7.2 320 07:31 16.04.2022
2632 Clouds 9 1023 74 10000 6.17 320 06:22 16.04.2022
2633 Clouds 9 1023 71 10000 6.69 320 01:53 16.04.2022
2634 Clouds 10 1023 69 10000 8.05 327 00:19 16.04.2022
2635 Clouds 10 1023 68 10000 10.73 10 22:54 15.04.2022
2636 Clouds 11 1023 69 10000 5.36 356 22:31 15.04.2022
2637 Rain 12 1021 75 10000 3.09 340 21:44 15.04.2022
2638 Rain 12 1020 79 10000 4.02 295 20:55 15.04.2022
2639 Rain 13 1019 76 10000 6.26 298 19:59 15.04.2022
2640 Rain 14 1020 72 10000 3.13 63 19:38 15.04.2022
2641 Rain 16 1020 70 10000 6.71 310 18:46 15.04.2022
2642 Rain 17 1019 66 10000 4.02 291 18:24 15.04.2022
2643 Clouds 17 1019 71 10000 3.6 290 17:30 15.04.2022
2644 Rain 17 1019 68 10000 6.69 10 16:26 15.04.2022
2645 Thunderstorm 17 1020 66 10000 4.63 340 15:59 15.04.2022
2646 Clouds 19 1020 56 10000 5.81 294 14:30 15.04.2022
2647 Clouds 18 1021 59 10000 4.12 320 13:33 15.04.2022
2648 Clouds 16 1020 63 10000 6.71 321 12:40 15.04.2022
2649 Clouds 15 1022 73 10000 4.92 344 11:54 15.04.2022
2650 Clouds 13 1021 80 10000 3.13 304 10:53 15.04.2022
2651 Rain 13 1021 81 10000 2.24 265 10:24 15.04.2022
2652 Clouds 13 1022 82 10000 2.24 321 09:38 15.04.2022
2653 Rain 13 1022 81 10000 2.24 321 09:18 15.04.2022
2654 Clear 13 1020 68 10000 6.17 330 06:56 15.04.2022
2655 Clear 14 1019 66 10000 7.6 338 05:57 15.04.2022
2656 Clear 13 1018 61 10000 2.57 160 01:49 15.04.2022
2657 Clear 14 1018 53 10000 4.63 160 23:30 14.04.2022
2658 Clear 15 1017 50 10000 4.12 160 22:47 14.04.2022
2659 Clear 15 1018 48 10000 4.63 160 22:28 14.04.2022
2660 Clear 16 1017 47 10000 4.63 150 21:57 14.04.2022
2661 Clear 17 1018 42 10000 5.14 160 20:35 14.04.2022
2662 Clear 20 1017 39 10000 6.17 150 19:23 14.04.2022
2663 Clear 21 1017 36 10000 8.05 183 18:19 14.04.2022
2664 Clear 22 1017 34 10000 8.49 157 17:28 14.04.2022
2665 Clear 23 1017 34 10000 7.72 140 16:33 14.04.2022
2666 Clear 23 1018 34 10000 7.72 140 14:58 14.04.2022
2667 Clear 22 1019 33 10000 8.23 150 13:45 14.04.2022
2668 Clear 21 1018 36 10000 7.72 150 12:52 14.04.2022
2669 Clear 20 1019 37 10000 8.23 150 12:31 14.04.2022
2670 Clouds 19 1019 40 10000 5.36 170 11:24 14.04.2022
2671 Clear 18 1019 42 10000 8.23 130 10:52 14.04.2022
2672 Clear 17 1019 44 10000 7.2 130 10:26 14.04.2022
2673 Clear 13 1019 50 10000 5.66 140 08:54 14.04.2022
2674 Clear 10 1019 59 10000 6.17 140 06:53 14.04.2022
2675 Clear 11 1019 57 10000 5.66 140 03:28 14.04.2022
2676 Clear 13 1020 53 10000 4.63 130 23:25 13.04.2022
2677 Clear 13 1020 50 10000 3.13 360 22:20 13.04.2022
2678 Clear 14 1020 49 10000 2.68 360 21:36 13.04.2022
2679 Clear 16 1019 45 10000 3.09 120 20:22 13.04.2022
2680 Clear 17 1020 41 10000 5.14 130 19:36 13.04.2022
2681 Clear 19 1019 40 10000 7.2 130 18:27 13.04.2022
2682 Clear 20 1018 39 10000 6.69 140 17:24 13.04.2022
2683 Clear 20 1018 38 10000 8.49 163 16:34 13.04.2022
2684 Clear 20 1019 38 10000 10.28 141 15:40 13.04.2022
2685 Clear 19 1019 38 10000 10.73 125 14:51 13.04.2022
2686 Clear 19 1019 38 10000 9.26 140 14:28 13.04.2022
2687 Clear 18 1020 40 10000 10.73 168 13:29 13.04.2022
2688 Clear 17 1020 42 10000 10.73 154 12:27 13.04.2022
2689 Clear 14 1020 48 10000 8.23 140 10:55 13.04.2022
2690 Clear 13 1020 53 10000 8.23 130 09:44 13.04.2022
2691 Clear 11 1020 57 10000 7.15 163 08:43 13.04.2022
2692 Clear 7 1019 67 10000 7.2 130 06:52 13.04.2022
2693 Clear 7 1019 67 10000 7.2 130 06:26 13.04.2022
2694 Clear 7 1019 67 10000 6.17 130 05:52 13.04.2022
2695 Clear 10 1019 57 10000 2.06 150 00:24 13.04.2022
2696 Clear 10 1019 56 10000 1.54 130 23:46 12.04.2022
2697 Clear 11 1019 52 10000 2.57 110 22:19 12.04.2022
2698 Clear 12 1019 49 10000 3.09 100 21:32 12.04.2022
2699 Clear 13 1018 48 10000 3.09 110 20:42 12.04.2022
2700 Clear 14 1017 45 10000 3.6 110 19:53 12.04.2022
2701 Clear 15 1017 42 10000 3.6 140 19:32 12.04.2022
2702 Clear 16 1018 39 10000 5.36 172 18:42 12.04.2022
2703 Clear 17 1018 36 10000 6.71 144 17:30 12.04.2022
2704 Clear 17 1019 37 10000 4.63 150 16:25 12.04.2022
2705 Clear 16 1019 38 10000 4.63 140 15:33 12.04.2022
2706 Clear 16 1019 41 10000 4.63 160 14:32 12.04.2022
2707 Clear 15 1020 42 10000 5.36 190 13:38 12.04.2022
2708 Clear 14 1020 44 10000 5.14 110 12:59 12.04.2022
2709 Clear 12 1021 45 10000 4.92 188 11:47 12.04.2022
2710 Clear 12 1021 46 10000 4.12 130 11:24 12.04.2022
2711 Clear 8 1020 52 10000 3.09 140 09:25 12.04.2022
2712 Clear 5 1021 60 10000 2.06 160 08:18 12.04.2022
2713 Clear 3 1019 67 10000 2.06 210 06:33 12.04.2022
2714 Clear 3 1019 65 10000 1.54 90 05:35 12.04.2022
2715 Clear 5 1019 57 10000 3.6 130 01:47 12.04.2022
2716 Clear 6 1020 51 10000 2.06 150 23:19 11.04.2022
2717 Clear 7 1020 48 10000 2.24 360 21:49 11.04.2022
2718 Clear 8 1020 46 10000 2.57 110 21:18 11.04.2022
2719 Clear 8 1020 43 10000 2.57 100 20:30 11.04.2022
2720 Clear 10 1019 40 10000 3.09 110 19:57 11.04.2022
2721 Clear 11 1019 37 10000 3.6 120 19:22 11.04.2022
2722 Clear 11 1019 35 10000 4.02 102 18:49 11.04.2022
2723 Clear 13 1019 35 10000 3.09 70 17:57 11.04.2022
2724 Clear 13 1020 35 10000 3.09 50 16:57 11.04.2022
2725 Clear 13 1020 35 10000 3.58 92 16:25 11.04.2022
2726 Clear 13 1021 36 10000 3.13 67 14:36 11.04.2022
2727 Clear 12 1023 40 10000 3.6 20 12:54 11.04.2022
2728 Clear 11 1022 42 10000 3.6 330 12:35 11.04.2022
2729 Clouds 10 1023 46 10000 3.6 300 11:42 11.04.2022
2730 Clouds 9 1023 52 10000 3.6 330 10:34 11.04.2022
2731 Clouds 7 1023 59 10000 3.6 330 09:30 11.04.2022
2732 Clouds 4 1023 75 10000 5.14 300 07:19 11.04.2022
2733 Clear 4 1021 72 10000 4.12 300 02:32 11.04.2022
2734 Clear 5 1021 61 10000 3.6 340 22:58 10.04.2022
2735 Clear 5 1021 60 10000 3.09 340 22:26 10.04.2022
2736 Clear 6 1020 58 10000 4.12 330 21:35 10.04.2022
2737 Clouds 6 1020 54 10000 3.6 340 20:39 10.04.2022
2738 Clouds 7 1019 52 10000 4.12 340 19:46 10.04.2022
2739 Clouds 8 1019 49 10000 6.69 360 19:25 10.04.2022
2740 Clouds 9 1018 46 10000 5.14 350 18:45 10.04.2022
2741 Clouds 9 1018 45 10000 8.49 336 17:56 10.04.2022
2742 Clouds 9 1018 45 10000 8.49 336 17:56 10.04.2022
2743 Clouds 10 1018 43 10000 8.49 308 17:37 10.04.2022
2744 Clouds 10 1018 51 10000 9.39 310 16:33 10.04.2022
2745 Clouds 9 1018 57 10000 3.6 310 15:30 10.04.2022
2746 Clouds 9 1018 56 10000 7.72 320 14:25 10.04.2022
2747 Clouds 9 1018 48 10000 7.2 320 12:35 10.04.2022
2748 Clouds 9 1018 49 10000 12.07 296 12:35 10.04.2022
2749 Clouds 9 1018 48 10000 7.72 320 11:56 10.04.2022
2750 Clouds 9 1018 50 10000 9.83 5 11:29 10.04.2022
2751 Clouds 9 1018 50 10000 8.75 320 10:56 10.04.2022
2752 Clouds 8 1018 55 10000 9.83 348 09:59 10.04.2022
2753 Clouds 7 1017 59 10000 8.49 314 09:38 10.04.2022
2754 Clouds 5 1017 66 10000 7.2 330 08:23 10.04.2022
2755 Clear 4 1016 72 10000 5.66 310 07:35 10.04.2022
2756 Clear 3 1015 73 10000 5.14 310 05:57 10.04.2022
2757 Clear 5 1014 68 10000 8.49 340 02:34 10.04.2022
2758 Clear 5 1013 64 10000 5.14 310 00:29 10.04.2022
2759 Clear 6 1012 63 10000 5.66 310 23:49 09.04.2022
2760 Clouds 6 1012 64 10000 4.92 317 22:48 09.04.2022
2761 Clouds 6 1012 60 10000 5.66 360 21:35 09.04.2022
2762 Clouds 7 1012 56 10000 4.63 310 20:50 09.04.2022
2763 Clear 8 1011 55 10000 4.63 330 20:26 09.04.2022
2764 Clouds 8 1011 53 10000 6.26 315 19:42 09.04.2022
2765 Clouds 8 1010 53 10000 5.14 320 19:18 09.04.2022
2766 Clouds 9 1009 50 10000 6.69 330 18:21 09.04.2022
2767 Clouds 9 1009 52 10000 8.94 320 17:39 09.04.2022
2768 Clouds 9 1009 53 10000 6.26 320 16:52 09.04.2022
2769 Clouds 9 1009 56 10000 9.83 271 15:57 09.04.2022
2770 Clouds 9 1008 54 10000 11.18 330 15:39 09.04.2022
2771 Clouds 8 1008 58 10000 9.77 330 14:44 09.04.2022
2772 Clouds 8 1009 60 10000 9.39 321 14:23 09.04.2022
2773 Clouds 8 1008 63 10000 12.07 351 13:18 09.04.2022
2774 Clouds 7 1008 65 10000 9.77 320 12:41 09.04.2022
2775 Clouds 7 1006 65 10000 17.88 329 11:22 09.04.2022
2776 Clouds 7 1004 68 10000 11.32 320 10:21 09.04.2022
2777 Clouds 7 1003 72 10000 14.75 349 09:42 09.04.2022
2778 Clouds 7 1002 69 10000 13.86 342 08:54 09.04.2022
2779 Clouds 11 996 81 10000 5.81 286 07:21 09.04.2022
2780 Clouds 11 996 84 10000 4.12 180 02:20 09.04.2022
2781 Clouds 11 997 81 10000 3.6 180 23:53 08.04.2022
2782 Clouds 12 997 80 10000 4.12 170 22:55 08.04.2022
2783 Clouds 12 998 78 10000 3.58 300 21:29 08.04.2022
2784 Clear 14 997 66 10000 2.24 331 20:39 08.04.2022
2785 Clear 14 997 65 10000 4.63 160 19:20 08.04.2022
2786 Clear 15 998 62 10000 7.72 160 18:31 08.04.2022
2787 Clouds 15 999 61 10000 7.72 160 17:52 08.04.2022
2788 Clouds 14 998 60 10000 8.23 160 17:26 08.04.2022
2789 Clouds 15 999 59 10000 8.75 150 16:49 08.04.2022
2790 Clouds 15 1000 57 10000 7.6 171 15:57 08.04.2022
2791 Clouds 15 1000 54 10000 8.05 181 15:26 08.04.2022
2792 Clouds 15 1002 49 10000 2.57 240 14:39 08.04.2022
2793 Clear 14 1003 51 10000 7.72 280 13:48 08.04.2022
2794 Clear 13 1004 51 10000 7.2 280 13:29 08.04.2022
2795 Clear 13 1005 53 10000 11.62 311 12:18 08.04.2022
2796 Clouds 11 1005 60 10000 10.8 270 10:38 08.04.2022
2797 Clouds 11 1004 60 10000 9.77 260 09:39 08.04.2022
2798 Clear 11 1004 60 10000 8.75 270 08:58 08.04.2022
2799 Clear 10 1002 62 10000 6.71 232 07:31 08.04.2022
2800 Clouds 10 1001 64 10000 11.18 294 06:38 08.04.2022
2801 Rain 14 997 61 10000 8.23 270 01:45 08.04.2022
2802 Clear 14 996 59 10000 3.6 240 00:26 08.04.2022
2803 Clear 13 996 61 10000 2.68 216 23:00 07.04.2022
2804 Clear 14 995 59 10000 2.57 220 22:40 07.04.2022
2805 Clouds 14 996 58 10000 2.57 240 22:22 07.04.2022
2806 Clouds 15 996 54 10000 4.63 280 21:56 07.04.2022
2807 Clouds 15 996 52 10000 4.63 300 21:19 07.04.2022
2808 Rain 16 996 53 10000 8.94 286 20:38 07.04.2022
2809 Rain 17 994 48 10000 6.69 160 18:54 07.04.2022
2810 Clouds 19 995 40 10000 4.63 170 17:27 07.04.2022
2811 Clouds 19 996 39 10000 4.63 260 16:45 07.04.2022
2812 Clouds 19 996 40 10000 7.2 280 16:23 07.04.2022
2813 Clouds 19 997 41 10000 8.49 304 15:19 07.04.2022
2814 Clouds 18 999 47 10000 11.62 278 13:51 07.04.2022
2815 Clouds 17 999 48 10000 9.77 290 13:22 07.04.2022
2816 Clouds 16 1000 58 10000 10.8 300 11:49 07.04.2022
2817 Clear 14 1001 70 10000 7.2 290 10:30 07.04.2022
2818 Clouds 12 1001 79 10000 5.14 300 08:40 07.04.2022
2819 Rain 10 1001 84 10000 7.2 310 06:58 07.04.2022
2820 Rain 12 1001 72 10000 6.17 290 04:26 07.04.2022
2821 Rain 12 1001 73 10000 7.6 307 02:29 07.04.2022
2822 Rain 12 1000 68 10000 0.45 306 00:42 07.04.2022
2823 Clouds 13 1001 61 10000 4.12 190 23:21 06.04.2022
2824 Clouds 13 1001 60 10000 5.14 170 22:44 06.04.2022
2825 Clear 14 1001 59 10000 4.63 150 21:47 06.04.2022
2826 Clear 15 1001 55 10000 5.14 150 20:43 06.04.2022
2827 Clear 16 1002 52 10000 4.12 140 19:59 06.04.2022
2828 Clear 17 1003 49 10000 4.63 140 19:19 06.04.2022
2829 Clear 17 1001 48 10000 6.17 150 18:47 06.04.2022
2830 Clear 19 1003 45 10000 7.2 150 17:35 06.04.2022
2831 Clear 19 1004 44 10000 7.6 147 16:39 06.04.2022
2832 Clear 19 1005 45 10000 6.69 140 15:57 06.04.2022
2833 Clear 19 1006 44 10000 7.15 176 15:39 06.04.2022
2834 Clouds 18 1008 49 10000 5.14 200 13:34 06.04.2022
2835 Clouds 17 1009 51 10000 4.47 181 12:29 06.04.2022
2836 Clouds 16 1009 59 10000 4.47 200 10:57 06.04.2022
2837 Clouds 15 1009 61 10000 4.47 207 10:33 06.04.2022
2838 Clouds 14 1010 64 10000 4.02 172 09:46 06.04.2022
2839 Clouds 13 1010 69 10000 3.58 214 08:51 06.04.2022
2840 Clouds 12 1010 74 10000 4.12 220 07:58 06.04.2022
2841 Clouds 11 1010 76 10000 3.6 260 05:23 06.04.2022
2842 Rain 10 1009 80 10000 4.63 270 00:45 06.04.2022
2843 Clouds 10 1010 79 10000 4.12 280 23:48 05.04.2022
2844 Clouds 10 1010 78 10000 4.92 300 21:51 05.04.2022
2845 Clouds 10 1009 78 10000 4.12 280 20:59 05.04.2022
2846 Clouds 10 1009 77 10000 6.71 296 20:24 05.04.2022
2847 Clouds 10 1009 74 10000 8.23 290 18:31 05.04.2022
2848 Rain 10 1009 75 10000 8.49 297 17:22 05.04.2022
2849 Rain 9 1009 77 10000 9.77 290 16:43 05.04.2022
2850 Rain 9 1010 77 10000 10.29 280 15:51 05.04.2022
2851 Rain 9 1010 76 10000 10.29 280 15:31 05.04.2022
2852 Rain 9 1010 69 10000 11.62 275 13:49 05.04.2022
2853 Clouds 9 1008 67 10000 16.09 296 12:39 05.04.2022
2854 Clouds 9 1009 69 10000 14.75 290 11:43 05.04.2022
2855 Clouds 8 1009 70 10000 12.52 301 11:25 05.04.2022
2856 Clouds 8 1009 70 10000 12.52 301 11:25 05.04.2022
2857 Drizzle 7 1008 74 10000 12.96 321 09:40 05.04.2022
2858 Clouds 7 1008 70 10000 13.41 279 08:47 05.04.2022
2859 Clouds 6 1008 74 10000 11.62 306 04:25 05.04.2022
2860 Rain 6 1010 61 10000 4.12 220 23:48 04.04.2022
2861 Clear 5 1010 63 10000 3.09 260 22:41 04.04.2022
2862 Clear 5 1010 63 10000 4.12 200 21:51 04.04.2022
2863 Clear 5 1010 63 10000 5.14 190 21:20 04.04.2022
2864 Clear 5 1011 61 10000 4.63 190 20:48 04.04.2022
2865 Clear 7 1011 53 10000 5.14 190 19:38 04.04.2022
2866 Clear 9 1011 48 10000 4.63 190 18:46 04.04.2022
2867 Clouds 10 1012 44 10000 4.92 188 17:39 04.04.2022
2868 Clouds 9 1013 43 10000 5.14 220 16:36 04.04.2022
2869 Clouds 9 1015 42 10000 3.58 225 15:34 04.04.2022
2870 Clear 9 1016 42 10000 3.13 296 14:49 04.04.2022
2871 Clouds 9 1015 42 10000 3.6 230 14:31 04.04.2022
2872 Clear 8 1017 43 10000 5.36 223 13:18 04.04.2022
2873 Clouds 6 1019 45 10000 5.36 296 11:48 04.04.2022
2874 Clouds 6 1019 46 10000 3.6 260 11:27 04.04.2022
2875 Clear 1 1020 77 10000 2.57 250 07:46 04.04.2022
2876 Clear 1 1020 77 10000 2.57 250 07:46 04.04.2022
2877 Clear 1 1020 75 10000 4.02 300 03:19 04.04.2022
2878 Clouds 2 1021 70 10000 2.57 310 00:25 04.04.2022
2879 Clear 2 1020 68 10000 3.13 298 22:33 03.04.2022
2880 Clear 2 1020 66 10000 3.13 302 21:38 03.04.2022
2881 Clear 2 1019 60 10000 3.09 340 20:41 03.04.2022
2882 Clear 3 1019 55 10000 7.6 331 19:45 03.04.2022
2883 Clouds 4 1018 50 10000 8.49 3 18:31 03.04.2022
2884 Clouds 5 1017 48 10000 7.72 340 17:46 03.04.2022
2885 Clouds 5 1017 49 10000 8.75 350 16:50 03.04.2022
2886 Clouds 5 1017 49 10000 8.23 350 16:31 03.04.2022
2887 Clouds 4 1017 58 10000 10.73 334 14:38 03.04.2022
2888 Clouds 3 1017 60 10000 10.28 298 13:47 03.04.2022
2889 Clouds 4 1017 60 10000 8.75 330 12:38 03.04.2022
2890 Clouds 3 1017 63 10000 12.07 351 10:58 03.04.2022
2891 Clear 2 1016 70 10000 10.28 318 09:36 03.04.2022
2892 Clouds 1 1014 74 10000 9.26 320 08:27 03.04.2022
2893 Rain 1 1011 83 10000 6.71 318 04:42 03.04.2022
2894 Snow 1 1010 86 10000 8.23 330 01:53 03.04.2022
2895 Snow 1 1010 89 7000 8.75 320 23:21 02.04.2022
2896 Mist 1 1010 90 4800 9.39 320 22:18 02.04.2022
2897 Snow 1 1009 90 4800 8.75 320 21:46 02.04.2022
2898 Snow 1 1009 89 4800 8.75 320 21:18 02.04.2022
2899 Snow 1 1008 88 3000 7.15 313 19:53 02.04.2022
2900 Snow 1 1006 83 3200 5.66 330 18:23 02.04.2022
2901 Snow 1 1006 83 3200 5.66 330 18:23 02.04.2022
2902 Snow 2 1006 82 2600 6.17 330 17:53 02.04.2022
2903 Snow 4 1007 67 8000 7.2 340 16:27 02.04.2022
2904 Snow 4 1006 65 8000 8.23 330 15:22 02.04.2022
2905 Clouds 4 1005 63 10000 7.72 320 14:49 02.04.2022
2906 Clouds 4 1005 62 10000 7.72 330 13:51 02.04.2022
2907 Clouds 4 1005 62 10000 8.94 327 13:19 02.04.2022
2908 Clouds 4 1004 64 10000 8.94 346 11:33 02.04.2022
2909 Clouds 2 1003 71 10000 5.81 6 09:30 02.04.2022
2910 Clouds 2 1002 74 10000 6.17 330 06:51 02.04.2022
2911 Clouds 2 1002 76 10000 6.69 330 03:55 02.04.2022
2912 Clouds 2 1001 77 10000 6.71 28 00:19 02.04.2022
2913 Clouds 2 1001 77 10000 7.15 353 23:40 01.04.2022
2914 Clouds 3 1001 76 10000 6.69 340 21:52 01.04.2022
2915 Clouds 4 1000 76 10000 5.66 360 20:52 01.04.2022
2916 Clouds 4 1000 76 10000 5.66 350 20:31 01.04.2022
2917 Clouds 4 999 76 10000 7.2 360 19:38 01.04.2022
2918 Clouds 5 999 73 10000 7.72 350 18:52 01.04.2022
2919 Clouds 5 998 70 10000 8.49 358 17:59 01.04.2022
2920 Clouds 5 998 69 10000 8.49 4 17:35 01.04.2022
2921 Clouds 5 998 69 10000 8.49 4 17:35 01.04.2022
2922 Clouds 6 997 70 10000 7.6 329 15:43 01.04.2022
2923 Clouds 6 997 71 10000 9.39 329 14:39 01.04.2022
2924 Clouds 5 997 73 10000 7.72 330 13:36 01.04.2022
2925 Clouds 5 996 75 10000 6.17 330 12:33 01.04.2022
2926 Clouds 4 996 78 10000 8.49 347 11:45 01.04.2022
2927 Clouds 4 996 81 10000 8.05 302 10:34 01.04.2022
2928 Drizzle 3 995 83 10000 5.81 336 09:30 01.04.2022
2929 Clouds 3 994 85 10000 5.66 330 06:55 01.04.2022
2930 Clouds 3 994 86 9000 5.66 320 04:54 01.04.2022
2931 Clouds 3 994 86 9000 5.81 3 04:36 01.04.2022
2932 Clouds 4 994 88 10000 4.63 330 01:59 01.04.2022
2933 Rain 4 995 88 9000 5.14 330 00:44 01.04.2022
2934 Rain 5 995 89 6000 6.26 359 22:20 31.03.2022
2935 Clouds 5 995 89 6000 5.66 350 21:37 31.03.2022
2936 Rain 6 994 89 7000 4.63 10 20:30 31.03.2022
2937 Rain 6 994 89 6000 4.12 10 19:50 31.03.2022
2938 Rain 6 994 89 6000 5.14 350 18:57 31.03.2022
2939 Rain 7 994 89 4000 5.66 360 17:54 31.03.2022
2940 Rain 7 995 89 4000 3.6 10 16:45 31.03.2022
2941 Rain 8 995 89 4000 4.12 360 15:50 31.03.2022
2942 Rain 8 995 88 4000 4.12 360 15:21 31.03.2022
2943 Rain 8 995 88 4500 3.13 29 14:44 31.03.2022
2944 Rain 8 997 87 3500 4.12 20 12:48 31.03.2022
2945 Rain 8 997 85 4000 3.09 360 11:28 31.03.2022
2946 Rain 8 997 83 4800 4.47 34 10:19 31.03.2022
2947 Mist 8 997 79 5000 3.13 40 08:29 31.03.2022
2948 Clouds 9 997 77 9000 1.79 321 06:21 31.03.2022
2949 Clouds 11 998 66 10000 2.57 320 00:46 31.03.2022
2950 Clouds 12 998 60 10000 5.14 250 23:23 30.03.2022
2951 Clear 13 998 57 10000 4.12 180 21:43 30.03.2022
2952 Clouds 13 997 57 10000 1.79 171 21:25 30.03.2022
2953 Clear 13 997 55 10000 4.12 170 20:21 30.03.2022
2954 Clear 14 997 53 10000 4.12 170 19:36 30.03.2022
2955 Clear 15 998 52 10000 4.63 160 18:34 30.03.2022
2956 Clear 16 998 51 10000 5.14 140 17:48 30.03.2022
2957 Clear 16 999 50 10000 7.15 159 16:57 30.03.2022
2958 Clear 16 999 50 10000 5.66 150 16:38 30.03.2022
2959 Clear 16 1000 49 10000 5.14 150 15:38 30.03.2022
2960 Clear 16 1002 51 10000 4.02 177 13:57 30.03.2022
2961 Clear 15 1002 51 10000 2.68 100 13:18 30.03.2022
2962 Clear 14 1004 54 10000 2.24 71 11:36 30.03.2022
2963 Clear 13 1005 59 10000 2.57 20 10:37 30.03.2022
2964 Clear 12 1005 62 10000 2.24 107 09:27 30.03.2022
2965 Clear 9 1005 70 10000 0.51 0 07:41 30.03.2022
2966 Clear 10 1005 68 10000 1.03 360 05:41 30.03.2022
2967 Clear 10 1005 65 10000 2.57 350 04:19 30.03.2022
2968 Clear 13 1006 57 10000 4.63 20 00:42 30.03.2022
2969 Clear 15 1005 41 10000 3.6 300 22:34 29.03.2022
2970 Clear 16 1005 35 10000 4.12 220 21:46 29.03.2022
2971 Clear 16 1003 35 10000 5.14 200 20:54 29.03.2022
2972 Clear 17 1004 33 10000 3.09 250 20:20 29.03.2022
2973 Clear 19 1005 28 10000 7.15 315 18:56 29.03.2022
2974 Clear 19 1005 27 10000 7.72 300 18:31 29.03.2022
2975 Clear 20 1006 26 10000 9.83 298 17:37 29.03.2022
2976 Clear 21 1006 26 10000 9.83 321 16:58 29.03.2022
2977 Clear 21 1007 27 10000 7.6 281 15:58 29.03.2022
2978 Clear 21 1008 28 10000 9.83 281 14:53 29.03.2022
2979 Clear 21 1009 29 10000 7.15 307 14:22 29.03.2022
2980 Clear 20 1010 32 10000 10.73 327 12:55 29.03.2022
2981 Clear 19 1011 35 10000 5.66 290 11:44 29.03.2022
2982 Clear 18 1011 37 10000 12.07 288 10:55 29.03.2022
2983 Clear 16 1011 40 10000 3.13 258 09:49 29.03.2022
2984 Clear 11 1012 52 10000 2.06 160 07:57 29.03.2022
2985 Clear 9 1012 58 10000 2.06 180 04:47 29.03.2022
2986 Clear 13 1015 46 10000 2.57 180 00:50 29.03.2022
2987 Clear 14 1016 42 10000 1.03 240 23:24 28.03.2022
2988 Clear 14 1016 40 10000 1.79 181 22:54 28.03.2022
2989 Clear 15 1016 40 10000 3.09 260 22:26 28.03.2022
2990 Clear 15 1017 43 10000 2.57 170 20:58 28.03.2022
2991 Clear 16 1017 41 10000 3.09 170 20:23 28.03.2022
2992 Clear 18 1017 37 10000 3.09 150 19:45 28.03.2022
2993 Clear 18 1017 36 10000 2.57 130 19:27 28.03.2022
2994 Clear 20 1017 35 10000 3.09 140 18:40 28.03.2022
2995 Clear 21 1018 37 10000 2.06 0 17:39 28.03.2022
2996 Clear 21 1019 36 10000 2.57 190 16:33 28.03.2022
2997 Clear 20 1021 39 10000 2.68 32 14:48 28.03.2022
2998 Clear 19 1022 41 10000 1.79 94 14:21 28.03.2022
2999 Clear 16 1024 44 10000 2.68 81 12:24 28.03.2022
3000 Clear 14 1025 45 10000 1.79 128 11:31 28.03.2022
3001 Clear 12 1026 49 10000 1.54 180 09:43 28.03.2022
3002 Clear 11 1026 54 10000 2.06 150 09:19 28.03.2022
3003 Clear 9 1026 56 10000 1.03 170 08:22 28.03.2022
3004 Clear 8 1027 58 10000 1.54 230 07:34 28.03.2022
3005 Clear 8 1027 53 10000 1.54 160 03:52 28.03.2022
3006 Clear 9 1028 54 10000 2.06 210 23:30 27.03.2022
3007 Clear 10 1028 54 10000 1.03 150 22:24 27.03.2022
3008 Clear 11 1028 53 10000 0.51 0 21:42 27.03.2022
3009 Clear 12 1028 49 10000 2.06 60 20:57 27.03.2022
3010 Clear 13 1028 47 10000 2.06 30 19:49 27.03.2022
3011 Clear 15 1028 46 10000 2.57 50 19:24 27.03.2022
3012 Clear 16 1028 45 10000 3.58 58 18:28 27.03.2022
3013 Clear 16 1028 44 10000 3.6 20 17:39 27.03.2022
3014 Clear 16 1028 45 10000 5.36 28 16:31 27.03.2022
3015 Clouds 17 1029 46 10000 3.09 10 15:21 27.03.2022
3016 Clouds 16 1030 48 10000 6.26 65 13:56 27.03.2022
3017 Clouds 14 1031 52 10000 4.12 360 12:31 27.03.2022
3018 Clouds 12 1031 55 10000 4.63 10 10:57 27.03.2022
3019 Clouds 10 1031 60 10000 3.6 350 08:53 27.03.2022
3020 Clouds 9 1030 60 10000 3.6 10 05:54 27.03.2022
3021 Clear 10 1028 47 10000 3.6 300 00:48 27.03.2022
3022 Clear 10 1027 44 10000 3.6 310 23:42 26.03.2022
3023 Clear 10 1027 42 10000 3.6 290 22:36 26.03.2022
3024 Clear 12 1027 37 10000 3.6 300 21:34 26.03.2022
3025 Clear 12 1027 36 10000 3.6 330 20:52 26.03.2022
3026 Clear 14 1026 29 10000 2.68 335 19:21 26.03.2022
3027 Clear 17 1026 25 10000 4.63 320 17:53 26.03.2022
3028 Clear 18 1026 24 10000 4.63 320 17:32 26.03.2022
3029 Clear 19 1026 25 10000 6.71 343 16:27 26.03.2022
3030 Clear 19 1026 25 10000 8.05 348 14:57 26.03.2022
3031 Clear 18 1027 27 10000 4.47 330 13:53 26.03.2022
3032 Clear 17 1028 29 10000 2.06 0 12:51 26.03.2022
3033 Clear 16 1029 32 10000 1.54 0 11:41 26.03.2022
3034 Clear 14 1028 37 10000 3.09 10 10:22 26.03.2022
3035 Clear 10 1029 46 10000 2.24 328 08:34 26.03.2022
3036 Clear 6 1028 53 10000 3.58 342 05:54 26.03.2022
3037 Clear 6 1028 53 10000 2.24 352 04:21 26.03.2022
3038 Clear 8 1028 46 10000 1.54 200 00:22 26.03.2022
3039 Clear 9 1027 44 10000 3.6 260 21:41 25.03.2022
3040 Clear 10 1026 41 10000 1.34 24 20:46 25.03.2022
3041 Clear 12 1026 36 10000 1.03 360 19:36 25.03.2022
3042 Clear 14 1026 32 10000 2.57 10 18:47 25.03.2022
3043 Clear 16 1026 29 10000 4.63 360 17:47 25.03.2022
3044 Clear 17 1026 29 10000 5.14 360 17:26 25.03.2022
3045 Clear 18 1025 25 10000 4.47 25 16:18 25.03.2022
3046 Clear 18 1026 26 10000 5.81 68 14:23 25.03.2022
3047 Clear 17 1027 29 10000 3.58 334 12:48 25.03.2022
3048 Clear 13 1028 38 10000 1.54 40 09:57 25.03.2022
3049 Clear 12 1028 40 10000 2.06 360 09:27 25.03.2022
3050 Clear 10 1027 43 10000 0.51 0 07:53 25.03.2022
3051 Clear 8 1027 47 10000 1.03 0 07:26 25.03.2022
3052 Clear 7 1028 47 10000 1.03 200 05:35 25.03.2022
3053 Clear 7 1027 47 10000 2.57 300 00:42 25.03.2022
3054 Clear 10 1026 40 10000 2.57 10 22:30 24.03.2022
3055 Clear 11 1026 39 10000 2.57 10 21:42 24.03.2022
3056 Clear 13 1025 33 10000 2.57 30 19:51 24.03.2022
3057 Clear 14 1025 31 10000 1.54 40 19:33 24.03.2022
3058 Clear 17 1024 27 10000 3.09 30 17:46 24.03.2022
3059 Clear 19 1024 21 10000 5.36 37 16:54 24.03.2022
3060 Clear 20 1026 21 10000 5.14 330 15:21 24.03.2022
3061 Clear 20 1026 22 10000 5.81 12 14:43 24.03.2022
3062 Clear 20 1026 22 10000 4.63 330 14:18 24.03.2022
3063 Clear 19 1027 25 10000 5.14 360 12:47 24.03.2022
3064 Clear 17 1027 27 10000 5.36 11 11:33 24.03.2022
3065 Clear 15 1027 33 10000 4.47 353 09:51 24.03.2022
3066 Clear 11 1027 42 10000 3.13 249 08:40 24.03.2022
3067 Clear 8 1026 46 10000 2.68 227 06:48 24.03.2022
3068 Clear 9 1027 42 10000 1.79 329 02:18 24.03.2022
3069 Clear 8 1027 40 10000 4.12 190 23:18 23.03.2022
3070 Clear 11 1027 35 10000 1.54 70 21:25 23.03.2022
3071 Clear 11 1027 35 10000 1.54 70 21:25 23.03.2022
3072 Clear 11 1028 34 10000 1.54 70 20:49 23.03.2022
3073 Clear 13 1028 30 10000 2.57 170 19:45 23.03.2022
3074 Clear 16 1027 24 10000 3.6 140 18:30 23.03.2022
3075 Clear 17 1027 23 10000 4.12 150 17:36 23.03.2022
3076 Clear 20 1028 19 10000 4.12 140 16:21 23.03.2022
3077 Clear 20 1029 19 10000 6.71 221 14:50 23.03.2022
3078 Clear 20 1030 20 10000 4.92 147 14:21 23.03.2022
3079 Clear 17 1031 27 10000 4.63 110 12:24 23.03.2022
3080 Clear 12 1033 35 10000 1.79 132 09:38 23.03.2022
3081 Clear 7 1031 39 10000 2.57 220 06:41 23.03.2022
3082 Clear 5 1033 47 10000 2.57 190 03:58 23.03.2022
3083 Clear 6 1034 42 10000 1.54 170 00:29 23.03.2022
3084 Clear 8 1034 37 10000 2.06 180 22:33 22.03.2022
3085 Clear 8 1034 36 10000 1.34 360 21:29 22.03.2022
3086 Clear 9 1034 36 10000 1.34 360 20:39 22.03.2022
3087 Clear 10 1034 32 10000 1.54 100 19:39 22.03.2022
3088 Clear 11 1034 30 10000 1.54 110 19:18 22.03.2022
3089 Clear 14 1034 25 10000 4.12 130 17:58 22.03.2022
3090 Clear 15 1034 22 10000 3.6 140 17:25 22.03.2022
3091 Clear 16 1034 20 10000 4.63 140 15:59 22.03.2022
3092 Clear 16 1035 21 10000 4.63 140 15:22 22.03.2022
3093 Clear 16 1035 21 10000 8.94 163 14:46 22.03.2022
3094 Clear 16 1035 21 10000 7.15 151 14:26 22.03.2022
3095 Clear 15 1036 22 10000 5.14 140 12:55 22.03.2022
3096 Clear 13 1037 26 10000 7.15 139 11:48 22.03.2022
3097 Clear 11 1037 30 10000 4.47 138 10:35 22.03.2022
3098 Clear 5 1038 44 10000 0.89 360 07:57 22.03.2022
3099 Clear 2 1037 48 10000 0.89 360 05:21 22.03.2022
3100 Clear 2 1037 45 10000 0.89 360 03:46 22.03.2022
3101 Clear 3 1038 41 10000 3.6 180 23:59 21.03.2022
3102 Clear 4 1037 40 10000 1.79 360 22:29 21.03.2022
3103 Clear 6 1037 34 10000 1.54 160 20:54 21.03.2022
3104 Clear 6 1037 34 10000 2.06 120 20:33 21.03.2022
3105 Clear 7 1037 31 10000 2.57 110 19:58 21.03.2022
3106 Clear 8 1037 29 10000 3.09 90 19:25 21.03.2022
3107 Clear 9 1036 26 10000 3.6 160 18:18 21.03.2022
3108 Clear 11 1036 23 10000 4.92 144 17:18 21.03.2022
3109 Clear 12 1036 22 10000 5.66 140 16:42 21.03.2022
3110 Clear 12 1037 21 10000 6.17 150 15:48 21.03.2022
3111 Clear 12 1037 22 10000 6.17 150 15:19 21.03.2022
3112 Clear 12 1037 23 10000 6.69 150 13:58 21.03.2022
3113 Clear 11 1038 26 10000 7.2 150 12:35 21.03.2022
3114 Clear 10 1038 27 10000 8.05 145 11:45 21.03.2022
3115 Clear 9 1039 31 10000 9.83 149 10:40 21.03.2022
3116 Clear 4 1039 43 10000 6.71 134 08:30 21.03.2022
3117 Clear 1 1039 50 10000 2.57 130 06:48 21.03.2022
3118 Clear 2 1038 44 10000 1.79 360 02:51 21.03.2022
3119 Clear 3 1039 44 10000 3.6 180 23:43 20.03.2022
3120 Clear 4 1038 42 10000 5.14 150 22:44 20.03.2022
3121 Clear 4 1039 42 10000 3.6 150 21:52 20.03.2022
3122 Clear 4 1039 42 10000 3.6 150 21:52 20.03.2022
3123 Clear 4 1039 40 10000 4.12 140 21:25 20.03.2022
3124 Clear 5 1039 39 10000 4.12 130 20:43 20.03.2022
3125 Clear 6 1039 36 10000 3.6 140 19:59 20.03.2022
3126 Clear 7 1039 35 10000 4.02 360 19:31 20.03.2022
3127 Clear 8 1039 32 10000 4.92 164 18:22 20.03.2022
3128 Clear 9 1039 32 10000 7.72 150 17:33 20.03.2022
3129 Clear 9 1039 31 10000 7.6 137 16:57 20.03.2022
3130 Clear 10 1039 30 10000 8.75 160 15:35 20.03.2022
3131 Clear 10 1039 30 10000 11.62 155 14:35 20.03.2022
3132 Clear 9 1040 36 10000 7.72 130 12:35 20.03.2022
3133 Clear 8 1040 37 10000 8.23 150 11:23 20.03.2022
3134 Clear 5 1040 42 10000 4.92 109 09:30 20.03.2022
3135 Clear 3 1040 45 10000 5.14 110 07:47 20.03.2022
3136 Clear 1 1039 50 10000 4.63 110 05:48 20.03.2022
3137 Clear 4 1039 50 10000 3.58 360 01:56 20.03.2022
3138 Clear 5 1039 55 10000 4.02 145 00:47 20.03.2022
3139 Clear 6 1038 63 10000 4.12 140 23:19 19.03.2022
3140 Clear 7 1038 57 10000 3.6 140 21:32 19.03.2022
3141 Clear 8 1038 56 10000 3.09 130 20:58 19.03.2022
3142 Clouds 9 1037 49 10000 2.06 90 18:59 19.03.2022
3143 Clear 9 1037 48 10000 3.6 110 18:24 19.03.2022
3144 Clear 10 1036 43 10000 4.12 110 17:40 19.03.2022
3145 Clear 11 1036 32 10000 3.13 360 15:46 19.03.2022
3146 Clear 11 1036 30 10000 3.58 107 15:19 19.03.2022
3147 Clear 10 1037 32 10000 2.24 66 13:20 19.03.2022
3148 Clear 10 1037 34 10000 1.79 90 12:40 19.03.2022
3149 Clear 9 1038 38 10000 3.13 360 11:54 19.03.2022
3150 Clear 9 1038 40 10000 2.57 0 11:25 19.03.2022
3151 Clear 4 1039 62 10000 3.6 340 07:59 19.03.2022
3152 Clear 3 1039 72 10000 2.24 140 03:53 19.03.2022
3153 Clear 3 1040 72 10000 1.03 150 02:30 19.03.2022
3154 Clear 6 1040 64 10000 3.6 180 23:46 18.03.2022
3155 Clear 6 1040 64 10000 3.09 260 22:28 18.03.2022
3156 Clear 6 1040 63 10000 2.57 260 21:46 18.03.2022
3157 Clear 7 1040 62 10000 3.6 210 19:54 18.03.2022
3158 Clear 7 1040 60 10000 3.09 210 19:22 18.03.2022
3159 Clear 9 1039 56 10000 1.54 170 18:18 18.03.2022
3160 Clouds 11 1039 51 10000 3.58 141 16:51 18.03.2022
3161 Clouds 12 1039 49 10000 2.24 120 15:43 18.03.2022
3162 Clouds 12 1039 51 10000 3.09 150 14:24 18.03.2022
3163 Clear 11 1039 63 10000 3.6 140 12:39 18.03.2022
3164 Clear 9 1039 69 10000 3.13 126 11:21 18.03.2022
3165 Clouds 7 1038 75 9000 2.06 110 09:34 18.03.2022
3166 Clouds 6 1039 75 8000 2.06 130 08:42 18.03.2022
3167 Mist 4 1037 79 5000 2.06 160 06:40 18.03.2022
3168 Clear 4 1035 78 10000 3.09 110 03:30 18.03.2022
3169 Clouds 5 1034 70 10000 1.34 360 00:53 18.03.2022
3170 Clouds 6 1034 67 10000 1.34 360 23:52 17.03.2022
3171 Clear 6 1033 64 10000 4.12 150 22:26 17.03.2022
3172 Clear 7 1033 62 10000 4.12 160 21:51 17.03.2022
3173 Clear 7 1032 63 10000 2.06 140 21:27 17.03.2022
3174 Clear 7 1032 61 10000 2.24 360 20:52 17.03.2022
3175 Clear 8 1031 56 10000 2.06 100 19:55 17.03.2022
3176 Clear 9 1031 55 10000 2.06 100 19:33 17.03.2022
3177 Clear 9 1031 52 10000 3.13 108 18:51 17.03.2022
3178 Clear 11 1030 47 10000 3.6 90 17:27 17.03.2022
3179 Clear 12 1030 40 10000 4.12 110 15:57 17.03.2022
3180 Clear 12 1030 39 10000 4.12 110 15:36 17.03.2022
3181 Clear 13 1030 37 10000 4.63 130 14:55 17.03.2022
3182 Clear 12 1030 42 10000 5.14 120 13:22 17.03.2022
3183 Clear 12 1030 51 10000 5.14 120 12:38 17.03.2022
3184 Clear 10 1030 63 10000 4.02 360 11:30 17.03.2022
3185 Clear 9 1030 70 7000 2.68 155 10:34 17.03.2022
3186 Mist 6 1031 75 3000 1.03 0 08:42 17.03.2022
3187 Mist 6 1030 76 3500 0.89 338 07:57 17.03.2022
3188 Mist 3 1029 83 4100 1.54 120 05:48 17.03.2022
3189 Clouds 3 1028 82 6000 1.03 200 03:45 17.03.2022
3190 Clear 6 1028 76 10000 1.34 360 00:21 17.03.2022
3191 Clouds 7 1028 72 10000 3.09 350 22:52 16.03.2022
3192 Clouds 7 1028 72 10000 3.6 340 22:33 16.03.2022
3193 Clouds 8 1028 70 10000 4.12 340 21:52 16.03.2022
3194 Clouds 9 1027 68 10000 4.12 320 20:32 16.03.2022
3195 Clouds 9 1027 67 10000 5.81 314 19:22 16.03.2022
3196 Clouds 10 1026 64 10000 4.12 340 18:40 16.03.2022
3197 Clouds 11 1026 62 10000 3.58 330 17:44 16.03.2022
3198 Clouds 11 1026 62 10000 5.14 310 17:26 16.03.2022
3199 Clouds 11 1026 62 10000 6.71 315 15:56 16.03.2022
3200 Clouds 10 1026 65 10000 6.17 330 14:31 16.03.2022
3201 Clouds 9 1026 68 10000 6.71 350 13:34 16.03.2022
3202 Clouds 9 1025 71 10000 6.17 340 11:59 16.03.2022
3203 Clouds 9 1025 72 10000 6.26 324 11:22 16.03.2022
3204 Clouds 9 1024 73 10000 8.75 320 10:28 16.03.2022
3205 Clouds 8 1024 73 10000 10.8 310 09:55 16.03.2022
3206 Clouds 9 1020 73 10000 11.62 325 06:33 16.03.2022
3207 Clouds 10 1019 81 10000 2.24 246 02:29 16.03.2022
3208 Rain 9 1020 69 10000 4.12 130 22:54 15.03.2022
3209 Rain 9 1021 64 10000 4.12 150 22:33 15.03.2022
3210 Rain 9 1021 64 10000 4.12 150 22:33 15.03.2022
3211 Clear 10 1022 55 10000 4.12 160 20:42 15.03.2022
3212 Clear 11 1023 52 10000 5.66 150 19:27 15.03.2022
3213 Clear 12 1024 46 10000 6.17 160 17:41 15.03.2022
3214 Clear 13 1024 43 10000 6.69 140 16:34 15.03.2022
3215 Clear 14 1025 40 10000 10.29 160 15:26 15.03.2022
3216 Clear 15 1025 39 10000 9.26 160 14:47 15.03.2022
3217 Clear 15 1025 39 10000 9.26 140 13:55 15.03.2022
3218 Clear 14 1026 40 10000 7.2 140 12:46 15.03.2022
3219 Clear 13 1028 43 10000 10.73 179 11:32 15.03.2022
3220 Clear 8 1030 50 10000 6.69 130 10:21 15.03.2022
3221 Clear 6 1031 53 10000 5.14 120 08:50 15.03.2022
3222 Clear 5 1031 58 10000 4.63 120 07:53 15.03.2022
3223 Clear 4 1031 59 10000 4.63 120 07:35 15.03.2022
3224 Clear 4 1032 61 10000 3.6 130 05:45 15.03.2022
3225 Clear 6 1033 54 10000 2.57 160 00:25 15.03.2022
3226 Clear 6 1032 52 10000 3.09 170 23:26 14.03.2022
3227 Clear 6 1032 54 10000 3.09 170 22:37 14.03.2022
3228 Clear 7 1032 52 10000 2.57 170 21:49 14.03.2022
3229 Clear 8 1032 50 10000 3.09 150 20:54 14.03.2022
3230 Clouds 8 1032 49 10000 0.45 325 20:23 14.03.2022
3231 Clear 10 1031 43 10000 3.6 150 19:22 14.03.2022
3232 Clear 11 1029 40 10000 3.6 150 17:55 14.03.2022
3233 Clear 13 1030 38 10000 4.12 150 17:25 14.03.2022
3234 Clear 13 1030 37 10000 4.63 140 16:26 14.03.2022
3235 Clear 14 1030 34 10000 4.12 130 14:42 14.03.2022
3236 Clear 13 1030 35 10000 5.66 130 12:55 14.03.2022
3237 Clear 9 1029 40 10000 7.2 180 10:57 14.03.2022
3238 Clear 7 1029 43 10000 7.2 150 09:56 14.03.2022
3239 Clear 6 1028 47 10000 7.2 130 09:23 14.03.2022
3240 Clear 5 1028 45 10000 6.71 190 08:57 14.03.2022
3241 Clear 4 1027 45 10000 7.2 150 08:20 14.03.2022
3242 Clear 2 1026 40 10000 7.15 152 05:51 14.03.2022
3243 Clear 3 1024 35 10000 7.72 140 02:57 14.03.2022
3244 Clear 4 1024 33 10000 8.23 150 01:33 14.03.2022
3245 Clear 5 1024 31 10000 8.49 159 23:25 13.03.2022
3246 Clear 6 1024 29 10000 7.6 143 21:41 13.03.2022
3247 Clear 6 1024 27 10000 7.6 156 21:19 13.03.2022
3248 Clear 7 1024 26 10000 8.05 138 20:46 13.03.2022
3249 Clear 7 1024 26 10000 6.26 173 20:21 13.03.2022
3250 Clear 8 1024 25 10000 6.17 140 19:41 13.03.2022
3251 Clear 8 1024 25 10000 6.26 150 19:20 13.03.2022
3252 Clear 9 1023 24 10000 7.15 145 18:41 13.03.2022
3253 Clear 9 1023 24 10000 7.2 140 17:52 13.03.2022
3254 Clear 10 1023 23 10000 9.26 140 17:33 13.03.2022
3255 Clear 10 1023 22 10000 9.39 174 16:44 13.03.2022
3256 Clear 11 1023 22 10000 9.39 152 16:20 13.03.2022
3257 Clear 11 1023 22 10000 8.75 140 15:34 13.03.2022
3258 Clear 10 1023 23 10000 9.26 140 13:53 13.03.2022
3259 Clear 10 1023 24 10000 9.77 130 13:27 13.03.2022
3260 Clear 9 1024 25 10000 10.73 129 12:20 13.03.2022
3261 Clear 8 1024 27 10000 9.77 140 11:36 13.03.2022
3262 Clear 7 1024 29 10000 10.29 130 10:48 13.03.2022
3263 Clear 6 1024 32 10000 8.94 167 10:25 13.03.2022
3264 Clear 5 1024 32 10000 7.72 140 09:41 13.03.2022
3265 Clear 3 1024 36 10000 8.23 130 08:48 13.03.2022
3266 Clear 1 1025 41 10000 8.23 130 07:57 13.03.2022
3267 Clear -1 1024 43 10000 6.69 140 05:55 13.03.2022
3268 Clear 0 1024 39 10000 5.36 154 03:33 13.03.2022
3269 Clear 1 1025 36 10000 5.81 163 00:48 13.03.2022
3270 Clear 2 1026 34 10000 6.17 140 22:47 12.03.2022
3271 Clear 3 1027 33 10000 6.71 168 20:59 12.03.2022
3272 Clear 3 1027 32 10000 6.26 360 19:57 12.03.2022
3273 Clear 4 1027 30 10000 5.66 140 19:38 12.03.2022
3274 Clear 5 1027 27 10000 6.26 167 18:31 12.03.2022
3275 Clear 6 1027 24 10000 7.72 140 17:43 12.03.2022
3276 Clear 7 1027 23 10000 9.39 142 16:25 12.03.2022
3277 Clear 7 1028 22 10000 8.75 140 15:24 12.03.2022
3278 Clear 7 1028 23 10000 9.26 140 14:52 12.03.2022
3279 Clear 7 1028 25 10000 9.39 134 13:53 12.03.2022
3280 Clear 6 1029 27 10000 8.75 140 12:25 12.03.2022
3281 Clear 5 1030 30 10000 8.23 140 11:51 12.03.2022
3282 Clear 5 1030 31 10000 8.94 136 11:19 12.03.2022
3283 Clear 3 1031 35 10000 5.81 360 09:58 12.03.2022
3284 Clear 2 1031 37 10000 8.23 140 09:38 12.03.2022
3285 Clear -1 1031 42 10000 8.49 150 07:50 12.03.2022
3286 Clear -2 1031 47 10000 6.71 145 04:50 12.03.2022
3287 Clear -1 1030 44 10000 2.68 360 00:24 12.03.2022
3288 Clear -1 1030 45 10000 3.58 144 23:28 11.03.2022
3289 Clear 0 1030 41 10000 3.09 130 21:47 11.03.2022
3290 Clear 0 1030 39 10000 3.6 130 20:57 11.03.2022
3291 Clear 0 1030 39 10000 3.6 130 20:37 11.03.2022
3292 Clear 1 1030 39 10000 3.09 140 19:53 11.03.2022
3293 Clear 1 1030 38 10000 2.57 120 19:26 11.03.2022
3294 Clear 4 1030 32 10000 4.63 120 17:37 11.03.2022
3295 Clear 4 1030 32 10000 6.26 147 17:18 11.03.2022
3296 Clear 5 1030 30 10000 5.36 152 15:57 11.03.2022
3297 Clear 5 1031 32 10000 5.66 140 14:22 11.03.2022
3298 Clear 4 1032 35 10000 1.34 142 12:53 11.03.2022
3299 Clear 3 1032 36 10000 7.6 160 12:21 11.03.2022
3300 Clear 3 1032 38 10000 6.71 159 11:56 11.03.2022
3301 Clear 1 1033 43 10000 7.72 130 10:18 11.03.2022
3302 Clear 0 1033 48 10000 8.94 167 08:57 11.03.2022
3303 Clear -2 1033 51 10000 6.17 140 08:24 11.03.2022
3304 Clear -2 1033 55 10000 4.92 161 07:46 11.03.2022
3305 Clear -3 1032 55 10000 4.47 360 05:49 11.03.2022
3306 Clear -2 1032 55 10000 4.63 140 04:22 11.03.2022
3307 Clear -1 1031 51 10000 2.24 9 23:49 10.03.2022
3308 Clear 0 1030 48 10000 3.09 20 22:31 10.03.2022
3309 Clear 1 1030 46 10000 3.6 360 21:48 10.03.2022
3310 Clear 1 1030 44 10000 3.6 20 21:20 10.03.2022
3311 Clear 3 1030 38 10000 3.13 55 19:48 10.03.2022
3312 Clear 4 1029 38 10000 4.47 58 18:55 10.03.2022
3313 Clear 6 1029 37 10000 2.57 10 17:36 10.03.2022
3314 Clear 7 1028 35 10000 3.6 10 16:31 10.03.2022
3315 Clear 8 1028 35 10000 5.66 20 15:20 10.03.2022
3316 Clouds 8 1028 41 10000 2.68 320 13:24 10.03.2022
3317 Clouds 7 1029 51 10000 7.2 20 11:58 10.03.2022
3318 Clouds 6 1029 54 10000 7.72 10 11:20 10.03.2022
3319 Clouds 4 1029 61 10000 6.69 350 09:22 10.03.2022
3320 Clouds 3 1029 62 10000 4.12 330 07:41 10.03.2022
3321 Clear 2 1027 62 10000 4.63 320 04:44 10.03.2022
3322 Clear 3 1026 58 10000 4.63 340 01:50 10.03.2022
3323 Clear 4 1025 53 10000 4.63 350 23:28 09.03.2022
3324 Clear 6 1024 48 10000 4.63 340 21:51 09.03.2022
3325 Clear 6 1025 48 10000 4.63 360 21:32 09.03.2022
3326 Clear 7 1024 44 10000 4.47 39 19:50 09.03.2022
3327 Clear 8 1023 43 10000 4.63 330 18:34 09.03.2022
3328 Clear 10 1023 40 10000 6.17 330 17:27 09.03.2022
3329 Clouds 11 1023 41 10000 6.69 310 16:31 09.03.2022
3330 Clouds 11 1023 42 10000 5.36 328 15:28 09.03.2022
3331 Clear 10 1024 44 10000 6.26 304 13:54 09.03.2022
3332 Clear 9 1024 46 10000 5.14 320 12:48 09.03.2022
3333 Clear 7 1025 48 10000 5.14 320 11:54 09.03.2022
3334 Clear 7 1025 48 10000 5.36 302 11:35 09.03.2022
3335 Clear 5 1025 49 10000 3.6 320 10:34 09.03.2022
3336 Clear 3 1026 55 10000 4.02 337 08:57 09.03.2022
3337 Clear 2 1025 58 10000 8.05 322 08:23 09.03.2022
3338 Clear -1 1025 64 10000 4.12 330 02:59 09.03.2022
3339 Clear 0 1025 62 10000 4.02 322 00:46 09.03.2022
3340 Clear 1 1024 58 10000 4.12 360 22:48 08.03.2022
3341 Clear 1 1024 58 10000 4.63 350 22:27 08.03.2022
3342 Clear 2 1024 57 10000 4.63 360 21:23 08.03.2022
3343 Clear 2 1024 56 10000 4.12 20 20:44 08.03.2022
3344 Clear 3 1023 52 10000 4.02 64 19:42 08.03.2022
3345 Clear 3 1023 52 10000 4.02 64 19:42 08.03.2022
3346 Clear 5 1022 47 10000 3.09 20 18:44 08.03.2022
3347 Clear 5 1022 47 10000 0.89 347 18:44 08.03.2022
3348 Clear 6 1022 42 10000 4.12 10 17:37 08.03.2022
3349 Clouds 8 1022 38 10000 5.66 10 16:26 08.03.2022
3350 Clouds 8 1023 41 10000 8.05 348 14:20 08.03.2022
3351 Clouds 7 1024 45 10000 1.34 309 12:44 08.03.2022
3352 Clouds 7 1024 48 10000 6.71 8 11:45 08.03.2022
3353 Clouds 6 1024 52 10000 5.66 360 10:50 08.03.2022
3354 Clear 5 1024 56 10000 5.81 320 09:57 08.03.2022
3355 Clear 0 1024 64 10000 6.26 337 07:33 08.03.2022
3356 Clear -1 1024 65 10000 3.13 207 05:43 08.03.2022
3357 Clouds 1 1024 63 10000 5.66 330 23:52 07.03.2022
3358 Clouds 2 1024 62 10000 6.26 317 22:23 07.03.2022
3359 Clouds 2 1024 61 10000 5.36 309 21:33 07.03.2022
3360 Clouds 2 1023 61 10000 9.39 310 20:49 07.03.2022
3361 Clouds 2 1023 60 10000 4.63 340 20:20 07.03.2022
3362 Clouds 2 1023 59 10000 5.14 350 19:33 07.03.2022
3363 Clouds 3 1023 56 10000 5.14 340 18:46 07.03.2022
3364 Rain 3 1022 51 10000 4.63 340 17:52 07.03.2022
3365 Clouds 4 1022 48 10000 8.23 340 16:56 07.03.2022
3366 Clouds 3 1022 49 10000 8.94 351 15:59 07.03.2022
3367 Clouds 3 1022 51 10000 8.23 330 14:18 07.03.2022
3368 Clouds 2 1023 47 10000 8.05 349 12:33 07.03.2022
3369 Clouds 0 1023 49 10000 7.2 340 10:39 07.03.2022
3370 Clouds 0 1023 52 10000 8.94 3 09:24 07.03.2022
3371 Clouds -1 1022 61 10000 8.49 48 06:19 07.03.2022
3372 Clouds 0 1022 57 10000 4.63 350 00:23 07.03.2022
3373 Clouds 1 1022 56 10000 4.47 13 23:35 06.03.2022
3374 Clouds 1 1022 56 10000 4.47 13 23:35 06.03.2022
3375 Clouds 1 1022 55 10000 4.12 360 22:57 06.03.2022
3376 Clouds 1 1022 55 10000 4.63 360 22:19 06.03.2022
3377 Clouds 1 1021 54 10000 5.66 10 20:51 06.03.2022
3378 Clouds 1 1021 54 10000 6.17 20 20:26 06.03.2022
3379 Clouds 1 1021 53 10000 5.14 350 19:23 06.03.2022
3380 Clouds 2 1021 53 10000 4.12 350 18:25 06.03.2022
3381 Clouds 3 1020 50 10000 5.81 21 17:21 06.03.2022
3382 Clouds 3 1020 50 10000 5.81 50 16:43 06.03.2022
3383 Clear 3 1020 48 10000 5.14 350 16:18 06.03.2022
3384 Clouds 4 1020 46 10000 4.12 20 14:57 06.03.2022
3385 Clouds 4 1020 46 10000 7.15 329 14:33 06.03.2022
3386 Clouds 4 1021 47 10000 5.14 330 13:36 06.03.2022
3387 Clouds 4 1021 47 10000 5.66 340 12:35 06.03.2022
3388 Clouds 4 1022 49 10000 4.12 360 11:21 06.03.2022
3389 Clouds 3 1022 53 10000 4.63 360 10:29 06.03.2022
3390 Clear 1 1022 62 10000 3.09 350 08:40 06.03.2022
3391 Clear 1 1022 64 10000 2.57 340 08:20 06.03.2022
3392 Clear -1 1022 69 10000 2.06 340 06:22 06.03.2022
3393 Clear 0 1022 66 10000 3.58 331 00:55 06.03.2022
3394 Clear 0 1022 65 10000 3.6 360 00:33 06.03.2022
3395 Clear 0 1022 65 10000 3.6 360 00:33 06.03.2022
3396 Clear 0 1022 63 10000 2.57 10 23:26 05.03.2022
3397 Clear 1 1022 61 10000 3.09 360 22:57 05.03.2022
3398 Clear 1 1022 60 10000 3.09 10 22:25 05.03.2022
3399 Clear 2 1022 59 10000 4.12 360 21:24 05.03.2022
3400 Clear 3 1022 56 10000 4.12 20 19:53 05.03.2022
3401 Clouds 3 1021 56 10000 4.47 43 18:56 05.03.2022
3402 Clouds 3 1021 56 10000 4.12 10 18:27 05.03.2022
3403 Clouds 4 1021 55 10000 5.14 30 16:52 05.03.2022
3404 Clouds 5 1021 57 10000 3.6 40 15:43 05.03.2022
3405 Clouds 5 1021 58 10000 6.17 20 14:52 05.03.2022
3406 Clouds 5 1021 58 10000 6.26 68 14:34 05.03.2022
3407 Clouds 5 1021 55 10000 4.12 360 13:34 05.03.2022
3408 Clouds 5 1022 58 10000 4.12 360 11:49 05.03.2022
3409 Clouds 5 1021 61 10000 3.6 30 11:20 05.03.2022
3410 Clouds 4 1022 66 10000 5.36 7 10:23 05.03.2022
3411 Clouds 3 1022 71 10000 3.13 9 09:28 05.03.2022
3412 Clouds 1 1021 75 10000 2.57 340 07:58 05.03.2022
3413 Clouds 0 1021 77 10000 2.57 330 05:47 05.03.2022
3414 Clouds 1 1021 76 10000 3.6 340 04:38 05.03.2022
3415 Clear 1 1021 72 10000 4.02 9 23:39 04.03.2022
3416 Rain 2 1021 71 10000 4.12 340 22:44 04.03.2022
3417 Rain 2 1021 70 10000 4.02 6 22:23 04.03.2022
3418 Rain 2 1021 70 10000 3.6 330 21:39 04.03.2022
3419 Clouds 2 1021 69 10000 3.6 340 20:32 04.03.2022
3420 Clouds 2 1021 68 10000 3.6 330 19:36 04.03.2022
3421 Clouds 3 1021 65 10000 0.45 353 18:47 04.03.2022
3422 Rain 3 1020 62 10000 7.6 5 18:22 04.03.2022
3423 Clouds 4 1020 51 10000 4.12 360 17:28 04.03.2022
3424 Clouds 5 1019 49 10000 6.17 10 15:31 04.03.2022
3425 Clouds 5 1019 48 10000 5.81 340 14:40 04.03.2022
3426 Clouds 5 1019 50 10000 2.68 18 13:27 04.03.2022
3427 Clouds 4 1020 54 10000 5.14 350 11:57 04.03.2022
3428 Clouds 3 1020 58 10000 6.17 320 10:58 04.03.2022
3429 Clouds 2 1020 61 10000 6.69 320 10:23 04.03.2022
3430 Clouds 0 1020 65 10000 5.66 330 09:27 04.03.2022
3431 Clouds -1 1019 69 9000 5.66 340 07:47 04.03.2022
3432 Clouds -2 1018 67 9000 4.92 3 05:44 04.03.2022
3433 Clear 0 1018 55 10000 4.12 310 00:43 04.03.2022
3434 Clear 0 1018 52 10000 3.13 314 23:28 03.03.2022
3435 Clear 1 1018 49 10000 3.09 340 21:58 03.03.2022
3436 Clear 2 1018 48 10000 3.09 340 21:35 03.03.2022
3437 Clear 2 1017 46 10000 2.06 330 20:32 03.03.2022
3438 Clear 3 1017 43 10000 4.12 20 19:22 03.03.2022
3439 Clear 4 1016 39 10000 3.09 20 18:25 03.03.2022
3440 Clear 6 1016 32 10000 5.14 20 17:31 03.03.2022
3441 Clear 7 1016 30 10000 5.14 20 16:38 03.03.2022
3442 Clear 8 1016 30 10000 6.71 29 15:43 03.03.2022
3443 Clear 8 1016 31 10000 5.14 360 14:44 03.03.2022
3444 Clear 8 1016 30 10000 7.6 19 14:25 03.03.2022
3445 Clear 7 1017 35 10000 3.6 10 12:32 03.03.2022
3446 Clear 6 1018 39 10000 3.6 10 10:58 03.03.2022
3447 Clear 5 1018 42 10000 3.09 340 10:20 03.03.2022
3448 Clear 2 1019 54 10000 3.6 330 08:42 03.03.2022
3449 Clear -2 1019 59 10000 1.34 267 06:55 03.03.2022
3450 Clear -2 1020 57 10000 2.06 270 05:22 03.03.2022
3451 Clear 0 1021 49 10000 3.09 350 23:48 02.03.2022
3452 Clear 0 1021 46 10000 2.57 340 22:59 02.03.2022
3453 Clear 0 1021 46 10000 2.57 340 22:40 02.03.2022
3454 Clear 1 1021 44 10000 3.09 320 21:22 02.03.2022
3455 Clear 1 1021 43 10000 2.06 340 20:26 02.03.2022
3456 Clear 2 1020 41 10000 2.57 330 19:41 02.03.2022
3457 Clear 3 1021 40 10000 2.06 330 19:23 02.03.2022
3458 Clear 3 1021 38 10000 2.57 340 18:35 02.03.2022
3459 Clear 6 1021 34 10000 4.12 340 17:42 02.03.2022
3460 Clear 7 1022 30 10000 5.66 340 16:53 02.03.2022
3461 Clear 7 1022 29 10000 5.14 350 16:18 02.03.2022
3462 Clear 8 1022 29 10000 5.66 360 14:32 02.03.2022
3463 Clear 7 1023 35 10000 4.63 0 12:58 02.03.2022
3464 Clear 6 1024 38 10000 5.66 350 12:35 02.03.2022
3465 Clear 5 1025 40 10000 5.36 354 11:28 02.03.2022
3466 Clear 4 1025 42 10000 5.14 320 10:50 02.03.2022
3467 Clear 2 1026 50 10000 5.36 309 09:40 02.03.2022
3468 Clear 0 1026 56 10000 4.92 328 08:44 02.03.2022
3469 Clear -2 1026 63 10000 4.12 330 07:24 02.03.2022
3470 Clear -2 1027 63 10000 4.12 320 05:42 02.03.2022
3471 Clear -1 1028 59 10000 4.12 330 00:42 02.03.2022
3472 Clear 0 1029 56 10000 4.02 317 23:40 01.03.2022
3473 Clear 0 1029 55 10000 4.12 330 22:42 01.03.2022
3474 Clear 0 1029 53 10000 4.12 350 21:55 01.03.2022
3475 Clear 1 1029 51 10000 4.63 340 20:44 01.03.2022
3476 Clear 1 1029 51 10000 4.12 330 20:22 01.03.2022
3477 Clear 2 1029 50 10000 2.57 310 18:59 01.03.2022
3478 Clear 3 1029 48 10000 3.6 320 18:26 01.03.2022
3479 Clear 4 1029 47 10000 4.12 330 17:55 01.03.2022
3480 Clear 6 1029 41 10000 5.36 336 16:50 01.03.2022
3481 Clear 7 1029 41 10000 5.36 306 15:51 01.03.2022
3482 Clear 7 1030 41 10000 5.14 310 14:55 01.03.2022
3483 Clear 7 1030 43 10000 4.63 320 14:34 01.03.2022
3484 Clear 5 1031 47 10000 1.34 315 13:27 01.03.2022
3485 Clear 4 1032 51 10000 3.6 340 12:38 01.03.2022
3486 Clear 4 1033 51 10000 4.63 340 11:58 01.03.2022
3487 Clear 1 1033 63 10000 3.09 330 09:53 01.03.2022
3488 Clear -1 1034 67 10000 2.57 320 08:36 01.03.2022
3489 Clear -3 1034 70 10000 2.06 320 07:35 01.03.2022
3490 Clear -3 1034 65 10000 1.54 300 03:29 01.03.2022
3491 Clear -2 1035 63 10000 3.09 320 00:58 01.03.2022
3492 Clear -2 1035 61 10000 3.6 310 23:47 28.02.2022
3493 Clear -1 1035 60 10000 3.6 340 22:52 28.02.2022
3494 Clear -1 1034 57 10000 4.12 340 21:48 28.02.2022
3495 Clear -1 1034 57 10000 4.12 340 21:48 28.02.2022
3496 Clear 0 1034 54 10000 4.02 7 20:56 28.02.2022
3497 Clear 1 1034 52 10000 4.12 350 19:52 28.02.2022
3498 Clear 1 1033 52 10000 1.34 319 19:22 28.02.2022
3499 Clear 2 1033 50 10000 5.14 360 18:35 28.02.2022
3500 Clear 4 1032 44 10000 5.14 360 17:23 28.02.2022
3501 Clear 4 1032 41 10000 5.81 7 16:32 28.02.2022
3502 Clouds 5 1031 40 10000 5.66 360 15:23 28.02.2022
3503 Clouds 4 1031 43 10000 5.14 10 14:30 28.02.2022
3504 Clouds 4 1031 45 10000 7.15 49 13:34 28.02.2022
3505 Clouds 4 1031 47 10000 5.81 34 12:37 28.02.2022
3506 Clouds 3 1032 49 10000 9.83 3 11:40 28.02.2022
3507 Clouds 3 1031 52 10000 8.05 41 10:44 28.02.2022
3508 Clouds 2 1031 55 10000 9.83 358 10:19 28.02.2022
3509 Clouds 1 1031 60 10000 9.83 359 09:30 28.02.2022
3510 Clouds 0 1031 65 10000 7.15 358 08:29 28.02.2022
3511 Clouds -1 1031 69 10000 7.15 18 07:20 28.02.2022
3512 Clouds 0 1031 72 10000 8.49 20 04:32 28.02.2022
3513 Clouds 0 1031 71 10000 6.26 9 03:58 28.02.2022
3514 Clouds 1 1032 62 10000 3.6 340 23:27 27.02.2022
3515 Clear 2 1032 59 10000 4.12 340 22:33 27.02.2022
3516 Clear 2 1032 59 10000 3.6 340 21:49 27.02.2022
3517 Clear 3 1032 60 10000 4.12 350 20:55 27.02.2022
3518 Clouds 3 1032 59 10000 4.63 360 20:27 27.02.2022
3519 Clouds 3 1032 57 10000 5.36 38 19:57 27.02.2022
3520 Clouds 4 1032 56 10000 4.92 17 19:26 27.02.2022
3521 Clouds 4 1032 53 10000 4.47 23 18:47 27.02.2022
3522 Clouds 6 1031 50 10000 7.15 17 17:55 27.02.2022
3523 Clouds 8 1031 43 10000 4.63 350 16:45 27.02.2022
3524 Clouds 8 1031 42 10000 6.17 20 16:21 27.02.2022
3525 Clouds 8 1032 51 10000 5.36 10 13:25 27.02.2022
3526 Clouds 7 1032 57 10000 5.14 320 12:32 27.02.2022
3527 Clear 5 1033 67 10000 4.63 360 10:56 27.02.2022
3528 Clear 4 1033 69 10000 4.12 340 10:19 27.02.2022
3529 Clear 3 1034 72 10000 4.02 14 09:49 27.02.2022
3530 Clear 3 1034 75 10000 3.6 340 09:20 27.02.2022
3531 Clear 0 1033 82 10000 3.6 340 07:54 27.02.2022
3532 Clear 0 1032 81 10000 4.12 340 05:38 27.02.2022
3533 Clear 1 1032 80 10000 4.63 350 02:21 27.02.2022
3534 Clear 3 1032 77 10000 5.36 15 23:23 26.02.2022
3535 Clear 3 1032 76 10000 5.36 19 22:31 26.02.2022
3536 Clear 3 1032 75 10000 4.47 16 21:18 26.02.2022
3537 Clear 3 1031 77 10000 3.6 320 20:27 26.02.2022
3538 Clouds 3 1031 77 10000 3.6 330 19:50 26.02.2022
3539 Clouds 4 1031 77 10000 4.63 330 19:29 26.02.2022
3540 Clouds 5 1030 56 10000 5.36 358 17:52 26.02.2022
3541 Clouds 6 1030 56 10000 5.66 40 17:29 26.02.2022
3542 Clouds 6 1030 56 10000 5.66 40 17:29 26.02.2022
3543 Clouds 7 1030 51 10000 5.66 360 16:19 26.02.2022
3544 Clouds 7 1029 48 10000 6.69 360 15:25 26.02.2022
3545 Clouds 7 1029 48 10000 10.73 322 14:56 26.02.2022
3546 Clouds 7 1029 48 10000 7.72 340 14:38 26.02.2022
3547 Clouds 7 1030 49 10000 8.49 3 13:40 26.02.2022
3548 Clouds 7 1030 53 10000 8.23 340 12:52 26.02.2022
3549 Clouds 7 1030 58 10000 7.2 340 11:38 26.02.2022
3550 Clouds 6 1030 61 10000 9.26 330 10:56 26.02.2022
3551 Clouds 4 1029 69 10000 7.2 330 09:21 26.02.2022
3552 Clouds 3 1028 72 10000 6.71 313 07:57 26.02.2022
3553 Clouds 3 1026 65 10000 6.69 310 03:21 26.02.2022
3554 Clear 4 1025 55 10000 8.49 325 23:35 25.02.2022
3555 Clear 4 1025 52 10000 9.39 317 22:18 25.02.2022
3556 Clear 5 1024 48 10000 7.6 323 21:29 25.02.2022
3557 Clear 5 1024 44 10000 5.81 306 20:33 25.02.2022
3558 Clear 5 1024 42 10000 4.12 330 19:53 25.02.2022
3559 Clear 7 1022 40 10000 7.6 301 17:48 25.02.2022
3560 Clear 7 1022 41 10000 8.05 300 16:46 25.02.2022
3561 Clear 8 1022 41 10000 7.72 290 15:49 25.02.2022
3562 Clear 8 1022 41 10000 6.26 300 15:23 25.02.2022
3563 Clear 8 1022 41 10000 8.94 298 15:23 25.02.2022
3564 Clouds 8 1021 41 10000 12.96 300 14:49 25.02.2022
3565 Clouds 8 1022 40 10000 11.62 321 14:18 25.02.2022
3566 Clouds 8 1022 44 10000 11.18 300 13:20 25.02.2022
3567 Clouds 8 1022 51 10000 10.28 294 11:52 25.02.2022
3568 Clouds 7 1022 56 10000 9.39 302 11:18 25.02.2022
3569 Clouds 6 1022 62 10000 14.31 300 10:23 25.02.2022
3570 Clouds 6 1022 64 10000 12.96 293 09:42 25.02.2022
3571 Clouds 5 1020 72 10000 7.72 290 07:48 25.02.2022
3572 Rain 5 1019 75 10000 11.18 307 06:51 25.02.2022
3573 Clouds 7 1018 65 10000 10.28 322 05:38 25.02.2022
3574 Clear 6 1016 69 10000 3.6 170 01:23 25.02.2022
3575 Clear 7 1015 63 10000 4.63 130 22:31 24.02.2022
3576 Clear 8 1015 60 10000 5.14 150 21:43 24.02.2022
3577 Clear 8 1015 59 10000 5.66 140 21:21 24.02.2022
3578 Clear 9 1015 58 10000 6.69 140 20:44 24.02.2022
3579 Clear 10 1015 54 10000 6.17 140 19:31 24.02.2022
3580 Clear 11 1016 51 10000 5.36 150 18:20 24.02.2022
3581 Clear 11 1016 52 10000 5.66 150 17:52 24.02.2022
3582 Clear 12 1016 50 10000 6.17 140 17:19 24.02.2022
3583 Clear 13 1016 46 10000 6.69 150 16:28 24.02.2022
3584 Clear 13 1016 45 10000 7.2 150 15:42 24.02.2022
3585 Clear 13 1018 46 10000 7.2 140 14:45 24.02.2022
3586 Clear 13 1017 47 10000 8.23 140 13:59 24.02.2022
3587 Clear 13 1019 49 10000 8.23 150 13:37 24.02.2022
3588 Clear 11 1020 54 10000 7.72 150 11:38 24.02.2022
3589 Clear 8 1021 60 10000 6.17 140 10:31 24.02.2022
3590 Clear 5 1022 62 10000 6.69 140 08:43 24.02.2022
3591 Clear 4 1022 63 10000 6.69 140 08:43 24.02.2022
3592 Clear 3 1023 62 10000 5.66 140 07:22 24.02.2022
3593 Clear 2 1023 67 10000 2.57 120 05:40 24.02.2022
3594 Clear 3 1026 68 10000 1.54 230 00:31 24.02.2022
3595 Clear 5 1027 62 10000 2.24 255 22:22 23.02.2022
3596 Clear 7 1027 57 10000 6.26 302 20:45 23.02.2022
3597 Clear 7 1027 55 10000 4.12 330 20:26 23.02.2022
3598 Clear 8 1026 54 10000 6.17 290 19:35 23.02.2022
3599 Clouds 9 1026 52 10000 10.28 316 18:26 23.02.2022
3600 Clouds 11 1025 45 10000 12.52 292 16:28 23.02.2022
3601 Clear 12 1025 41 10000 9.77 320 14:22 23.02.2022
3602 Clouds 11 1025 47 10000 12.96 3 12:36 23.02.2022
3603 Clouds 10 1025 51 10000 10.29 320 11:23 23.02.2022
3604 Clouds 9 1024 56 10000 16.54 304 10:23 23.02.2022
3605 Clouds 7 1022 71 10000 10.29 330 08:55 23.02.2022
3606 Clouds 8 1020 74 10000 11.62 298 07:55 23.02.2022
3607 Clouds 7 1017 71 10000 11.62 302 02:58 23.02.2022
3608 Rain 7 1018 68 10000 8.49 292 00:18 23.02.2022
3609 Clouds 7 1019 67 10000 8.94 301 23:34 22.02.2022
3610 Clouds 6 1019 62 10000 3.6 280 22:28 22.02.2022
3611 Clouds 6 1019 62 10000 3.6 280 22:28 22.02.2022
3612 Clear 5 1019 60 10000 3.09 330 21:45 22.02.2022
3613 Clear 5 1019 59 10000 3.6 310 21:21 22.02.2022
3614 Clear 6 1018 57 10000 3.09 330 20:43 22.02.2022
3615 Clear 6 1018 56 10000 4.63 320 20:25 22.02.2022
3616 Clear 6 1018 55 10000 6.69 310 19:34 22.02.2022
3617 Clear 6 1018 55 10000 11.18 294 18:50 22.02.2022
3618 Clouds 7 1018 55 10000 6.71 309 17:36 22.02.2022
3619 Clouds 7 1018 55 10000 11.62 296 16:58 22.02.2022
3620 Clouds 7 1018 51 10000 9.77 310 16:26 22.02.2022
3621 Clouds 7 1018 51 10000 10.29 310 15:36 22.02.2022
3622 Rain 8 1017 57 10000 12.07 334 14:37 22.02.2022
3623 Rain 7 1016 73 10000 15.65 308 11:41 22.02.2022
3624 Rain 7 1015 71 10000 13.86 291 10:22 22.02.2022
3625 Clouds 5 1012 75 10000 6.26 350 07:41 22.02.2022
3626 Clouds 4 1012 75 10000 5.66 310 07:23 22.02.2022
3627 Clouds 6 1007 69 10000 8.75 290 02:51 22.02.2022
3628 Clear 7 1005 62 10000 8.75 280 00:44 22.02.2022
3629 Clear 7 1004 53 10000 9.77 280 22:38 21.02.2022
3630 Clear 7 1004 52 10000 7.72 280 21:24 21.02.2022
3631 Clear 7 1004 53 10000 8.94 288 20:19 21.02.2022
3632 Clear 7 1004 54 10000 7.2 290 18:40 21.02.2022
3633 Clouds 8 1003 47 10000 12.07 306 16:40 21.02.2022
3634 Clouds 8 1004 52 10000 16.09 307 14:24 21.02.2022
3635 Clouds 8 1004 53 10000 17.43 310 13:56 21.02.2022
3636 Clouds 8 1005 59 10000 16.54 306 12:57 21.02.2022
3637 Clouds 8 1005 59 10000 15.65 294 12:22 21.02.2022
3638 Clear 10 1002 63 10000 4.63 160 10:35 21.02.2022
3639 Rain 8 1002 71 10000 4.02 196 08:31 21.02.2022
3640 Clear 9 1010 59 10000 4.12 190 00:56 21.02.2022
3641 Clear 9 1012 61 10000 5.66 210 22:40 20.02.2022
3642 Clear 8 1012 62 10000 5.66 190 21:54 20.02.2022
3643 Clear 8 1013 63 10000 5.66 190 21:25 20.02.2022
3644 Clear 8 1013 62 10000 4.63 190 20:50 20.02.2022
3645 Clear 9 1013 59 10000 5.14 200 19:59 20.02.2022
3646 Clear 9 1014 57 10000 4.12 190 19:21 20.02.2022
3647 Clear 10 1014 55 10000 5.14 220 18:42 20.02.2022
3648 Clear 10 1013 55 10000 4.12 240 18:23 20.02.2022
3649 Clouds 11 1014 53 10000 5.14 270 17:30 20.02.2022
3650 Clouds 11 1015 52 10000 9.39 303 15:29 20.02.2022
3651 Clouds 11 1015 51 10000 13.86 286 14:33 20.02.2022
3652 Clouds 10 1016 54 10000 10.8 280 12:51 20.02.2022
3653 Clouds 10 1017 57 10000 13.41 280 11:56 20.02.2022
3654 Clouds 10 1017 57 10000 13.41 280 11:56 20.02.2022
3655 Clouds 8 1017 64 10000 11.32 280 10:21 20.02.2022
3656 Clouds 7 1017 66 10000 16.54 294 09:46 20.02.2022
3657 Rain 5 1016 61 10000 6.69 200 06:30 20.02.2022
3658 Clear 3 1018 64 10000 2.57 230 00:33 20.02.2022
3659 Clear 4 1018 62 10000 2.06 250 23:39 19.02.2022
3660 Clear 5 1018 58 10000 2.06 250 22:24 19.02.2022
3661 Clear 6 1018 56 10000 2.57 270 21:50 19.02.2022
3662 Clear 6 1018 50 10000 5.14 280 20:41 19.02.2022
3663 Clear 7 1018 45 10000 4.12 270 19:36 19.02.2022
3664 Clear 8 1017 40 10000 6.69 270 18:41 19.02.2022
3665 Clear 9 1017 40 10000 8.23 280 17:58 19.02.2022
3666 Clear 9 1017 40 10000 7.72 280 17:23 19.02.2022
3667 Clear 11 1016 37 10000 9.26 280 15:59 19.02.2022
3668 Clear 11 1016 38 10000 9.77 270 14:55 19.02.2022
3669 Clear 11 1015 38 10000 14.75 281 13:58 19.02.2022
3670 Clear 11 1015 42 10000 17.43 286 11:58 19.02.2022
3671 Clear 11 1014 43 10000 20.56 275 11:24 19.02.2022
3672 Clouds 9 1012 52 10000 16.54 285 09:21 19.02.2022
3673 Clear 8 1010 54 10000 20.12 333 06:49 19.02.2022
3674 Clear 12 1004 64 10000 3.58 296 00:50 19.02.2022
3675 Clear 8 1003 74 10000 4.12 180 22:33 18.02.2022
3676 Clear 9 1004 74 10000 4.63 170 21:26 18.02.2022
3677 Clear 10 1004 72 10000 6.69 170 20:25 18.02.2022
3678 Clear 10 1004 73 10000 6.17 170 19:50 18.02.2022
3679 Clear 10 1005 75 10000 4.63 160 18:38 18.02.2022
3680 Clear 10 1005 75 10000 4.63 160 18:18 18.02.2022
3681 Clear 10 1007 76 10000 4.12 140 17:18 18.02.2022
3682 Rain 12 1010 66 10000 5.66 180 14:31 18.02.2022
3683 Clouds 13 1012 49 10000 6.17 150 13:47 18.02.2022
3684 Clear 14 1012 49 10000 2.24 237 12:50 18.02.2022
3685 Clouds 13 1013 51 10000 6.69 290 11:57 18.02.2022
3686 Rain 12 1014 56 10000 8.23 280 10:47 18.02.2022
3687 Clear 10 1014 59 10000 6.17 280 09:20 18.02.2022
3688 Clouds 7 1014 61 10000 4.12 340 06:48 18.02.2022
3689 Clouds 8 1014 57 10000 6.69 290 05:34 18.02.2022
3690 Clouds 8 1011 59 10000 17.43 304 22:43 17.02.2022
3691 Clouds 8 1009 60 10000 12.96 306 21:42 17.02.2022
3692 Clouds 7 1008 65 10000 10.8 280 20:52 17.02.2022
3693 Rain 7 1008 65 10000 10.8 280 20:33 17.02.2022
3694 Rain 8 1008 61 10000 19.22 292 19:42 17.02.2022
3695 Rain 9 1006 59 10000 14.92 320 18:29 17.02.2022
3696 Clouds 10 1005 58 10000 17.88 303 17:46 17.02.2022
3697 Clear 13 1002 50 10000 10.29 280 16:19 17.02.2022
3698 Clouds 13 1001 58 10000 7.2 250 14:30 17.02.2022
3699 Rain 13 1001 58 10000 6.69 270 13:47 17.02.2022
3700 Clouds 14 1000 61 10000 14.4 290 11:57 17.02.2022
3701 Clouds 15 999 59 10000 18.33 300 11:21 17.02.2022
3702 Clouds 14 998 61 10000 7.6 297 07:57 17.02.2022
3703 Clouds 10 1005 71 10000 4.12 160 00:20 17.02.2022
3704 Rain 10 1007 70 10000 4.63 190 22:38 16.02.2022
3705 Clouds 10 1007 61 10000 5.66 200 20:32 16.02.2022
3706 Clouds 10 1007 59 10000 6.69 180 19:27 16.02.2022
3707 Clear 10 1007 58 10000 6.69 180 18:35 16.02.2022
3708 Clouds 11 1007 52 10000 7.72 170 17:33 16.02.2022
3709 Clouds 13 1009 45 10000 6.17 190 15:24 16.02.2022
3710 Clouds 13 1009 44 10000 4.92 185 14:29 16.02.2022
3711 Clear 11 1012 55 10000 5.66 180 12:32 16.02.2022
3712 Clear 11 1013 59 10000 5.66 150 11:51 16.02.2022
3713 Clear 9 1014 64 10000 5.14 180 10:37 16.02.2022
3714 Clear 8 1014 67 10000 5.14 180 10:18 16.02.2022
3715 Clear 4 1015 80 10000 3.09 320 06:44 16.02.2022
3716 Clouds 5 1016 83 10000 4.12 280 03:41 16.02.2022
3717 Rain 4 1017 85 10000 4.63 280 22:35 15.02.2022
3718 Rain 4 1017 80 10000 5.66 280 21:52 15.02.2022
3719 Rain 4 1017 85 10000 5.66 280 21:31 15.02.2022
3720 Rain 5 1016 84 10000 5.36 303 20:58 15.02.2022
3721 Rain 5 1016 83 10000 5.14 310 20:38 15.02.2022
3722 Rain 5 1016 81 10000 5.14 310 19:48 15.02.2022
3723 Rain 6 1016 73 10000 5.36 315 18:41 15.02.2022
3724 Rain 6 1015 72 10000 3.58 295 18:18 15.02.2022
3725 Rain 6 1015 70 10000 2.68 243 17:46 15.02.2022
3726 Clear 8 1014 62 10000 2.57 40 16:20 15.02.2022
3727 Clear 9 1013 57 10000 1.03 0 14:39 15.02.2022
3728 Clear 9 1013 59 10000 2.24 186 13:26 15.02.2022
3729 Clear 8 1014 64 10000 3.13 165 11:52 15.02.2022
3730 Clear 6 1015 71 10000 1.03 0 10:39 15.02.2022
3731 Clear 3 1014 78 10000 1.34 38 09:25 15.02.2022
3732 Clear 0 1013 80 10000 1.03 0 06:48 15.02.2022
3733 Clear 1 1012 79 10000 1.54 140 00:26 15.02.2022
3734 Clear 1 1012 68 10000 3.09 150 21:59 14.02.2022
3735 Clear 2 1012 67 10000 2.57 150 21:19 14.02.2022
3736 Clear 2 1012 65 10000 2.06 130 20:23 14.02.2022
3737 Clear 3 1012 59 10000 3.09 110 19:30 14.02.2022
3738 Clear 4 1012 57 10000 3.09 130 18:27 14.02.2022
3739 Clear 5 1012 52 10000 3.09 130 17:43 14.02.2022
3740 Clear 6 1012 51 10000 3.09 140 17:23 14.02.2022
3741 Clear 8 1013 49 10000 4.12 140 15:58 14.02.2022
3742 Clear 7 1013 55 10000 5.14 140 13:40 14.02.2022
3743 Clear 6 1014 56 10000 4.63 160 13:22 14.02.2022
3744 Clear 5 1015 60 10000 6.17 130 12:32 14.02.2022
3745 Clear 4 1016 64 10000 6.69 130 11:47 14.02.2022
3746 Clear 2 1016 71 10000 6.69 140 10:25 14.02.2022
3747 Clear -1 1016 77 10000 5.66 140 08:37 14.02.2022
3748 Clear -2 1017 76 10000 7.2 140 07:27 14.02.2022
3749 Clear 2 1019 63 10000 9.39 178 23:41 13.02.2022
3750 Clear 2 1019 62 10000 8.23 140 22:42 13.02.2022
3751 Clear 2 1019 62 10000 8.75 140 22:23 13.02.2022
3752 Clear 3 1020 62 10000 7.72 140 21:28 13.02.2022
3753 Clear 3 1020 60 10000 8.23 140 20:32 13.02.2022
3754 Clear 4 1021 57 10000 9.39 150 19:29 13.02.2022
3755 Clear 4 1021 56 10000 6.17 140 18:44 13.02.2022
3756 Clear 5 1022 54 10000 5.66 140 17:57 13.02.2022
3757 Clear 8 1022 48 10000 7.72 140 15:54 13.02.2022
3758 Clear 8 1023 47 10000 7.72 140 15:20 13.02.2022
3759 Clear 8 1024 47 10000 8.49 150 13:59 13.02.2022
3760 Clear 8 1025 49 10000 7.72 140 12:50 13.02.2022
3761 Clear 6 1026 52 10000 8.23 150 11:35 13.02.2022
3762 Clear 5 1027 58 10000 6.69 150 10:32 13.02.2022
3763 Clear 3 1027 62 10000 6.69 150 09:45 13.02.2022
3764 Clear -1 1027 72 10000 8.23 140 07:21 13.02.2022
3765 Clear 2 1029 68 10000 3.13 165 00:35 13.02.2022
3766 Clear 2 1030 68 10000 5.81 172 23:39 12.02.2022
3767 Clear 2 1031 67 10000 6.17 140 22:33 12.02.2022
3768 Clear 2 1031 67 10000 4.12 140 21:27 12.02.2022
3769 Clear 3 1031 65 10000 3.58 148 20:34 12.02.2022
3770 Clear 3 1032 65 10000 3.58 96 19:27 12.02.2022
3771 Clear 3 1032 64 10000 4.02 118 18:53 12.02.2022
3772 Clear 3 1032 64 10000 3.09 120 18:35 12.02.2022
3773 Clouds 5 1032 59 10000 3.09 110 17:19 12.02.2022
3774 Clouds 7 1032 56 10000 4.12 110 16:26 12.02.2022
3775 Clouds 7 1033 54 10000 3.09 80 15:51 12.02.2022
3776 Clouds 7 1033 55 10000 3.09 80 15:51 12.02.2022
3777 Clouds 7 1033 60 10000 4.02 110 14:31 12.02.2022
3778 Clouds 7 1034 59 10000 3.09 0 13:22 12.02.2022
3779 Clouds 6 1034 61 10000 1.79 314 10:42 12.02.2022
3780 Clouds 5 1035 65 10000 3.6 320 09:51 12.02.2022
3781 Clouds 4 1035 70 10000 3.6 340 09:27 12.02.2022
3782 Clouds 3 1035 75 10000 2.24 315 08:45 12.02.2022
3783 Clouds 3 1034 77 10000 7.15 317 05:40 12.02.2022
3784 Clouds 4 1033 73 10000 6.69 300 04:33 12.02.2022
3785 Clouds 4 1032 69 10000 8.23 300 02:18 12.02.2022
3786 Clear 4 1030 63 10000 13.86 311 22:55 11.02.2022
3787 Clear 4 1030 63 10000 9.83 289 22:18 11.02.2022
3788 Clear 4 1029 63 10000 12.52 303 20:43 11.02.2022
3789 Clear 5 1028 61 10000 10.73 308 19:48 11.02.2022
3790 Clouds 5 1028 59 10000 9.83 301 19:27 11.02.2022
3791 Clouds 6 1028 56 10000 12.07 298 18:28 11.02.2022
3792 Clouds 6 1026 57 10000 14.75 282 17:26 11.02.2022
3793 Clouds 7 1025 61 10000 8.94 306 16:26 11.02.2022
3794 Clouds 7 1024 68 10000 10.8 290 14:57 11.02.2022
3795 Clouds 7 1022 69 10000 15.2 297 14:36 11.02.2022
3796 Clouds 7 1023 71 10000 13.41 262 14:18 11.02.2022
3797 Clouds 8 1022 68 10000 17.88 286 13:39 11.02.2022
3798 Rain 8 1022 78 10000 11.18 287 12:20 11.02.2022
3799 Rain 7 1021 79 10000 3.13 236 10:29 11.02.2022
3800 Rain 6 1020 76 10000 2.06 290 09:19 11.02.2022
3801 Clear 6 1020 75 10000 2.57 190 08:28 11.02.2022
3802 Clear 5 1020 75 10000 2.06 180 07:39 11.02.2022
3803 Clear 7 1021 68 10000 0.45 327 02:40 11.02.2022
3804 Clouds 7 1021 68 10000 2.68 310 02:20 11.02.2022
3805 Clouds 7 1021 68 10000 0.89 243 02:20 11.02.2022
3806 Clear 6 1022 67 10000 2.57 260 23:40 10.02.2022
3807 Clear 7 1022 64 10000 1.54 220 21:55 10.02.2022
3808 Clear 7 1022 61 10000 2.57 320 21:26 10.02.2022
3809 Clear 8 1021 58 10000 2.57 280 20:48 10.02.2022
3810 Clear 9 1021 55 10000 2.57 230 19:37 10.02.2022
3811 Clear 10 1021 54 10000 2.06 170 19:18 10.02.2022
3812 Clouds 11 1020 48 10000 1.79 239 17:43 10.02.2022
3813 Clear 12 1020 46 10000 2.57 140 17:20 10.02.2022
3814 Clouds 12 1021 42 10000 5.36 324 16:23 10.02.2022
3815 Clear 13 1021 41 10000 3.13 12 15:34 10.02.2022
3816 Clear 13 1021 40 10000 4.02 249 14:49 10.02.2022
3817 Clear 13 1021 40 10000 3.13 281 14:30 10.02.2022
3818 Clear 13 1021 47 10000 4.12 180 13:33 10.02.2022
3819 Clear 13 1021 46 10000 4.12 180 13:33 10.02.2022
3820 Clear 12 1022 55 10000 4.47 183 12:53 10.02.2022
3821 Clear 10 1023 62 10000 3.13 211 11:48 10.02.2022
3822 Clear 10 1024 65 10000 4.47 208 11:28 10.02.2022
3823 Clear 7 1025 71 10000 3.6 210 10:21 10.02.2022
3824 Clear 4 1024 79 10000 2.06 170 09:27 10.02.2022
3825 Clear 2 1025 80 10000 2.57 170 07:57 10.02.2022
3826 Clear 2 1026 73 10000 3.6 180 05:53 10.02.2022
3827 Clouds 3 1026 80 10000 1.03 0 02:28 10.02.2022
3828 Clouds 4 1027 79 10000 2.06 330 00:51 10.02.2022
3829 Clouds 4 1027 77 10000 1.03 290 00:30 10.02.2022
3830 Clouds 4 1027 77 10000 0.51 0 23:49 09.02.2022
3831 Clouds 5 1027 75 10000 2.57 330 22:45 09.02.2022
3832 Clouds 5 1027 73 10000 1.03 0 22:25 09.02.2022
3833 Clouds 6 1027 73 10000 4.12 330 21:45 09.02.2022
3834 Clouds 6 1027 71 10000 3.6 320 21:24 09.02.2022
3835 Clouds 7 1027 70 10000 3.6 270 20:41 09.02.2022
3836 Clouds 7 1027 69 10000 3.6 270 20:21 09.02.2022
3837 Clear 8 1027 67 10000 5.66 280 19:39 09.02.2022
3838 Clear 10 1027 59 10000 6.17 290 17:50 09.02.2022
3839 Clear 11 1027 55 10000 6.69 280 16:54 09.02.2022
3840 Clear 12 1025 52 10000 12.52 307 15:55 09.02.2022
3841 Clear 13 1027 51 10000 10.28 306 15:19 09.02.2022
3842 Clear 12 1028 55 10000 6.71 321 12:42 09.02.2022
3843 Clear 11 1028 58 10000 6.17 300 11:20 09.02.2022
3844 Clear 10 1029 61 10000 9.39 291 10:32 09.02.2022
3845 Clear 9 1029 63 10000 10.73 289 09:42 09.02.2022
3846 Clouds 9 1029 64 10000 13.41 312 09:20 09.02.2022
3847 Clouds 8 1029 67 10000 8.94 344 08:26 09.02.2022
3848 Clouds 8 1028 67 10000 10.73 304 05:37 09.02.2022
3849 Clouds 8 1028 67 10000 12.52 311 03:51 09.02.2022
3850 Clouds 8 1028 68 10000 18.78 299 01:33 09.02.2022
3851 Clouds 8 1028 67 10000 17.43 281 23:39 08.02.2022
3852 Clouds 8 1027 68 10000 14.31 323 22:53 08.02.2022
3853 Clear 8 1027 68 10000 12.96 344 22:22 08.02.2022
3854 Clear 7 1027 68 10000 19.22 296 21:52 08.02.2022
3855 Clear 7 1026 68 10000 17.43 317 21:21 08.02.2022
3856 Clear 7 1026 68 10000 14.75 294 20:55 08.02.2022
3857 Clear 7 1026 67 10000 16.99 330 20:23 08.02.2022
3858 Clouds 7 1026 65 10000 3.13 12 18:53 08.02.2022
3859 Clouds 7 1026 61 10000 14.31 294 17:50 08.02.2022
3860 Clouds 7 1026 58 10000 12.96 313 16:42 08.02.2022
3861 Clouds 7 1026 58 10000 12.52 287 15:39 08.02.2022
3862 Clouds 8 1026 57 10000 12.07 318 14:57 08.02.2022
3863 Clouds 6 1028 62 10000 22.35 277 13:30 08.02.2022
3864 Clouds 6 1028 58 10000 17.88 294 12:20 08.02.2022
3865 Clouds 5 1028 62 10000 17.43 320 10:45 08.02.2022
3866 Clouds 5 1028 65 10000 14.31 311 09:46 08.02.2022
3867 Clouds 4 1028 68 10000 7.15 321 08:27 08.02.2022
3868 Clouds 4 1027 71 10000 9.39 319 05:45 08.02.2022
3869 Clouds 4 1026 72 10000 6.26 303 04:39 08.02.2022
3870 Clouds 4 1026 72 10000 9.77 300 04:21 08.02.2022
3871 Clouds 4 1026 70 10000 10.8 310 03:36 08.02.2022
3872 Clouds 4 1025 69 10000 9.26 310 03:18 08.02.2022
3873 Clouds 4 1025 68 10000 9.39 328 03:18 08.02.2022
3874 Clouds 4 1025 68 10000 9.39 328 02:59 08.02.2022
3875 Clouds 4 1025 68 10000 9.26 310 02:36 08.02.2022
3876 Clouds 4 1025 68 10000 8.75 320 02:18 08.02.2022
3877 Clouds 4 1025 68 10000 8.75 320 02:18 08.02.2022
3878 Clouds 4 1025 68 10000 10.73 331 01:44 08.02.2022
3879 Clouds 4 1024 68 10000 10.73 343 01:24 08.02.2022
3880 Clouds 4 1024 68 10000 11.18 309 00:55 08.02.2022
3881 Clouds 4 1024 70 10000 9.83 305 00:19 08.02.2022
3882 Rain 3 1023 71 10000 9.26 310 23:42 07.02.2022
3883 Clouds 4 1022 71 10000 11.62 350 23:18 07.02.2022
3884 Clouds 4 1022 69 10000 11.83 310 22:56 07.02.2022
3885 Clouds 4 1022 68 10000 11.32 310 22:18 07.02.2022
3886 Clouds 4 1021 67 10000 12.07 336 21:47 07.02.2022
3887 Clouds 4 1021 67 10000 12.07 338 21:26 07.02.2022
3888 Clouds 4 1020 64 10000 10.8 310 20:41 07.02.2022
3889 Clouds 4 1020 65 10000 10.8 310 20:18 07.02.2022
3890 Clouds 4 1019 67 10000 13.86 318 19:45 07.02.2022
3891 Rain 4 1018 70 10000 12.52 338 18:24 07.02.2022
3892 Clouds 5 1016 60 10000 13.86 290 16:53 07.02.2022
3893 Clouds 6 1015 60 10000 12.86 310 16:21 07.02.2022
3894 Clouds 6 1015 59 10000 13.41 323 15:48 07.02.2022
3895 Clouds 6 1012 60 10000 15.2 344 13:39 07.02.2022
3896 Clouds 6 1012 60 10000 16.54 330 13:21 07.02.2022
3897 Clouds 5 1011 64 10000 2.68 319 11:58 07.02.2022
3898 Clouds 5 1010 64 10000 3.13 21 11:38 07.02.2022
3899 Clouds 5 1010 63 10000 3.13 21 10:53 07.02.2022
3900 Clouds 4 1010 66 10000 3.58 260 10:33 07.02.2022
3901 Clouds 4 1009 72 10000 4.47 335 09:53 07.02.2022
3902 Clouds 4 1008 77 10000 2.68 294 09:18 07.02.2022
3903 Clouds 3 1007 83 10000 4.02 319 08:44 07.02.2022
3904 Rain 4 1003 84 10000 2.68 244 07:30 07.02.2022
3905 Rain 5 1003 77 10000 2.68 244 06:34 07.02.2022
3906 Rain 7 1000 75 10000 2.68 256 03:49 07.02.2022
3907 Rain 7 1002 69 10000 0.89 212 00:47 07.02.2022
3908 Clouds 8 1003 66 10000 0.45 277 23:50 06.02.2022
3909 Clouds 8 1003 66 10000 0.45 277 23:50 06.02.2022
3910 Clouds 7 1004 67 10000 0.89 261 23:19 06.02.2022
3911 Clouds 7 1005 66 10000 0.89 263 22:34 06.02.2022
3912 Clouds 7 1006 64 10000 2.24 265 21:36 06.02.2022
3913 Clear 7 1008 59 10000 2.68 211 20:58 06.02.2022
3914 Clear 8 1008 56 10000 2.24 204 20:36 06.02.2022
3915 Clear 8 1007 48 10000 3.13 360 19:46 06.02.2022
3916 Clear 8 1008 44 10000 1.79 360 18:50 06.02.2022
3917 Clear 8 1008 47 10000 0.45 360 18:24 06.02.2022
3918 Clear 9 1009 41 10000 1.34 360 17:26 06.02.2022
3919 Clear 9 1011 41 10000 0.45 76 16:48 06.02.2022
3920 Clear 9 1012 39 10000 1.34 143 15:50 06.02.2022
3921 Clear 9 1013 38 10000 1.34 112 15:27 06.02.2022
3922 Clear 9 1013 38 10000 0.89 117 14:52 06.02.2022
3923 Clouds 10 1014 37 10000 0.89 325 13:53 06.02.2022
3924 Clouds 10 1015 36 10000 3.58 249 13:20 06.02.2022
3925 Clouds 8 1017 45 10000 2.68 288 11:44 06.02.2022
3926 Clouds 7 1019 53 10000 1.34 300 10:31 06.02.2022
3927 Clouds 5 1020 58 10000 0.89 281 09:26 06.02.2022
3928 Clouds 5 1020 60 10000 0.45 268 08:41 06.02.2022
3929 Clouds 3 1021 65 10000 0.45 0 06:19 06.02.2022
3930 Clear 2 1022 65 10000 0.89 231 04:51 06.02.2022
3931 Clear 1 1024 67 10000 0.45 283 02:25 06.02.2022
3932 Clear 2 1024 67 10000 0.45 285 00:30 06.02.2022
3933 Clear 2 1024 65 10000 0.45 282 23:25 05.02.2022
3934 Clear 2 1024 65 10000 0.45 360 21:38 05.02.2022
3935 Clear 3 1023 60 10000 0.45 247 20:25 05.02.2022
3936 Clear 3 1023 57 10000 0.89 269 19:50 05.02.2022
3937 Clear 4 1023 55 10000 0.89 284 19:27 05.02.2022
3938 Clear 5 1023 54 10000 0.45 313 18:23 05.02.2022
3939 Clear 6 1022 51 10000 0.45 354 17:31 05.02.2022
3940 Clear 7 1022 46 10000 0.89 342 15:42 05.02.2022
3941 Clear 7 1022 47 10000 4.47 354 15:24 05.02.2022
3942 Clouds 7 1022 50 10000 5.81 14 13:22 05.02.2022
3943 Clouds 6 1022 53 10000 2.24 328 12:42 05.02.2022
3944 Clouds 7 1021 63 10000 0.45 268 10:57 05.02.2022
3945 Clouds 6 1020 67 10000 4.02 5 10:38 05.02.2022
3946 Clouds 5 1021 68 10000 0.89 250 09:47 05.02.2022
3947 Clouds 5 1020 66 10000 0.89 309 08:21 05.02.2022
3948 Clouds 6 1018 65 10000 2.24 337 06:58 05.02.2022
3949 Clouds 8 1014 69 10000 1.34 330 04:55 05.02.2022
3950 Clear 6 1014 71 10000 0.89 92 01:40 05.02.2022
3951 Clear 6 1014 72 10000 0.89 283 01:18 05.02.2022
3952 Clouds 5 1014 76 10000 0.89 214 23:59 04.02.2022
3953 Clouds 5 1014 78 10000 0.45 360 23:33 04.02.2022
3954 Clear 3 1013 80 10000 1.03 120 22:18 04.02.2022
3955 Clear 4 1013 78 10000 0.45 331 21:36 04.02.2022
3956 Clear 4 1013 78 10000 0.45 331 21:18 04.02.2022
3957 Clear 5 1013 75 10000 0.45 318 20:20 04.02.2022
3958 Clouds 7 1014 70 10000 0.45 1 17:45 04.02.2022
3959 Clouds 9 1014 64 10000 0.89 298 15:55 04.02.2022
3960 Clouds 9 1015 64 10000 0.89 313 14:56 04.02.2022
3961 Clouds 9 1015 65 10000 1.34 319 13:55 04.02.2022
3962 Clouds 9 1016 66 10000 1.34 265 12:43 04.02.2022
3963 Clouds 9 1016 66 10000 2.24 357 11:43 04.02.2022
3964 Clouds 8 1016 70 10000 0.45 357 10:37 04.02.2022
3965 Clear 4 1015 79 10000 0.45 61 08:49 04.02.2022
3966 Rain 3 1014 80 10000 0.45 330 06:57 04.02.2022
3967 Clear 3 1014 75 10000 0.45 325 02:51 04.02.2022
3968 Clear 3 1014 73 10000 0.45 9 01:56 04.02.2022
3969 Clear 4 1015 70 10000 0.89 148 23:31 03.02.2022
3970 Clear 5 1016 68 10000 0.45 22 22:46 03.02.2022
3971 Clear 5 1016 66 10000 0.89 199 21:50 03.02.2022
3972 Clear 5 1016 67 10000 0.89 199 21:50 03.02.2022
3973 Clear 6 1017 65 10000 1.34 257 20:43 03.02.2022
3974 Clear 6 1017 65 10000 1.34 112 20:20 03.02.2022
3975 Clear 6 1018 63 10000 1.34 175 19:32 03.02.2022
3976 Clear 6 1018 61 10000 1.34 89 18:40 03.02.2022
3977 Clear 7 1019 58 10000 1.34 214 17:42 03.02.2022
3978 Clear 8 1019 57 10000 2.24 144 16:35 03.02.2022
3979 Clear 9 1021 53 10000 0.89 114 14:52 03.02.2022
3980 Clouds 9 1022 50 10000 1.34 223 12:59 03.02.2022
3981 Clouds 7 1022 56 10000 1.79 253 11:23 03.02.2022
3982 Clouds 3 1023 69 10000 0.89 309 08:37 03.02.2022
3983 Clouds 4 1022 62 10000 3.13 342 05:26 03.02.2022
3984 Clear 4 1019 67 10000 2.68 314 00:32 03.02.2022
3985 Clear 4 1019 67 10000 2.24 331 23:44 02.02.2022
3986 Clear 4 1018 66 10000 2.24 325 22:32 02.02.2022
3987 Clear 4 1017 68 10000 2.24 337 21:34 02.02.2022
3988 Clear 4 1016 69 10000 3.58 350 20:51 02.02.2022
3989 Clear 4 1015 70 10000 1.34 327 19:59 02.02.2022
3990 Clear 4 1015 69 10000 1.34 338 19:27 02.02.2022
3991 Clouds 5 1014 68 10000 2.24 351 18:46 02.02.2022
3992 Clouds 5 1014 68 10000 3.13 339 18:22 02.02.2022
3993 Clouds 6 1012 68 10000 6.26 319 17:19 02.02.2022
3994 Clouds 6 1011 69 10000 0.89 357 16:42 02.02.2022
3995 Clouds 6 1009 74 10000 3.13 32 13:35 02.02.2022
3996 Rain 6 1007 76 10000 2.68 348 12:25 02.02.2022
3997 Clouds 7 1008 69 10000 2.24 215 11:34 02.02.2022
3998 Rain 5 1008 82 10000 0.45 303 10:31 02.02.2022
3999 Clouds 4 1006 83 10000 1.34 329 07:37 02.02.2022
4000 Clouds 3 1006 74 10000 2.68 265 22:52 01.02.2022
4001 Rain 3 1006 74 10000 0.89 312 21:52 01.02.2022
4002 Clouds 4 1007 68 10000 3.13 233 20:36 01.02.2022
4003 Clouds 3 1011 74 10000 2.68 125 17:50 01.02.2022
4004 Clouds 3 1012 71 10000 3.13 228 16:42 01.02.2022
4005 Clouds 5 1013 69 10000 2.24 268 14:49 01.02.2022
4006 Clouds 5 1014 68 10000 3.13 359 12:47 01.02.2022
4007 Clouds 3 1015 73 10000 2.24 331 11:34 01.02.2022
4008 Clouds 2 1010 86 10000 1.79 342 05:43 01.02.2022
4009 Rain 3 1007 81 10000 1.34 335 23:51 31.01.2022
4010 Rain 4 1007 80 10000 0.89 292 23:28 31.01.2022
4011 Clouds 4 1006 80 10000 1.34 286 21:59 31.01.2022
4012 Clouds 3 1006 79 10000 1.34 284 21:32 31.01.2022
4013 Clouds 4 1005 79 10000 1.34 352 20:33 31.01.2022
4014 Clouds 4 1005 78 10000 2.24 198 19:45 31.01.2022
4015 Clouds 4 1005 74 10000 0.45 321 18:26 31.01.2022
4016 Clouds 4 1005 70 10000 1.79 3 17:43 31.01.2022
4017 Clouds 5 1005 69 10000 2.24 328 16:43 31.01.2022
4018 Rain 5 1005 73 10000 3.58 155 15:43 31.01.2022
4019 Rain 5 1005 73 10000 1.34 225 14:23 31.01.2022
4020 Rain 4 1007 65 10000 1.34 206 12:39 31.01.2022
4021 Clouds 4 1008 64 10000 2.68 214 11:58 31.01.2022
4022 Clouds 4 1010 65 10000 0.89 147 10:50 31.01.2022
4023 Clouds 3 1010 66 10000 0.89 329 10:32 31.01.2022
4024 Clouds 3 1011 67 10000 0.45 126 09:27 31.01.2022
4025 Clouds 3 1012 68 10000 0.89 0 08:51 31.01.2022
4026 Clear 2 1012 68 10000 0.89 311 08:20 31.01.2022
4027 Clouds 3 1014 65 10000 0.89 224 06:21 31.01.2022
4028 Clouds 3 1017 59 10000 2.24 268 03:33 31.01.2022
4029 Clouds 5 1020 54 10000 1.34 287 23:19 30.01.2022
4030 Clouds 5 1020 54 10000 2.68 350 22:29 30.01.2022
4031 Clouds 5 1021 54 10000 2.68 328 21:42 30.01.2022
4032 Clouds 5 1021 54 10000 2.24 337 21:19 30.01.2022
4033 Clouds 5 1021 54 10000 2.24 292 20:49 30.01.2022
4034 Clear 6 1020 54 10000 2.24 313 20:29 30.01.2022
4035 Clouds 6 1020 53 10000 2.68 300 19:52 30.01.2022
4036 Clouds 6 1020 52 10000 3.58 205 18:44 30.01.2022
4037 Clouds 6 1019 51 10000 3.13 289 18:20 30.01.2022
4038 Clouds 7 1019 49 10000 3.13 343 17:28 30.01.2022
4039 Clouds 7 1018 48 10000 2.68 295 16:40 30.01.2022
4040 Clouds 7 1018 48 10000 2.68 343 16:22 30.01.2022
4041 Clouds 7 1017 46 10000 3.58 241 15:52 30.01.2022
4042 Clouds 8 1017 46 10000 4.47 319 15:32 30.01.2022
4043 Clouds 8 1016 45 10000 4.02 328 14:46 30.01.2022
4044 Clouds 8 1016 43 10000 7.6 331 12:54 30.01.2022
4045 Clouds 8 1016 42 10000 3.58 336 12:33 30.01.2022
4046 Clouds 8 1016 45 10000 3.58 347 10:38 30.01.2022
4047 Clouds 8 1016 49 10000 3.13 350 09:56 30.01.2022
4048 Clouds 8 1015 57 10000 4.02 224 09:21 30.01.2022
4049 Clouds 7 1015 62 10000 2.24 239 07:56 30.01.2022
4050 Clouds 8 1016 71 10000 3.13 323 02:42 30.01.2022
4051 Clouds 8 1016 72 10000 3.58 272 01:50 30.01.2022
4052 Clouds 7 1017 69 10000 3.13 198 23:30 29.01.2022
4053 Clouds 7 1018 69 10000 1.34 259 22:34 29.01.2022
4054 Clouds 7 1018 68 10000 2.24 351 21:27 29.01.2022
4055 Clouds 7 1019 69 10000 2.68 275 20:38 29.01.2022
4056 Clouds 6 1019 71 10000 5.36 201 19:47 29.01.2022
4057 Clouds 6 1020 74 10000 2.68 341 19:25 29.01.2022
4058 Rain 5 1020 76 10000 2.24 250 18:32 29.01.2022
4059 Rain 4 1021 82 10000 2.24 270 17:41 29.01.2022
4060 Rain 3 1022 85 10000 2.24 236 16:42 29.01.2022
4061 Rain 4 1024 80 10000 1.34 94 14:33 29.01.2022
4062 Drizzle 5 1025 78 10000 2.24 267 13:45 29.01.2022
4063 Drizzle 5 1025 75 10000 4.47 218 13:25 29.01.2022
4064 Drizzle 5 1025 76 10000 2.68 258 13:25 29.01.2022
4065 Clouds 6 1026 61 10000 2.24 179 12:40 29.01.2022
4066 Clouds 6 1027 62 10000 2.24 190 11:38 29.01.2022
4067 Rain 4 1028 69 10000 1.79 331 10:21 29.01.2022
4068 Clouds 2 1029 77 10000 0.89 306 06:57 29.01.2022
4069 Clouds 3 1030 63 10000 0.89 315 01:35 29.01.2022
4070 Clouds 4 1030 63 10000 3.13 249 00:31 29.01.2022
4071 Clouds 4 1029 63 10000 3.13 312 22:53 28.01.2022
4072 Clouds 4 1029 63 10000 4.02 338 22:29 28.01.2022
4073 Clouds 4 1028 63 10000 1.34 254 21:53 28.01.2022
4074 Clouds 4 1028 63 10000 2.24 338 20:40 28.01.2022
4075 Clouds 4 1027 63 10000 3.13 295 19:51 28.01.2022
4076 Clouds 4 1027 62 10000 0.89 355 18:49 28.01.2022
4077 Clouds 5 1026 63 10000 2.68 208 17:45 28.01.2022
4078 Clouds 5 1024 59 10000 4.47 1 15:45 28.01.2022
4079 Clouds 6 1024 58 10000 4.02 313 14:20 28.01.2022
4080 Clouds 6 1023 57 10000 3.13 349 12:35 28.01.2022
4081 Clouds 6 1023 59 10000 5.36 324 11:38 28.01.2022
4082 Clouds 5 1023 63 10000 2.24 342 10:22 28.01.2022
4083 Clouds 5 1023 63 10000 1.34 280 10:22 28.01.2022
4084 Clouds 5 1022 63 10000 0.89 18 09:45 28.01.2022
4085 Clouds 4 1021 72 10000 2.68 314 07:40 28.01.2022
4086 Clouds 4 1021 75 10000 2.24 340 05:24 28.01.2022
4087 Clouds 4 1020 78 10000 2.68 236 03:47 28.01.2022
4088 Clouds 4 1020 77 10000 1.34 231 02:23 28.01.2022
4089 Clear 4 1020 77 10000 2.24 169 01:35 28.01.2022
4090 Clouds 3 1020 78 10000 2.24 259 23:47 27.01.2022
4091 Clouds 3 1020 79 6000 2.68 323 21:54 27.01.2022
4092 Clouds 3 1020 80 6000 2.68 246 21:32 27.01.2022
4093 Clouds 3 1020 80 10000 2.68 287 20:55 27.01.2022
4094 Rain 5 1020 62 10000 3.58 226 19:35 27.01.2022
4095 Clear 6 1019 55 10000 3.58 347 17:56 27.01.2022
4096 Clouds 7 1018 54 10000 5.36 289 15:43 27.01.2022
4097 Clouds 7 1021 54 10000 4.47 6 13:39 27.01.2022
4098 Clouds 6 1021 55 10000 2.68 262 12:46 27.01.2022
4099 Clouds 4 1023 66 10000 1.34 328 10:57 27.01.2022
4100 Clouds 2 1024 76 10000 2.24 201 09:20 27.01.2022
4101 Clouds 2 1025 79 10000 0.89 293 08:38 27.01.2022
4102 Clouds 2 1025 79 10000 1.34 321 07:23 27.01.2022
4103 Clouds 2 1026 80 10000 1.79 315 02:59 27.01.2022
4104 Clouds 2 1027 79 10000 0.45 8 23:45 26.01.2022
4105 Clouds 2 1027 79 10000 0.89 322 22:27 26.01.2022
4106 Clouds 2 1028 78 10000 0.89 158 21:41 26.01.2022
4107 Clouds 2 1028 77 10000 1.34 17 20:41 26.01.2022
4108 Clouds 2 1028 77 10000 1.34 17 20:23 26.01.2022
4109 Clouds 2 1028 77 10000 1.34 263 19:28 26.01.2022
4110 Clouds 2 1029 78 10000 0.45 343 18:46 26.01.2022
4111 Clouds 2 1029 77 10000 0.45 351 17:51 26.01.2022
4112 Clouds 2 1028 77 10000 1.34 353 17:24 26.01.2022
4113 Clouds 2 1028 76 10000 0.45 318 16:35 26.01.2022
4114 Clouds 2 1028 76 10000 0.45 333 15:50 26.01.2022
4115 Clouds 3 1028 76 10000 1.79 327 14:21 26.01.2022
4116 Clouds 2 1030 80 10000 0.45 275 11:56 26.01.2022
4117 Clouds 2 1030 81 10000 0.89 314 10:43 26.01.2022
4118 Clouds 2 1030 82 10000 0.89 335 09:48 26.01.2022
4119 Clouds 1 1030 84 10000 0.89 358 08:32 26.01.2022
4120 Drizzle 1 1029 85 10000 0.89 324 05:42 26.01.2022
4121 Clouds 2 1030 82 10000 0.45 313 23:59 25.01.2022
4122 Clouds 2 1031 81 10000 1.34 302 23:20 25.01.2022
4123 Clouds 2 1031 81 10000 1.34 331 22:48 25.01.2022
4124 Clouds 2 1031 81 10000 1.34 292 22:18 25.01.2022
4125 Clouds 2 1031 82 10000 0.45 309 21:22 25.01.2022
4126 Clouds 2 1031 83 10000 1.34 337 20:44 25.01.2022
4127 Clouds 2 1031 84 10000 1.34 344 19:53 25.01.2022
4128 Clouds 2 1031 84 10000 1.34 344 19:53 25.01.2022
4129 Drizzle 2 1031 86 10000 0.45 280 18:43 25.01.2022
4130 Drizzle 2 1031 86 10000 0.45 330 17:45 25.01.2022
4131 Drizzle 2 1031 85 10000 0.89 331 16:58 25.01.2022
4132 Drizzle 2 1031 85 9000 0.45 328 16:34 25.01.2022
4133 Drizzle 2 1031 85 10000 0.45 340 15:39 25.01.2022
4134 Drizzle 2 1031 84 10000 0.45 321 14:58 25.01.2022
4135 Drizzle 2 1031 84 10000 0.89 333 13:47 25.01.2022
4136 Clouds 2 1032 86 10000 0.45 297 10:59 25.01.2022
4137 Mist 1 1033 89 2800 1.79 355 09:20 25.01.2022
4138 Clouds 1 1032 88 6000 0.45 328 07:30 25.01.2022
4139 Clouds 0 1033 88 6000 0.89 338 06:53 25.01.2022
4140 Clouds 0 1033 88 10000 0.45 335 05:22 25.01.2022
4141 Clouds 0 1035 87 10000 0.45 128 00:20 25.01.2022
4142 Clouds 0 1035 86 10000 0.45 296 23:36 24.01.2022
4143 Clouds 0 1035 86 10000 0.45 140 23:18 24.01.2022
4144 Clouds 0 1035 87 10000 0.45 2 22:41 24.01.2022
4145 Clouds 0 1035 86 10000 0.89 239 21:57 24.01.2022
4146 Clouds 0 1035 86 10000 0.45 300 21:57 24.01.2022
4147 Clouds 0 1035 86 10000 0.89 123 21:32 24.01.2022
4148 Clouds 0 1035 86 10000 0.45 248 20:33 24.01.2022
4149 Clouds 1 1035 84 9000 0.45 336 19:58 24.01.2022
4150 Clouds 1 1035 85 8000 1.34 213 19:37 24.01.2022
4151 Clouds 1 1035 85 10000 0.89 224 18:37 24.01.2022
4152 Clouds 1 1035 84 10000 0.45 354 17:24 24.01.2022
4153 Clouds 1 1035 84 10000 0.45 331 16:55 24.01.2022
4154 Clouds 1 1035 83 10000 1.34 131 16:29 24.01.2022
4155 Rain 1 1036 84 10000 0.45 0 14:49 24.01.2022
4156 Rain 2 1035 83 10000 0.45 307 13:38 24.01.2022
4157 Rain 2 1035 83 10000 1.34 233 12:32 24.01.2022
4158 Clouds 1 1036 87 10000 0.45 0 11:21 24.01.2022
4159 Mist 0 1035 89 8000 0.45 0 09:49 24.01.2022
4160 Mist 0 1035 89 7000 0.89 112 09:25 24.01.2022
4161 Clouds 0 1034 89 4500 0.45 342 07:28 24.01.2022
4162 Clouds 1 1034 86 10000 0.89 336 01:34 24.01.2022
4163 Clouds 2 1033 86 10000 0.89 305 00:47 24.01.2022
4164 Clouds 2 1033 87 10000 0.45 10 00:28 24.01.2022
4165 Clouds 3 1033 87 10000 1.79 304 22:46 23.01.2022
4166 Drizzle 3 1033 88 7000 1.34 352 21:51 23.01.2022
4167 Clouds 3 1033 88 7000 0.89 255 21:27 23.01.2022
4168 Drizzle 3 1033 88 4900 1.79 291 20:54 23.01.2022
4169 Drizzle 3 1033 88 3600 0.89 31 19:55 23.01.2022
4170 Mist 3 1032 87 3000 0.89 303 18:52 23.01.2022
4171 Mist 3 1032 88 2500 1.34 321 17:55 23.01.2022
4172 Clouds 3 1031 89 6000 0.45 309 16:54 23.01.2022
4173 Clouds 3 1031 88 2500 1.34 284 15:45 23.01.2022
4174 Clouds 3 1031 89 3500 1.34 347 14:34 23.01.2022
4175 Snow 3 1031 88 3500 1.34 334 13:43 23.01.2022
4176 Snow 3 1031 89 2500 0.89 337 12:44 23.01.2022
4177 Rain 3 1032 89 30 3.13 339 12:19 23.01.2022
4178 Snow 2 1031 90 3500 0.89 337 11:25 23.01.2022
4179 Snow 2 1031 89 2000 0.45 340 10:57 23.01.2022
4180 Snow 2 1031 88 2500 0.45 39 10:24 23.01.2022
4181 Snow 2 1031 89 10000 0.45 328 09:26 23.01.2022
4182 Snow 2 1029 85 10000 3.13 194 06:18 23.01.2022
4183 Clouds 1 1029 81 10000 0.89 19 03:20 23.01.2022
4184 Clouds 1 1029 79 10000 2.24 2 01:36 23.01.2022
4185 Clear 0 1029 80 10000 0.45 313 00:46 23.01.2022
4186 Clear 0 1029 79 10000 1.34 327 23:58 22.01.2022
4187 Clear 0 1030 77 10000 0.89 314 22:49 22.01.2022
4188 Clear 0 1030 77 10000 0.45 1 22:19 22.01.2022
4189 Clear 1 1030 75 10000 1.79 333 20:33 22.01.2022
4190 Clouds 0 1029 74 10000 2.68 353 19:41 22.01.2022
4191 Clouds 1 1029 73 10000 2.68 356 18:37 22.01.2022
4192 Clouds 1 1028 71 10000 1.34 333 17:46 22.01.2022
4193 Clouds 2 1028 70 10000 1.34 354 17:24 22.01.2022
4194 Clouds 2 1027 69 10000 4.02 26 16:54 22.01.2022
4195 Clouds 3 1026 72 10000 1.34 338 15:45 22.01.2022
4196 Clouds 3 1026 75 10000 1.79 14 14:52 22.01.2022
4197 Clouds 2 1025 76 10000 2.68 329 13:30 22.01.2022
4198 Clouds 4 1024 72 10000 3.13 349 12:40 22.01.2022
4199 Clouds 3 1023 74 10000 3.13 349 12:20 22.01.2022
4200 Clouds 3 1023 84 10000 3.13 178 10:54 22.01.2022
4201 Clouds 3 1022 85 10000 3.58 315 10:25 22.01.2022
4202 Snow 2 1021 87 10000 2.24 346 08:59 22.01.2022
4203 Snow 1 1022 88 10000 1.34 351 08:39 22.01.2022
4204 Clouds 1 1020 85 10000 2.24 266 06:46 22.01.2022
4205 Snow 1 1022 77 10000 3.13 215 02:40 22.01.2022
4206 Clear 0 1025 69 10000 2.68 253 23:52 21.01.2022
4207 Clear 0 1025 69 10000 1.34 354 23:21 21.01.2022
4208 Clear 0 1025 69 10000 3.13 272 21:45 21.01.2022
4209 Clouds 0 1025 81 9000 4.47 333 19:52 21.01.2022
4210 Clouds 0 1024 75 6000 2.68 295 18:21 21.01.2022
4211 Clouds 1 1024 61 10000 2.24 358 16:54 21.01.2022
4212 Clouds 1 1025 53 10000 3.13 316 15:24 21.01.2022
4213 Rain 1 1024 54 10000 7.18 299 12:53 21.01.2022
4214 Clouds 1 1026 51 10000 1.34 255 11:42 21.01.2022
4215 Clouds 1 1026 52 10000 1.34 255 11:23 21.01.2022
4216 Clouds -1 1025 60 10000 1.34 237 09:26 21.01.2022
4217 Clouds -2 1025 64 10000 2.68 288 08:21 21.01.2022
4218 Clouds -1 1023 68 10000 4.47 331 04:37 21.01.2022
4219 Clouds 1 1019 75 10000 1.34 239 22:53 20.01.2022
4220 Clouds 1 1020 74 10000 0.45 274 21:49 20.01.2022
4221 Clouds 1 1020 75 10000 0.89 304 21:28 20.01.2022
4222 Clouds 1 1020 70 10000 1.79 19 19:56 20.01.2022
4223 Clouds 1 1020 74 10000 0.45 18 19:19 20.01.2022
4224 Clouds 1 1019 81 10000 2.24 317 17:46 20.01.2022
4225 Snow 1 1018 85 1300 1.34 310 16:35 20.01.2022
4226 Snow 1 1018 85 1300 1.34 310 16:35 20.01.2022
4227 Snow 1 1017 82 10000 4.02 347 15:40 20.01.2022
4228 Clouds 5 1016 63 10000 2.68 244 14:40 20.01.2022
4229 Clouds 6 1016 63 10000 4.02 197 13:21 20.01.2022
4230 Clouds 5 1017 68 10000 2.68 235 12:31 20.01.2022
4231 Clouds 5 1018 71 10000 1.34 317 11:20 20.01.2022
4232 Clouds 4 1018 74 10000 2.24 269 10:19 20.01.2022
4233 Clouds 4 1018 74 10000 0.89 338 09:29 20.01.2022
4234 Clouds 4 1018 69 10000 1.79 203 07:24 20.01.2022
4235 Clouds 3 1020 74 10000 1.34 338 00:41 20.01.2022
4236 Clear 2 1021 76 10000 0.45 277 22:51 19.01.2022
4237 Clear 2 1021 77 10000 0.45 306 21:45 19.01.2022
4238 Clear 1 1021 79 10000 0.45 282 21:22 19.01.2022
4239 Clear 1 1021 78 10000 0.89 262 20:46 19.01.2022
4240 Clear 0 1022 79 10000 0.89 299 19:27 19.01.2022
4241 Clear 2 1023 75 10000 0.45 197 17:52 19.01.2022
4242 Clear 2 1023 74 10000 1.34 99 17:32 19.01.2022
4243 Clear 4 1024 68 10000 0.45 50 15:44 19.01.2022
4244 Clear 4 1026 68 10000 0.89 166 13:42 19.01.2022
4245 Clear 4 1028 70 10000 0.89 207 12:24 19.01.2022
4246 Clear 3 1029 71 10000 2.68 131 11:38 19.01.2022
4247 Clear 1 1030 77 10000 0.89 129 10:20 19.01.2022
4248 Clear 0 1031 79 10000 0.45 340 09:33 19.01.2022
4249 Clear -3 1032 81 10000 2.57 180 06:35 19.01.2022
4250 Clear -1 1036 78 10000 0.45 300 01:55 19.01.2022
4251 Clear 0 1036 73 10000 0.45 304 23:19 18.01.2022
4252 Clear 0 1037 73 10000 0.45 265 22:18 18.01.2022
4253 Clear 1 1037 71 10000 0.45 331 20:55 18.01.2022
4254 Clouds 1 1037 69 10000 0.45 316 19:54 18.01.2022
4255 Clouds 1 1037 69 10000 0.45 65 19:35 18.01.2022
4256 Clouds 2 1036 67 10000 0.45 331 18:36 18.01.2022
4257 Clouds 2 1036 66 10000 2.68 30 17:51 18.01.2022
4258 Clouds 3 1036 64 10000 1.34 317 16:38 18.01.2022
4259 Clouds 4 1035 62 10000 4.02 336 15:39 18.01.2022
4260 Clouds 4 1035 61 10000 2.24 20 15:19 18.01.2022
4261 Clouds 5 1035 63 10000 2.24 350 11:53 18.01.2022
4262 Clouds 4 1035 70 10000 1.79 349 10:46 18.01.2022
4263 Clouds 2 1034 77 10000 1.34 328 08:49 18.01.2022
4264 Clouds 1 1033 76 10000 0.89 316 07:46 18.01.2022
4265 Clouds 2 1031 77 10000 3.58 292 02:32 18.01.2022
4266 Clear 3 1029 81 10000 4.02 332 23:22 17.01.2022
4267 Clouds 3 1028 84 10000 2.24 326 22:23 17.01.2022
4268 Rain 3 1027 87 10000 4.47 339 21:33 17.01.2022
4269 Snow 4 1026 83 10000 3.58 345 19:56 17.01.2022
4270 Clouds 5 1023 74 10000 2.24 268 18:29 17.01.2022
4271 Rain 5 1021 70 10000 5.36 320 17:25 17.01.2022
4272 Rain 5 1020 68 10000 5.36 261 16:35 17.01.2022
4273 Clouds 5 1020 69 10000 4.02 313 14:59 17.01.2022
4274 Rain 6 1020 70 10000 5.81 292 14:33 17.01.2022
4275 Clouds 6 1020 68 10000 3.58 313 13:20 17.01.2022
4276 Clouds 6 1020 68 10000 3.58 199 12:55 17.01.2022
4277 Clear 5 1021 70 10000 4.92 353 11:48 17.01.2022
4278 Clouds 5 1023 71 10000 3.13 289 10:21 17.01.2022
4279 Clouds 4 1023 73 10000 2.24 222 09:33 17.01.2022
4280 Clear 4 1023 74 10000 2.68 5 07:22 17.01.2022
4281 Clear 3 1024 72 10000 0.89 239 02:54 17.01.2022
4282 Clouds 3 1025 73 10000 3.13 328 00:54 17.01.2022
4283 Clouds 3 1025 74 10000 2.24 347 21:44 16.01.2022
4284 Clouds 3 1025 74 10000 0.89 259 20:33 16.01.2022
4285 Clouds 2 1023 74 10000 1.34 266 18:51 16.01.2022
4286 Clear 2 1023 73 10000 2.68 288 17:57 16.01.2022
4287 Clear 3 1022 66 10000 0.89 222 16:59 16.01.2022
4288 Clouds 3 1022 65 10000 0.89 296 16:20 16.01.2022
4289 Clear 5 1022 66 10000 1.34 182 14:30 16.01.2022
4290 Clear 4 1023 71 10000 0.45 299 13:34 16.01.2022
4291 Clear 3 1023 72 10000 0.45 309 12:44 16.01.2022
4292 Clear 2 1023 75 10000 1.34 122 11:40 16.01.2022
4293 Clouds 1 1024 76 10000 0.45 328 10:46 16.01.2022
4294 Clouds 0 1024 78 9000 0.45 357 09:59 16.01.2022
4295 Clouds -1 1025 79 9000 0.45 90 09:40 16.01.2022
4296 Clear -2 1025 83 10000 0.45 327 09:21 16.01.2022
4297 Clear -2 1025 80 10000 2.06 100 07:25 16.01.2022
4298 Clear -1 1027 76 10000 1.15 120 00:38 16.01.2022
4299 Clear -1 1028 75 10000 1.03 0 23:34 15.01.2022
4300 Clear -1 1028 75 10000 0.89 324 21:23 15.01.2022
4301 Snow 0 1028 75 10000 0.51 0 20:56 15.01.2022
4302 Snow 0 1028 75 10000 0.45 323 20:36 15.01.2022
4303 Clear 1 1028 73 10000 0.89 321 19:28 15.01.2022
4304 Clear 2 1028 70 10000 0.45 337 18:28 15.01.2022
4305 Clear 4 1028 64 10000 0.89 346 16:49 15.01.2022
4306 Clouds 6 1028 58 10000 2.68 327 15:38 15.01.2022
4307 Clouds 6 1029 57 10000 3.13 336 13:35 15.01.2022
4308 Clouds 6 1030 60 10000 0.89 8 11:46 15.01.2022
4309 Clouds 5 1031 67 10000 1.34 311 09:49 15.01.2022
4310 Clouds 4 1029 69 10000 1.34 304 05:26 15.01.2022
4311 Clouds 4 1029 69 10000 0.89 334 23:44 14.01.2022
4312 Clouds 4 1029 66 10000 0.89 85 21:29 14.01.2022
4313 Clouds 4 1028 65 10000 0.89 338 20:37 14.01.2022
4314 Clouds 5 1028 63 10000 1.34 307 19:57 14.01.2022
4315 Clear 6 1027 60 10000 1.79 292 18:44 14.01.2022
4316 Clear 6 1027 59 10000 3.58 329 17:53 14.01.2022
4317 Clear 7 1026 56 10000 2.68 293 16:47 14.01.2022
4318 Clear 8 1026 52 10000 2.68 218 15:33 14.01.2022
4319 Clear 9 1026 49 10000 3.58 342 14:29 14.01.2022
4320 Clear 8 1027 50 10000 3.58 246 12:59 14.01.2022
4321 Clear 8 1028 52 10000 2.24 214 12:20 14.01.2022
4322 Clear 6 1029 54 10000 1.34 14 10:46 14.01.2022
4323 Clouds 4 1028 60 10000 4.92 281 08:54 14.01.2022
4324 Clear 4 1029 61 10000 1.34 277 07:46 14.01.2022
4325 Clear 4 1031 57 10000 2.24 282 03:50 14.01.2022
4326 Clear 3 1033 59 10000 1.34 314 00:44 14.01.2022
4327 Clear 4 1034 60 10000 0.89 297 21:57 13.01.2022
4328 Clear 3 1034 61 10000 1.34 324 21:30 13.01.2022
4329 Clear 3 1035 63 10000 1.34 349 20:33 13.01.2022
4330 Clear 3 1035 64 10000 2.24 329 19:32 13.01.2022
4331 Clear 3 1035 64 10000 2.68 223 18:51 13.01.2022
4332 Clouds 3 1035 65 10000 0.89 143 17:23 13.01.2022
4333 Clouds 3 1036 65 10000 3.13 208 16:18 13.01.2022
4334 Clouds 4 1036 62 10000 0.89 356 15:31 13.01.2022
4335 Clouds 4 1037 61 10000 1.34 210 13:42 13.01.2022
4336 Clouds 3 1038 63 10000 0.89 294 12:20 13.01.2022
4337 Clouds 0 1039 74 10000 0.89 309 09:38 13.01.2022
4338 Clouds 0 1039 75 10000 0.89 284 08:54 13.01.2022
4339 Clouds -1 1039 76 10000 1.34 280 08:22 13.01.2022
4340 Clouds -1 1039 75 10000 0.89 212 07:21 13.01.2022
4341 Clouds -1 1038 74 10000 1.34 283 05:56 13.01.2022
4342 Clouds 0 1038 75 10000 0.45 255 05:18 13.01.2022
4343 Clear -1 1038 76 10000 2.24 278 01:49 13.01.2022
4344 Clear -1 1038 76 10000 1.34 296 23:54 12.01.2022
4345 Clear -1 1038 76 10000 0.89 324 23:35 12.01.2022
4346 Clear -1 1038 77 10000 2.24 358 22:56 12.01.2022
4347 Clear -1 1038 76 10000 3.13 313 21:56 12.01.2022
4348 Clear -1 1038 77 10000 1.34 310 21:21 12.01.2022
4349 Clear -1 1038 76 10000 1.34 317 20:56 12.01.2022
4350 Clear -2 1038 75 10000 0.89 345 19:35 12.01.2022
4351 Clear -2 1038 75 10000 2.24 227 18:29 12.01.2022
4352 Clear -1 1037 74 10000 0.45 350 16:59 12.01.2022
4353 Clear -1 1037 73 10000 2.24 332 16:26 12.01.2022
4354 Clouds -1 1037 71 10000 1.34 324 14:48 12.01.2022
4355 Clouds -1 1037 71 10000 0.89 42 12:58 12.01.2022
4356 Clouds -3 1038 78 10000 2.68 304 09:59 12.01.2022
4357 Clouds -4 1037 81 10000 0.89 357 08:36 12.01.2022
4358 Clouds -5 1036 81 10000 0.89 341 07:34 12.01.2022
4359 Clouds -5 1036 82 10000 2.68 1 06:49 12.01.2022
4360 Clouds -3 1035 78 10000 1.34 331 23:31 11.01.2022
4361 Clouds -3 1035 77 10000 1.34 350 22:49 11.01.2022
4362 Clouds -3 1035 78 10000 1.34 306 22:21 11.01.2022
4363 Clouds -2 1035 76 10000 2.68 308 20:51 11.01.2022
4364 Clouds -2 1034 74 10000 1.34 0 19:45 11.01.2022
4365 Clouds -1 1033 73 10000 0.89 275 18:31 11.01.2022
4366 Clouds -1 1032 71 10000 0.89 318 17:24 11.01.2022
4367 Clouds 0 1032 70 10000 0.89 107 16:37 11.01.2022
4368 Clouds 0 1032 69 10000 1.34 347 15:35 11.01.2022
4369 Clouds 1 1032 67 10000 1.34 143 14:41 11.01.2022
4370 Clouds 0 1032 67 10000 3.58 357 13:55 11.01.2022
4371 Clouds 1 1032 67 10000 1.34 315 13:34 11.01.2022
4372 Clouds 0 1032 67 10000 0.89 343 12:42 11.01.2022
4373 Clouds 0 1031 67 10000 3.13 6 11:40 11.01.2022
4374 Clouds -1 1032 72 10000 2.68 298 09:28 11.01.2022
4375 Clouds -1 1030 75 10000 2.24 14 06:37 11.01.2022
4376 Clouds 0 1027 79 10000 3.13 357 00:31 11.01.2022
4377 Clouds 0 1026 80 10000 3.58 303 23:41 10.01.2022
4378 Clear 0 1025 80 10000 4.02 354 22:51 10.01.2022
4379 Clear 1 1025 80 10000 0.89 327 22:19 10.01.2022
4380 Clear 1 1024 80 10000 0.89 194 21:54 10.01.2022
4381 Clear 1 1024 80 10000 2.68 291 21:20 10.01.2022
4382 Clear 1 1024 80 10000 2.24 0 20:56 10.01.2022
4383 Clear 1 1023 80 10000 2.24 16 20:28 10.01.2022
4384 Clear 1 1023 82 10000 2.24 347 19:42 10.01.2022
4385 Clear 2 1022 82 10000 2.24 338 19:21 10.01.2022
4386 Clouds 2 1022 83 10000 1.34 2 18:48 10.01.2022
4387 Clouds 2 1020 83 10000 1.34 315 17:41 10.01.2022
4388 Clouds 3 1019 83 10000 1.34 321 16:42 10.01.2022
4389 Clouds 3 1018 83 10000 1.34 355 15:49 10.01.2022
4390 Clouds 3 1017 85 10000 0.89 307 14:30 10.01.2022
4391 Clouds 2 1016 86 10000 0.45 299 11:58 10.01.2022
4392 Drizzle 2 1016 86 10000 0.45 335 11:25 10.01.2022
4393 Drizzle 2 1015 86 8000 2.68 306 09:52 10.01.2022
4394 Clouds 2 1012 85 7000 1.34 323 07:31 10.01.2022
4395 Clouds 2 1011 83 6000 0.89 13 05:49 10.01.2022
4396 Clouds 1 1009 85 8000 0.89 12 01:31 10.01.2022
4397 Clouds 2 1009 82 9000 0.89 360 00:25 10.01.2022
4398 Clouds 1 1009 83 8000 0.45 308 23:40 09.01.2022
4399 Clouds 1 1009 82 7000 1.79 360 22:40 09.01.2022
4400 Clouds 2 1008 80 7000 0.45 111 21:47 09.01.2022
4401 Clouds 2 1008 80 9000 0.45 343 21:24 09.01.2022
4402 Clouds 2 1008 80 9000 0.45 343 21:24 09.01.2022
4403 Clouds 2 1008 79 10000 0.45 350 20:53 09.01.2022
4404 Clouds 2 1008 79 10000 0.45 334 20:34 09.01.2022
4405 Clouds 2 1008 80 10000 0.45 27 19:45 09.01.2022
4406 Clouds 2 1007 79 10000 0.45 334 19:23 09.01.2022
4407 Clouds 2 1007 79 10000 0.45 334 18:56 09.01.2022
4408 Clouds 2 1007 79 10000 0.45 18 18:35 09.01.2022
4409 Clouds 2 1006 79 10000 0.45 10 17:45 09.01.2022
4410 Clear 2 1006 80 10000 0.45 359 17:21 09.01.2022
4411 Clouds 2 1005 79 10000 0.45 350 16:34 09.01.2022
4412 Clouds 2 1005 77 10000 0.45 100 15:37 09.01.2022
4413 Clouds 2 1005 75 10000 0.89 242 14:41 09.01.2022
4414 Clouds 1 1004 74 10000 1.34 117 13:56 09.01.2022
4415 Clouds 1 1004 75 10000 0.45 125 13:36 09.01.2022
4416 Snow 0 1005 77 9000 0.45 74 11:56 09.01.2022
4417 Snow -1 1005 78 7000 0.89 255 11:24 09.01.2022
4418 Snow -2 1005 80 10000 4.12 140 09:53 09.01.2022
4419 Clear -2 1004 79 10000 0.45 329 08:54 09.01.2022
4420 Clear -3 1005 79 10000 0.45 360 05:54 09.01.2022
4421 Clear -2 1007 78 10000 0.45 312 01:26 09.01.2022
4422 Clouds -1 1008 77 10000 0.45 113 00:37 09.01.2022
4423 Clear 0 1010 74 10000 1.34 273 23:27 08.01.2022
4424 Clouds 1 1011 69 10000 1.34 258 22:35 08.01.2022
4425 Clouds 2 1011 66 10000 0.45 267 21:27 08.01.2022
4426 Clouds 2 1012 67 10000 0.89 249 20:43 08.01.2022
4427 Clouds 2 1012 66 10000 1.34 327 20:21 08.01.2022
4428 Clouds 2 1012 71 10000 2.68 206 18:46 08.01.2022
4429 Clouds 2 1013 73 10000 1.34 221 17:25 08.01.2022
4430 Clouds 1 1013 70 10000 0.89 169 16:42 08.01.2022
4431 Clear 1 1014 67 10000 1.34 139 14:52 08.01.2022
4432 Clouds 2 1014 67 10000 0.45 216 13:56 08.01.2022
4433 Clouds -1 1016 74 10000 0.45 247 11:30 08.01.2022
4434 Clouds -1 1016 73 10000 0.89 10 10:33 08.01.2022
4435 Clouds -1 1016 76 10000 0.89 10 09:57 08.01.2022
4436 Clouds -2 1016 77 10000 0.89 35 09:30 08.01.2022
4437 Clouds -2 1016 76 10000 0.45 198 05:39 08.01.2022
4438 Clear -3 1018 72 10000 0.89 250 00:59 08.01.2022
4439 Clear -3 1018 72 10000 3.09 150 23:30 07.01.2022
4440 Clear -3 1018 72 10000 3.09 150 23:30 07.01.2022
4441 Clear -3 1018 70 10000 0.89 174 21:47 07.01.2022
4442 Clear -2 1019 69 10000 1.34 191 20:26 07.01.2022
4443 Clear -2 1019 68 10000 0.89 191 19:27 07.01.2022
4444 Clear -2 1019 66 10000 0.45 203 18:46 07.01.2022
4445 Clear -1 1019 65 10000 0.89 360 18:21 07.01.2022
4446 Clear -1 1019 60 10000 0.45 274 17:23 07.01.2022
4447 Clear 3 1019 56 10000 0.89 316 14:55 07.01.2022
4448 Clear 3 1020 57 10000 2.68 133 13:52 07.01.2022
4449 Clear 2 1020 60 10000 1.34 198 12:51 07.01.2022
4450 Clear 0 1022 71 10000 0.89 132 10:21 07.01.2022
4451 Clear -2 1023 79 10000 0.45 320 02:59 07.01.2022
4452 Clear -2 1023 79 10000 0.45 320 02:59 07.01.2022
4453 Clear -2 1024 79 10000 0.89 214 02:22 07.01.2022
4454 Clear -2 1023 79 10000 0.45 209 01:48 07.01.2022
4455 Clear -2 1023 78 10000 0.89 250 01:25 07.01.2022
4456 Clear -1 1024 77 10000 0.45 298 00:30 07.01.2022
4457 Clear -1 1023 69 10000 0.89 262 22:33 06.01.2022
4458 Clear 0 1022 71 10000 0.89 305 20:43 06.01.2022
4459 Clear 0 1021 71 10000 0.89 310 20:18 06.01.2022
4460 Clear 0 1021 69 10000 1.79 339 19:36 06.01.2022
4461 Clear 1 1020 64 10000 0.89 351 17:51 06.01.2022
4462 Clear 2 1020 64 10000 1.34 319 17:23 06.01.2022
4463 Clouds 3 1018 64 10000 2.24 341 16:38 06.01.2022
4464 Clouds 4 1017 63 10000 0.89 294 15:44 06.01.2022
4465 Clouds 4 1017 64 10000 1.34 351 15:22 06.01.2022
4466 Clouds 5 1015 66 10000 2.68 2 14:20 06.01.2022
4467 Clouds 5 1015 67 10000 0.89 296 13:39 06.01.2022
4468 Clouds 6 1014 66 10000 2.68 312 12:21 06.01.2022
4469 Clouds 5 1014 67 10000 0.45 282 11:30 06.01.2022
4470 Clouds 5 1014 68 10000 1.34 270 10:59 06.01.2022
4471 Clear 3 1011 72 10000 2.24 240 06:54 06.01.2022
4472 Clouds 3 1010 65 10000 3.13 6 00:34 06.01.2022
4473 Clouds 3 1009 64 10000 1.34 2 23:33 05.01.2022
4474 Clear 3 1009 63 10000 3.13 355 22:48 05.01.2022
4475 Clouds 3 1009 63 10000 2.68 357 22:28 05.01.2022
4476 Clouds 3 1009 64 10000 2.68 242 21:43 05.01.2022
4477 Clouds 4 1008 65 10000 2.68 291 20:44 05.01.2022
4478 Clouds 4 1008 63 10000 2.24 264 19:46 05.01.2022
4479 Clear 5 1007 67 10000 3.13 288 18:27 05.01.2022
4480 Rain 6 1006 71 10000 2.68 140 16:58 05.01.2022
4481 Rain 6 1005 72 10000 2.24 224 16:21 05.01.2022
4482 Rain 7 1004 74 10000 2.68 270 15:20 05.01.2022
4483 Rain 7 1003 75 10000 0.89 297 13:37 05.01.2022
4484 Clouds 6 1003 76 10000 2.68 150 12:46 05.01.2022
4485 Clouds 7 1002 82 10000 2.68 241 08:47 05.01.2022
4486 Clouds 7 1001 82 10000 0.89 291 07:20 05.01.2022
4487 Clouds 11 999 73 10000 0.89 65 01:58 05.01.2022
4488 Clear 11 998 71 10000 0.45 117 23:50 04.01.2022
4489 Clear 11 999 69 10000 0.89 232 23:26 04.01.2022
4490 Clear 10 998 71 10000 0.45 137 22:21 04.01.2022
4491 Clouds 9 998 74 10000 0.89 102 20:50 04.01.2022
4492 Clear 9 998 75 10000 0.45 244 18:46 04.01.2022
4493 Clear 9 998 77 10000 0.45 269 17:37 04.01.2022
4494 Clear 9 999 77 10000 0.45 0 16:39 04.01.2022
4495 Clear 9 998 76 10000 1.79 194 16:20 04.01.2022
4496 Clouds 9 1000 75 10000 1.34 130 14:51 04.01.2022
4497 Clouds 9 1000 76 10000 0.45 309 14:33 04.01.2022
4498 Clear 9 1000 77 10000 2.24 117 13:26 04.01.2022
4499 Rain 8 1004 78 10000 2.24 360 10:29 04.01.2022
4500 Rain 8 1005 77 10000 0.89 128 08:59 04.01.2022
4501 Rain 8 1005 77 10000 0.89 306 08:23 04.01.2022
4502 Clear 9 1011 69 10000 0.45 186 01:19 04.01.2022
4503 Clear 8 1011 70 10000 0.45 311 00:40 04.01.2022
4504 Clear 9 1012 70 10000 0.45 298 22:51 03.01.2022
4505 Clear 9 1013 69 10000 1.34 128 21:42 03.01.2022
4506 Clear 9 1013 68 10000 0.89 100 21:24 03.01.2022
4507 Clouds 10 1014 69 10000 0.89 317 19:47 03.01.2022
4508 Rain 10 1015 70 10000 0.89 276 18:33 03.01.2022
4509 Clear 10 1015 69 10000 2.24 336 17:40 03.01.2022
4510 Clear 10 1015 69 10000 2.24 336 17:40 03.01.2022
4511 Rain 10 1015 70 10000 2.24 232 16:58 03.01.2022
4512 Clouds 12 1015 64 10000 1.34 262 14:55 03.01.2022
4513 Clouds 12 1015 64 10000 2.68 12 14:29 03.01.2022
4514 Clouds 12 1015 62 10000 2.24 271 12:35 03.01.2022
4515 Clouds 12 1015 61 10000 2.24 228 11:34 03.01.2022
4516 Clouds 12 1016 63 10000 1.34 345 10:25 03.01.2022
4517 Clouds 11 1016 63 10000 1.34 355 08:46 03.01.2022
4518 Clear 12 1015 61 10000 2.24 328 07:32 03.01.2022
4519 Clear 10 1015 65 10000 1.34 224 23:54 02.01.2022
4520 Clear 10 1016 69 10000 0.45 243 23:18 02.01.2022
4521 Clear 10 1016 70 10000 0.89 225 22:43 02.01.2022
4522 Clear 10 1017 72 10000 0.89 234 21:39 02.01.2022
4523 Clear 10 1017 71 10000 0.89 200 20:31 02.01.2022
4524 Clear 9 1018 72 10000 2.24 115 19:53 02.01.2022
4525 Clear 9 1018 77 10000 0.45 5 19:26 02.01.2022
4526 Rain 9 1018 78 10000 0.89 222 18:38 02.01.2022
4527 Clear 8 1018 79 10000 0.45 127 17:43 02.01.2022
4528 Clear 8 1018 81 10000 0.45 0 17:22 02.01.2022
4529 Clear 8 1018 80 10000 2.06 240 16:53 02.01.2022
4530 Clear 9 1018 81 10000 0.89 85 16:23 02.01.2022
4531 Clear 10 1019 77 10000 0.45 326 14:19 02.01.2022
4532 Clear 10 1020 78 10000 0.89 360 12:39 02.01.2022
4533 Clear 9 1021 81 10000 0.45 340 11:57 02.01.2022
4534 Clear 8 1021 81 10000 0.45 31 11:20 02.01.2022
4535 Clear 7 1021 82 10000 0.45 344 10:37 02.01.2022
4536 Fog 6 1023 84 10000 0.45 344 08:27 02.01.2022
4537 Clear 6 1026 83 10000 2.57 170 03:25 02.01.2022
4538 Clear 7 1027 83 10000 2.57 250 23:58 01.01.2022
4539 Clear 8 1027 82 10000 0.45 0 23:39 01.01.2022
4540 Clear 9 1027 80 10000 0.45 297 22:45 01.01.2022
4541 Clouds 9 1027 78 10000 0.45 313 22:19 01.01.2022
4542 Clouds 10 1027 77 10000 0.45 302 21:43 01.01.2022
4543 Clouds 10 1027 75 10000 0.45 244 20:53 01.01.2022
4544 Clouds 11 1027 74 10000 0.45 298 19:55 01.01.2022
4545 Clouds 11 1027 72 10000 1.34 209 18:58 01.01.2022
4546 Clouds 12 1027 71 10000 0.89 253 17:57 01.01.2022
4547 Clear 13 1027 69 10000 0.89 278 16:37 01.01.2022
4548 Clear 13 1027 68 10000 0.89 276 16:19 01.01.2022
4549 Clear 13 1026 68 10000 2.24 260 15:22 01.01.2022
4550 Clouds 14 1026 69 10000 2.24 279 13:42 01.01.2022
4551 Clear 14 1025 68 10000 1.34 257 12:49 01.01.2022
4552 Clear 14 1025 68 10000 1.34 289 11:51 01.01.2022
4553 Clear 14 1025 68 10000 0.89 31 11:22 01.01.2022
4554 Clear 13 1025 69 10000 1.34 258 10:26 01.01.2022
4555 Clear 13 1025 71 10000 1.34 356 09:41 01.01.2022
4556 Clear 12 1024 75 10000 2.68 316 08:25 01.01.2022
4557 Clouds 12 1024 74 10000 2.24 273 07:43 01.01.2022
4558 Clouds 12 1024 74 10000 2.68 318 06:46 01.01.2022
4559 Clouds 12 1024 76 10000 2.68 304 05:26 01.01.2022
4560 Clouds 12 1023 73 10000 1.34 300 04:37 01.01.2022
4561 Clouds 14 1021 67 10000 1.34 284 00:53 01.01.2022
4562 Rain 14 1020 68 10000 4.47 332 23:35 31.12.2021
4563 Clear 13 1020 70 10000 2.68 345 21:52 31.12.2021
4564 Clear 13 1020 75 10000 1.79 299 20:37 31.12.2021
4565 Clear 12 1020 77 10000 0.45 315 19:30 31.12.2021
4566 Clear 11 1020 81 10000 2.57 200 18:35 31.12.2021
4567 Clear 13 1020 76 10000 0.89 272 17:38 31.12.2021
4568 Clear 13 1020 75 10000 0.89 272 17:18 31.12.2021
4569 Clear 14 1021 72 10000 1.34 178 16:24 31.12.2021
4570 Clear 14 1021 71 10000 0.45 274 15:56 31.12.2021
4571 Clouds 15 1021 68 10000 0.45 289 15:28 31.12.2021
4572 Clouds 15 1021 67 10000 0.89 337 14:52 31.12.2021
4573 Clouds 16 1021 66 10000 0.89 24 14:29 31.12.2021
4574 Clouds 16 1021 66 10000 3.13 322 13:36 31.12.2021
4575 Clouds 16 1022 65 10000 2.68 337 12:45 31.12.2021
4576 Clouds 15 1023 65 10000 0.89 256 11:47 31.12.2021
4577 Clouds 15 1023 66 10000 1.34 232 11:29 31.12.2021
4578 Clouds 14 1023 71 10000 2.24 280 10:35 31.12.2021
4579 Clouds 14 1023 75 10000 0.89 323 09:54 31.12.2021
4580 Clouds 14 1023 76 10000 0.45 265 09:32 31.12.2021
4581 Clouds 13 1023 79 10000 1.34 267 08:39 31.12.2021
4582 Clear 13 1022 81 10000 1.34 159 07:31 31.12.2021
4583 Clouds 13 1021 85 10000 0.45 315 23:32 30.12.2021
4584 Clouds 13 1020 86 10000 2.24 312 22:33 30.12.2021
4585 Clouds 12 1020 87 10000 0.89 358 21:56 30.12.2021
4586 Clouds 12 1020 87 10000 0.89 328 21:37 30.12.2021
4587 Clouds 12 1019 87 10000 2.68 294 20:47 30.12.2021
4588 Clouds 12 1019 87 10000 2.68 297 20:27 30.12.2021
4589 Clouds 12 1020 87 7000 0.45 341 19:47 30.12.2021
4590 Clouds 12 1020 88 6000 1.34 329 18:48 30.12.2021
4591 Drizzle 12 1020 89 7000 4.02 286 18:19 30.12.2021
4592 Drizzle 11 1019 87 10000 1.79 291 16:20 30.12.2021
4593 Clouds 11 1020 88 10000 0.45 329 15:52 30.12.2021
4594 Clouds 12 1019 85 10000 0.45 329 14:40 30.12.2021
4595 Clouds 12 1019 83 10000 0.45 280 13:57 30.12.2021
4596 Clouds 12 1018 84 10000 1.79 294 12:44 30.12.2021
4597 Clouds 10 1018 87 6000 0.89 234 11:22 30.12.2021
4598 Clouds 8 1018 91 6000 0.45 331 09:59 30.12.2021
4599 Drizzle 7 1018 91 3000 0.45 319 09:23 30.12.2021
4600 Clouds 6 1017 90 6000 2.57 170 06:54 30.12.2021
4601 Clouds 6 1015 88 10000 0.45 360 04:20 30.12.2021
4602 Clouds 6 1015 88 10000 0.45 360 04:20 30.12.2021
4603 Clouds 5 1015 88 10000 0.45 360 03:39 30.12.2021
4604 Fog 5 1014 88 9000 1.34 360 00:35 30.12.2021
4605 Clouds 5 1014 88 7000 0.45 292 23:31 29.12.2021
4606 Fog 6 1014 89 5000 0.45 317 22:24 29.12.2021
4607 Mist 5 1013 90 5000 1.79 288 21:53 29.12.2021
4608 Fog 6 1013 89 550 1.79 321 20:56 29.12.2021
4609 Fog 7 1012 88 4100 0.45 352 20:18 29.12.2021
4610 Mist 7 1012 88 3100 0.89 354 19:30 29.12.2021
4611 Mist 8 1012 89 5000 0.89 8 18:26 29.12.2021
4612 Clouds 7 1011 90 9000 1.34 331 17:30 29.12.2021
4613 Drizzle 7 1011 90 9000 1.34 331 16:58 29.12.2021
4614 Clouds 7 1011 90 8000 0.89 331 16:19 29.12.2021
4615 Clouds 7 1010 91 8000 0.45 318 14:47 29.12.2021
4616 Rain 7 1008 91 10000 3.58 274 12:57 29.12.2021
4617 Clouds 7 1008 89 10000 2.24 304 12:30 29.12.2021
4618 Clouds 5 1008 92 9000 0.45 315 10:53 29.12.2021
4619 Mist 6 1006 88 5000 0.89 229 08:56 29.12.2021
4620 Rain 3 1006 90 5000 0.45 234 06:59 29.12.2021
4621 Rain 2 1006 90 5000 1.34 226 06:30 29.12.2021
4622 Mist 2 1006 91 3800 0.45 123 05:52 29.12.2021
4623 Mist 2 1005 91 1300 2.24 162 03:48 29.12.2021
4624 Rain 2 1005 91 4600 0.45 39 00:32 29.12.2021
4625 Rain 1 1005 91 5000 1.34 134 23:57 28.12.2021
4626 Rain 1 1005 91 8000 1.34 131 22:56 28.12.2021
4627 Drizzle 1 1005 91 10000 0.89 294 22:25 28.12.2021
4628 Rain 1 1006 91 3700 1.34 147 21:54 28.12.2021
4629 Rain 1 1006 91 3100 1.79 117 21:34 28.12.2021
4630 Drizzle 1 1006 90 3100 0.89 311 19:53 28.12.2021
4631 Drizzle 0 1006 91 3400 2.68 144 18:54 28.12.2021
4632 Drizzle 0 1006 91 4000 0.89 275 18:27 28.12.2021
4633 Drizzle 1 1006 90 5000 2.24 174 17:34 28.12.2021
4634 Clouds 0 1006 90 10000 1.34 73 16:20 28.12.2021
4635 Clouds 0 1006 90 7000 1.79 47 15:41 28.12.2021
4636 Clouds 1 1006 89 8000 1.34 273 14:55 28.12.2021
4637 Clouds 1 1006 89 8000 0.45 102 14:37 28.12.2021
4638 Clouds 1 1006 89 10000 0.89 1 14:18 28.12.2021
4639 Clouds 1 1006 88 7000 2.68 36 13:37 28.12.2021
4640 Mist 1 1007 88 3900 2.24 315 12:56 28.12.2021
4641 Mist 1 1008 89 2500 0.89 300 12:20 28.12.2021
4642 Mist 1 1009 89 1300 2.68 81 10:47 28.12.2021
4643 Clouds 0 1009 89 6000 0.89 167 07:38 28.12.2021
4644 Clouds 0 1009 85 10000 0.89 105 03:37 28.12.2021
4645 Clouds 0 1009 77 10000 0.45 54 23:40 27.12.2021
4646 Clouds 0 1009 75 10000 1.34 218 22:21 27.12.2021
4647 Clouds 0 1009 74 10000 0.89 339 21:31 27.12.2021
4648 Clouds 0 1009 74 10000 1.34 131 20:39 27.12.2021
4649 Clouds 0 1009 74 10000 0.45 1 19:49 27.12.2021
4650 Clear 0 1009 74 10000 0.89 128 19:27 27.12.2021
4651 Clouds 0 1009 72 10000 1.34 329 17:54 27.12.2021
4652 Clouds 0 1009 72 10000 0.89 305 17:54 27.12.2021
4653 Clouds 0 1009 72 10000 1.34 267 17:29 27.12.2021
4654 Clear 1 1009 72 10000 0.89 239 16:26 27.12.2021
4655 Clear 2 1009 72 10000 1.34 46 15:49 27.12.2021
4656 Clouds 2 1009 72 10000 2.24 74 14:26 27.12.2021
4657 Clouds 2 1010 76 10000 0.89 159 13:31 27.12.2021
4658 Clouds 1 1011 81 10000 1.34 126 11:20 27.12.2021
4659 Clouds 0 1012 84 10000 0.45 31 10:27 27.12.2021
4660 Clouds -1 1012 86 10000 1.79 140 09:27 27.12.2021
4661 Clouds -1 1011 84 10000 0.45 316 07:35 27.12.2021
4662 Clouds -2 1011 84 8000 0.45 331 06:29 27.12.2021
4663 Clouds -2 1012 84 10000 0.89 78 01:59 27.12.2021
4664 Clouds -2 1013 84 9000 0.45 105 23:50 26.12.2021
4665 Clouds -2 1013 84 8000 0.45 10 23:32 26.12.2021
4666 Clouds -2 1014 85 8000 0.45 323 21:48 26.12.2021
4667 Clouds -2 1014 85 8000 1.54 360 20:25 26.12.2021
4668 Clouds -2 1014 85 8000 0.45 105 19:27 26.12.2021
4669 Clouds -2 1013 85 7000 0.89 6 18:23 26.12.2021
4670 Mist -2 1013 84 4200 1.34 347 15:56 26.12.2021
4671 Mist -2 1013 79 5000 0.45 340 13:52 26.12.2021
4672 Clouds -2 1013 79 8000 0.45 338 13:32 26.12.2021
4673 Clouds -2 1013 73 10000 0.45 336 12:38 26.12.2021
4674 Clouds -2 1013 72 10000 0.45 338 11:58 26.12.2021
4675 Clouds -3 1013 71 10000 0.89 330 09:52 26.12.2021
4676 Clouds -4 1013 72 10000 0.89 7 09:18 26.12.2021
4677 Clouds -4 1013 72 10000 0.45 311 08:39 26.12.2021
4678 Clear -4 1013 70 10000 0.45 335 06:47 26.12.2021
4679 Clouds -3 1012 73 10000 1.34 313 00:58 26.12.2021
4680 Clouds -3 1012 78 10000 0.45 326 23:51 25.12.2021
4681 Clouds -3 1012 80 10000 0.89 6 23:26 25.12.2021
4682 Clouds -2 1012 81 10000 0.45 329 22:23 25.12.2021
4683 Clouds -2 1011 84 10000 0.45 14 20:48 25.12.2021
4684 Snow -2 1011 87 10000 2.24 226 19:23 25.12.2021
4685 Snow -2 1011 88 5000 2.24 353 18:54 25.12.2021
4686 Snow -1 1010 89 8000 4.02 16 17:29 25.12.2021
4687 Snow -1 1009 89 7000 2.24 337 16:36 25.12.2021
4688 Rain 1 1007 89 10000 5.36 1 14:46 25.12.2021
4689 Clouds 2 1007 89 10000 1.34 322 12:49 25.12.2021
4690 Clouds 3 1007 88 10000 0.89 317 11:46 25.12.2021
4691 Rain 4 1007 87 10000 0.45 327 09:51 25.12.2021
4692 Clouds 5 1006 89 10000 0.45 277 08:38 25.12.2021
4693 Rain 8 1005 86 10000 0.89 274 02:59 25.12.2021
4694 Clouds 9 1005 81 10000 1.34 263 00:33 25.12.2021
4695 Clouds 9 1005 82 10000 1.34 238 23:40 24.12.2021
4696 Clouds 9 1005 79 10000 0.89 218 19:45 24.12.2021
4697 Clouds 9 1005 78 10000 2.24 144 19:23 24.12.2021
4698 Clouds 9 1005 77 10000 2.24 186 16:53 24.12.2021
4699 Clouds 9 1005 77 10000 4.02 263 16:22 24.12.2021
4700 Clouds 9 1005 76 10000 1.79 210 15:48 24.12.2021
4701 Clouds 10 1005 73 10000 5.81 158 14:47 24.12.2021
4702 Clouds 10 1005 73 10000 1.34 226 14:26 24.12.2021
4703 Clouds 10 1005 72 10000 2.24 37 13:41 24.12.2021
4704 Clear 10 1005 72 10000 2.24 225 12:48 24.12.2021
4705 Clear 10 1005 71 10000 4.02 264 12:20 24.12.2021
4706 Clouds 10 1005 71 10000 2.68 264 11:29 24.12.2021
4707 Clouds 10 1005 71 10000 4.47 280 10:59 24.12.2021
4708 Clouds 10 1005 71 10000 2.24 283 10:31 24.12.2021
4709 Clear 9 1006 75 10000 2.24 205 08:28 24.12.2021
4710 Clouds 8 1006 76 10000 3.13 268 07:57 24.12.2021
4711 Rain 7 1006 80 10000 1.34 321 06:18 24.12.2021
4712 Rain 1 1009 83 5000 4.12 140 00:19 24.12.2021
4713 Snow 0 1011 83 10000 0.45 215 23:33 23.12.2021
4714 Snow 0 1012 80 10000 0.45 9 22:44 23.12.2021
4715 Snow -1 1012 82 10000 0.89 131 22:21 23.12.2021
4716 Snow -1 1013 82 10000 0.89 257 21:34 23.12.2021
4717 Clouds -1 1014 84 10000 0.89 291 20:21 23.12.2021
4718 Clear -2 1014 84 10000 1.34 133 19:27 23.12.2021
4719 Clear -2 1016 83 10000 0.89 166 17:58 23.12.2021
4720 Clear -2 1016 82 10000 1.34 223 17:18 23.12.2021
4721 Clear -1 1016 81 10000 1.34 258 16:26 23.12.2021
4722 Clear -1 1017 82 10000 1.34 224 15:32 23.12.2021
4723 Clouds -1 1017 82 10000 1.34 144 14:56 23.12.2021
4724 Clouds -1 1018 82 10000 0.89 129 14:38 23.12.2021
4725 Clouds -1 1018 82 10000 1.34 171 13:25 23.12.2021
4726 Clouds -2 1021 83 10000 0.89 241 11:19 23.12.2021
4727 Clouds -3 1021 83 10000 1.34 121 09:53 23.12.2021
4728 Clouds -4 1022 87 10000 0.89 199 09:33 23.12.2021
4729 Clouds -4 1022 86 10000 0.89 197 08:25 23.12.2021
4730 Clear -4 1023 86 10000 0.45 198 05:23 23.12.2021
4731 Clouds -4 1025 87 10000 0.45 3 00:34 23.12.2021
4732 Clear -3 1026 86 10000 0.45 52 22:50 22.12.2021
4733 Clear -3 1027 86 10000 0.89 120 21:59 22.12.2021
4734 Clear -3 1027 86 10000 0.45 40 21:30 22.12.2021
4735 Clear -3 1027 86 10000 0.45 333 20:58 22.12.2021
4736 Clear -3 1027 86 10000 0.89 84 20:40 22.12.2021
4737 Clear -3 1027 85 10000 0.89 112 19:42 22.12.2021
4738 Clear -2 1028 83 10000 0.45 53 18:25 22.12.2021
4739 Clear -2 1028 82 10000 0.89 91 17:38 22.12.2021
4740 Clouds 0 1028 77 10000 0.45 5 15:50 22.12.2021
4741 Clouds 0 1028 74 10000 0.45 41 13:57 22.12.2021
4742 Clouds 0 1029 74 10000 0.45 332 12:53 22.12.2021
4743 Clouds 0 1029 75 10000 0.45 350 11:39 22.12.2021
4744 Clear -2 1029 78 10000 0.89 342 09:52 22.12.2021
4745 Clear -4 1029 82 10000 0.89 329 07:56 22.12.2021
4746 Clear -4 1028 82 10000 1.34 360 05:51 22.12.2021
4747 Clear -4 1028 81 10000 0.45 309 05:33 22.12.2021
4748 Clear -3 1028 81 10000 0.45 1 04:57 22.12.2021
4749 Clear -3 1028 81 10000 0.45 348 04:37 22.12.2021
4750 Clear -3 1027 81 10000 0.89 360 03:37 22.12.2021
4751 Clear -3 1027 81 10000 0.89 360 03:18 22.12.2021
4752 Clear -2 1026 78 10000 1.03 0 23:47 21.12.2021
4753 Clear -2 1026 78 10000 1.54 240 22:36 21.12.2021
4754 Clear -2 1026 76 10000 0.45 265 21:55 21.12.2021
4755 Clear -2 1026 76 10000 0.45 265 21:32 21.12.2021
4756 Clear -2 1026 75 10000 0.45 347 20:24 21.12.2021
4757 Clear -1 1025 76 10000 0.45 329 19:55 21.12.2021
4758 Clear -1 1025 75 10000 0.45 259 19:33 21.12.2021
4759 Clouds -1 1025 72 10000 0.45 336 18:23 21.12.2021
4760 Clouds 0 1025 72 10000 0.89 338 17:53 21.12.2021
4761 Clouds 0 1025 70 10000 0.89 352 16:47 21.12.2021
4762 Clouds 2 1025 60 10000 1.34 356 15:34 21.12.2021
4763 Clouds 3 1025 57 10000 1.34 358 13:55 21.12.2021
4764 Clouds 3 1025 55 10000 0.89 347 13:37 21.12.2021
4765 Clouds 3 1026 58 10000 2.24 333 12:25 21.12.2021
4766 Clouds 2 1026 67 10000 0.45 323 10:38 21.12.2021
4767 Clear 0 1026 71 10000 0.45 258 09:42 21.12.2021
4768 Clear -1 1026 74 10000 0.89 280 08:55 21.12.2021
4769 Clear -2 1026 75 10000 0.45 351 07:42 21.12.2021
4770 Clouds -2 1026 75 10000 0.89 352 07:19 21.12.2021
4771 Clear -1 1025 76 10000 0.89 299 03:24 21.12.2021
4772 Clear 0 1025 75 10000 2.24 332 01:20 21.12.2021
4773 Clear 1 1025 73 10000 3.13 326 23:54 20.12.2021
4774 Clear 1 1024 71 10000 2.68 13 22:35 20.12.2021
4775 Clear 1 1024 71 10000 2.68 346 21:51 20.12.2021
4776 Clear 1 1024 71 10000 2.24 338 21:24 20.12.2021
4777 Clear 2 1024 70 10000 1.34 315 20:51 20.12.2021
4778 Clouds 2 1024 65 10000 3.13 336 20:19 20.12.2021
4779 Clouds 2 1023 70 10000 4.92 310 19:36 20.12.2021
4780 Clouds 2 1024 69 10000 1.34 359 19:18 20.12.2021
4781 Clouds 2 1023 68 10000 2.68 280 18:30 20.12.2021
4782 Clouds 2 1023 68 10000 2.68 332 17:49 20.12.2021
4783 Clouds 2 1023 68 10000 2.68 332 17:49 20.12.2021
4784 Clouds 3 1023 67 10000 4.47 2 16:46 20.12.2021
4785 Clouds 3 1022 66 10000 3.13 331 15:57 20.12.2021
4786 Clouds 3 1022 67 10000 4.02 337 15:31 20.12.2021
4787 Clouds 3 1021 66 10000 2.24 265 13:31 20.12.2021
4788 Clouds 4 1021 66 10000 3.13 0 12:30 20.12.2021
4789 Clouds 3 1021 71 10000 3.13 323 10:36 20.12.2021
4790 Clouds 3 1021 71 10000 3.58 253 09:39 20.12.2021
4791 Clouds 2 1021 80 10000 4.47 331 08:49 20.12.2021
4792 Clouds 2 1020 81 10000 2.68 314 08:31 20.12.2021
4793 Clouds 2 1020 83 10000 2.24 336 07:32 20.12.2021
4794 Clouds 2 1019 85 10000 2.24 274 06:39 20.12.2021
4795 Clouds 4 1017 77 10000 0.89 314 00:20 20.12.2021
4796 Clouds 4 1017 76 10000 3.13 319 22:56 19.12.2021
4797 Clouds 4 1017 76 10000 2.24 287 22:32 19.12.2021
4798 Clouds 3 1017 77 10000 4.47 238 21:32 19.12.2021
4799 Clouds 3 1018 78 10000 1.34 273 20:42 19.12.2021
4800 Clouds 3 1018 78 10000 1.34 77 20:23 19.12.2021
4801 Clouds 3 1018 77 10000 2.24 314 19:41 19.12.2021
4802 Clouds 3 1019 77 10000 2.24 313 18:37 19.12.2021
4803 Clouds 3 1018 77 10000 1.34 325 17:53 19.12.2021
4804 Clouds 3 1018 77 10000 1.34 350 17:30 19.12.2021
4805 Clouds 4 1018 75 10000 1.34 315 16:41 19.12.2021
4806 Clouds 4 1019 73 10000 3.13 266 15:55 19.12.2021
4807 Clouds 4 1019 72 10000 1.34 256 15:24 19.12.2021
4808 Clouds 5 1019 71 10000 3.13 191 14:45 19.12.2021
4809 Clouds 5 1020 70 10000 2.68 307 13:32 19.12.2021
4810 Clouds 5 1020 70 10000 0.89 357 12:59 19.12.2021
4811 Clouds 5 1020 69 10000 1.79 352 12:29 19.12.2021
4812 Clouds 4 1020 72 10000 3.58 250 11:37 19.12.2021
4813 Clouds 4 1021 74 10000 5.81 276 10:49 19.12.2021
4814 Clouds 4 1021 75 10000 2.68 252 10:22 19.12.2021
4815 Clouds 2 1022 81 10000 3.13 248 08:50 19.12.2021
4816 Clouds 2 1024 83 10000 0.89 73 06:45 19.12.2021
4817 Clouds 2 1027 78 10000 0.89 301 01:51 19.12.2021
4818 Clear 2 1028 78 10000 0.89 98 00:54 19.12.2021
4819 Clear 3 1029 75 10000 0.45 78 23:18 18.12.2021
4820 Clear 4 1029 74 10000 0.89 318 22:24 18.12.2021
4821 Clear 4 1030 73 10000 1.34 211 21:44 18.12.2021
4822 Clear 4 1030 73 10000 1.34 211 21:22 18.12.2021
4823 Clear 4 1030 73 10000 0.89 19 20:26 18.12.2021
4824 Clear 4 1031 73 10000 0.89 336 19:35 18.12.2021
4825 Clear 4 1031 74 10000 1.34 276 18:24 18.12.2021
4826 Clear 4 1032 74 10000 0.89 237 17:49 18.12.2021
4827 Clear 4 1032 73 10000 0.45 359 16:48 18.12.2021
4828 Clear 5 1032 73 10000 1.34 9 16:20 18.12.2021
4829 Clouds 5 1033 72 10000 3.13 325 14:54 18.12.2021
4830 Clouds 5 1034 72 10000 0.89 350 13:45 18.12.2021
4831 Clouds 6 1035 71 10000 2.24 343 11:57 18.12.2021
4832 Clouds 5 1035 71 10000 2.24 343 11:57 18.12.2021
4833 Clouds 4 1036 77 10000 0.89 294 09:54 18.12.2021
4834 Clouds 4 1036 78 10000 0.89 228 09:32 18.12.2021
4835 Clouds 3 1036 81 10000 1.34 240 08:36 18.12.2021
4836 Clouds 3 1036 80 10000 2.24 336 07:24 18.12.2021
4837 Clouds 4 1034 75 10000 1.34 301 01:46 18.12.2021
4838 Clouds 4 1034 74 10000 3.58 12 23:51 17.12.2021
4839 Clouds 4 1034 75 10000 4.02 321 22:39 17.12.2021
4840 Clear 4 1033 74 10000 3.13 1 21:31 17.12.2021
4841 Clear 4 1034 75 10000 4.02 334 20:43 17.12.2021
4842 Clouds 4 1033 75 10000 2.24 335 19:57 17.12.2021
4843 Clouds 5 1033 75 10000 2.68 334 18:40 17.12.2021
4844 Clouds 5 1033 74 10000 4.47 341 17:59 17.12.2021
4845 Clouds 6 1032 73 10000 3.58 289 16:53 17.12.2021
4846 Clouds 6 1032 73 10000 4.47 328 16:28 17.12.2021
4847 Clouds 6 1032 71 10000 3.58 325 15:49 17.12.2021
4848 Clouds 7 1032 70 10000 4.02 319 14:43 17.12.2021
4849 Clouds 7 1032 69 10000 5.36 268 13:51 17.12.2021
4850 Clouds 7 1033 71 10000 2.24 288 12:36 17.12.2021
4851 Clouds 6 1034 76 10000 2.24 295 10:42 17.12.2021
4852 Clouds 6 1033 78 10000 2.24 336 09:47 17.12.2021
4853 Clouds 5 1033 82 10000 2.68 262 08:32 17.12.2021
4854 Clouds 4 1033 83 10000 1.34 279 07:38 17.12.2021
4855 Clouds 5 1032 84 10000 0.89 331 04:41 17.12.2021
4856 Clouds 6 1034 85 10000 1.79 261 00:57 17.12.2021
4857 Clouds 6 1035 87 10000 0.89 342 22:44 16.12.2021
4858 Clouds 6 1035 87 10000 1.34 326 22:22 16.12.2021
4859 Clouds 6 1034 87 10000 1.34 306 21:43 16.12.2021
4860 Clouds 6 1034 86 10000 2.68 272 20:40 16.12.2021
4861 Clouds 6 1034 86 10000 2.68 272 20:21 16.12.2021
4862 Clouds 5 1034 86 10000 1.79 235 19:27 16.12.2021
4863 Clouds 5 1034 87 10000 1.79 252 18:31 16.12.2021
4864 Clouds 5 1034 86 10000 0.89 267 17:36 16.12.2021
4865 Clouds 6 1033 84 10000 0.45 44 16:24 16.12.2021
4866 Drizzle 6 1033 83 10000 0.45 249 15:38 16.12.2021
4867 Clouds 6 1033 80 10000 2.24 321 13:45 16.12.2021
4868 Clouds 6 1033 82 10000 2.24 148 11:56 16.12.2021
4869 Clouds 5 1033 83 10000 2.24 306 11:18 16.12.2021
4870 Clouds 5 1034 86 10000 0.89 345 10:39 16.12.2021
4871 Drizzle 5 1034 86 10000 0.89 239 09:43 16.12.2021
4872 Clouds 5 1033 82 10000 1.34 261 06:23 16.12.2021
4873 Clouds 5 1031 81 10000 2.24 269 04:33 16.12.2021
4874 Clouds 5 1032 81 10000 1.79 327 23:47 15.12.2021
4875 Clouds 5 1032 83 10000 3.13 360 22:49 15.12.2021
4876 Clouds 5 1032 83 10000 2.68 360 22:21 15.12.2021
4877 Clouds 5 1032 83 10000 2.24 325 21:31 15.12.2021
4878 Clouds 6 1032 83 10000 1.79 315 20:41 15.12.2021
4879 Clouds 6 1033 83 10000 0.89 294 19:53 15.12.2021
4880 Clouds 6 1033 82 10000 0.89 313 19:18 15.12.2021
4881 Clouds 6 1033 82 10000 0.89 292 18:19 15.12.2021
4882 Clouds 6 1032 82 10000 0.89 356 17:45 15.12.2021
4883 Clouds 6 1032 82 10000 0.89 356 17:21 15.12.2021
4884 Clouds 6 1032 82 10000 0.89 287 15:48 15.12.2021
4885 Clouds 7 1031 81 10000 0.89 320 15:29 15.12.2021
4886 Clouds 7 1031 82 10000 0.45 326 14:44 15.12.2021
4887 Clouds 7 1031 83 10000 1.34 28 13:28 15.12.2021
4888 Clouds 6 1033 85 10000 0.89 328 11:41 15.12.2021
4889 Clouds 6 1033 85 10000 0.89 333 10:18 15.12.2021
4890 Clouds 5 1031 86 10000 1.34 5 07:55 15.12.2021
4891 Clouds 5 1030 87 10000 1.34 319 05:51 15.12.2021
4892 Clouds 5 1029 89 10000 0.45 257 00:32 15.12.2021
4893 Clouds 5 1029 90 10000 0.89 18 23:21 14.12.2021
4894 Drizzle 5 1029 88 6000 0.89 352 22:42 14.12.2021
4895 Drizzle 6 1029 88 5000 2.24 316 21:38 14.12.2021
4896 Drizzle 6 1028 88 6000 0.45 315 20:21 14.12.2021
4897 Clouds 6 1028 88 9000 0.45 313 19:26 14.12.2021
4898 Clouds 6 1028 87 10000 0.45 329 18:38 14.12.2021
4899 Clouds 6 1028 88 10000 1.34 281 17:53 14.12.2021
4900 Clouds 7 1027 87 9000 0.89 10 16:43 14.12.2021
4901 Clouds 7 1027 87 9000 0.89 10 16:43 14.12.2021
4902 Clouds 7 1027 87 9000 0.45 326 16:18 14.12.2021
4903 Clouds 8 1027 86 9000 0.45 20 13:59 14.12.2021
4904 Clouds 8 1027 85 8000 0.45 331 12:48 14.12.2021
4905 Drizzle 7 1028 87 5000 1.79 257 11:25 14.12.2021
4906 Drizzle 7 1027 86 5000 0.89 275 10:59 14.12.2021
4907 Drizzle 6 1028 88 3900 0.45 302 09:54 14.12.2021
4908 Drizzle 6 1028 90 2400 0.89 287 08:49 14.12.2021
4909 Drizzle 5 1028 90 3800 0.45 0 08:21 14.12.2021
4910 Drizzle 5 1028 90 4500 0.89 359 07:23 14.12.2021
4911 Clouds 5 1028 88 10000 0.45 204 23:51 13.12.2021
4912 Clouds 5 1028 88 10000 0.89 317 22:24 13.12.2021
4913 Clouds 5 1028 87 10000 0.89 312 21:39 13.12.2021
4914 Clouds 5 1029 87 10000 0.89 340 20:51 13.12.2021
4915 Clouds 5 1029 87 10000 0.89 340 20:51 13.12.2021
4916 Clouds 5 1028 87 10000 0.89 340 20:21 13.12.2021
4917 Clouds 5 1028 87 10000 0.45 286 19:49 13.12.2021
4918 Clouds 5 1028 87 10000 0.45 286 19:49 13.12.2021
4919 Clouds 5 1027 88 10000 1.34 148 17:27 13.12.2021
4920 Clouds 5 1027 88 10000 0.89 2 16:43 13.12.2021
4921 Clouds 5 1027 89 10000 0.45 306 15:43 13.12.2021
4922 Clouds 5 1026 89 10000 1.34 259 14:42 13.12.2021
4923 Clouds 5 1026 88 10000 0.89 309 13:37 13.12.2021
4924 Clouds 5 1026 87 10000 0.89 319 12:40 13.12.2021
4925 Clouds 5 1027 86 10000 1.34 324 11:52 13.12.2021
4926 Clouds 5 1027 87 10000 0.45 15 11:29 13.12.2021
4927 Clouds 4 1027 88 10000 2.68 355 10:36 13.12.2021
4928 Clouds 4 1026 89 10000 0.45 289 08:43 13.12.2021
4929 Clouds 3 1025 89 10000 0.89 261 06:55 13.12.2021
4930 Clouds 3 1025 87 10000 0.45 326 05:19 13.12.2021
4931 Clouds 3 1025 81 10000 2.24 328 00:27 13.12.2021
4932 Clear 3 1026 72 10000 0.89 308 21:59 12.12.2021
4933 Clear 3 1026 77 10000 0.89 301 21:24 12.12.2021
4934 Clear 2 1026 79 10000 2.24 6 19:35 12.12.2021
4935 Clear 2 1026 78 10000 0.89 305 18:22 12.12.2021
4936 Clouds 3 1026 77 10000 1.34 272 16:32 12.12.2021
4937 Clouds 3 1026 75 10000 0.89 330 15:58 12.12.2021
4938 Clouds 3 1026 74 10000 1.34 326 15:28 12.12.2021
4939 Clouds 4 1026 73 10000 1.34 307 14:51 12.12.2021
4940 Clouds 4 1025 73 10000 1.34 332 14:18 12.12.2021
4941 Clouds 4 1026 74 10000 4.02 339 12:48 12.12.2021
4942 Clouds 3 1025 74 10000 2.68 318 11:59 12.12.2021
4943 Clouds 3 1025 74 10000 3.13 349 11:32 12.12.2021
4944 Clouds 2 1025 74 10000 3.13 275 10:44 12.12.2021
4945 Clouds 2 1026 74 10000 2.24 289 10:20 12.12.2021
4946 Clouds 2 1025 76 10000 1.34 278 08:48 12.12.2021
4947 Clouds 1 1025 75 10000 3.13 283 07:28 12.12.2021
4948 Snow 1 1024 74 10000 1.34 357 05:29 12.12.2021
4949 Clouds 1 1024 74 10000 1.34 288 04:51 12.12.2021
4950 Rain 2 1023 78 10000 3.13 314 01:26 12.12.2021
4951 Clouds 1 1023 79 10000 2.24 330 23:26 11.12.2021
4952 Rain 1 1022 81 10000 1.34 18 22:21 11.12.2021
4953 Rain 1 1021 83 10000 1.34 346 21:35 11.12.2021
4954 Rain 1 1020 87 8000 1.34 336 20:19 11.12.2021
4955 Rain 1 1019 88 6000 0.89 315 19:21 11.12.2021
4956 Rain 1 1018 87 6000 1.34 358 18:48 11.12.2021
4957 Snow 1 1017 87 5000 1.34 336 17:54 11.12.2021
4958 Rain 2 1016 86 10000 0.89 359 16:39 11.12.2021
4959 Rain 2 1015 86 10000 0.45 317 15:46 11.12.2021
4960 Clouds 2 1014 87 10000 0.89 325 14:46 11.12.2021
4961 Mist 2 1014 87 5000 0.45 329 12:41 11.12.2021
4962 Clouds 1 1013 87 8000 1.34 4 11:18 11.12.2021
4963 Mist 0 1012 90 4500 1.34 338 09:45 11.12.2021
4964 Mist 0 1009 92 5000 0.89 284 05:36 11.12.2021
4965 Clouds 0 1005 91 7000 0.45 314 00:50 11.12.2021
4966 Clouds 0 1004 90 9000 1.34 258 23:44 10.12.2021
4967 Clouds 0 1004 90 9000 2.24 148 23:18 10.12.2021
4968 Clouds 0 1003 90 10000 0.89 5 21:51 10.12.2021
4969 Clouds 0 1002 90 6000 1.34 140 20:35 10.12.2021
4970 Clouds -1 1002 89 10000 2.24 128 19:19 10.12.2021
4971 Clouds 0 1001 91 7000 1.34 272 17:54 10.12.2021
4972 Snow 0 1001 90 6000 2.24 132 16:55 10.12.2021
4973 Snow 0 1000 86 7000 0.89 308 15:47 10.12.2021
4974 Snow 1 1000 85 8000 0.89 108 15:29 10.12.2021
4975 Rain 1 1000 85 8000 1.34 178 14:57 10.12.2021
4976 Rain 1 1001 85 5000 4.02 169 13:50 10.12.2021
4977 Mist 1 1001 85 3500 0.89 205 13:20 10.12.2021
4978 Mist 1 1002 84 1300 2.68 194 12:23 10.12.2021
4979 Rain 2 1002 82 10000 0.45 356 11:27 10.12.2021
4980 Fog 0 1002 86 10000 0.45 112 09:54 10.12.2021
4981 Fog 0 1002 86 10000 0.45 112 09:54 10.12.2021
4982 Fog -1 1004 89 10000 0.45 114 08:23 10.12.2021
4983 Mist 0 1004 88 10000 0.45 325 05:56 10.12.2021
4984 Rain 1 1005 88 10000 1.34 289 02:47 10.12.2021
4985 Rain 1 1006 88 10000 0.89 344 23:44 09.12.2021
4986 Snow 1 1006 88 10000 0.45 225 22:59 09.12.2021
4987 Snow 1 1006 90 10000 0.89 250 22:24 09.12.2021
4988 Snow 1 1006 90 10000 1.34 318 21:49 09.12.2021
4989 Rain 1 1006 91 10000 0.45 291 20:41 09.12.2021
4990 Snow 0 1006 91 9000 0.89 266 20:20 09.12.2021
4991 Snow 0 1006 91 9000 1.34 336 19:21 09.12.2021
4992 Snow 0 1006 90 7000 0.45 301 18:35 09.12.2021
4993 Snow 0 1006 90 7000 0.89 330 17:51 09.12.2021
4994 Snow 0 1006 92 4800 0.89 329 17:25 09.12.2021
4995 Snow 0 1006 91 4800 0.45 308 17:25 09.12.2021
4996 Snow 0 1006 91 3100 0.89 313 16:53 09.12.2021
4997 Mist 0 1006 92 1900 0.45 325 15:32 09.12.2021
4998 Mist 1 1006 91 1700 0.45 336 14:46 09.12.2021
4999 Snow 1 1006 93 1800 1.54 10 13:19 09.12.2021
5000 Snow 1 1006 92 1300 0.45 276 12:37 09.12.2021
5001 Snow 0 1006 92 2300 1.34 82 11:21 09.12.2021
5002 Snow 0 1006 92 1400 1.34 360 08:54 09.12.2021
5003 Snow 0 1006 91 1400 1.79 360 06:21 09.12.2021
5004 Snow 1 1005 85 8000 1.79 124 02:58 09.12.2021
5005 Snow 2 1005 81 10000 3.58 305 23:43 08.12.2021
5006 Snow 2 1005 81 10000 2.24 243 23:21 08.12.2021
5007 Snow 2 1005 81 10000 0.89 293 22:47 08.12.2021
5008 Snow 2 1004 80 10000 3.13 170 21:40 08.12.2021
5009 Clear 2 1004 80 10000 4.92 160 20:59 08.12.2021
5010 Clear 2 1004 78 10000 2.68 178 19:58 08.12.2021
5011 Clear 2 1004 79 10000 1.79 139 19:33 08.12.2021
5012 Clear 2 1004 78 10000 1.34 146 18:45 08.12.2021
5013 Clear 2 1004 77 10000 1.34 213 17:36 08.12.2021
5014 Clear 2 1004 77 10000 1.34 108 17:36 08.12.2021
5015 Clear 3 1004 74 10000 0.89 333 15:51 08.12.2021
5016 Rain 3 1004 73 10000 2.68 124 15:28 08.12.2021
5017 Clear 3 1004 72 10000 1.79 155 14:31 08.12.2021
5018 Clear 2 1006 78 10000 3.58 149 11:19 08.12.2021
5019 Clear 1 1006 81 10000 2.68 154 10:31 08.12.2021
5020 Clear -1 1007 86 10000 2.24 128 08:56 08.12.2021
5021 Clouds -2 1008 88 10000 0.89 334 07:25 08.12.2021
5022 Clouds -1 1010 88 7000 0.89 88 04:24 08.12.2021
5023 Clouds 1 1013 83 10000 0.89 140 23:34 07.12.2021
5024 Clouds 1 1013 84 10000 0.89 344 21:51 07.12.2021
5025 Clouds 2 1013 84 10000 0.45 8 21:23 07.12.2021
5026 Clouds 2 1014 85 10000 0.89 330 20:20 07.12.2021
5027 Clouds 2 1014 84 10000 1.34 0 18:43 07.12.2021
5028 Clouds 2 1014 83 10000 0.89 327 17:52 07.12.2021
5029 Clouds 3 1013 81 10000 0.45 322 17:19 07.12.2021
5030 Clouds 3 1013 80 10000 0.89 329 16:31 07.12.2021
5031 Clouds 3 1013 78 10000 0.89 351 15:33 07.12.2021
5032 Clouds 3 1013 77 10000 1.34 331 14:23 07.12.2021
5033 Clear 3 1013 74 10000 0.89 304 12:55 07.12.2021
5034 Clouds 3 1013 74 10000 0.45 330 11:29 07.12.2021
5035 Clouds 2 1013 76 10000 2.68 350 10:33 07.12.2021
5036 Clouds 1 1013 81 10000 0.45 326 08:39 07.12.2021
5037 Clouds 1 1012 80 10000 0.45 290 06:20 07.12.2021
5038 Clouds 1 1013 79 10000 0.89 313 05:37 07.12.2021
5039 Clouds 1 1013 82 10000 2.24 27 23:49 06.12.2021
5040 Clouds 2 1014 83 10000 1.34 352 22:57 06.12.2021
5041 Clouds 2 1014 83 10000 0.45 47 22:35 06.12.2021
5042 Clouds 2 1013 83 10000 0.45 330 21:51 06.12.2021
5043 Rain 2 1014 84 10000 0.89 319 20:34 06.12.2021
5044 Clouds 2 1014 83 10000 0.89 320 19:56 06.12.2021
5045 Clouds 2 1013 81 10000 4.02 330 19:21 06.12.2021
5046 Clouds 3 1013 80 10000 0.89 8 18:28 06.12.2021
5047 Clouds 3 1012 80 10000 1.79 338 17:40 06.12.2021
5048 Clouds 3 1012 78 10000 1.34 8 16:48 06.12.2021
5049 Clouds 4 1012 77 10000 1.34 34 15:41 06.12.2021
5050 Clouds 4 1011 81 10000 1.34 347 13:46 06.12.2021
5051 Clouds 4 1011 82 10000 1.34 304 12:40 06.12.2021
5052 Clouds 3 1011 78 10000 1.79 352 11:38 06.12.2021
5053 Clouds 2 1011 87 10000 0.45 307 09:20 06.12.2021
5054 Rain 2 1009 90 10000 0.45 317 06:43 06.12.2021
5055 Clouds 2 1007 89 10000 1.79 300 23:44 05.12.2021
5056 Clouds 2 1007 90 10000 0.45 318 21:52 05.12.2021
5057 Rain 2 1007 91 10000 0.89 324 21:24 05.12.2021
5058 Rain 3 1007 89 10000 1.34 319 20:19 05.12.2021
5059 Drizzle 3 1007 88 7000 0.45 339 19:36 05.12.2021
5060 Mist 3 1007 88 5000 0.45 337 19:18 05.12.2021
5061 Drizzle 3 1007 89 10000 0.45 319 18:20 05.12.2021
5062 Drizzle 3 1006 87 10000 0.45 316 17:48 05.12.2021
5063 Mist 3 1006 88 4000 0.89 348 16:50 05.12.2021
5064 Mist 3 1006 86 4300 1.34 311 16:27 05.12.2021
5065 Mist 3 1005 85 4400 0.45 296 15:49 05.12.2021
5066 Rain 4 1005 86 10000 0.89 306 14:43 05.12.2021
5067 Mist 4 1005 85 10000 0.89 185 14:25 05.12.2021
5068 Rain 4 1005 85 10000 0.45 238 13:22 05.12.2021
5069 Rain 4 1005 86 10000 0.89 259 12:40 05.12.2021
5070 Rain 4 1006 87 10000 0.45 316 12:18 05.12.2021
5071 Rain 4 1006 82 7000 1.34 315 11:34 05.12.2021
5072 Mist 4 1005 87 5000 0.89 244 10:18 05.12.2021
5073 Mist 3 1005 90 4600 0.45 329 08:29 05.12.2021
5074 Rain 2 1003 88 7000 0.89 132 04:56 05.12.2021
5075 Rain 1 1003 88 6000 1.34 139 00:48 05.12.2021
5076 Rain 1 1003 80 10000 1.34 134 22:18 04.12.2021
5077 Clouds 1 1003 73 10000 0.89 343 21:18 04.12.2021
5078 Clouds 1 1003 74 10000 2.68 196 20:27 04.12.2021
5079 Clouds 2 1003 71 10000 2.68 131 19:32 04.12.2021
5080 Clouds 2 1003 69 10000 3.13 123 18:22 04.12.2021
5081 Clouds 2 1003 71 10000 2.24 138 17:42 04.12.2021
5082 Rain 2 1003 72 10000 2.24 157 17:19 04.12.2021
5083 Clouds 2 1003 69 10000 1.34 159 16:42 04.12.2021
5084 Clouds 3 1003 68 10000 0.89 139 16:23 04.12.2021
5085 Rain 2 1005 73 10000 0.45 259 11:55 04.12.2021
5086 Rain 2 1006 73 10000 0.89 151 11:33 04.12.2021
5087 Snow 1 1006 76 10000 2.24 211 10:56 04.12.2021
5088 Snow 0 1007 78 10000 0.45 298 08:52 04.12.2021
5089 Clear -1 1008 76 10000 0.45 277 07:22 04.12.2021
5090 Clear -2 1010 74 10000 0.89 115 04:42 04.12.2021
5091 Clear -2 1013 78 10000 0.45 149 00:47 04.12.2021
5092 Clear -1 1015 78 10000 0.45 307 23:27 03.12.2021
5093 Clear -1 1015 76 10000 0.89 301 22:48 03.12.2021
5094 Clear 0 1016 76 10000 0.45 27 21:42 03.12.2021
5095 Clear 0 1016 75 10000 0.45 222 20:56 03.12.2021
5096 Clear 0 1016 75 10000 0.89 317 20:26 03.12.2021
5097 Clear 1 1016 75 10000 0.45 252 18:49 03.12.2021
5098 Clear 1 1016 73 10000 0.45 252 18:20 03.12.2021
5099 Clouds 3 1015 63 10000 0.45 309 16:43 03.12.2021
5100 Clouds 4 1014 66 10000 3.58 216 13:34 03.12.2021
5101 Clouds 5 1014 67 10000 2.24 273 12:20 03.12.2021
5102 Clouds 3 1014 73 10000 0.89 207 10:58 03.12.2021
5103 Clear 2 1012 75 10000 2.24 270 08:40 03.12.2021
5104 Clear 2 1011 75 10000 1.34 252 07:43 03.12.2021
5105 Clear 2 1010 74 10000 1.34 332 06:41 03.12.2021
5106 Clouds 4 1004 79 10000 1.34 318 00:49 03.12.2021
5107 Clouds 5 1003 77 10000 0.89 318 23:48 02.12.2021
5108 Clear 5 1002 77 10000 3.13 21 22:54 02.12.2021
5109 Rain 5 1001 76 10000 0.89 322 21:41 02.12.2021
5110 Clear 6 1001 75 10000 0.89 282 20:46 02.12.2021
5111 Clear 6 1000 73 10000 0.89 264 20:22 02.12.2021
5112 Clouds 6 1001 74 10000 0.89 333 18:50 02.12.2021
5113 Clouds 6 1000 73 10000 1.34 292 16:53 02.12.2021
5114 Clouds 7 1000 72 10000 2.24 279 15:41 02.12.2021
5115 Clouds 7 1000 71 10000 2.24 306 14:53 02.12.2021
5116 Clouds 7 1000 73 10000 0.45 300 13:39 02.12.2021
5117 Rain 8 1001 72 10000 0.89 284 12:46 02.12.2021
5118 Rain 8 1000 70 10000 0.45 295 11:45 02.12.2021
5119 Rain 8 1000 68 10000 0.45 148 09:27 02.12.2021
5120 Clouds 8 1000 69 10000 1.34 263 08:19 02.12.2021
5121 Clouds 9 998 69 10000 3.58 225 01:38 02.12.2021
5122 Clouds 9 998 71 10000 2.24 255 00:50 02.12.2021
5123 Clouds 7 999 81 10000 0.89 299 22:33 01.12.2021
5124 Clouds 6 999 83 10000 0.45 7 21:54 01.12.2021
5125 Clear 6 999 82 10000 0.89 115 20:35 01.12.2021
5126 Clear 6 999 81 10000 0.45 277 19:47 01.12.2021
5127 Clear 7 999 80 10000 0.45 174 18:55 01.12.2021
5128 Clear 7 1001 81 10000 0.89 16 17:39 01.12.2021
5129 Clear 7 1000 81 10000 0.89 123 16:38 01.12.2021
5130 Clear 8 1003 79 10000 0.89 328 14:48 01.12.2021
5131 Clear 8 1003 80 10000 1.34 211 13:38 01.12.2021
5132 Rain 8 1006 81 10000 1.79 258 11:34 01.12.2021
5133 Rain 7 1006 82 10000 1.79 240 10:41 01.12.2021
5134 Clouds 7 1007 79 10000 2.68 244 08:54 01.12.2021
5135 Clouds 7 1007 79 10000 3.58 283 08:26 01.12.2021
5136 Clouds 6 1008 81 10000 2.68 267 07:32 01.12.2021
5137 Clouds 6 1006 78 10000 4.02 229 04:20 01.12.2021
5138 Clouds 6 1007 78 10000 3.13 1 03:38 01.12.2021
5139 Clouds 5 1006 76 10000 3.13 200 00:48 01.12.2021
5140 Clouds 5 1006 76 10000 5.81 118 23:35 30.11.2021
5141 Clear 5 1005 75 10000 6.26 302 22:42 30.11.2021
5142 Clouds 4 1004 77 10000 3.58 178 20:53 30.11.2021
5143 Rain 4 1004 77 10000 3.58 324 20:34 30.11.2021
5144 Rain 4 1004 79 10000 3.58 306 19:51 30.11.2021
5145 Clouds 4 1004 78 10000 4.02 318 19:27 30.11.2021
5146 Rain 3 1004 80 10000 3.13 259 18:24 30.11.2021
5147 Rain 3 1004 75 10000 6.26 271 16:34 30.11.2021
5148 Clouds 3 1005 71 10000 4.47 214 14:35 30.11.2021
5149 Clouds 3 1006 69 10000 1.34 282 13:52 30.11.2021
5150 Clouds 3 1007 68 10000 3.58 236 13:24 30.11.2021
5151 Clouds 3 1007 68 10000 3.58 236 13:24 30.11.2021
5152 Clouds 4 1008 68 10000 3.13 137 12:44 30.11.2021
5153 Clouds 4 1010 70 10000 2.68 298 11:27 30.11.2021
5154 Clouds 3 1010 72 10000 1.34 319 10:53 30.11.2021
5155 Clouds 3 1011 74 10000 2.68 315 10:30 30.11.2021
5156 Clouds 2 1010 77 10000 1.34 231 08:51 30.11.2021
5157 Clouds 2 1011 79 10000 1.34 308 08:20 30.11.2021
5158 Clear 1 1011 79 10000 2.68 248 07:40 30.11.2021
5159 Clouds 1 1009 80 10000 0.45 337 01:58 30.11.2021
5160 Clouds 1 1009 80 10000 0.45 268 01:38 30.11.2021
5161 Clouds 1 1009 78 10000 1.34 316 23:57 29.11.2021
5162 Clouds 1 1009 79 10000 3.13 3 23:22 29.11.2021
5163 Clouds 2 1008 80 10000 0.89 269 22:52 29.11.2021
5164 Clouds 2 1008 79 10000 0.89 288 22:32 29.11.2021
5165 Clouds 2 1008 81 10000 1.79 271 21:23 29.11.2021
5166 Clouds 2 1007 81 10000 2.68 274 20:57 29.11.2021
5167 Clouds 2 1007 80 10000 1.34 3 20:29 29.11.2021
5168 Snow 2 1006 80 10000 1.34 3 19:54 29.11.2021
5169 Clouds 1 1006 80 10000 0.89 292 19:33 29.11.2021
5170 Clouds 1 1007 78 10000 5.56 291 18:48 29.11.2021
5171 Clouds 1 1006 79 10000 5.71 295 17:49 29.11.2021
5172 Clouds 1 1006 81 10000 5.61 294 17:18 29.11.2021
5173 Clouds 1 1005 81 10000 5.43 288 16:29 29.11.2021
5174 Clouds 1 1005 81 10000 5.43 288 15:45 29.11.2021
5175 Clouds 2 1004 78 10000 5.45 296 14:42 29.11.2021
5176 Clouds 2 1003 78 10000 5.47 299 13:32 29.11.2021
5177 Clouds 2 1002 78 10000 5.61 298 12:28 29.11.2021
5178 Clouds 2 1002 78 10000 5.61 298 11:35 29.11.2021
5179 Clouds 1 1002 82 10000 5.31 295 10:41 29.11.2021
5180 Clouds 1 999 75 10000 7.2 300 09:25 29.11.2021
5181 Clouds 1 997 80 10000 6.17 310 06:20 29.11.2021
5182 Clouds 1 996 86 10000 5.14 310 01:40 29.11.2021
5183 Clouds 1 996 86 10000 4.63 310 00:40 29.11.2021
5184 Clouds 2 996 80 10000 5.14 320 23:44 28.11.2021
5185 Clouds 2 996 80 10000 5.66 320 22:49 28.11.2021
5186 Clouds 2 996 80 10000 5.14 310 21:47 28.11.2021
5187 Clouds 2 996 80 10000 6.17 300 21:20 28.11.2021
5188 Clouds 2 995 80 10000 6.17 300 20:23 28.11.2021
5189 Clouds 2 995 87 10000 5.66 310 18:52 28.11.2021
5190 Clouds 2 995 87 10000 4.63 300 18:32 28.11.2021
5191 Clouds 2 994 87 10000 5.14 310 17:54 28.11.2021
5192 Clouds 2 995 87 10000 3.6 300 17:31 28.11.2021
5193 Clouds 2 995 87 10000 5.66 300 16:37 28.11.2021
5194 Clouds 2 995 87 10000 4.12 310 16:18 28.11.2021
5195 Clouds 3 995 87 10000 2.06 300 15:31 28.11.2021
5196 Clouds 2 994 93 10000 2.06 330 14:44 28.11.2021
5197 Clouds 1 995 93 10000 2.06 260 13:18 28.11.2021
5198 Clouds 1 995 93 10000 2.57 310 12:46 28.11.2021
5199 Snow 0 995 100 2500 3.09 310 10:58 28.11.2021
5200 Snow 0 995 100 3900 3.6 290 10:21 28.11.2021
5201 Snow 0 995 100 3100 2.06 300 09:37 28.11.2021
5202 Snow 0 995 100 1900 0.51 0 07:32 28.11.2021
5203 Clouds 1 998 93 7000 1.54 140 23:58 27.11.2021
5204 Clouds 1 998 93 8000 1.03 0 20:57 27.11.2021
5205 Clouds 1 998 93 7000 0.51 0 19:23 27.11.2021
5206 Clouds 1 996 93 10000 3.6 120 17:27 27.11.2021
5207 Clouds 2 996 93 10000 2.57 110 15:57 27.11.2021
5208 Clouds 2 996 93 10000 4.12 120 13:58 27.11.2021
5209 Clouds 2 996 93 10000 4.12 140 12:57 27.11.2021
5210 Clouds 2 996 93 10000 4.63 140 10:52 27.11.2021
5211 Rain 1 996 93 10000 3.6 150 09:53 27.11.2021
5212 Snow 1 996 86 10000 4.63 150 08:43 27.11.2021
5213 Clear -1 996 93 10000 2.57 180 06:34 27.11.2021
5214 Clear 1 996 86 10000 2.57 250 01:58 27.11.2021
5215 Clouds 1 996 86 10000 5.14 290 23:38 26.11.2021
5216 Clouds 1 996 86 10000 7.72 280 22:25 26.11.2021
5217 Clouds 1 996 86 10000 6.69 290 21:38 26.11.2021
5218 Clouds 1 996 86 10000 6.69 290 21:18 26.11.2021
5219 Snow 1 996 86 10000 5.66 290 20:30 26.11.2021
5220 Snow 0 995 100 6000 5.66 290 19:54 26.11.2021
5221 Snow 0 996 100 5000 5.66 300 18:43 26.11.2021
5222 Snow 0 996 100 3500 6.17 290 17:24 26.11.2021
5223 Snow 0 996 100 3500 6.17 290 17:24 26.11.2021
5224 Snow 0 996 100 1500 5.66 290 16:29 26.11.2021
5225 Snow 0 997 100 1200 5.66 300 14:25 26.11.2021
5226 Snow 0 999 92 1500 0.45 319 13:31 26.11.2021
5227 Rain 1 1001 91 4000 0.45 272 10:43 26.11.2021
5228 Rain 1 1002 91 4000 0.89 265 09:41 26.11.2021
5229 Rain 1 1002 89 2500 0.45 315 08:49 26.11.2021
5230 Snow 1 1003 89 2800 0.45 301 08:19 26.11.2021
5231 Rain 1 1003 87 5000 0.45 318 06:29 26.11.2021
5232 Rain 1 1003 87 5000 0.45 318 06:29 26.11.2021
5233 Rain 1 1005 86 5000 1.34 333 04:52 26.11.2021
5234 Snow 1 1006 85 6000 1.79 333 03:32 26.11.2021
5235 Mist 1 1008 84 5000 0.45 328 23:30 25.11.2021
5236 Mist 1 1009 85 4400 0.89 330 22:19 25.11.2021
5237 Clouds 2 1008 85 6000 0.45 329 20:41 25.11.2021
5238 Clouds 2 1009 84 8000 0.89 345 19:21 25.11.2021
5239 Clear 2 1008 81 10000 0.45 2 18:25 25.11.2021
5240 Clear 3 1008 79 10000 0.45 328 17:27 25.11.2021
5241 Clear 3 1008 78 10000 0.45 336 16:44 25.11.2021
5242 Clear 4 1009 74 10000 0.89 331 15:58 25.11.2021
5243 Clear 6 1009 71 10000 1.34 321 14:30 25.11.2021
5244 Clouds 6 1010 71 10000 2.24 119 12:55 25.11.2021
5245 Clouds 5 1011 72 10000 2.24 123 11:56 25.11.2021
5246 Clouds 4 1012 78 10000 1.34 112 10:43 25.11.2021
5247 Clouds 1 1014 85 10000 1.34 137 08:21 25.11.2021
5248 Clear 1 1016 83 10000 2.68 207 02:58 25.11.2021
5249 Clear 1 1017 83 10000 1.34 122 00:37 25.11.2021
5250 Clouds 2 1018 82 10000 2.68 203 22:33 24.11.2021
5251 Clouds 2 1019 82 10000 2.68 182 21:48 24.11.2021
5252 Clouds 2 1019 82 10000 1.34 243 21:22 24.11.2021
5253 Clouds 2 1020 82 10000 1.34 208 20:27 24.11.2021
5254 Clouds 2 1020 82 10000 1.34 114 19:40 24.11.2021
5255 Clouds 3 1021 80 10000 0.45 81 18:19 24.11.2021
5256 Clouds 4 1022 76 10000 0.45 104 16:47 24.11.2021
5257 Clouds 6 1023 71 10000 0.45 99 15:21 24.11.2021
5258 Clouds 6 1023 70 10000 1.79 155 14:30 24.11.2021
5259 Clouds 7 1024 70 10000 0.45 333 13:43 24.11.2021
5260 Clouds 5 1026 77 10000 0.45 271 11:36 24.11.2021
5261 Clouds 5 1026 79 10000 0.45 79 11:18 24.11.2021
5262 Clouds 4 1026 82 10000 0.45 86 10:36 24.11.2021
5263 Fog 1 1027 86 10000 2.06 170 09:35 24.11.2021
5264 Clouds 0 1028 85 10000 0.45 334 07:41 24.11.2021
5265 Clear -1 1028 86 10000 3.09 170 05:41 24.11.2021
5266 Clear 0 1027 84 10000 0.45 332 03:44 24.11.2021
5267 Clear 1 1029 83 10000 0.89 319 23:35 23.11.2021
5268 Clear 1 1029 82 10000 0.45 332 22:39 23.11.2021
5269 Clear 1 1029 81 10000 1.34 360 21:45 23.11.2021
5270 Clear 2 1029 79 10000 0.89 348 20:36 23.11.2021
5271 Clear 2 1028 77 10000 0.45 269 19:36 23.11.2021
5272 Clear 2 1028 75 10000 0.45 316 18:35 23.11.2021
5273 Clear 3 1028 74 10000 0.45 320 17:57 23.11.2021
5274 Clear 4 1027 69 10000 0.45 334 16:37 23.11.2021
5275 Clouds 6 1027 62 10000 1.34 301 15:27 23.11.2021
5276 Clouds 6 1027 61 10000 0.89 320 14:56 23.11.2021
5277 Clouds 6 1028 62 10000 1.79 318 13:29 23.11.2021
5278 Clouds 4 1029 70 10000 0.89 67 10:40 23.11.2021
5279 Clear 4 1028 74 10000 1.34 324 09:48 23.11.2021
5280 Clouds 2 1028 80 10000 1.79 330 08:43 23.11.2021
5281 Clouds 3 1027 82 10000 0.89 321 05:25 23.11.2021
5282 Clouds 4 1026 83 10000 2.68 327 03:37 23.11.2021
5283 Clouds 5 1024 84 10000 2.24 353 23:43 22.11.2021
5284 Clouds 5 1024 85 10000 2.68 54 23:20 22.11.2021
5285 Clouds 6 1023 85 10000 3.13 343 22:32 22.11.2021
5286 Clouds 6 1023 86 10000 0.89 338 21:45 22.11.2021
5287 Clouds 6 1023 87 10000 1.34 327 21:21 22.11.2021
5288 Clouds 6 1022 88 10000 2.24 326 20:49 22.11.2021
5289 Clouds 6 1022 88 10000 2.24 326 20:49 22.11.2021
5290 Clouds 6 1022 89 10000 0.45 316 19:26 22.11.2021
5291 Rain 6 1021 89 10000 0.89 326 18:50 22.11.2021
5292 Clouds 6 1021 88 10000 0.45 321 18:31 22.11.2021
5293 Clouds 6 1020 88 10000 0.45 320 16:50 22.11.2021
5294 Drizzle 6 1019 85 10000 0.89 307 15:42 22.11.2021
5295 Clouds 7 1018 77 10000 1.34 346 12:56 22.11.2021
5296 Clouds 6 1017 78 10000 1.34 309 11:39 22.11.2021
5297 Clouds 6 1017 78 10000 2.68 336 10:36 22.11.2021
5298 Clouds 6 1016 76 10000 0.89 276 08:46 22.11.2021
5299 Clouds 5 1016 77 10000 1.34 304 08:25 22.11.2021
5300 Clouds 5 1014 81 10000 0.89 346 02:31 22.11.2021
5301 Clouds 5 1013 81 10000 0.45 323 23:22 21.11.2021
5302 Clouds 5 1013 82 10000 0.45 335 22:46 21.11.2021
5303 Mist 5 1013 86 5000 0.45 351 21:40 21.11.2021
5304 Mist 5 1012 89 5000 0.45 328 20:41 21.11.2021
5305 Mist 5 1012 89 5000 0.89 336 19:45 21.11.2021
5306 Mist 5 1011 86 5000 1.03 110 17:59 21.11.2021
5307 Mist 5 1011 86 5000 1.03 110 17:37 21.11.2021
5308 Mist 5 1011 86 5000 0.45 0 17:37 21.11.2021
5309 Clear 9 1009 76 10000 0.56 153 15:22 21.11.2021
5310 Clear 9 1009 78 10000 0.45 67 14:43 21.11.2021
5311 Clouds 9 1010 78 10000 0.89 170 13:31 21.11.2021
5312 Clouds 9 1011 77 10000 1.34 183 12:32 21.11.2021
5313 Clouds 8 1012 78 8000 2.24 101 11:42 21.11.2021
5314 Clouds 7 1012 83 10000 1.34 182 10:20 21.11.2021
5315 Clouds 7 1013 84 10000 0.45 342 09:59 21.11.2021
5316 Clouds 5 1013 87 10000 0.45 306 08:35 21.11.2021
5317 Clouds 5 1014 86 10000 0.45 98 07:57 21.11.2021
5318 Clouds 5 1014 87 10000 0.89 321 07:39 21.11.2021
5319 Clouds 5 1015 87 10000 0.45 315 05:47 21.11.2021
5320 Clouds 4 1016 86 10000 0.45 0 04:37 21.11.2021
5321 Clear 5 1016 82 10000 1.79 360 03:18 21.11.2021
5322 Clear 5 1017 81 10000 0.45 272 02:48 21.11.2021
5323 Clear 6 1018 81 10000 0.45 328 00:53 21.11.2021
5324 Clear 6 1019 82 10000 0.89 304 23:41 20.11.2021
5325 Clouds 7 1020 79 10000 0.89 296 21:39 20.11.2021
5326 Clouds 7 1020 78 10000 0.45 287 20:50 20.11.2021
5327 Clouds 7 1021 77 10000 0.89 321 18:46 20.11.2021
5328 Clouds 7 1022 77 10000 0.89 262 18:26 20.11.2021
5329 Clouds 8 1022 74 10000 0.45 217 17:26 20.11.2021
5330 Clouds 9 1022 72 10000 0.45 331 16:42 20.11.2021
5331 Clouds 11 1024 66 10000 0.89 287 14:43 20.11.2021
5332 Clouds 11 1024 66 10000 0.45 252 14:23 20.11.2021
5333 Clouds 11 1026 67 10000 0.45 297 11:57 20.11.2021
5334 Clouds 11 1026 70 10000 0.89 293 10:35 20.11.2021
5335 Clouds 9 1026 74 10000 0.89 235 09:29 20.11.2021
5336 Clouds 8 1026 81 10000 1.34 249 07:22 20.11.2021
5337 Clouds 8 1027 80 10000 3.58 311 05:26 20.11.2021
5338 Clouds 8 1026 80 10000 0.45 323 04:50 20.11.2021
5339 Clouds 9 1027 80 10000 0.45 306 01:48 20.11.2021
5340 Clouds 9 1027 78 10000 1.34 279 00:40 20.11.2021
5341 Clouds 9 1027 76 10000 0.89 320 22:58 19.11.2021
5342 Clouds 9 1027 73 10000 2.68 335 21:58 19.11.2021
5343 Clear 9 1026 71 10000 2.68 6 20:58 19.11.2021
5344 Clear 9 1026 70 10000 3.13 304 20:36 19.11.2021
5345 Clear 9 1026 71 10000 2.68 274 19:50 19.11.2021
5346 Clear 9 1026 71 10000 0.89 302 18:54 19.11.2021
5347 Clear 9 1026 71 10000 1.34 195 18:22 19.11.2021
5348 Clear 9 1026 70 10000 1.34 199 17:26 19.11.2021
5349 Clear 10 1026 69 10000 2.24 176 15:51 19.11.2021
5350 Clear 11 1026 66 10000 2.68 32 13:28 19.11.2021
5351 Clouds 9 1027 68 10000 2.24 149 10:27 19.11.2021
5352 Clouds 9 1027 68 10000 2.24 149 10:27 19.11.2021
5353 Clouds 9 1027 69 10000 2.68 191 09:37 19.11.2021
5354 Clouds 9 1027 70 10000 1.34 299 08:24 19.11.2021
5355 Clouds 8 1026 72 10000 2.24 303 04:53 19.11.2021
5356 Clouds 8 1027 70 10000 2.68 311 02:35 19.11.2021
5357 Clouds 8 1029 73 10000 1.34 244 23:51 18.11.2021
5358 Clear 7 1029 77 10000 0.89 198 21:56 18.11.2021
5359 Clouds 7 1030 76 10000 0.89 262 20:49 18.11.2021
5360 Clouds 7 1030 75 10000 0.89 268 20:31 18.11.2021
5361 Clouds 7 1029 73 10000 0.89 318 19:55 18.11.2021
5362 Clouds 7 1029 74 10000 2.24 290 19:34 18.11.2021
5363 Clouds 7 1029 75 10000 1.79 243 18:34 18.11.2021
5364 Clouds 7 1029 75 10000 0.89 358 17:51 18.11.2021
5365 Clouds 8 1028 74 10000 0.89 263 16:45 18.11.2021
5366 Clouds 9 1029 69 10000 0.45 283 15:49 18.11.2021
5367 Clouds 9 1028 70 10000 0.89 352 13:59 18.11.2021
5368 Clouds 9 1029 70 10000 0.89 299 12:34 18.11.2021
5369 Clouds 9 1029 72 10000 0.89 0 11:43 18.11.2021
5370 Clouds 9 1029 72 10000 1.34 322 11:24 18.11.2021
5371 Clouds 7 1029 78 10000 2.68 262 09:59 18.11.2021
5372 Clouds 6 1028 82 10000 0.89 306 07:38 18.11.2021
5373 Clouds 6 1027 80 10000 1.34 273 05:59 18.11.2021
5374 Clouds 6 1027 80 10000 1.34 21 05:39 18.11.2021
5375 Clouds 7 1025 75 10000 2.24 332 01:24 18.11.2021
5376 Clouds 7 1025 75 10000 2.24 332 01:24 18.11.2021
5377 Clouds 7 1025 77 10000 2.24 204 23:25 17.11.2021
5378 Clouds 7 1025 77 10000 1.79 2 22:34 17.11.2021
5379 Clouds 7 1025 76 10000 1.34 322 21:55 17.11.2021
5380 Clouds 6 1025 78 10000 0.89 320 21:35 17.11.2021
5381 Clouds 7 1024 77 10000 1.34 272 19:27 17.11.2021
5382 Clouds 7 1023 78 10000 1.34 307 17:31 17.11.2021
5383 Clouds 7 1022 76 10000 0.45 323 15:23 17.11.2021
5384 Clouds 7 1023 78 10000 1.34 305 12:51 17.11.2021
5385 Clouds 7 1023 79 10000 0.89 250 12:25 17.11.2021
5386 Clouds 6 1023 83 10000 1.34 265 10:51 17.11.2021
5387 Clouds 6 1023 85 10000 0.45 244 09:29 17.11.2021
5388 Clouds 5 1022 87 10000 0.45 339 07:46 17.11.2021
5389 Clouds 5 1021 86 10000 0.45 311 06:42 17.11.2021
5390 Clouds 5 1021 85 10000 0.89 16 02:47 17.11.2021
5391 Clouds 6 1021 82 10000 0.45 292 23:46 16.11.2021
5392 Clouds 6 1021 80 10000 0.89 165 22:20 16.11.2021
5393 Clear 7 1022 76 10000 0.89 110 20:19 16.11.2021
5394 Clear 7 1022 76 10000 0.89 110 20:18 16.11.2021
5395 Clear 7 1022 75 10000 2.68 110 18:53 16.11.2021
5396 Clouds 8 1022 75 10000 0.89 133 18:30 16.11.2021
5397 Clouds 8 1023 74 10000 4.47 148 17:38 16.11.2021
5398 Clouds 8 1023 71 10000 2.24 172 16:37 16.11.2021
5399 Clouds 9 1023 68 10000 1.79 131 15:50 16.11.2021
5400 Clouds 10 1023 67 10000 4.02 139 15:26 16.11.2021
5401 Clouds 9 1025 77 10000 2.24 204 11:29 16.11.2021
5402 Clouds 8 1026 85 7000 3.13 143 09:46 16.11.2021
5403 Mist 6 1026 89 4700 2.24 187 08:27 16.11.2021
5404 Mist 6 1026 90 4300 0.45 62 07:32 16.11.2021
5405 Fog 7 1027 90 550 0.89 192 02:20 16.11.2021
5406 Mist 6 1028 89 5000 0.89 141 23:22 15.11.2021
5407 Mist 6 1028 90 5000 0.89 344 22:33 15.11.2021
5408 Clouds 6 1028 90 6000 0.45 232 21:53 15.11.2021
5409 Clouds 6 1028 90 6000 0.45 0 21:29 15.11.2021
5410 Clouds 6 1027 90 7000 0.45 117 19:49 15.11.2021
5411 Clouds 6 1027 90 6000 0.89 123 18:47 15.11.2021
5412 Clouds 6 1027 88 6000 0.89 52 16:54 15.11.2021
5413 Clouds 7 1027 85 9000 1.34 341 15:42 15.11.2021
5414 Clouds 8 1025 83 8000 1.34 105 15:24 15.11.2021
5415 Clouds 8 1025 83 10000 1.79 87 13:32 15.11.2021
5416 Clouds 7 1028 85 7000 0.45 326 11:53 15.11.2021
5417 Clouds 5 1027 87 9000 0.89 329 09:28 15.11.2021
5418 Clouds 5 1027 88 10000 0.45 357 07:55 15.11.2021
5419 Clouds 5 1026 87 10000 0.89 298 05:24 15.11.2021
5420 Clouds 5 1026 85 10000 0.89 325 00:18 15.11.2021
5421 Clouds 5 1026 87 10000 0.89 343 22:38 14.11.2021
5422 Clouds 5 1025 88 8000 1.34 339 20:32 14.11.2021
5423 Clouds 5 1025 88 10000 2.24 356 19:18 14.11.2021
5424 Clouds 5 1025 87 10000 0.89 11 18:54 14.11.2021
5425 Clouds 5 1025 87 10000 2.24 19 18:36 14.11.2021
5426 Clouds 5 1024 87 10000 1.34 331 18:18 14.11.2021
5427 Clouds 5 1024 88 10000 1.34 44 17:57 14.11.2021
5428 Clouds 5 1024 88 10000 2.24 14 17:39 14.11.2021
5429 Clouds 5 1024 87 10000 0.89 318 17:21 14.11.2021
5430 Clouds 6 1024 87 10000 2.24 349 16:49 14.11.2021
5431 Clouds 6 1023 87 10000 2.24 345 16:21 14.11.2021
5432 Clouds 6 1023 85 10000 1.34 342 15:46 14.11.2021
5433 Clouds 6 1023 85 10000 0.45 335 15:18 14.11.2021
5434 Clouds 6 1023 85 10000 0.45 328 14:32 14.11.2021
5435 Clouds 6 1023 85 10000 1.34 19 13:59 14.11.2021
5436 Clouds 6 1023 85 10000 0.89 87 13:40 14.11.2021
5437 Clouds 6 1023 85 10000 0.45 0 12:45 14.11.2021
5438 Clouds 6 1023 85 10000 0.45 32 12:18 14.11.2021
5439 Clouds 6 1023 87 10000 0.45 44 10:50 14.11.2021
5440 Clouds 6 1023 89 10000 0.89 71 10:27 14.11.2021
5441 Drizzle 5 1022 90 10000 0.89 92 08:57 14.11.2021
5442 Drizzle 5 1023 91 7000 0.45 358 08:23 14.11.2021
5443 Clouds 5 1020 90 9000 0.89 89 02:20 14.11.2021
5444 Clouds 5 1020 90 10000 0.89 121 22:27 13.11.2021
5445 Clouds 5 1020 90 10000 2.06 200 21:58 13.11.2021
5446 Clouds 5 1020 89 10000 0.45 121 21:27 13.11.2021
5447 Clouds 5 1019 90 10000 0.45 308 20:24 13.11.2021
5448 Clouds 5 1019 89 10000 0.45 262 18:48 13.11.2021
5449 Clouds 5 1019 88 10000 1.34 133 18:26 13.11.2021
5450 Clouds 5 1018 89 10000 0.45 294 16:48 13.11.2021
5451 Clouds 5 1018 88 10000 0.45 280 15:42 13.11.2021
5452 Clouds 6 1017 85 10000 2.57 160 14:36 13.11.2021
5453 Rain 7 1016 79 7000 3.09 160 13:46 13.11.2021
5454 Mist 6 1016 83 5000 2.57 150 12:40 13.11.2021
5455 Drizzle 6 1018 86 6000 3.09 120 11:45 13.11.2021
5456 Mist 5 1020 89 5000 3.09 150 10:48 13.11.2021
5457 Mist 4 1019 91 2700 0.89 5 10:29 13.11.2021
5458 Mist 4 1019 91 2800 1.34 126 09:42 13.11.2021
5459 Mist 4 1019 91 2800 0.89 242 09:42 13.11.2021
5460 Mist 3 1019 91 1500 2.68 137 09:18 13.11.2021
5461 Drizzle 4 1019 91 2000 0.89 140 08:40 13.11.2021
5462 Drizzle 2 1018 92 3600 1.34 120 06:55 13.11.2021
5463 Mist 2 1018 90 5000 1.34 142 04:34 13.11.2021
5464 Clouds 2 1018 90 6000 0.45 64 02:27 13.11.2021
5465 Mist 4 1019 89 5000 0.45 328 23:27 12.11.2021
5466 Clouds 5 1020 87 6000 0.45 9 21:52 12.11.2021
5467 Clouds 5 1020 86 6000 1.34 168 20:35 12.11.2021
5468 Clouds 6 1021 86 6000 0.89 212 19:31 12.11.2021
5469 Clouds 6 1021 85 7000 3.58 147 18:54 12.11.2021
5470 Clouds 6 1021 87 9000 2.68 127 17:36 12.11.2021
5471 Clouds 6 1021 87 10000 0.45 271 15:51 12.11.2021
5472 Clouds 7 1021 82 10000 0.45 240 13:26 12.11.2021
5473 Clouds 6 1024 85 10000 0.45 11 11:24 12.11.2021
5474 Clouds 6 1024 86 10000 1.34 124 11:24 12.11.2021
5475 Clouds 5 1024 88 10000 0.45 86 09:55 12.11.2021
5476 Drizzle 5 1025 91 9000 0.89 120 08:50 12.11.2021
5477 Drizzle 4 1024 91 7000 0.45 360 06:35 12.11.2021
5478 Clouds 5 1026 89 7000 0.45 339 23:55 11.11.2021
5479 Clouds 5 1026 88 7000 1.34 360 22:49 11.11.2021
5480 Clouds 5 1026 89 7000 1.34 251 21:57 11.11.2021
5481 Clouds 5 1026 89 7000 0.89 156 20:52 11.11.2021
5482 Clouds 5 1026 88 6000 0.89 108 19:48 11.11.2021
5483 Clouds 5 1027 88 6000 2.24 124 18:27 11.11.2021
5484 Clouds 6 1026 88 6000 0.89 291 17:41 11.11.2021
5485 Clouds 8 1023 79 7000 2.57 120 15:29 11.11.2021
5486 Clouds 8 1023 82 6000 3.6 130 14:39 11.11.2021
5487 Clouds 8 1023 81 6000 3.6 130 14:20 11.11.2021
5488 Mist 7 1023 84 5000 4.63 130 13:35 11.11.2021
5489 Mist 7 1024 77 3300 4.63 130 12:26 11.11.2021
5490 Mist 5 1026 88 5000 0.45 270 09:58 11.11.2021
5491 Mist 5 1026 88 4500 1.34 53 09:22 11.11.2021
5492 Clouds 5 1026 89 6000 0.89 229 06:55 11.11.2021
5493 Clouds 6 1026 83 10000 0.89 359 00:38 11.11.2021
5494 Clear 6 1027 80 10000 2.24 101 22:42 10.11.2021
5495 Clear 6 1027 82 10000 2.24 215 21:53 10.11.2021
5496 Clouds 6 1027 83 10000 4.02 126 20:55 10.11.2021
5497 Clouds 6 1027 83 10000 1.34 171 20:18 10.11.2021
5498 Clouds 6 1028 84 10000 3.13 149 19:39 10.11.2021
5499 Clear 8 1027 76 10000 0.45 84 17:22 10.11.2021
5500 Clear 10 1027 70 10000 0.45 323 15:47 10.11.2021
5501 Clear 11 1027 67 10000 1.34 164 14:25 10.11.2021
5502 Clouds 11 1028 66 10000 3.58 172 13:37 10.11.2021
5503 Clouds 11 1028 67 10000 4.02 143 12:24 10.11.2021
5504 Clouds 9 1029 74 10000 2.24 152 09:29 10.11.2021
5505 Clouds 7 1029 77 10000 2.68 247 08:42 10.11.2021
5506 Clouds 6 1029 82 10000 2.24 201 06:50 10.11.2021
5507 Clouds 6 1029 82 10000 2.68 133 05:58 10.11.2021
5508 Clear 6 1029 80 10000 1.34 194 04:58 10.11.2021
5509 Clear 8 1030 68 10000 1.34 159 22:29 09.11.2021
5510 Clear 8 1031 67 10000 1.34 324 20:50 09.11.2021
5511 Clear 8 1031 67 10000 2.68 195 19:36 09.11.2021
5512 Clear 8 1031 67 10000 1.34 124 18:58 09.11.2021
5513 Clear 9 1031 65 10000 0.89 146 17:22 09.11.2021
5514 Clouds 11 1031 58 10000 0.89 338 15:37 09.11.2021
5515 Clouds 11 1031 55 10000 0.45 43 13:53 09.11.2021
5516 Clouds 11 1031 59 10000 0.89 68 12:49 09.11.2021
5517 Clouds 11 1030 63 10000 1.34 108 11:33 09.11.2021
5518 Clouds 9 1031 70 10000 0.45 270 10:30 09.11.2021
5519 Clear 7 1030 75 10000 0.89 10 09:21 09.11.2021
5520 Clear 6 1029 79 10000 0.45 296 07:55 09.11.2021
5521 Clouds 6 1027 77 10000 0.89 308 03:45 09.11.2021
5522 Clouds 6 1026 75 10000 0.45 351 01:58 09.11.2021
5523 Clouds 6 1026 75 10000 1.34 253 01:36 09.11.2021
5524 Clear 6 1026 77 10000 0.45 266 23:34 08.11.2021
5525 Clear 6 1026 77 10000 0.45 330 22:47 08.11.2021
5526 Clouds 6 1025 77 10000 0.45 290 21:46 08.11.2021
5527 Clouds 6 1024 75 10000 0.45 306 20:36 08.11.2021
5528 Clouds 7 1024 72 10000 0.45 282 19:46 08.11.2021
5529 Clouds 8 1023 68 10000 1.34 7 17:48 08.11.2021
5530 Clouds 10 1022 61 10000 1.34 214 15:58 08.11.2021
5531 Clouds 11 1022 61 10000 1.34 313 14:57 08.11.2021
5532 Clouds 11 1022 60 10000 0.89 6 14:34 08.11.2021
5533 Clouds 11 1022 62 10000 1.34 355 13:22 08.11.2021
5534 Clouds 11 1023 63 10000 1.34 317 11:56 08.11.2021
5535 Clouds 10 1023 67 10000 0.89 348 10:50 08.11.2021
5536 Clouds 8 1022 76 10000 0.89 275 09:37 08.11.2021
5537 Clouds 8 1022 79 10000 1.34 255 08:52 08.11.2021
5538 Clear 7 1020 81 10000 0.89 258 07:27 08.11.2021
5539 Rain 7 1019 81 10000 2.24 271 03:42 08.11.2021
5540 Rain 8 1019 81 10000 0.89 305 03:22 08.11.2021
5541 Rain 8 1018 77 10000 1.34 241 23:43 07.11.2021
5542 Clear 8 1018 61 10000 0.89 336 21:42 07.11.2021
5543 Clear 8 1018 60 10000 0.45 300 20:51 07.11.2021
5544 Clear 8 1018 60 10000 0.45 291 19:22 07.11.2021
5545 Clear 8 1017 59 10000 1.34 254 17:49 07.11.2021
5546 Clear 9 1017 56 10000 0.89 284 16:49 07.11.2021
5547 Clear 11 1018 51 10000 1.34 247 15:44 07.11.2021
5548 Clear 11 1018 51 10000 1.34 227 14:28 07.11.2021
5549 Clouds 11 1019 54 10000 2.24 248 12:58 07.11.2021
5550 Clouds 10 1021 62 10000 1.34 334 11:42 07.11.2021
5551 Clouds 7 1022 79 10000 0.45 258 09:26 07.11.2021
5552 Clouds 4 1022 85 10000 0.45 0 06:46 07.11.2021
5553 Clear 4 1024 84 10000 0.89 331 02:32 07.11.2021
5554 Clear 6 1027 79 10000 0.89 130 23:22 06.11.2021
5555 Clear 6 1028 79 10000 0.45 0 22:42 06.11.2021
5556 Clear 6 1028 79 10000 0.45 310 21:32 06.11.2021
5557 Clear 6 1028 77 10000 0.89 155 20:50 06.11.2021
5558 Clear 6 1029 74 10000 0.45 82 18:56 06.11.2021
5559 Clear 9 1029 65 10000 0.45 45 16:44 06.11.2021
5560 Clouds 12 1029 57 10000 0.45 328 14:37 06.11.2021
5561 Clouds 12 1030 60 10000 0.45 353 13:38 06.11.2021
5562 Clouds 12 1029 60 10000 2.24 7 13:38 06.11.2021
5563 Clouds 11 1031 64 10000 0.45 27 11:25 06.11.2021
5564 Clear 7 1031 78 10000 0.45 353 09:22 06.11.2021
5565 Clouds 5 1030 79 10000 0.89 308 04:57 06.11.2021
5566 Clear 6 1028 76 10000 0.45 295 01:27 06.11.2021
5567 Clear 6 1028 73 10000 1.34 323 23:34 05.11.2021
5568 Clear 6 1028 73 10000 0.89 328 22:33 05.11.2021
5569 Clear 6 1027 72 10000 0.89 296 20:51 05.11.2021
5570 Clear 7 1026 70 10000 0.45 322 20:19 05.11.2021
5571 Clear 7 1026 68 10000 0.45 312 19:37 05.11.2021
5572 Clouds 8 1025 66 10000 0.45 320 18:39 05.11.2021
5573 Clouds 9 1024 63 10000 1.79 312 17:26 05.11.2021
5574 Clouds 11 1022 57 10000 0.89 294 15:20 05.11.2021
5575 Clouds 12 1022 57 10000 2.24 15 13:35 05.11.2021
5576 Clear 9 1021 65 10000 0.45 312 10:37 05.11.2021
5577 Clear 7 1020 73 10000 1.34 235 08:39 05.11.2021
5578 Clear 6 1019 75 10000 0.89 238 07:21 05.11.2021
5579 Clear 6 1017 74 10000 1.79 323 04:44 05.11.2021
5580 Clear 6 1016 72 10000 0.89 289 02:25 05.11.2021
5581 Clear 7 1016 69 10000 2.24 237 00:40 05.11.2021
5582 Clear 8 1014 68 10000 2.68 310 23:18 04.11.2021
5583 Clear 8 1014 67 10000 2.24 252 22:19 04.11.2021
5584 Clouds 8 1013 67 10000 1.34 256 21:32 04.11.2021
5585 Clouds 9 1012 67 10000 1.34 237 20:40 04.11.2021
5586 Clouds 9 1012 68 10000 1.79 217 20:20 04.11.2021
5587 Clouds 9 1012 67 10000 2.68 293 19:41 04.11.2021
5588 Clouds 9 1011 68 10000 2.24 229 18:44 04.11.2021
5589 Rain 9 1010 69 10000 2.24 269 17:48 04.11.2021
5590 Clouds 10 1008 65 10000 2.68 265 16:41 04.11.2021
5591 Clouds 11 1006 64 10000 0.89 352 14:28 04.11.2021
5592 Clouds 10 1005 70 10000 3.13 287 12:32 04.11.2021
5593 Clouds 8 1001 83 10000 3.58 95 09:31 04.11.2021
5594 Clouds 10 999 88 10000 2.68 274 08:30 04.11.2021
5595 Clouds 11 998 92 10000 4.47 167 07:34 04.11.2021
5596 Clouds 10 1003 93 4100 0.45 311 23:59 03.11.2021
5597 Rain 11 1004 92 4500 0.45 95 22:50 03.11.2021
5598 Rain 11 1005 90 7000 1.34 179 21:49 03.11.2021
5599 Rain 11 1005 89 10000 3.13 126 21:28 03.11.2021
5600 Clouds 11 1004 87 10000 0.45 323 20:35 03.11.2021
5601 Clouds 11 1005 86 10000 0.89 355 19:58 03.11.2021
5602 Rain 11 1004 85 10000 2.68 204 18:56 03.11.2021
5603 Rain 11 1004 85 10000 2.68 138 18:21 03.11.2021
5604 Rain 11 1004 84 10000 1.79 118 17:35 03.11.2021
5605 Clouds 11 1004 82 10000 1.34 148 16:25 03.11.2021
5606 Clouds 12 1004 81 10000 3.58 158 15:42 03.11.2021
5607 Clouds 12 1004 82 10000 0.89 204 13:55 03.11.2021
5608 Clouds 10 1006 87 10000 0.45 33 11:54 03.11.2021
5609 Clouds 9 1005 91 10000 1.34 297 11:25 03.11.2021
5610 Clouds 8 1006 91 10000 0.45 110 10:41 03.11.2021
5611 Clouds 6 1007 90 6000 0.89 144 09:30 03.11.2021
5612 Clouds 5 1007 90 9000 1.34 360 08:22 03.11.2021
5613 Fog 4 1007 89 700 0.89 34 07:39 03.11.2021
5614 Clear 4 1007 86 10000 1.54 180 04:45 03.11.2021
5615 Clear 5 1008 86 10000 3.6 170 02:28 03.11.2021
5616 Clear 5 1008 87 10000 0.89 269 23:47 02.11.2021
5617 Clear 6 1007 87 10000 0.45 318 22:35 02.11.2021
5618 Clear 6 1007 86 10000 0.45 247 21:25 02.11.2021
5619 Clear 7 1006 84 10000 0.45 257 20:33 02.11.2021
5620 Clear 7 1006 83 10000 1.34 360 19:51 02.11.2021
5621 Clear 7 1006 82 10000 0.45 282 18:59 02.11.2021
5622 Clouds 8 1005 80 10000 0.45 285 17:59 02.11.2021
5623 Clouds 8 1005 80 10000 0.89 288 17:38 02.11.2021
5624 Clouds 9 1004 78 10000 1.34 266 16:30 02.11.2021
5625 Clouds 11 1004 77 10000 2.24 272 15:30 02.11.2021
5626 Clouds 10 1004 80 10000 1.34 301 14:28 02.11.2021
5627 Clouds 9 1003 82 10000 0.89 256 13:27 02.11.2021
5628 Clouds 9 1004 85 10000 0.89 332 12:39 02.11.2021
5629 Clouds 8 1004 87 10000 0.45 359 11:33 02.11.2021
5630 Clouds 7 1004 87 10000 0.45 338 10:53 02.11.2021
5631 Rain 7 1004 87 10000 0.89 307 10:27 02.11.2021
5632 Rain 6 1004 88 10000 1.34 289 08:43 02.11.2021
5633 Rain 6 1003 89 10000 0.45 332 06:53 02.11.2021
5634 Rain 8 1002 89 10000 1.34 230 03:49 02.11.2021
5635 Rain 9 1003 90 4900 1.34 360 02:21 02.11.2021
5636 Rain 8 1004 86 5000 0.45 335 22:55 01.11.2021
5637 Clouds 9 1005 82 10000 0.89 324 21:23 01.11.2021
5638 Clouds 9 1005 82 8000 0.45 350 20:38 01.11.2021
5639 Clouds 8 1005 81 8000 0.89 329 19:55 01.11.2021
5640 Clouds 9 1005 80 9000 0.45 338 19:29 01.11.2021
5641 Clouds 10 1005 78 10000 0.45 332 18:21 01.11.2021
5642 Clear 11 1005 76 10000 1.34 302 17:21 01.11.2021
5643 Clear 11 1004 76 10000 0.45 337 16:50 01.11.2021
5644 Clear 13 1005 69 10000 0.45 307 15:47 01.11.2021
5645 Clear 15 1005 66 10000 0.89 127 15:21 01.11.2021
5646 Clear 15 1005 66 10000 0.89 127 15:21 01.11.2021
5647 Clear 14 1005 65 10000 0.45 0 14:42 01.11.2021
5648 Clear 14 1005 66 10000 2.24 150 14:20 01.11.2021
5649 Clear 14 1005 66 10000 1.34 312 13:25 01.11.2021
5650 Clouds 13 1006 70 10000 0.89 28 12:25 01.11.2021
5651 Clouds 10 1006 79 10000 2.24 133 10:33 01.11.2021
5652 Clouds 9 1007 83 10000 1.34 96 09:25 01.11.2021
5653 Clouds 7 1007 87 9000 0.45 223 07:49 01.11.2021
5654 Clouds 7 1007 87 8000 0.89 295 05:57 01.11.2021
5655 Clear 8 1008 85 9000 0.45 76 03:44 01.11.2021
5656 Clear 9 1009 81 10000 3.13 106 00:27 01.11.2021
5657 Clear 10 1011 78 10000 2.24 150 21:55 31.10.2021
5658 Clear 11 1011 75 10000 4.02 222 20:36 31.10.2021
5659 Clear 12 1012 72 10000 1.34 201 18:57 31.10.2021
5660 Clear 12 1012 72 10000 3.13 177 18:35 31.10.2021
5661 Clear 13 1013 68 10000 1.34 58 16:53 31.10.2021
5662 Clear 14 1013 67 10000 3.58 119 15:41 31.10.2021
5663 Clear 14 1014 68 10000 3.13 175 13:38 31.10.2021
5664 Clear 13 1015 70 10000 1.34 190 12:44 31.10.2021
5665 Clouds 12 1015 74 10000 3.13 156 11:38 31.10.2021
5666 Clouds 10 1016 78 9000 1.34 94 10:41 31.10.2021
5667 Clouds 7 1018 85 6000 0.45 28 09:20 31.10.2021
5668 Mist 5 1018 87 4000 0.45 325 06:59 31.10.2021
5669 Clear 8 1016 77 10000 0.45 95 00:48 31.10.2021
5670 Clear 9 1016 74 10000 0.45 4 22:36 30.10.2021
5671 Clear 10 1016 74 10000 0.89 296 21:34 30.10.2021
5672 Clear 10 1018 72 10000 0.89 302 20:21 30.10.2021
5673 Clear 11 1014 72 10000 3.13 191 18:36 30.10.2021
5674 Clear 13 1015 64 10000 1.34 151 16:53 30.10.2021
5675 Clear 13 1015 64 10000 2.68 241 16:53 30.10.2021
5676 Clear 14 1015 62 10000 2.24 177 14:43 30.10.2021
5677 Clear 13 1016 65 10000 1.34 301 13:39 30.10.2021
5678 Clear 13 1016 66 10000 0.89 350 13:21 30.10.2021
5679 Clear 11 1017 70 8000 0.45 67 11:51 30.10.2021
5680 Clear 10 1017 73 8000 0.45 86 11:32 30.10.2021
5681 Clear 8 1017 80 7000 0.89 181 10:24 30.10.2021
5682 Clear 6 1017 85 6000 1.34 333 08:48 30.10.2021
5683 Clear 6 1017 82 9000 2.24 81 06:26 30.10.2021
5684 Clear 6 1017 82 10000 0.45 228 05:39 30.10.2021
5685 Clear 9 1018 73 10000 0.45 27 00:43 30.10.2021
5686 Clear 10 1018 67 10000 1.34 26 22:37 29.10.2021
5687 Clear 10 1019 67 10000 0.89 11 21:52 29.10.2021
5688 Clear 11 1019 63 10000 1.34 171 20:45 29.10.2021
5689 Clear 11 1018 65 10000 1.34 82 19:50 29.10.2021
5690 Clear 12 1018 64 10000 1.34 289 18:32 29.10.2021
5691 Clear 13 1018 57 10000 1.34 96 16:51 29.10.2021
5692 Clear 15 1019 58 10000 2.24 159 14:33 29.10.2021
5693 Clear 12 1021 64 10000 3.13 196 11:43 29.10.2021
5694 Clear 10 1021 70 10000 0.45 207 10:35 29.10.2021
5695 Clouds 6 1021 79 9000 0.89 229 08:35 29.10.2021
5696 Clear 8 1022 76 10000 1.34 140 00:37 29.10.2021
5697 Clear 9 1023 73 10000 0.89 190 23:19 28.10.2021
5698 Clear 9 1023 72 10000 3.58 156 21:56 28.10.2021
5699 Clear 9 1023 71 10000 2.68 108 20:32 28.10.2021
5700 Clear 10 1023 69 10000 1.34 152 19:48 28.10.2021
5701 Clear 11 1023 63 10000 2.24 106 18:23 28.10.2021
5702 Haze 13 1023 59 10000 1.34 242 16:58 28.10.2021
5703 Clear 14 1024 56 10000 2.24 175 15:24 28.10.2021
5704 Clear 14 1025 62 10000 2.68 18 13:46 28.10.2021
5705 Clear 13 1025 65 10000 2.24 268 13:22 28.10.2021
5706 Clear 13 1025 68 10000 0.89 33 12:41 28.10.2021
5707 Clouds 10 1027 82 10000 1.34 268 10:57 28.10.2021
5708 Mist 7 1027 85 4900 0.89 161 09:39 28.10.2021
5709 Fog 6 1025 86 800 0.45 123 08:59 28.10.2021
5710 Fog 6 1025 87 800 0.89 100 08:34 28.10.2021
5711 Mist 5 1026 88 4000 0.45 265 07:20 28.10.2021
5712 Clear 8 1027 80 10000 0.45 360 23:59 27.10.2021
5713 Clear 8 1027 81 10000 0.45 186 22:31 27.10.2021
5714 Clear 9 1027 80 10000 0.45 316 21:33 27.10.2021
5715 Clear 9 1027 79 10000 0.45 360 20:53 27.10.2021
5716 Clear 10 1027 78 10000 0.45 360 20:33 27.10.2021
5717 Clear 10 1028 76 10000 0.45 328 19:41 27.10.2021
5718 Clear 11 1027 72 10000 0.89 360 18:53 27.10.2021
5719 Clouds 15 1027 63 10000 0.45 119 16:32 27.10.2021
5720 Clouds 16 1027 62 10000 0.45 152 15:34 27.10.2021
5721 Clouds 16 1027 63 10000 0.45 349 14:42 27.10.2021
5722 Clouds 14 1029 65 10000 0.45 337 12:33 27.10.2021
5723 Clear 11 1029 76 10000 0.89 108 10:58 27.10.2021
5724 Clouds 9 1029 82 9000 0.89 46 09:51 27.10.2021
5725 Mist 7 1028 84 3400 0.45 231 08:47 27.10.2021
5726 Fog 6 1028 88 6000 3.58 360 07:31 27.10.2021
5727 Clouds 8 1027 83 10000 1.79 235 02:39 27.10.2021
5728 Clouds 9 1027 82 10000 0.45 335 00:57 27.10.2021
5729 Clouds 9 1027 83 10000 0.45 280 00:30 27.10.2021
5730 Clear 8 1027 82 10000 3.58 260 23:43 26.10.2021
5731 Clear 8 1026 81 10000 0.89 237 22:39 26.10.2021
5732 Clear 8 1026 81 10000 0.45 333 21:59 26.10.2021
5733 Clear 8 1025 79 10000 0.51 0 20:51 26.10.2021
5734 Clear 9 1025 77 10000 0.45 0 19:32 26.10.2021
5735 Clear 10 1025 72 10000 0.45 20 18:52 26.10.2021
5736 Clear 12 1024 66 10000 0.45 13 16:57 26.10.2021
5737 Clear 13 1023 64 10000 0.45 355 14:56 26.10.2021
5738 Clear 10 1024 69 10000 0.45 28 11:49 26.10.2021
5739 Clear 9 1025 71 10000 1.34 360 10:42 26.10.2021
5740 Clear 3 1023 79 10000 0.45 360 07:51 26.10.2021
5741 Clear 3 1023 79 10000 0.89 360 07:21 26.10.2021
5742 Clear 8 1022 66 10000 1.34 160 23:51 25.10.2021
5743 Clear 9 1023 63 10000 2.24 74 22:55 25.10.2021
5744 Clear 9 1023 61 10000 2.68 130 22:21 25.10.2021
5745 Clear 9 1023 60 10000 2.68 148 21:39 25.10.2021
5746 Clear 9 1023 57 10000 3.13 148 20:19 25.10.2021
5747 Clear 10 1023 55 10000 2.24 152 19:26 25.10.2021
5748 Clear 10 1023 55 10000 3.58 95 18:59 25.10.2021
5749 Clear 11 1023 53 10000 1.34 30 18:22 25.10.2021
5750 Clear 13 1024 47 10000 3.58 150 16:27 25.10.2021
5751 Clear 14 1024 44 10000 3.13 163 14:36 25.10.2021
5752 Clear 13 1026 50 10000 3.13 176 12:31 25.10.2021
5753 Clear 9 1026 61 10000 4.47 135 10:25 25.10.2021
5754 Clear 6 1026 71 10000 2.24 167 08:37 25.10.2021
5755 Clear 6 1026 67 10000 3.13 93 06:26 25.10.2021
5756 Clear 7 1027 69 10000 3.13 206 02:42 25.10.2021
5757 Clear 8 1028 66 10000 2.24 169 00:47 25.10.2021
5758 Clear 8 1028 66 10000 2.68 74 23:47 24.10.2021
5759 Clear 8 1028 66 10000 2.68 74 23:47 24.10.2021
5760 Clear 8 1028 68 10000 1.79 135 22:56 24.10.2021
5761 Clear 8 1028 67 10000 4.02 210 22:36 24.10.2021
5762 Clear 8 1029 67 10000 0.45 54 22:18 24.10.2021
5763 Clear 8 1029 66 10000 0.89 161 20:46 24.10.2021
5764 Clear 8 1029 66 10000 0.89 51 20:27 24.10.2021
5765 Clear 9 1029 62 10000 0.45 45 18:53 24.10.2021
5766 Clear 11 1030 57 10000 0.89 336 17:58 24.10.2021
5767 Clear 12 1030 56 10000 0.89 300 17:29 24.10.2021
5768 Clear 12 1031 53 10000 1.34 125 15:47 24.10.2021
5769 Clear 12 1032 53 10000 3.13 108 13:58 24.10.2021
5770 Clear 11 1033 60 10000 1.34 55 12:41 24.10.2021
5771 Clear 9 1033 65 10000 0.89 120 11:43 24.10.2021
5772 Clear 8 1033 66 10000 0.45 31 10:47 24.10.2021
5773 Clear 7 1033 71 10000 1.34 116 09:54 24.10.2021
5774 Clear 4 1032 77 10000 0.89 345 05:35 24.10.2021
5775 Clear 6 1032 73 10000 0.45 332 00:44 24.10.2021
5776 Clear 6 1032 71 10000 0.45 64 23:34 23.10.2021
5777 Clear 8 1031 67 10000 0.89 340 21:56 23.10.2021
5778 Clear 8 1030 66 10000 0.89 312 19:53 23.10.2021
5779 Clouds 9 1029 64 10000 0.45 318 18:59 23.10.2021
5780 Clouds 10 1028 63 10000 0.45 350 18:21 23.10.2021
5781 Clouds 11 1028 60 10000 0.89 308 17:43 23.10.2021
5782 Clouds 12 1027 62 10000 1.34 234 16:21 23.10.2021
5783 Clouds 12 1027 59 10000 1.34 283 13:58 23.10.2021
5784 Clouds 8 1022 65 10000 3.13 315 03:33 23.10.2021
5785 Clear 9 1021 69 10000 2.24 263 23:59 22.10.2021
5786 Clear 9 1021 69 10000 0.89 327 22:49 22.10.2021
5787 Clouds 10 1019 66 10000 0.89 268 19:51 22.10.2021
5788 Clouds 10 1018 64 10000 2.24 294 18:40 22.10.2021
5789 Clouds 12 1018 60 10000 1.34 178 17:36 22.10.2021
5790 Clouds 13 1017 64 10000 1.34 197 15:25 22.10.2021
5791 Clouds 13 1018 66 10000 0.45 297 13:35 22.10.2021
5792 Clouds 13 1018 63 10000 1.34 254 11:18 22.10.2021
5793 Clouds 13 1018 65 10000 1.34 294 10:38 22.10.2021
5794 Clouds 12 1018 70 10000 1.34 226 09:44 22.10.2021
5795 Clouds 12 1016 71 10000 0.45 267 08:31 22.10.2021
5796 Clouds 11 1016 70 10000 0.45 283 07:22 22.10.2021
5797 Clear 11 1014 65 10000 1.34 309 02:56 22.10.2021
5798 Clouds 11 1013 65 10000 0.45 332 23:54 21.10.2021
5799 Clear 11 1013 62 10000 0.45 332 23:29 21.10.2021
5800 Clear 13 1012 54 10000 0.45 3 21:39 21.10.2021
5801 Clear 14 1011 54 10000 1.34 306 20:27 21.10.2021
5802 Clear 14 1011 53 10000 2.24 248 19:58 21.10.2021
5803 Clouds 15 1011 52 10000 1.34 40 19:28 21.10.2021
5804 Clear 15 1010 51 10000 1.34 48 18:45 21.10.2021
5805 Clear 16 1010 51 10000 2.68 240 17:54 21.10.2021
5806 Clear 16 1009 52 10000 4.02 340 17:33 21.10.2021
5807 Clear 17 1010 51 10000 4.02 216 15:35 21.10.2021
5808 Clear 17 1008 49 10000 7.6 263 14:58 21.10.2021
5809 Clear 17 1008 50 10000 5.36 292 14:37 21.10.2021
5810 Clear 17 1007 64 10000 6.71 311 12:51 21.10.2021
5811 -273 0 0 0 0 0 10:38 21.10.2021
5812 -273 0 0 0 0 0 10:37 21.10.2021
5813 Clear 14 1006 77 10000 1.79 319 10:37 21.10.2021
5814 Clear 9 1004 83 10000 0.89 358 08:21 21.10.2021
5815 Clear 9 1005 85 10000 4.12 120 07:23 21.10.2021
5816 Clear 11 1009 81 10000 0.89 341 03:24 21.10.2021
5817 Clear 12 1012 78 10000 0.45 339 23:25 20.10.2021
5818 Clear 13 1012 76 10000 0.45 341 21:51 20.10.2021
5819 Clear 14 1013 75 10000 0.89 332 21:29 20.10.2021
5820 Clear 14 1013 74 10000 0.89 360 20:49 20.10.2021
5821 Clear 14 1013 73 10000 0.45 360 20:28 20.10.2021
5822 Clear 15 1013 69 10000 0.45 191 19:40 20.10.2021
5823 Clear 16 1013 67 10000 1.34 193 18:53 20.10.2021
5824 Clear 17 1014 63 10000 1.34 18 17:41 20.10.2021
5825 Clear 19 1015 58 10000 0.45 296 15:26 20.10.2021
5826 Clear 13 1021 79 10000 0.89 69 10:25 20.10.2021
5827 Clear 10 1021 84 10000 0.45 14 08:37 20.10.2021
5828 Clear 12 1023 83 10000 0.45 360 02:59 20.10.2021
5829 Clear 12 1024 81 10000 1.54 360 00:43 20.10.2021
5830 Clear 12 1024 81 10000 0.45 329 23:59 19.10.2021
5831 Clear 12 1025 81 10000 3.6 160 21:43 19.10.2021
5832 Clear 11 1025 79 10000 2.06 150 20:54 19.10.2021
5833 Clear 11 1026 79 10000 0.45 343 20:22 19.10.2021
5834 Clear 11 1025 77 10000 0.45 286 19:41 19.10.2021
5835 Clear 12 1025 77 10000 0.45 131 18:53 19.10.2021
5836 Clear 12 1025 78 10000 0.45 34 18:53 19.10.2021
5837 Clear 14 1025 73 10000 0.89 360 17:58 19.10.2021
5838 Clear 16 1026 64 10000 0.45 272 15:38 19.10.2021
5839 Clear 15 1026 65 10000 0.45 335 15:19 19.10.2021
5840 Clear 15 1026 65 10000 0.89 222 14:23 19.10.2021
5841 Clear 14 1027 67 10000 0.89 98 13:29 19.10.2021
5842 Clear 11 1027 76 10000 0.45 336 11:32 19.10.2021
5843 Clear 10 1027 76 10000 0.45 336 11:32 19.10.2021
5844 Clear 8 1027 80 10000 2.06 140 10:19 19.10.2021
5845 Clear 7 1027 81 10000 0.45 0 08:58 19.10.2021
5846 Clear 6 1027 83 10000 0.45 347 06:34 19.10.2021
5847 Clear 6 1029 82 10000 3.09 170 00:24 19.10.2021
5848 Clear 7 1029 81 10000 3.09 170 23:50 18.10.2021
5849 Clear 7 1028 77 10000 0.45 360 23:19 18.10.2021
5850 Clear 7 1028 78 10000 0.89 360 22:53 18.10.2021
5851 Clear 8 1028 76 10000 1.34 360 21:19 18.10.2021
5852 Clear 8 1028 76 10000 0.45 344 20:41 18.10.2021
5853 Clear 9 1027 73 10000 0.45 47 19:53 18.10.2021
5854 Clear 10 1027 71 10000 0.45 302 19:30 18.10.2021
5855 Clear 10 1027 69 10000 0.51 0 18:54 18.10.2021
5856 Clouds 14 1027 55 10000 0.89 343 15:32 18.10.2021
5857 Clouds 15 1027 54 10000 0.45 90 14:26 18.10.2021
5858 Clear 11 1027 72 10000 0.89 331 10:43 18.10.2021
5859 Clear 8 1027 81 10000 0.89 360 09:30 18.10.2021
5860 Clouds 6 1024 85 10000 0.45 340 03:22 18.10.2021
5861 Clouds 7 1023 81 10000 0.89 23 23:37 17.10.2021
5862 Clouds 8 1022 81 10000 0.45 313 21:55 17.10.2021
5863 Clouds 8 1022 78 10000 0.45 25 21:18 17.10.2021
5864 Clouds 8 1022 79 10000 0.45 244 20:38 17.10.2021
5865 Clouds 9 1022 76 10000 0.45 26 19:43 17.10.2021
5866 Clouds 10 1022 75 10000 0.45 58 19:24 17.10.2021
5867 Clouds 13 1021 64 10000 0.45 127 17:34 17.10.2021
5868 Clouds 14 1021 59 10000 0.45 11 15:54 17.10.2021
5869 Clouds 14 1022 60 10000 0.45 276 14:32 17.10.2021
5870 Clouds 13 1022 62 10000 0.45 292 13:56 17.10.2021
5871 Clouds 12 1022 67 10000 1.34 348 12:35 17.10.2021
5872 Clouds 10 1023 75 10000 0.45 310 10:45 17.10.2021
5873 Clouds 8 1023 76 10000 0.45 75 09:48 17.10.2021
5874 Fog 4 1022 82 9000 0.45 354 07:42 17.10.2021
5875 Clear 6 1022 79 10000 2.06 170 00:56 17.10.2021
5876 Clear 6 1022 78 10000 0.45 202 00:27 17.10.2021
5877 Clouds 7 1022 76 10000 0.89 360 22:35 16.10.2021
5878 Clear 8 1022 75 10000 0.45 265 20:36 16.10.2021
5879 Clear 9 1022 74 10000 0.45 360 19:56 16.10.2021
5880 Clear 9 1022 74 10000 0.45 323 19:37 16.10.2021
5881 Clear 9 1022 72 10000 0.45 360 19:18 16.10.2021
5882 Clear 10 1021 68 10000 0.45 339 18:42 16.10.2021
5883 Clouds 11 1021 64 10000 0.45 339 18:20 16.10.2021
5884 Clouds 13 1021 58 10000 0.89 312 17:29 16.10.2021
5885 Clouds 14 1021 56 10000 1.34 326 15:39 16.10.2021
5886 Clouds 13 1022 65 10000 2.24 38 12:44 16.10.2021
5887 Clouds 11 1022 72 10000 2.24 328 10:57 16.10.2021
5888 Clouds 9 1022 77 10000 2.24 352 08:56 16.10.2021
5889 Clouds 10 1019 82 10000 0.45 282 01:36 16.10.2021
5890 Clouds 10 1018 82 10000 0.45 338 00:29 16.10.2021
5891 Clear 10 1018 83 10000 1.34 225 23:25 15.10.2021
5892 Clear 10 1018 81 10000 1.34 360 22:20 15.10.2021
5893 Clear 10 1018 79 10000 0.45 332 21:37 15.10.2021
5894 Clear 11 1018 76 10000 0.89 186 20:52 15.10.2021
5895 Clear 11 1018 74 10000 0.89 266 20:22 15.10.2021
5896 Clear 12 1018 71 10000 0.45 0 19:19 15.10.2021
5897 Clear 13 1018 66 10000 1.79 151 18:21 15.10.2021
5898 Clouds 16 1018 59 10000 0.45 234 15:46 15.10.2021
5899 Clouds 16 1019 60 10000 1.34 269 13:49 15.10.2021
5900 Clouds 14 1020 63 10000 3.13 239 11:52 15.10.2021
5901 Clouds 13 1021 67 10000 2.68 216 10:58 15.10.2021
5902 Clouds 12 1021 70 10000 1.34 152 10:19 15.10.2021
5903 Clouds 8 1021 81 10000 0.45 129 06:57 15.10.2021
5904 Clouds 10 1023 75 10000 2.24 6 02:31 15.10.2021
5905 Clouds 10 1024 76 10000 0.89 315 00:22 15.10.2021
5906 Clouds 9 1024 78 10000 0.45 302 22:54 14.10.2021
5907 Clouds 9 1024 80 10000 0.89 333 21:46 14.10.2021
5908 Clouds 9 1024 80 10000 0.89 304 21:19 14.10.2021
5909 Clouds 9 1024 81 10000 2.24 233 20:20 14.10.2021
5910 Clouds 9 1024 79 10000 1.79 287 19:42 14.10.2021
5911 Clouds 9 1024 76 10000 1.34 338 18:26 14.10.2021
5912 Clouds 10 1025 73 10000 0.89 237 16:57 14.10.2021
5913 Clouds 10 1025 73 10000 2.68 248 16:21 14.10.2021
5914 Clouds 11 1025 68 10000 0.45 237 14:44 14.10.2021
5915 Clouds 10 1024 69 10000 2.24 275 14:24 14.10.2021
5916 Clouds 11 1026 65 10000 1.34 223 12:35 14.10.2021
5917 Clouds 9 1026 73 10000 2.24 335 10:46 14.10.2021
5918 Clouds 4 1025 86 10000 0.89 289 07:45 14.10.2021
5919 Clouds 5 1025 83 10000 1.34 257 04:23 14.10.2021
5920 Clouds 6 1024 82 10000 0.45 239 00:34 14.10.2021
5921 Clear 7 1024 79 10000 2.24 340 22:32 13.10.2021
5922 Clear 7 1024 80 10000 0.89 333 21:35 13.10.2021
5923 Clouds 7 1024 80 10000 0.45 290 20:41 13.10.2021
5924 Clouds 7 1023 79 10000 0.45 332 19:20 13.10.2021
5925 Clouds 8 1022 79 10000 0.89 337 18:37 13.10.2021
5926 Rain 10 1021 71 10000 1.34 348 15:54 13.10.2021
5927 Rain 10 1019 66 10000 0.45 344 14:46 13.10.2021
5928 Clouds 10 1020 61 10000 4.02 342 14:23 13.10.2021
5929 Clouds 11 1020 61 10000 3.13 36 12:24 13.10.2021
5930 Clouds 9 1020 73 10000 1.34 357 11:36 13.10.2021
5931 Clouds 8 1020 79 10000 2.24 4 09:37 13.10.2021
5932 Clouds 6 1018 87 10000 0.89 354 07:50 13.10.2021
5933 Rain 8 1015 85 10000 2.24 336 02:58 13.10.2021
5934 Rain 8 1015 85 10000 1.34 15 02:19 13.10.2021
5935 Rain 9 1015 84 10000 0.89 312 23:33 12.10.2021
5936 Rain 9 1015 84 10000 1.34 274 22:50 12.10.2021
5937 Rain 9 1015 84 10000 1.34 274 22:50 12.10.2021
5938 Rain 9 1015 81 10000 0.45 316 22:26 12.10.2021
5939 Clouds 9 1015 80 10000 2.24 264 20:54 12.10.2021
5940 Clouds 9 1015 80 10000 1.34 289 20:30 12.10.2021
5941 Clouds 9 1015 80 10000 0.89 303 19:31 12.10.2021
5942 Clouds 10 1015 79 10000 1.79 283 18:24 12.10.2021
5943 Clouds 11 1015 75 10000 2.24 190 17:20 12.10.2021
5944 Clouds 11 1015 75 10000 1.34 270 16:20 12.10.2021
5945 -273 0 0 0 0 0 15:31 12.10.2021
5946 -273 0 0 0 0 0 15:31 12.10.2021
5947 Clouds 11 1016 76 10000 1.34 2 15:30 12.10.2021
5948 Clouds 12 1017 71 10000 2.24 322 13:46 12.10.2021
5949 Clouds 12 1018 72 10000 1.34 323 12:58 12.10.2021
5950 Clouds 11 1019 72 10000 0.89 258 11:22 12.10.2021
5951 Clouds 10 1019 78 10000 0.89 356 09:22 12.10.2021
5952 Clear 9 1018 82 10000 1.34 303 08:20 12.10.2021
5953 Clouds 8 1019 82 10000 0.45 305 06:44 12.10.2021
5954 Clear 9 1019 79 10000 0.45 324 04:38 12.10.2021
5955 Clouds 10 1020 75 10000 1.79 323 02:46 12.10.2021
5956 Clouds 10 1020 66 10000 0.89 281 23:46 11.10.2021
5957 Clear 10 1021 62 10000 0.89 345 23:28 11.10.2021
5958 Clear 10 1021 65 10000 1.34 300 22:31 11.10.2021
5959 Clear 10 1021 65 10000 0.89 275 21:20 11.10.2021
5960 Clear 11 1021 62 10000 0.89 323 19:48 11.10.2021
5961 Clear 12 1021 61 10000 2.68 260 19:23 11.10.2021
5962 Clear 12 1021 61 10000 1.34 207 18:23 11.10.2021
5963 Clear 14 1021 55 10000 1.34 359 16:40 11.10.2021
5964 Clear 15 1021 53 10000 2.24 280 16:19 11.10.2021
5965 Clear 15 1021 52 10000 0.89 290 15:42 11.10.2021
5966 Clear 15 1022 53 10000 2.24 336 14:53 11.10.2021
5967 Clear 14 1022 53 10000 3.13 11 13:55 11.10.2021
5968 Clear 14 1022 53 10000 1.34 295 13:35 11.10.2021
5969 Clear 12 1023 61 10000 1.34 331 11:18 11.10.2021
5970 Clear 10 1024 67 10000 1.34 32 09:45 11.10.2021
5971 Clouds 8 1024 72 10000 1.34 342 07:57 11.10.2021
5972 Clouds 9 1025 72 10000 0.89 342 01:44 11.10.2021
5973 Clouds 9 1025 70 10000 0.45 335 00:57 11.10.2021
5974 Clouds 9 1026 71 10000 0.45 321 00:36 11.10.2021
5975 Clouds 9 1026 72 10000 0.89 265 22:35 10.10.2021
5976 Clouds 9 1026 70 10000 0.89 292 21:49 10.10.2021
5977 Rain 9 1026 69 10000 0.89 344 20:57 10.10.2021
5978 Rain 9 1026 69 10000 0.89 340 20:38 10.10.2021
5979 Clouds 9 1026 69 10000 0.89 343 20:19 10.10.2021
5980 Clouds 10 1026 69 10000 0.45 331 19:40 10.10.2021
5981 Clear 10 1026 66 10000 0.45 323 18:55 10.10.2021
5982 Clouds 11 1026 64 10000 0.45 341 17:58 10.10.2021
5983 Clear 12 1027 58 10000 0.45 317 15:48 10.10.2021
5984 Clear 11 1027 58 10000 0.45 122 14:45 10.10.2021
5985 Clouds 11 1027 58 10000 0.45 53 13:40 10.10.2021
5986 Clouds 10 1028 59 10000 0.45 258 12:43 10.10.2021
5987 Clouds 9 1028 64 10000 0.45 36 11:30 10.10.2021
5988 Clouds 7 1028 72 10000 0.45 359 10:26 10.10.2021
5989 Clear 5 1029 79 10000 0.45 317 09:19 10.10.2021
5990 Clear 5 1029 80 10000 0.45 360 08:50 10.10.2021
5991 Clouds 4 1029 81 10000 0.45 360 04:50 10.10.2021
5992 Clear 5 1029 78 10000 0.89 360 02:20 10.10.2021
5993 Clear 5 1029 77 10000 0.45 314 00:47 10.10.2021
5994 Clear 6 1029 76 10000 0.89 333 23:45 09.10.2021
5995 Clouds 7 1029 73 10000 0.45 327 22:20 09.10.2021
5996 Clouds 7 1029 73 10000 0.45 335 21:30 09.10.2021
5997 Clouds 8 1029 69 10000 0.89 360 20:19 09.10.2021
5998 Clouds 9 1029 71 10000 0.45 325 19:41 09.10.2021
5999 Clouds 10 1029 67 10000 0.89 3 18:48 09.10.2021
6000 Clouds 11 1029 65 10000 0.89 332 18:26 09.10.2021
6001 Clouds 13 1029 52 10000 0.45 328 16:20 09.10.2021
6002 Clear 13 1029 50 10000 0.45 303 14:37 09.10.2021
6003 Clear 13 1029 50 10000 1.34 0 13:39 09.10.2021
6004 Clear 12 1030 52 10000 0.89 73 12:28 09.10.2021
6005 Clouds 10 1030 72 10000 1.34 321 10:45 09.10.2021
6006 Clouds 10 1030 73 10000 0.45 338 10:19 09.10.2021
6007 Clouds 9 1030 74 10000 0.45 338 10:19 09.10.2021
6008 Clouds 8 1031 79 10000 0.89 45 09:23 09.10.2021
6009 Clouds 7 1029 84 10000 1.54 360 08:20 09.10.2021
6010 Clouds 6 1028 87 10000 0.45 360 06:46 09.10.2021
6011 Clouds 7 1029 85 10000 0.89 348 04:55 09.10.2021
6012 Clouds 7 1029 84 10000 0.45 323 02:46 09.10.2021
6013 Clouds 8 1029 84 10000 0.45 332 00:30 09.10.2021
6014 Clouds 8 1029 83 10000 0.45 330 23:33 08.10.2021
6015 Clouds 9 1029 82 10000 0.45 311 22:46 08.10.2021
6016 Clouds 9 1029 81 10000 0.45 344 21:45 08.10.2021
6017 Clouds 11 1028 79 10000 0.89 311 20:30 08.10.2021
6018 Clouds 14 1027 73 10000 1.34 333 18:23 08.10.2021
6019 Clouds 15 1027 70 10000 0.89 326 17:18 08.10.2021
6020 Clouds 15 1027 70 10000 0.89 326 17:18 08.10.2021
6021 Clouds 16 1027 69 10000 3.58 345 16:43 08.10.2021
6022 Clouds 15 1027 69 10000 2.24 163 16:21 08.10.2021
6023 Clouds 15 1028 67 10000 1.34 325 13:47 08.10.2021
6024 Clouds 14 1028 74 10000 0.89 314 11:56 08.10.2021
6025 Clouds 12 1029 79 10000 0.45 325 10:47 08.10.2021
6026 Clouds 11 1029 82 10000 1.34 339 09:48 08.10.2021
6027 Clouds 10 1027 84 10000 0.45 324 05:56 08.10.2021
6028 Clouds 11 1026 89 10000 0.89 325 23:26 07.10.2021
6029 Clouds 11 1026 89 10000 0.45 357 22:55 07.10.2021
6030 Clouds 11 1026 89 10000 0.89 312 21:29 07.10.2021
6031 Clouds 11 1026 89 10000 0.89 291 20:42 07.10.2021
6032 Clouds 11 1026 89 10000 0.89 338 19:38 07.10.2021
6033 Clouds 11 1025 89 10000 0.89 327 18:54 07.10.2021
6034 Clouds 11 1025 90 10000 0.45 284 17:34 07.10.2021
6035 Clouds 11 1025 90 10000 0.89 301 16:42 07.10.2021
6036 Clouds 12 1025 91 10000 1.34 323 14:56 07.10.2021
6037 Clouds 12 1025 92 8000 0.45 341 13:44 07.10.2021
6038 Clouds 12 1025 91 8000 0.89 317 13:19 07.10.2021
6039 Rain 12 1025 91 5000 0.89 339 11:26 07.10.2021
6040 Mist 11 1025 91 5000 0.45 317 10:47 07.10.2021
6041 Rain 11 1024 90 5000 1.34 344 09:47 07.10.2021
6042 Rain 11 1024 90 5000 0.89 300 08:54 07.10.2021
6043 Rain 11 1024 90 8000 0.45 344 08:19 07.10.2021
6044 Rain 10 1023 91 8000 0.45 338 07:39 07.10.2021
6045 Rain 10 1023 91 10000 0.89 319 06:41 07.10.2021
6046 Clouds 10 1022 88 7000 1.79 332 00:55 07.10.2021
6047 Clouds 11 1022 86 4000 0.89 331 23:25 06.10.2021
6048 Drizzle 11 1022 86 7000 2.24 296 22:33 06.10.2021
6049 Clouds 11 1022 85 10000 1.34 275 21:39 06.10.2021
6050 Clouds 12 1021 84 10000 1.34 302 20:29 06.10.2021
6051 Clouds 12 1021 84 10000 0.45 333 19:23 06.10.2021
6052 Rain 12 1020 87 10000 0.89 326 17:41 06.10.2021
6053 Rain 12 1019 82 10000 0.45 311 15:44 06.10.2021
6054 Rain 13 1019 83 10000 0.45 298 14:53 06.10.2021
6055 Mist 12 1019 85 4600 2.24 226 13:25 06.10.2021
6056 Mist 13 1019 84 4200 1.34 317 12:47 06.10.2021
6057 Mist 13 1019 83 6000 1.34 253 12:26 06.10.2021
6058 Clouds 13 1018 81 9000 1.34 323 11:38 06.10.2021
6059 Clouds 14 1017 78 10000 0.45 318 09:40 06.10.2021
6060 Clouds 15 1017 78 10000 2.24 323 08:59 06.10.2021
6061 Clouds 15 1017 78 10000 1.34 342 08:31 06.10.2021
6062 Clouds 15 1015 74 10000 1.34 326 06:18 06.10.2021
6063 Clear 15 1014 75 10000 0.45 22 02:52 06.10.2021
6064 Clouds 17 1013 71 10000 1.34 258 00:24 06.10.2021
6065 Clouds 17 1013 70 10000 0.89 296 23:51 05.10.2021
6066 Clouds 18 1013 69 10000 0.45 247 23:30 05.10.2021
6067 Clear 19 1012 67 10000 1.34 162 22:35 05.10.2021
6068 Clouds 19 1012 65 10000 0.89 161 21:57 05.10.2021
6069 Clouds 19 1012 65 10000 0.89 161 21:57 05.10.2021
6070 Clear 20 1012 65 10000 1.34 189 21:20 05.10.2021
6071 Clear 21 1011 63 10000 2.24 192 20:31 05.10.2021
6072 Clear 21 1011 62 10000 3.13 158 19:51 05.10.2021
6073 Rain 21 1011 62 10000 3.58 229 19:25 05.10.2021
6074 Clear 22 1011 60 10000 1.79 139 18:21 05.10.2021
6075 Clear 24 1011 55 10000 4.47 88 15:36 05.10.2021
6076 Clouds 24 1012 56 10000 1.34 136 13:52 05.10.2021
6077 Clouds 24 1012 56 10000 2.68 316 13:23 05.10.2021
6078 Clear 23 1013 56 10000 3.13 125 12:35 05.10.2021
6079 Clouds 22 1013 60 10000 5.81 144 11:41 05.10.2021
6080 Clear 20 1013 68 10000 1.34 142 10:37 05.10.2021
6081 Clear 16 1013 83 10000 1.34 127 08:36 05.10.2021
6082 Clear 14 1016 86 10000 0.89 141 01:47 05.10.2021
6083 Clear 16 1017 82 10000 0.45 313 22:56 04.10.2021
6084 Clear 17 1017 80 10000 1.34 335 21:38 04.10.2021
6085 Clear 19 1017 71 10000 0.45 339 18:52 04.10.2021
6086 Clouds 22 1017 61 10000 0.45 341 17:32 04.10.2021
6087 Clear 22 1017 62 10000 0.45 303 15:50 04.10.2021
6088 Haze 22 1017 62 10000 0.45 278 15:24 04.10.2021
6089 Clouds 22 1017 64 10000 0.45 342 14:34 04.10.2021
6090 Clouds 21 1017 66 10000 1.34 59 13:47 04.10.2021
6091 Clouds 20 1018 70 10000 2.24 199 12:51 04.10.2021
6092 Clouds 19 1017 73 10000 1.79 60 11:34 04.10.2021
6093 Clouds 18 1018 78 10000 0.89 319 10:47 04.10.2021
6094 Clouds 16 1018 83 10000 0.45 112 09:45 04.10.2021
6095 Fog 12 1017 86 10000 0.89 112 08:30 04.10.2021
6096 Fog 12 1016 88 1200 1.79 319 06:51 04.10.2021
6097 Clear 15 1013 79 10000 0.89 165 23:41 03.10.2021
6098 Clear 16 1013 75 10000 0.89 320 22:30 03.10.2021
6099 Clear 17 1012 74 10000 1.34 145 21:35 03.10.2021
6100 Clear 18 1012 71 10000 1.34 291 20:50 03.10.2021
6101 Clouds 19 1012 68 10000 0.45 6 19:50 03.10.2021
6102 Clouds 21 1012 62 10000 2.68 212 18:30 03.10.2021
6103 Clouds 22 1012 59 10000 1.34 160 17:39 03.10.2021
6104 Clouds 22 1013 56 10000 2.68 160 15:30 03.10.2021
6105 Clouds 22 1013 57 10000 1.34 108 14:35 03.10.2021
6106 Clouds 21 1014 62 10000 0.89 108 13:40 03.10.2021
6107 Clear 20 1014 63 10000 1.34 77 13:20 03.10.2021
6108 Clouds 17 1014 73 10000 0.89 188 11:48 03.10.2021
6109 Clouds 14 1014 81 10000 0.89 122 10:33 03.10.2021
6110 Clouds 11 1015 87 10000 0.89 63 07:39 03.10.2021
6111 Clouds 14 1016 72 10000 3.13 129 00:26 03.10.2021
6112 Clouds 14 1018 69 10000 4.02 131 22:19 02.10.2021
6113 Clear 15 1018 65 10000 2.24 57 20:50 02.10.2021
6114 Clear 17 1018 59 10000 0.89 110 18:58 02.10.2021
6115 Clear 17 1019 58 10000 2.68 138 18:28 02.10.2021
6116 Clear 18 1019 56 10000 3.58 127 17:38 02.10.2021
6117 Clear 19 1019 55 10000 0.89 167 16:40 02.10.2021
6118 Clear 19 1019 55 10000 0.89 169 14:42 02.10.2021
6119 Clouds 17 1028 59 10000 0.89 351 15:38 30.09.2021
6120 Clouds 17 1029 59 10000 3.09 320 14:42 30.09.2021
6121 Clouds 16 1028 63 10000 1.34 319 12:22 30.09.2021
6122 Clouds 16 1028 68 10000 2.24 286 11:29 30.09.2021
6123 Clouds 15 1029 73 10000 0.89 309 10:26 30.09.2021
6124 Clouds 13 1028 77 10000 1.34 292 08:32 30.09.2021
6125 Clouds 13 1028 77 10000 0.89 299 07:57 30.09.2021
6126 Rain 14 1026 76 10000 0.89 223 05:25 30.09.2021
6127 Clear 14 1024 75 10000 1.34 30 02:33 30.09.2021
6128 Clear 14 1023 73 10000 0.45 323 00:37 30.09.2021
6129 Clear 15 1023 74 10000 0.89 252 22:59 29.09.2021
6130 Clouds 15 1023 72 10000 0.45 242 21:54 29.09.2021
6131 Clear 15 1022 71 10000 1.34 276 20:40 29.09.2021
6132 Clouds 16 1022 72 10000 0.89 266 20:20 29.09.2021
6133 Clouds 16 1022 72 10000 1.34 314 19:26 29.09.2021
6134 Clouds 17 1021 71 10000 2.24 210 18:18 29.09.2021
6135 Clouds 17 1021 73 10000 0.89 49 16:56 29.09.2021
6136 Clouds 18 1020 74 10000 1.34 332 16:28 29.09.2021
6137 Clouds 18 1020 74 10000 1.34 315 15:35 29.09.2021
6138 Clouds 17 1020 76 10000 2.24 275 14:38 29.09.2021
6139 Clouds 17 1020 77 10000 0.89 262 13:33 29.09.2021
6140 Clouds 16 1021 79 10000 2.24 300 12:39 29.09.2021
6141 Clouds 16 1020 80 8000 0.45 323 11:23 29.09.2021
6142 Clouds 14 1020 81 8000 0.45 307 10:31 29.09.2021
6143 Clouds 14 1020 80 6000 0.45 326 09:42 29.09.2021
6144 Clear 12 1019 83 10000 1.54 60 07:55 29.09.2021
6145 Clear 12 1019 86 10000 0.51 0 06:49 29.09.2021
6146 Clear 15 1020 84 10000 0.45 332 00:28 29.09.2021
6147 Clear 16 1021 84 10000 0.89 345 22:45 28.09.2021
6148 Clear 17 1020 83 10000 0.45 305 22:22 28.09.2021
6149 Clear 18 1020 81 10000 0.89 342 21:23 28.09.2021
6150 Clear 19 1020 77 10000 1.34 356 19:53 28.09.2021
6151 Clouds 19 1020 76 10000 0.89 330 19:32 28.09.2021
6152 Clouds 21 1020 72 10000 0.45 313 18:41 28.09.2021
6153 Clouds 23 1020 65 10000 0.89 4 16:58 28.09.2021
6154 Clouds 23 1020 63 10000 0.89 343 15:21 28.09.2021
6155 Clouds 23 1021 64 10000 1.79 343 13:28 28.09.2021
6156 Clouds 22 1021 68 10000 3.13 306 12:26 28.09.2021
6157 Clouds 21 1021 72 10000 0.89 352 11:52 28.09.2021
6158 Clouds 21 1021 73 10000 1.34 315 11:34 28.09.2021
6159 Clouds 18 1022 81 10000 0.89 335 10:30 28.09.2021
6160 Clouds 17 1021 84 10000 0.45 305 09:29 28.09.2021
6161 Clouds 16 1021 85 10000 1.79 315 08:44 28.09.2021
6162 Rain 16 1021 86 10000 0.45 333 08:25 28.09.2021
6163 Clouds 16 1020 88 10000 0.89 331 06:46 28.09.2021
6164 Clouds 16 1020 87 10000 0.45 308 04:39 28.09.2021
6165 Clouds 16 1019 89 10000 1.79 297 00:51 28.09.2021
6166 Clouds 16 1019 89 10000 0.45 317 23:54 27.09.2021
6167 Clouds 16 1019 88 9000 0.89 345 23:28 27.09.2021
6168 Clouds 17 1019 88 8000 0.45 328 22:44 27.09.2021
6169 Clouds 17 1019 89 10000 1.34 355 21:40 27.09.2021
6170 Clouds 17 1019 87 10000 0.45 341 20:38 27.09.2021
6171 Clouds 17 1018 86 10000 0.89 319 19:41 27.09.2021
6172 Clouds 17 1018 86 10000 0.89 329 19:22 27.09.2021
6173 Clouds 18 1018 84 10000 1.34 9 18:27 27.09.2021
6174 Clouds 18 1018 84 10000 0.89 299 17:22 27.09.2021
6175 Clouds 18 1018 84 10000 0.89 190 16:41 27.09.2021
6176 Clouds 18 1017 84 10000 0.45 1 15:42 27.09.2021
6177 Rain 17 1018 85 10000 0.45 342 14:32 27.09.2021
6178 Rain 17 1018 86 10000 0.89 280 12:59 27.09.2021
6179 Rain 17 1018 85 10000 0.89 235 11:20 27.09.2021
6180 Clouds 17 1017 85 9000 0.89 326 09:53 27.09.2021
6181 Clouds 16 1017 87 9000 0.89 0 08:38 27.09.2021
6182 Clouds 14 1017 89 7000 0.45 321 05:21 27.09.2021
6183 Clear 15 1017 86 6000 0.89 112 01:48 27.09.2021
6184 Clear 17 1018 78 10000 0.89 318 22:32 26.09.2021
6185 Clear 17 1018 80 10000 0.45 168 21:49 26.09.2021
6186 Clear 17 1018 77 10000 0.45 352 20:52 26.09.2021
6187 Clear 18 1018 74 10000 0.45 150 20:20 26.09.2021
6188 Clear 19 1018 72 10000 0.89 145 19:38 26.09.2021
6189 Clear 20 1018 69 10000 0.45 166 18:45 26.09.2021
6190 Clouds 22 1018 65 10000 1.34 167 17:54 26.09.2021
6191 Clouds 22 1018 62 10000 1.34 92 17:22 26.09.2021
6192 Clouds 23 1019 62 10000 2.24 134 16:37 26.09.2021
6193 Clouds 23 1019 62 10000 0.89 59 15:58 26.09.2021
6194 Clouds 23 1019 63 10000 0.89 210 14:54 26.09.2021
6195 Clouds 22 1020 63 10000 0.45 292 13:55 26.09.2021
6196 Clouds 22 1020 65 10000 0.45 130 12:59 26.09.2021
6197 Clouds 21 1021 68 10000 0.45 157 12:20 26.09.2021
6198 Clear 20 1021 71 10000 0.45 107 11:37 26.09.2021
6199 Clear 18 1021 77 10000 0.45 112 10:25 26.09.2021
6200 Mist 15 1021 83 8000 0.45 2 08:58 26.09.2021
6201 Fog 12 1020 87 6000 0.45 341 06:36 26.09.2021
6202 Clear 15 1019 77 10000 0.45 325 00:22 26.09.2021
6203 Clear 16 1019 74 10000 1.03 0 23:26 25.09.2021
6204 Clear 16 1019 73 10000 3.09 150 22:38 25.09.2021
6205 Clear 17 1018 73 10000 0.45 355 21:55 25.09.2021
6206 Clear 17 1019 71 10000 3.09 130 21:32 25.09.2021
6207 Clear 17 1018 70 10000 0.45 320 20:48 25.09.2021
6208 Clear 20 1018 62 10000 0.89 297 19:31 25.09.2021
6209 Clear 23 1018 54 10000 1.34 118 18:25 25.09.2021
6210 Clear 26 1019 40 10000 0.89 351 15:56 25.09.2021
6211 Clear 25 1019 46 10000 0.45 289 13:58 25.09.2021
6212 Clear 24 1019 49 10000 0.45 332 13:32 25.09.2021
6213 Clear 23 1019 56 10000 4.02 335 12:28 25.09.2021
6214 Clear 20 1020 65 10000 0.45 118 10:35 25.09.2021
6215 Clear 18 1020 72 10000 0.89 167 09:45 25.09.2021
6216 Clear 14 1020 81 10000 2.57 160 08:29 25.09.2021
6217 Clear 12 1019 84 10000 2.57 200 06:26 25.09.2021
6218 Clear 15 1019 77 10000 0.45 283 00:49 25.09.2021
6219 Clouds 17 1019 69 10000 0.89 317 21:54 24.09.2021
6220 Clouds 18 1018 67 10000 1.79 307 20:49 24.09.2021
6221 Clouds 18 1018 66 10000 0.89 323 19:58 24.09.2021
6222 Clouds 18 1017 65 10000 3.13 307 18:35 24.09.2021
6223 Clouds 19 1016 64 10000 1.34 324 17:56 24.09.2021
6224 Clouds 19 1016 64 10000 2.24 307 17:37 24.09.2021
6225 Clouds 19 1016 64 10000 2.24 307 17:18 24.09.2021
6226 Clouds 20 1016 62 10000 2.68 248 14:34 24.09.2021
6227 Clouds 19 1016 66 10000 4.92 321 13:19 24.09.2021
6228 Clouds 18 1016 66 10000 2.24 263 12:41 24.09.2021
6229 Clouds 18 1016 66 10000 2.24 263 12:23 24.09.2021
6230 Clouds 17 1016 66 10000 2.68 269 10:27 24.09.2021
6231 Clouds 16 1016 68 10000 2.24 269 08:55 24.09.2021
6232 Clear 16 1015 68 10000 2.24 298 07:39 24.09.2021
6233 Clear 16 1015 69 10000 1.34 332 06:50 24.09.2021
6234 Clear 16 1014 67 10000 3.13 270 05:21 24.09.2021
6235 Clouds 16 1015 69 10000 1.34 268 00:44 24.09.2021
6236 Clear 15 1015 74 10000 0.89 233 22:35 23.09.2021
6237 Clouds 15 1015 74 10000 0.45 1 21:56 23.09.2021
6238 Clear 16 1016 70 10000 0.45 270 20:36 23.09.2021
6239 Clear 16 1016 69 10000 0.45 309 20:18 23.09.2021
6240 Clear 20 1017 56 10000 0.45 337 18:22 23.09.2021
6241 Clouds 22 1019 49 10000 0.45 123 15:37 23.09.2021
6242 Clouds 22 1019 49 10000 2.24 262 15:18 23.09.2021
6243 Clouds 20 1021 52 10000 1.34 207 13:49 23.09.2021
6244 Clouds 20 1021 54 10000 0.45 278 13:23 23.09.2021
6245 Clouds 19 1022 54 10000 0.89 295 12:53 23.09.2021
6246 Clouds 19 1022 57 10000 0.45 310 12:23 23.09.2021
6247 Clouds 18 1022 60 10000 2.24 336 11:55 23.09.2021
6248 Clouds 16 1023 67 10000 0.45 318 10:27 23.09.2021
6249 Clouds 15 1023 71 10000 0.89 303 09:53 23.09.2021
6250 Clouds 12 1023 77 10000 0.89 345 08:38 23.09.2021
6251 Clouds 11 1024 85 10000 0.45 342 05:27 23.09.2021
6252 Clouds 11 1025 88 10000 0.45 0 23:45 22.09.2021
6253 Rain 12 1025 87 10000 0.45 321 22:44 22.09.2021
6254 Rain 12 1025 88 10000 0.45 258 21:57 22.09.2021
6255 Clouds 12 1025 87 10000 0.45 278 21:34 22.09.2021
6256 Rain 12 1025 87 9000 0.89 284 20:57 22.09.2021
6257 Clouds 12 1025 85 10000 0.45 329 19:34 22.09.2021
6258 Clouds 13 1025 83 7000 0.89 131 18:46 22.09.2021
6259 Clouds 13 1025 80 10000 1.34 343 18:22 22.09.2021
6260 Clouds 13 1024 81 10000 1.34 232 16:41 22.09.2021
6261 Clouds 13 1024 81 10000 0.89 326 15:38 22.09.2021
6262 Clouds 13 1025 77 10000 0.89 345 14:25 22.09.2021
6263 Clouds 13 1024 79 10000 1.79 304 12:20 22.09.2021
6264 Clouds 11 1025 87 10000 1.34 359 10:57 22.09.2021
6265 Rain 10 1025 86 10000 2.24 284 09:29 22.09.2021
6266 Rain 10 1024 83 10000 0.89 356 08:31 22.09.2021
6267 Rain 11 1024 78 10000 1.34 301 07:30 22.09.2021
6268 Clouds 12 1023 69 10000 2.24 244 06:19 22.09.2021
6269 Clouds 12 1025 66 10000 0.45 316 05:38 22.09.2021
6270 Clear 12 1025 67 10000 0.89 231 03:53 22.09.2021
6271 Clear 12 1026 67 10000 0.89 292 02:43 22.09.2021
6272 Clear 13 1027 65 10000 0.89 330 23:30 21.09.2021
6273 Clear 13 1028 61 10000 1.34 337 21:47 21.09.2021
6274 Clouds 13 1028 59 10000 0.45 338 20:27 21.09.2021
6275 Clear 14 1027 58 10000 0.45 2 19:24 21.09.2021
6276 Clouds 15 1027 56 10000 0.45 313 17:59 21.09.2021
6277 Clouds 15 1027 53 10000 1.34 335 16:41 21.09.2021
6278 Clouds 16 1027 52 10000 3.13 338 15:56 21.09.2021
6279 Clouds 16 1027 49 10000 0.89 7 14:58 21.09.2021
6280 Clouds 16 1027 50 10000 0.89 321 13:58 21.09.2021
6281 Clouds 15 1028 56 10000 3.13 331 13:39 21.09.2021
6282 Clouds 15 1028 58 10000 0.45 333 12:44 21.09.2021
6283 Clear 12 1027 71 10000 3.09 360 10:39 21.09.2021
6284 Clear 11 1026 82 10000 2.57 330 08:45 21.09.2021
6285 Clear 10 1025 87 10000 2.06 330 07:37 21.09.2021
6286 Clouds 11 1023 76 10000 1.54 10 01:54 21.09.2021
6287 Clouds 11 1023 76 10000 1.54 10 01:54 21.09.2021
6288 Clouds 12 1023 62 10000 2.57 320 22:54 20.09.2021
6289 Clouds 13 1022 58 10000 3.09 330 21:43 20.09.2021
6290 Clouds 13 1022 58 10000 3.09 330 21:24 20.09.2021
6291 Clouds 13 1021 65 10000 1.34 343 19:47 20.09.2021
6292 Clouds 14 1020 61 10000 0.89 323 17:54 20.09.2021
6293 Clouds 15 1020 60 10000 0.89 9 17:19 20.09.2021
6294 Clouds 15 1020 59 10000 0.45 0 16:23 20.09.2021
6295 Clouds 16 1020 58 10000 1.79 309 15:36 20.09.2021
6296 Clouds 15 1019 56 10000 1.34 348 14:38 20.09.2021
6297 Clouds 15 1019 60 10000 1.34 25 12:44 20.09.2021
6298 Clouds 14 1019 61 10000 0.89 272 12:24 20.09.2021
6299 Clouds 13 1019 69 10000 2.68 359 10:52 20.09.2021
6300 Clouds 12 1019 72 10000 0.89 326 09:51 20.09.2021
6301 Clouds 12 1019 74 10000 1.34 322 09:31 20.09.2021
6302 Clouds 11 1018 74 10000 1.34 329 08:47 20.09.2021
6303 Clouds 10 1017 77 10000 2.24 340 06:22 20.09.2021
6304 Clouds 10 1017 77 10000 2.24 340 06:22 20.09.2021
6305 Clouds 10 1017 77 10000 2.24 340 06:22 20.09.2021
6306 Clouds 12 1016 70 10000 0.89 330 22:58 19.09.2021
6307 Clouds 13 1016 68 10000 0.45 302 21:50 19.09.2021
6308 Clouds 13 1016 67 10000 0.89 17 21:19 19.09.2021
6309 Clouds 14 1015 64 10000 1.79 338 19:59 19.09.2021
6310 Clouds 14 1015 64 10000 2.68 356 18:54 19.09.2021
6311 Clouds 15 1014 64 10000 0.89 327 17:49 19.09.2021
6312 Clouds 16 1015 62 10000 2.24 330 16:51 19.09.2021
6313 Clouds 16 1015 62 10000 4.02 344 15:32 19.09.2021
6314 Clouds 17 1015 60 10000 3.13 326 14:49 19.09.2021
6315 Clouds 17 1015 62 10000 2.68 333 13:58 19.09.2021
6316 Clouds 17 1016 66 10000 1.34 11 12:56 19.09.2021
6317 Clouds 16 1016 66 10000 1.34 298 12:18 19.09.2021
6318 Clouds 16 1016 71 10000 2.24 323 11:23 19.09.2021
6319 Clouds 15 1016 80 10000 0.89 335 09:52 19.09.2021
6320 Clouds 14 1016 82 10000 1.34 337 09:26 19.09.2021
6321 Clouds 13 1015 85 10000 0.45 310 06:49 19.09.2021
6322 Clear 14 1015 85 10000 0.89 254 01:36 19.09.2021
6323 Clear 14 1016 85 10000 0.45 328 23:25 18.09.2021
6324 Clear 15 1016 81 10000 0.45 298 21:56 18.09.2021
6325 Clouds 14 1016 85 10000 0.89 259 20:47 18.09.2021
6326 Clouds 14 1015 84 10000 0.45 312 19:58 18.09.2021
6327 Clouds 14 1015 84 10000 0.45 331 19:36 18.09.2021
6328 Clouds 14 1015 85 10000 0.45 334 19:18 18.09.2021
6329 Clouds 16 1016 80 10000 0.45 346 18:30 18.09.2021
6330 Clouds 16 1013 81 10000 3.09 270 16:35 18.09.2021
6331 Rain 16 1014 82 8000 0.45 135 14:32 18.09.2021
6332 Rain 19 1015 64 10000 3.58 323 13:45 18.09.2021
6333 Clouds 19 1014 64 10000 3.58 323 13:21 18.09.2021
6334 Clouds 17 1015 68 10000 2.24 331 12:18 18.09.2021
6335 Clouds 17 1015 68 10000 0.45 325 11:30 18.09.2021
6336 Clouds 17 1015 71 10000 1.34 322 10:31 18.09.2021
6337 Clouds 15 1015 77 10000 0.89 321 09:24 18.09.2021
6338 Clouds 15 1015 78 10000 1.34 251 08:28 18.09.2021
6339 Clouds 15 1015 75 10000 0.89 347 00:53 18.09.2021
6340 Clouds 15 1015 76 10000 0.89 331 23:56 17.09.2021
6341 Clouds 15 1015 74 10000 0.45 354 22:54 17.09.2021
6342 Clear 16 1015 71 10000 0.45 325 22:25 17.09.2021
6343 Clouds 16 1015 71 10000 0.89 320 21:45 17.09.2021
6344 Clouds 17 1014 67 10000 0.89 325 19:52 17.09.2021
6345 Clouds 18 1014 64 10000 1.34 323 18:42 17.09.2021
6346 Clouds 19 1014 61 10000 0.89 338 16:47 17.09.2021
6347 Clouds 19 1014 60 10000 1.79 321 15:25 17.09.2021
6348 Clouds 18 1014 68 10000 0.45 240 11:53 17.09.2021
6349 Clouds 17 1014 78 10000 2.68 249 10:23 17.09.2021
6350 Clouds 15 1014 88 10000 0.45 10 07:49 17.09.2021
6351 Rain 15 1013 88 10000 0.45 331 06:27 17.09.2021
6352 Rain 18 1013 89 10000 0.89 267 00:33 17.09.2021
6353 Rain 20 1013 83 10000 1.34 190 22:42 16.09.2021
6354 Rain 20 1013 82 10000 1.34 190 22:24 16.09.2021
6355 Rain 21 1012 73 10000 1.34 244 21:36 16.09.2021
6356 Clouds 22 1013 70 10000 0.45 301 20:31 16.09.2021
6357 Clouds 23 1011 70 10000 1.34 215 18:52 16.09.2021
6358 Clouds 24 1013 67 10000 0.89 196 18:19 16.09.2021
6359 Clouds 26 1013 54 10000 0.89 207 17:19 16.09.2021
6360 Clouds 26 1014 56 10000 1.34 227 14:51 16.09.2021
6361 Clouds 26 1015 58 10000 0.45 305 13:40 16.09.2021
6362 Clouds 25 1015 60 10000 1.34 328 12:46 16.09.2021
6363 Clouds 24 1015 63 10000 0.89 190 11:50 16.09.2021
6364 Clear 23 1015 67 10000 0.45 207 10:56 16.09.2021
6365 Clear 23 1014 69 10000 2.68 270 10:23 16.09.2021
6366 Clear 22 1015 72 10000 1.34 312 09:31 16.09.2021
6367 Clear 20 1015 76 10000 0.45 328 07:59 16.09.2021
6368 Clear 20 1014 79 10000 0.89 300 06:58 16.09.2021
6369 Clear 20 1014 79 10000 0.45 255 06:38 16.09.2021
6370 Clear 21 1014 76 10000 0.89 339 03:54 16.09.2021
6371 Rain 21 1013 71 10000 0.45 331 00:58 16.09.2021
6372 Clear 21 1013 72 10000 0.89 323 23:30 15.09.2021
6373 Clear 21 1013 69 10000 0.45 299 22:39 15.09.2021
6374 Clear 22 1013 67 10000 0.45 345 21:31 15.09.2021
6375 Clear 22 1013 65 10000 0.45 330 20:49 15.09.2021
6376 Clear 24 1013 59 10000 0.45 335 19:33 15.09.2021
6377 Clear 25 1013 57 10000 1.54 60 18:53 15.09.2021
6378 Clear 26 1014 53 10000 0.45 110 17:42 15.09.2021
6379 Clear 27 1014 51 10000 1.34 123 16:43 15.09.2021
6380 Clear 27 1014 51 10000 0.89 150 16:43 15.09.2021
6381 Clear 26 1015 51 10000 0.45 3 15:22 15.09.2021
6382 Clear 26 1015 49 10000 0.89 9 14:42 15.09.2021
6383 Clear 25 1016 53 10000 0.45 5 13:47 15.09.2021
6384 Clear 25 1015 56 10000 0.45 330 13:28 15.09.2021
6385 Clear 23 1016 60 10000 0.45 193 12:33 15.09.2021
6386 Clear 23 1016 61 10000 0.89 20 11:51 15.09.2021
6387 Clear 23 1016 61 10000 0.89 20 11:51 15.09.2021
6388 Clear 21 1017 67 10000 0.45 101 10:58 15.09.2021
6389 Clear 21 1017 68 10000 0.45 24 10:35 15.09.2021
6390 Clear 19 1017 77 10000 0.89 329 08:51 15.09.2021
6391 Clear 15 1017 85 6000 0.51 0 07:26 15.09.2021
6392 Clear 16 1017 83 10000 0.45 323 02:21 15.09.2021
6393 Clear 19 1017 75 10000 0.45 349 22:26 14.09.2021
6394 Clear 21 1017 70 10000 0.45 355 21:26 14.09.2021
6395 Clouds 21 1017 67 10000 0.45 300 20:21 14.09.2021
6396 Clouds 23 1017 65 10000 0.45 338 19:40 14.09.2021
6397 Clear 26 1017 51 10000 0.45 333 17:33 14.09.2021
6398 Clear 27 1017 49 10000 0.89 346 16:43 14.09.2021
6399 Clear 26 1017 53 10000 0.45 286 15:24 14.09.2021
6400 Clear 25 1017 54 10000 0.45 327 14:19 14.09.2021
6401 Clear 22 1018 63 10000 0.45 20 11:47 14.09.2021
6402 Clear 20 1019 69 10000 0.45 123 10:44 14.09.2021
6403 Clear 19 1019 73 10000 0.45 308 09:49 14.09.2021
6404 Clear 16 1019 83 10000 0.51 0 07:53 14.09.2021
6405 Clear 16 1018 83 10000 1.03 190 02:55 14.09.2021
6406 Clear 17 1018 77 10000 0.45 332 23:29 13.09.2021
6407 Clear 18 1018 73 10000 2.06 150 22:28 13.09.2021
6408 Clear 19 1018 71 10000 0.45 329 21:56 13.09.2021
6409 Clear 19 1018 71 10000 0.45 329 21:56 13.09.2021
6410 Clear 19 1017 70 10000 0.45 329 21:32 13.09.2021
6411 Clear 22 1017 61 10000 0.45 0 19:38 13.09.2021
6412 Clear 24 1018 56 10000 0.45 332 18:45 13.09.2021
6413 Clear 26 1017 49 10000 1.34 332 17:28 13.09.2021
6414 Clouds 26 1017 49 10000 0.89 336 16:49 13.09.2021
6415 Clouds 26 1018 51 10000 0.89 358 14:45 13.09.2021
6416 Clouds 24 1018 59 10000 0.45 36 11:44 13.09.2021
6417 Clouds 23 1018 65 10000 0.89 326 10:41 13.09.2021
6418 Clouds 18 1017 80 10000 0.45 229 08:23 13.09.2021
6419 Clear 17 1017 82 10000 0.89 248 00:34 13.09.2021
6420 Clear 18 1017 81 10000 0.45 265 22:51 12.09.2021
6421 Clear 18 1017 79 10000 1.34 239 22:22 12.09.2021
6422 Clouds 20 1016 73 10000 0.45 308 20:53 12.09.2021
6423 Clouds 21 1016 70 10000 0.89 244 20:19 12.09.2021
6424 Clouds 22 1016 66 10000 0.45 339 19:30 12.09.2021
6425 Clouds 23 1016 62 10000 0.45 330 18:55 12.09.2021
6426 Clouds 25 1016 54 10000 0.89 330 17:18 12.09.2021
6427 Clouds 26 1016 52 10000 1.79 355 15:54 12.09.2021
6428 Clouds 25 1017 56 10000 0.89 296 14:39 12.09.2021
6429 Clouds 24 1019 59 10000 0.45 225 12:39 12.09.2021
6430 Clouds 22 1017 68 10000 1.79 329 10:30 12.09.2021
6431 Clouds 19 1019 76 10000 0.89 351 08:39 12.09.2021
6432 Fog 15 1019 86 10000 0.89 316 07:26 12.09.2021
6433 Clear 18 1018 74 10000 0.89 252 00:47 12.09.2021
6434 Clear 19 1018 77 10000 0.45 310 22:39 11.09.2021
6435 Clear 19 1018 74 10000 0.45 0 21:39 11.09.2021
6436 Clear 21 1017 68 10000 0.89 317 19:39 11.09.2021
6437 Clouds 24 1017 55 10000 0.45 330 17:57 11.09.2021
6438 Clouds 25 1017 51 10000 0.45 301 17:27 11.09.2021
6439 Clouds 26 1018 45 10000 0.89 329 15:35 11.09.2021
6440 Clouds 24 1018 56 10000 2.24 302 13:22 11.09.2021
6441 Clouds 23 1018 59 10000 0.45 230 11:42 11.09.2021
6442 Clear 20 1019 60 10000 0.45 349 10:27 11.09.2021
6443 Clear 17 1019 65 10000 0.45 5 08:51 11.09.2021
6444 Clear 14 1020 70 10000 0.45 247 07:43 11.09.2021
6445 Clear 13 1019 66 10000 1.54 290 04:23 11.09.2021
6446 Clear 17 1018 52 10000 2.57 160 22:37 10.09.2021
6447 Clear 17 1017 53 10000 0.45 355 21:57 10.09.2021
6448 Clear 18 1017 52 10000 0.89 355 21:38 10.09.2021
6449 Clear 23 1017 35 10000 1.34 138 19:31 10.09.2021
6450 Clear 26 1017 30 10000 1.34 195 17:56 10.09.2021
6451 Clear 26 1017 30 10000 1.34 205 16:28 10.09.2021
6452 Clear 25 1018 43 10000 1.34 120 13:29 10.09.2021
6453 Clear 20 1019 55 10000 0.89 336 10:52 10.09.2021
6454 Clear 14 1018 72 10000 0.89 342 07:52 10.09.2021
6455 Clear 12 1018 76 10000 0.89 150 07:21 10.09.2021
6456 Clear 16 1017 58 10000 0.89 121 00:24 10.09.2021
6457 Clear 19 1017 49 10000 1.34 180 21:54 09.09.2021
6458 Clear 20 1017 45 10000 1.34 229 20:48 09.09.2021
6459 Clear 20 1017 43 10000 2.24 75 20:27 09.09.2021
6460 Clear 24 1017 35 10000 2.24 193 18:46 09.09.2021
6461 Clear 25 1017 30 10000 3.58 92 17:51 09.09.2021
6462 Clear 26 1017 29 10000 3.58 57 16:39 09.09.2021
6463 Clear 26 1018 30 10000 4.02 181 15:25 09.09.2021
6464 Clear 24 1018 37 10000 2.24 149 12:33 09.09.2021
6465 Clear 23 1019 43 10000 2.68 123 11:22 09.09.2021
6466 Clear 19 1019 57 10000 1.34 135 09:36 09.09.2021
6467 Clear 15 1019 66 10000 0.45 296 07:45 09.09.2021
6468 Clear 14 1019 67 10000 1.34 123 05:51 09.09.2021
6469 Clear 15 1021 61 10000 0.89 165 00:33 09.09.2021
6470 Clear 18 1021 49 10000 1.34 139 21:49 08.09.2021
6471 Clear 19 1020 46 10000 0.45 99 20:54 08.09.2021
6472 Clear 21 1020 42 10000 1.34 149 19:46 08.09.2021
6473 Clear 23 1020 36 10000 2.24 262 18:47 08.09.2021
6474 Clear 24 1020 35 10000 3.58 150 18:25 08.09.2021
6475 Clear 24 1021 33 10000 3.13 191 17:40 08.09.2021
6476 Clear 25 1022 35 10000 0.89 267 15:35 08.09.2021
6477 Clouds 24 1022 43 10000 4.47 61 13:45 08.09.2021
6478 Clouds 23 1023 46 10000 2.24 136 12:41 08.09.2021
6479 Clear 23 1023 50 10000 3.13 207 12:23 08.09.2021
6480 Clear 21 1027 53 10000 4.63 140 11:26 08.09.2021
6481 Clear 19 1025 59 10000 0.89 71 10:31 08.09.2021
6482 Clear 19 1022 65 10000 1.79 100 09:56 08.09.2021
6483 Clouds 15 1025 71 10000 0.45 38 07:46 08.09.2021
6484 Clear 12 1024 82 10000 0.89 345 07:19 08.09.2021
6485 Clear 15 1025 75 10000 2.06 140 23:32 07.09.2021
6486 Clear 16 1025 73 10000 0.89 128 22:19 07.09.2021
6487 Clear 17 1024 69 10000 0.45 316 20:45 07.09.2021
6488 Clear 20 1024 59 10000 2.06 70 19:26 07.09.2021
6489 Clear 21 1024 57 10000 0.45 350 18:37 07.09.2021
6490 Clear 23 1025 52 10000 0.45 323 17:35 07.09.2021
6491 Clear 22 1024 53 10000 2.06 110 15:57 07.09.2021
6492 Clear 21 1024 57 10000 0.89 112 14:54 07.09.2021
6493 Clear 21 1025 56 10000 0.45 36 13:52 07.09.2021
6494 Clear 20 1026 59 10000 0.45 4 12:20 07.09.2021
6495 Clear 18 1026 64 10000 1.34 40 10:59 07.09.2021
6496 Clear 17 1025 69 10000 0.89 112 10:18 07.09.2021
6497 Clear 14 1026 76 10000 2.57 200 07:48 07.09.2021
6498 Clear 12 1026 79 10000 0.45 337 06:31 07.09.2021
6499 Clear 13 1026 79 10000 2.57 160 02:39 07.09.2021
6500 Clear 13 1026 80 10000 2.06 170 02:20 07.09.2021
6501 Clear 14 1026 73 10000 2.06 190 23:52 06.09.2021
6502 Clear 14 1026 70 10000 0.45 202 23:31 06.09.2021
6503 Clear 15 1025 70 10000 0.45 324 22:51 06.09.2021
6504 Clear 15 1025 69 10000 0.45 325 22:24 06.09.2021
6505 Clear 18 1025 60 10000 0.89 336 20:36 06.09.2021
6506 Clear 21 1024 49 10000 0.89 106 19:20 06.09.2021
6507 Clouds 22 1024 47 10000 0.89 144 18:36 06.09.2021
6508 Clouds 23 1024 45 10000 0.45 315 17:54 06.09.2021
6509 Clouds 23 1025 45 10000 0.45 320 16:23 06.09.2021
6510 Clouds 23 1025 45 10000 1.34 103 15:25 06.09.2021
6511 Clouds 22 1026 50 10000 0.45 95 13:45 06.09.2021
6512 Clouds 20 1026 55 10000 0.45 280 12:45 06.09.2021
6513 Clear 18 1026 60 10000 0.45 343 10:37 06.09.2021
6514 Clear 12 1025 79 10000 0.45 343 07:48 06.09.2021
6515 Clear 12 1025 77 10000 0.45 330 04:36 06.09.2021
6516 Clear 16 1024 62 10000 0.45 328 23:23 05.09.2021
6517 Clear 17 1024 59 10000 0.89 351 22:33 05.09.2021
6518 Clear 17 1023 56 10000 1.79 351 21:56 05.09.2021
6519 Clear 18 1023 55 10000 0.45 338 21:21 05.09.2021
6520 Clear 21 1022 56 10000 1.34 15 19:47 05.09.2021
6521 Clouds 24 1022 46 10000 0.45 0 17:53 05.09.2021
6522 Clouds 24 1022 46 10000 2.24 8 16:53 05.09.2021
6523 Clouds 24 1022 49 10000 0.89 313 15:21 05.09.2021
6524 Clouds 22 1022 57 10000 0.45 189 12:45 05.09.2021
6525 Clear 21 1022 60 10000 0.45 327 11:44 05.09.2021
6526 Clear 20 1022 63 10000 0.45 103 10:42 05.09.2021
6527 Clear 18 1022 69 10000 0.89 5 09:42 05.09.2021
6528 Clear 16 1022 74 10000 0.51 0 08:35 05.09.2021
6529 Clear 13 1021 81 10000 1.54 330 06:33 05.09.2021
6530 Clear 14 1019 75 10000 0.45 317 00:41 05.09.2021
6531 Clear 15 1019 74 10000 0.45 11 23:59 04.09.2021
6532 Clear 15 1019 70 10000 2.06 160 23:25 04.09.2021
6533 Clear 16 1018 70 10000 0.45 23 22:35 04.09.2021
6534 Clear 17 1018 65 10000 0.45 23 21:20 04.09.2021
6535 Clear 21 1017 53 10000 0.45 278 19:40 04.09.2021
6536 Clear 25 1018 41 10000 0.45 307 17:25 04.09.2021
6537 Clear 25 1017 42 10000 2.24 354 15:41 04.09.2021
6538 Clouds 22 1018 53 10000 0.89 121 11:54 04.09.2021
6539 Clear 20 1019 58 10000 1.34 332 10:55 04.09.2021
6540 Clear 15 1019 75 10000 1.54 160 08:18 04.09.2021
6541 Clear 14 1019 72 10000 0.45 310 00:50 04.09.2021
6542 Clear 15 1019 72 10000 0.89 232 00:19 04.09.2021
6543 Clear 15 1019 67 10000 0.89 216 23:22 03.09.2021
6544 Clear 17 1019 64 10000 0.45 313 21:43 03.09.2021
6545 Clear 17 1019 65 10000 0.45 317 21:23 03.09.2021
6546 Clear 18 1019 60 10000 0.89 320 20:30 03.09.2021
6547 Clear 20 1019 55 10000 0.45 328 19:44 03.09.2021
6548 Clear 22 1019 46 10000 0.45 87 18:33 03.09.2021
6549 Clear 23 1019 42 10000 0.89 30 17:32 03.09.2021
6550 Clouds 24 1020 43 10000 0.89 359 15:46 03.09.2021
6551 Clouds 23 1021 45 10000 0.45 314 14:47 03.09.2021
6552 Clouds 20 1022 62 10000 0.45 348 11:21 03.09.2021
6553 Clear 18 1023 69 10000 0.45 93 10:18 03.09.2021
6554 Clear 14 1025 78 10000 0.45 0 08:22 03.09.2021
6555 Clear 11 1024 84 10000 2.06 170 06:51 03.09.2021
6556 Clear 14 1025 78 10000 1.54 310 23:59 02.09.2021
6557 Clear 15 1025 73 10000 0.45 0 22:22 02.09.2021
6558 Clear 17 1025 67 10000 0.45 247 20:59 02.09.2021
6559 Clear 21 1025 54 10000 0.89 1 18:52 02.09.2021
6560 Clear 22 1025 50 10000 1.79 323 16:57 02.09.2021
6561 Clouds 22 1025 49 10000 1.34 342 15:32 02.09.2021
6562 Clouds 21 1026 52 10000 3.13 345 13:42 02.09.2021
6563 Clouds 20 1026 63 10000 1.34 1 11:46 02.09.2021
6564 Clouds 19 1026 64 10000 1.79 294 11:24 02.09.2021
6565 Clouds 17 1026 72 10000 2.24 334 09:21 02.09.2021
6566 Clouds 14 1026 78 10000 0.45 1 07:40 02.09.2021
6567 Clouds 14 1025 80 10000 1.34 265 06:40 02.09.2021
6568 Clear 15 1025 75 10000 0.89 350 02:38 02.09.2021
6569 Clear 15 1024 74 10000 1.34 317 01:50 02.09.2021
6570 Clear 15 1025 72 10000 1.34 6 00:24 02.09.2021
6571 Clear 16 1025 69 10000 1.34 313 23:27 01.09.2021
6572 Clear 16 1024 68 10000 1.34 263 22:30 01.09.2021
6573 Clear 17 1024 65 10000 1.79 336 21:33 01.09.2021
6574 Clear 19 1023 60 10000 0.89 334 19:38 01.09.2021
6575 Clouds 21 1023 53 10000 3.13 347 17:57 01.09.2021
6576 Clouds 21 1023 52 10000 2.68 36 17:18 01.09.2021
6577 Clouds 21 1022 52 10000 3.13 338 16:46 01.09.2021
6578 Clouds 21 1023 55 10000 1.34 225 15:18 01.09.2021
6579 Clouds 18 1024 64 10000 2.24 41 11:48 01.09.2021
6580 Clouds 17 1023 65 10000 1.34 359 10:42 01.09.2021
6581 Clouds 15 1022 72 10000 2.68 275 08:46 01.09.2021
6582 Clouds 14 1022 74 10000 2.24 263 07:50 01.09.2021
6583 Rain 16 1019 75 10000 2.68 304 23:41 31.08.2021
6584 Clouds 16 1019 75 10000 3.13 249 22:24 31.08.2021
6585 Clouds 16 1018 74 10000 1.34 263 20:34 31.08.2021
6586 Clouds 17 1018 73 10000 2.24 195 19:43 31.08.2021
6587 Clouds 18 1017 70 10000 2.24 355 17:53 31.08.2021
6588 Clouds 18 1017 70 10000 2.24 355 17:53 31.08.2021
6589 Clouds 19 1017 68 10000 2.24 4 17:27 31.08.2021
6590 Clouds 19 1016 70 10000 5.36 257 16:41 31.08.2021
6591 Clouds 18 1016 73 10000 6.26 274 15:56 31.08.2021
6592 Rain 15 1017 86 10000 0.89 310 12:54 31.08.2021
6593 Rain 17 1016 79 10000 1.34 284 11:20 31.08.2021
6594 Rain 17 1016 73 10000 2.24 219 10:44 31.08.2021
6595 Clouds 17 1016 71 10000 1.34 277 09:42 31.08.2021
6596 Clear 16 1015 76 10000 0.89 292 08:23 31.08.2021
6597 Clear 15 1015 79 10000 0.89 245 05:57 31.08.2021
6598 Clear 15 1015 75 10000 0.89 306 23:37 30.08.2021
6599 Clear 15 1015 74 10000 2.24 255 22:54 30.08.2021
6600 Clear 15 1015 72 10000 1.34 120 21:41 30.08.2021
6601 Clouds 16 1015 68 10000 2.68 317 20:42 30.08.2021
6602 Clouds 17 1014 67 10000 0.89 292 19:54 30.08.2021
6603 Clouds 18 1014 67 10000 1.34 310 19:24 30.08.2021
6604 Clouds 19 1014 64 10000 0.45 290 18:18 30.08.2021
6605 Clear 21 1013 55 10000 0.89 303 16:32 30.08.2021
6606 Clouds 21 1013 51 10000 3.13 355 15:50 30.08.2021
6607 Clouds 21 1013 53 10000 1.34 346 14:24 30.08.2021
6608 Clouds 20 1014 57 10000 3.13 13 13:21 30.08.2021
6609 Clouds 19 1014 62 10000 0.45 300 11:48 30.08.2021
6610 Clear 14 1014 76 10000 1.34 330 08:22 30.08.2021
6611 Clouds 14 1014 77 10000 0.89 293 21:58 29.08.2021
6612 Clouds 14 1014 76 10000 0.89 325 21:19 29.08.2021
6613 Clouds 15 1013 73 10000 0.45 330 19:31 29.08.2021
6614 Clouds 16 1013 67 10000 1.34 225 18:28 29.08.2021
6615 Clouds 18 1014 69 10000 0.89 314 15:58 29.08.2021
6616 Rain 18 1013 64 10000 10.73 331 14:29 29.08.2021
6617 Clouds 18 1012 62 10000 1.34 228 13:55 29.08.2021
6618 Clouds 18 1014 66 10000 0.89 259 12:58 29.08.2021
6619 Clouds 17 1014 68 10000 0.89 6 12:18 29.08.2021
6620 Clouds 17 1014 69 10000 2.68 189 12:18 29.08.2021
6621 Clouds 17 1014 70 10000 0.89 32 11:40 29.08.2021
6622 Clouds 16 1015 72 10000 1.34 277 10:48 29.08.2021
6623 Clouds 16 1015 73 10000 1.34 317 10:29 29.08.2021
6624 Clear 15 1014 75 10000 0.89 280 09:35 29.08.2021
6625 Clear 13 1015 80 10000 0.89 333 04:21 29.08.2021
6626 Clouds 14 1016 73 10000 1.34 267 22:57 28.08.2021
6627 Clouds 15 1015 71 10000 0.45 288 20:33 28.08.2021
6628 Clouds 16 1015 70 10000 0.45 267 19:30 28.08.2021
6629 Clouds 17 1015 69 10000 0.45 312 18:26 28.08.2021
6630 Clouds 18 1015 66 10000 0.89 326 17:46 28.08.2021
6631 Clouds 19 1015 62 10000 0.45 40 16:44 28.08.2021
6632 Clouds 19 1015 63 10000 0.89 312 15:20 28.08.2021
6633 Clouds 19 1015 62 10000 0.45 285 13:58 28.08.2021
6634 Clouds 18 1016 60 10000 0.89 291 13:39 28.08.2021
6635 Clouds 17 1016 66 10000 1.34 339 12:30 28.08.2021
6636 Clouds 17 1015 70 10000 2.68 200 11:34 28.08.2021
6637 Clear 16 1016 71 10000 2.24 189 09:48 28.08.2021
6638 Clear 13 1016 79 10000 1.34 310 07:56 28.08.2021
6639 Clear 13 1015 75 10000 0.89 318 23:49 27.08.2021
6640 Clear 14 1015 71 10000 0.89 344 21:29 27.08.2021
6641 Clouds 15 1015 71 10000 1.34 245 20:52 27.08.2021
6642 Clouds 16 1014 65 10000 2.68 223 19:34 27.08.2021
6643 Clouds 17 1014 63 10000 0.89 209 18:39 27.08.2021
6644 Clouds 18 1014 61 10000 0.89 283 17:54 27.08.2021
6645 Clouds 18 1013 62 10000 1.79 299 16:41 27.08.2021
6646 Clouds 18 1013 60 10000 1.34 254 14:46 27.08.2021
6647 Clouds 17 1014 65 10000 1.34 306 13:30 27.08.2021
6648 Clouds 16